GFSSGP_prec_precacc_024.txt.gz
Total_Precipitation_Accumulation
0.00 0.00 0.00 0.00 0.00 0.00 0.00 0.00 0.00 0.00 0.00 0.00 0.00 0.00 0.00 0.00 0.01 0.13 0.03 0.00 0.00 0.00 0.00 0.00 0.00 0.00 0.00 0.02 0.02 0.02 0.03 0.02 0.02 0.02 0.02 0.06 0.05 0.01 0.04 0.16 0.16 0.18 0.10 0.05 0.07 0.14 0.28 0.28 0.21
0.00 0.00 0.00 0.00 0.00 0.00 0.00 0.00 0.00 0.00 0.00 0.00 0.00 0.00 0.00 0.01 0.00 0.01 0.00 0.00 0.00 0.00 0.00 0.00 0.00 0.00 0.00 0.00 0.00 0.00 0.00 0.01 0.00 0.00 0.00 0.01 0.03 0.03 0.01 0.07 0.10 0.07 0.05 0.03 0.05 0.11 0.90 0.70 0.61
0.00 0.00 0.00 0.00 0.00 0.00 0.00 0.00 0.00 0.00 0.00 0.00 0.00 0.00 0.04 0.04 0.01 0.00 0.00 0.00 0.00 0.00 0.00 0.00 0.00 0.00 0.00 0.00 0.00 0.00 0.00 0.00 0.01 0.01 0.02 0.04 0.04 0.04 0.04 0.12 0.05 0.10 0.10 0.05 0.05 0.02 0.65 1.02 0.74
0.00 0.00 0.00 0.00 0.00 0.00 0.00 0.00 0.00 0.00 0.00 0.00 0.00 0.02 0.06 0.03 0.00 0.00 0.00 0.00 0.00 0.00 0.00 0.00 0.00 0.00 0.00 0.00 0.00 0.00 0.00 0.00 0.00 0.00 0.00 0.01 0.01 0.03 0.05 0.03 0.00 0.00 0.00 0.00 0.02 0.04 0.15 0.26 0.53
0.00 0.00 0.00 0.00 0.00 0.00 0.00 0.00 0.00 0.00 0.00 0.00 0.00 0.04 0.08 0.01 0.00 0.00 0.00 0.00 0.00 0.00 0.00 0.00 0.00 0.00 0.00 0.00 0.00 0.00 0.00 0.00 0.00 0.00 0.00 0.00 0.00 0.00 0.00 0.00 0.00 0.00 0.00 0.01 0.01 0.01 0.09 0.32 0.14
0.00 0.00 0.00 0.00 0.00 0.00 0.00 0.00 0.00 0.00 0.00 0.00 0.00 0.02 0.05 0.00 0.00 0.00 0.00 0.00 0.00 0.00 0.00 0.00 0.00 0.00 0.00 0.00 0.00 0.00 0.00 0.00 0.00 0.00 0.00 0.00 0.00 0.00 0.00 0.00 0.00 0.00 0.00 0.00 0.00 0.00 0.00 0.14 0.08
0.00 0.00 0.00 0.00 0.00 0.00 0.00 0.00 0.00 0.00 0.00 0.00 0.00 0.00 0.03 0.02 0.00 0.00 0.00 0.00 0.00 0.00 0.00 0.00 0.00 0.00 0.00 0.00 0.00 0.00 0.00 0.00 0.00 0.00 0.00 0.00 0.00 0.00 0.00 0.00 0.00 0.00 0.00 0.00 0.00 0.00 0.01 0.01 0.01
0.00 0.00 0.00 0.00 0.00 0.00 0.00 0.00 0.00 0.00 0.00 0.00 0.00 0.00 0.02 0.01 0.00 0.01 0.01 0.01 0.00 0.00 0.00 0.00 0.02 0.00 0.00 0.00 0.00 0.00 0.00 0.00 0.00 0.00 0.00 0.00 0.00 0.00 0.00 0.00 0.00 0.00 0.00 0.00 0.00 0.00 0.00 0.00 0.01
0.00 0.00 0.00 0.00 0.00 0.00 0.00 0.00 0.00 0.00 0.00 0.00 0.00 0.00 0.01 0.01 0.00 0.01 0.01 0.01 0.02 0.01 0.01 0.01 0.01 0.00 0.00 0.00 0.00 0.00 0.00 0.00 0.00 0.00 0.00 0.00 0.00 0.00 0.00 0.00 0.00 0.00 0.00 0.00 0.00 0.00 0.00 0.00 0.00
0.00 0.00 0.00 0.00 0.00 0.00 0.00 0.00 0.00 0.00 0.00 0.00 0.00 0.00 0.00 0.00 0.00 0.00 0.00 0.00 0.00 0.00 0.01 0.00 0.00 0.01 0.00 0.00 0.00 0.00 0.02 0.00 0.00 0.00 0.00 0.00 0.00 0.00 0.00 0.00 0.00 0.00 0.00 0.00 0.00 0.00 0.00 0.00 0.00
0.00 0.00 0.00 0.00 0.00 0.00 0.00 0.00 0.00 0.00 0.00 0.00 0.00 0.00 0.00 0.00 0.00 0.00 0.00 0.00 0.00 0.00 0.00 0.00 0.00 0.00 0.00 0.00 0.00 0.00 0.00 0.00 0.00 0.00 0.00 0.00 0.00 0.00 0.00 0.00 0.00 0.00 0.00 0.00 0.00 0.00 0.00 0.00 0.00
0.00 0.00 0.00 0.00 0.00 0.00 0.00 0.00 0.00 0.00 0.00 0.00 0.00 0.00 0.00 0.00 0.00 0.00 0.00 0.00 0.00 0.00 0.00 0.00 0.00 0.00 0.00 0.00 0.00 0.00 0.00 0.00 0.00 0.00 0.00 0.00 0.00 0.00 0.00 0.00 0.00 0.00 0.00 0.00 0.00 0.00 0.00 0.00 0.00
0.00 0.00 0.00 0.00 0.00 0.00 0.00 0.00 0.00 0.00 0.00 0.00 0.00 0.00 0.00 0.00 0.00 0.00 0.00 0.00 0.00 0.00 0.00 0.00 0.00 0.00 0.00 0.00 0.00 0.00 0.00 0.00 0.00 0.00 0.00 0.00 0.00 0.00 0.00 0.00 0.00 0.00 0.00 0.00 0.00 0.00 0.00 0.00 0.00
0.00 0.00 0.00 0.00 0.00 0.00 0.00 0.00 0.00 0.00 0.00 0.00 0.00 0.00 0.00 0.00 0.00 0.00 0.00 0.00 0.00 0.00 0.00 0.00 0.00 0.00 0.00 0.00 0.00 0.00 0.00 0.00 0.00 0.00 0.00 0.00 0.00 0.00 0.00 0.00 0.00 0.00 0.00 0.00 0.00 0.00 0.00 0.00 0.00
0.00 0.00 0.00 0.00 0.00 0.00 0.00 0.00 0.00 0.00 0.00 0.00 0.00 0.00 0.00 0.00 0.00 0.00 0.00 0.00 0.00 0.00 0.00 0.00 0.03 0.00 0.00 0.00 0.00 0.00 0.00 0.00 0.00 0.00 0.00 0.00 0.00 0.00 0.00 0.00 0.00 0.00 0.00 0.00 0.00 0.00 0.00 0.00 0.00
0.00 0.00 0.00 0.00 0.00 0.00 0.00 0.00 0.00 0.00 0.00 0.00 0.00 0.00 0.00 0.00 0.00 0.00 0.00 0.00 0.00 0.00 0.00 0.01 0.00 0.00 0.00 0.00 0.00 0.00 0.00 0.00 0.00 0.00 0.00 0.00 0.00 0.00 0.00 0.00 0.00 0.00 0.00 0.00 0.00 0.00 0.00 0.00 0.00
0.00 0.00 0.00 0.00 0.00 0.00 0.00 0.00 0.00 0.00 0.00 0.00 0.00 0.00 0.00 0.00 0.00 0.00 0.00 0.00 0.00 0.00 0.00 0.00 0.00 0.00 0.00 0.00 0.00 0.00 0.00 0.00 0.00 0.00 0.00 0.00 0.00 0.00 0.00 0.00 0.00 0.00 0.00 0.00 0.00 0.00 0.00 0.00 0.00
0.00 0.00 0.00 0.00 0.00 0.00 0.00 0.00 0.00 0.00 0.00 0.00 0.00 0.00 0.00 0.00 0.00 0.00 0.00 0.00 0.00 0.00 0.00 0.00 0.00 0.01 0.01 0.01 0.00 0.00 0.00 0.00 0.00 0.00 0.00 0.00 0.00 0.00 0.00 0.00 0.00 0.00 0.00 0.00 0.00 0.00 0.00 0.00 0.00
0.00 0.00 0.00 0.00 0.00 0.00 0.00 0.00 0.00 0.00 0.00 0.00 0.00 0.00 0.00 0.00 0.00 0.00 0.00 0.00 0.00 0.00 0.00 0.00 0.01 0.03 0.01 0.00 0.00 0.00 0.00 0.00 0.00 0.00 0.00 0.00 0.00 0.00 0.00 0.00 0.00 0.00 0.00 0.00 0.00 0.00 0.00 0.00 0.00
0.00 0.00 0.00 0.00 0.00 0.00 0.00 0.00 0.00 0.00 0.00 0.00 0.00 0.00 0.00 0.00 0.00 0.00 0.00 0.00 0.00 0.00 0.00 0.00 0.00 0.00 0.00 0.00 0.00 0.00 0.00 0.00 0.00 0.00 0.00 0.00 0.00 0.00 0.00 0.00 0.00 0.00 0.00 0.00 0.00 0.00 0.00 0.00 0.00
0.00 0.00 0.00 0.00 0.00 0.00 0.00 0.00 0.00 0.00 0.00 0.00 0.00 0.00 0.00 0.00 0.00 0.00 0.00 0.00 0.00 0.00 0.00 0.00 0.00 0.00 0.00 0.00 0.00 0.00 0.00 0.00 0.00 0.00 0.00 0.00 0.00 0.00 0.00 0.00 0.00 0.00 0.00 0.00 0.00 0.00 0.00 0.00 0.00
0.00 0.00 0.00 0.00 0.00 0.00 0.00 0.00 0.00 0.00 0.00 0.00 0.00 0.00 0.00 0.00 0.00 0.00 0.00 0.00 0.00 0.00 0.00 0.00 0.00 0.00 0.00 0.00 0.00 0.00 0.00 0.00 0.00 0.00 0.00 0.00 0.00 0.00 0.00 0.00 0.00 0.00 0.00 0.00 0.00 0.00 0.00 0.00 0.00
0.00 0.00 0.00 0.00 0.00 0.00 0.00 0.00 0.00 0.00 0.00 0.00 0.00 0.00 0.00 0.00 0.00 0.00 0.00 0.00 0.00 0.00 0.00 0.00 0.00 0.00 0.00 0.00 0.00 0.00 0.00 0.00 0.00 0.00 0.00 0.00 0.00 0.00 0.00 0.00 0.00 0.00 0.00 0.00 0.00 0.00 0.00 0.00 0.00
0.00 0.00 0.00 0.00 0.00 0.00 0.00 0.00 0.00 0.00 0.00 0.00 0.00 0.00 0.00 0.00 0.00 0.00 0.00 0.00 0.00 0.00 0.00 0.00 0.00 0.00 0.00 0.00 0.00 0.00 0.00 0.00 0.00 0.00 0.00 0.00 0.00 0.00 0.00 0.00 0.00 0.00 0.00 0.00 0.00 0.00 0.00 0.00 0.00
0.00 0.00 0.00 0.01 0.00 0.00 0.01 0.00 0.00 0.00 0.00 0.00 0.00 0.00 0.00 0.00 0.00 0.00 0.00 0.00 0.00 0.00 0.00 0.00 0.00 0.00 0.00 0.00 0.00 0.00 0.00 0.00 0.00 0.00 0.00 0.00 0.00 0.00 0.00 0.00 0.00 0.00 0.00 0.00 0.00 0.01 0.03 0.06 0.11
0.00 0.00 0.00 0.01 0.01 0.01 0.00 0.00 0.00 0.00 0.00 0.00 0.00 0.00 0.00 0.00 0.00 0.00 0.00 0.00 0.00 0.00 0.00 0.00 0.00 0.00 0.00 0.00 0.00 0.00 0.00 0.00 0.00 0.00 0.00 0.00 0.00 0.00 0.00 0.00 0.00 0.00 0.01 0.02 0.07 0.18 0.30 0.37 0.41
0.00 0.00 0.00 0.00 0.00 0.00 0.00 0.00 0.00 0.00 0.00 0.00 0.00 0.00 0.00 0.00 0.00 0.00 0.00 0.00 0.00 0.00 0.00 0.00 0.00 0.00 0.00 0.00 0.00 0.00 0.00 0.00 0.00 0.00 0.00 0.00 0.00 0.00 0.00 0.00 0.01 0.05 0.12 0.17 0.24 0.27 0.24 0.22 0.18
0.00 0.00 0.00 0.00 0.00 0.00 0.00 0.00 0.00 0.00 0.00 0.00 0.00 0.00 0.00 0.00 0.00 0.00 0.00 0.00 0.00 0.00 0.00 0.00 0.00 0.00 0.00 0.00 0.00 0.00 0.00 0.00 0.00 0.00 0.00 0.00 0.00 0.00 0.01 0.07 0.16 0.17 0.13 0.07 0.04 0.04 0.04 0.04 0.05
0.00 0.00 0.00 0.00 0.00 0.04 0.07 0.01 0.00 0.00 0.00 0.00 0.00 0.00 0.00 0.00 0.00 0.00 0.00 0.00 0.00 0.00 0.00 0.00 0.00 0.00 0.00 0.00 0.00 0.00 0.00 0.00 0.00 0.00 0.00 0.00 0.00 0.00 0.01 0.03 0.01 0.02 0.04 0.03 0.02 0.02 0.01 0.01 0.01
0.00 0.00 0.00 0.01 0.02 0.01 0.02 0.01 0.00 0.00 0.00 0.00 0.01 0.00 0.00 0.00 0.00 0.00 0.00 0.00 0.00 0.00 0.00 0.00 0.00 0.00 0.00 0.00 0.00 0.00 0.00 0.00 0.00 0.00 0.00 0.00 0.00 0.00 0.03 0.04 0.03 0.04 0.03 0.01 0.01 0.01 0.00 0.00 0.00

GFSSGP_prec_precacc_027.txt.gz
Total_Precipitation_Accumulation
0.00 0.00 0.00 0.00 0.00 0.00 0.00 0.00 0.00 0.00 0.00 0.00 0.00 0.00 0.00 0.00 0.05 0.15 0.07 0.01 0.00 0.00 0.00 0.00 0.00 0.00 0.00 0.02 0.02 0.02 0.03 0.02 0.02 0.02 0.02 0.06 0.05 0.01 0.04 0.16 0.16 0.18 0.10 0.05 0.07 0.14 0.28 0.28 0.21
0.00 0.00 0.00 0.00 0.00 0.00 0.00 0.00 0.00 0.00 0.00 0.00 0.00 0.00 0.00 0.01 0.00 0.01 0.00 0.00 0.00 0.00 0.00 0.00 0.00 0.00 0.00 0.00 0.00 0.00 0.00 0.01 0.00 0.00 0.00 0.01 0.03 0.03 0.01 0.07 0.10 0.07 0.05 0.03 0.05 0.11 0.90 0.70 0.61
0.00 0.00 0.00 0.00 0.00 0.00 0.00 0.00 0.00 0.00 0.00 0.00 0.00 0.00 0.04 0.04 0.01 0.00 0.00 0.00 0.00 0.00 0.00 0.00 0.00 0.00 0.00 0.00 0.00 0.00 0.00 0.00 0.01 0.01 0.02 0.04 0.04 0.04 0.04 0.12 0.05 0.10 0.10 0.05 0.05 0.02 0.65 1.02 0.74
0.00 0.00 0.00 0.00 0.00 0.00 0.00 0.00 0.00 0.00 0.00 0.00 0.00 0.02 0.06 0.03 0.00 0.00 0.00 0.00 0.00 0.00 0.00 0.00 0.00 0.00 0.00 0.00 0.00 0.00 0.00 0.00 0.00 0.00 0.01 0.01 0.01 0.03 0.05 0.03 0.00 0.00 0.00 0.00 0.02 0.04 0.15 0.26 0.53
0.00 0.00 0.00 0.00 0.00 0.00 0.00 0.00 0.00 0.00 0.00 0.00 0.00 0.04 0.08 0.01 0.00 0.00 0.00 0.00 0.00 0.00 0.00 0.00 0.00 0.00 0.00 0.00 0.00 0.00 0.00 0.00 0.00 0.00 0.00 0.00 0.00 0.00 0.00 0.00 0.00 0.00 0.00 0.01 0.01 0.01 0.09 0.32 0.14
0.00 0.00 0.00 0.00 0.00 0.00 0.00 0.00 0.00 0.00 0.00 0.00 0.00 0.02 0.05 0.00 0.00 0.00 0.00 0.00 0.00 0.00 0.00 0.00 0.00 0.00 0.00 0.00 0.00 0.00 0.00 0.00 0.00 0.00 0.00 0.00 0.00 0.00 0.00 0.00 0.00 0.00 0.00 0.00 0.00 0.00 0.00 0.14 0.08
0.00 0.00 0.00 0.00 0.00 0.00 0.00 0.00 0.00 0.00 0.00 0.00 0.00 0.00 0.03 0.02 0.00 0.00 0.00 0.00 0.00 0.00 0.00 0.00 0.00 0.00 0.00 0.00 0.00 0.00 0.00 0.00 0.00 0.00 0.00 0.00 0.00 0.00 0.00 0.00 0.00 0.00 0.00 0.00 0.00 0.00 0.01 0.01 0.01
0.00 0.00 0.00 0.00 0.00 0.00 0.00 0.00 0.00 0.00 0.00 0.00 0.00 0.00 0.02 0.01 0.00 0.01 0.01 0.01 0.00 0.00 0.00 0.00 0.02 0.00 0.00 0.00 0.00 0.00 0.00 0.00 0.00 0.00 0.00 0.00 0.00 0.00 0.00 0.00 0.00 0.00 0.00 0.00 0.00 0.00 0.00 0.00 0.01
0.00 0.00 0.00 0.00 0.00 0.00 0.00 0.00 0.00 0.00 0.00 0.00 0.00 0.00 0.01 0.01 0.00 0.01 0.01 0.01 0.02 0.01 0.01 0.01 0.01 0.00 0.00 0.00 0.00 0.00 0.00 0.00 0.00 0.00 0.00 0.00 0.00 0.00 0.00 0.00 0.00 0.00 0.00 0.00 0.00 0.00 0.00 0.00 0.00
0.00 0.00 0.00 0.00 0.00 0.00 0.00 0.00 0.00 0.00 0.00 0.00 0.00 0.00 0.00 0.00 0.00 0.00 0.00 0.00 0.00 0.00 0.01 0.00 0.00 0.01 0.00 0.00 0.00 0.00 0.02 0.00 0.00 0.00 0.00 0.00 0.00 0.00 0.00 0.00 0.00 0.00 0.00 0.00 0.00 0.00 0.00 0.00 0.00
0.00 0.00 0.00 0.00 0.00 0.00 0.00 0.00 0.00 0.00 0.00 0.00 0.00 0.00 0.00 0.00 0.00 0.00 0.00 0.00 0.00 0.00 0.00 0.00 0.00 0.00 0.00 0.00 0.00 0.00 0.00 0.00 0.00 0.00 0.00 0.00 0.00 0.00 0.00 0.00 0.00 0.00 0.00 0.00 0.00 0.00 0.00 0.00 0.00
0.00 0.00 0.00 0.00 0.00 0.00 0.00 0.00 0.00 0.00 0.00 0.00 0.00 0.00 0.00 0.00 0.00 0.00 0.00 0.00 0.00 0.00 0.00 0.00 0.00 0.00 0.00 0.00 0.00 0.00 0.00 0.00 0.00 0.00 0.00 0.00 0.00 0.00 0.00 0.00 0.00 0.00 0.00 0.00 0.00 0.00 0.00 0.00 0.00
0.00 0.00 0.00 0.00 0.00 0.00 0.00 0.00 0.00 0.00 0.00 0.00 0.00 0.00 0.00 0.00 0.00 0.00 0.00 0.00 0.00 0.00 0.00 0.00 0.00 0.00 0.00 0.00 0.00 0.00 0.00 0.00 0.00 0.00 0.00 0.00 0.00 0.00 0.00 0.00 0.00 0.00 0.00 0.00 0.00 0.00 0.00 0.00 0.00
0.00 0.00 0.00 0.00 0.00 0.00 0.00 0.00 0.00 0.00 0.00 0.00 0.00 0.00 0.00 0.00 0.00 0.00 0.00 0.00 0.00 0.00 0.00 0.00 0.00 0.02 0.01 0.00 0.00 0.00 0.00 0.00 0.00 0.00 0.00 0.00 0.00 0.00 0.00 0.00 0.00 0.00 0.00 0.00 0.00 0.00 0.00 0.00 0.00
0.00 0.00 0.00 0.00 0.00 0.00 0.00 0.00 0.00 0.00 0.00 0.00 0.00 0.00 0.00 0.00 0.00 0.00 0.00 0.00 0.00 0.01 0.00 0.01 0.14 0.14 0.14 0.03 0.00 0.00 0.00 0.00 0.00 0.00 0.00 0.00 0.00 0.00 0.00 0.00 0.00 0.00 0.00 0.00 0.00 0.00 0.00 0.00 0.00
0.00 0.00 0.00 0.00 0.00 0.00 0.00 0.00 0.00 0.00 0.00 0.00 0.00 0.00 0.00 0.00 0.00 0.00 0.00 0.00 0.01 0.00 0.01 0.09 0.18 0.62 0.48 0.07 0.00 0.00 0.00 0.00 0.00 0.00 0.00 0.00 0.00 0.00 0.00 0.00 0.00 0.00 0.00 0.00 0.00 0.00 0.00 0.00 0.00
0.00 0.00 0.00 0.00 0.00 0.00 0.00 0.00 0.00 0.00 0.00 0.00 0.00 0.00 0.00 0.00 0.00 0.00 0.00 0.00 0.00 0.00 0.00 0.00 0.07 0.16 0.16 0.06 0.04 0.00 0.00 0.00 0.00 0.00 0.00 0.00 0.00 0.00 0.00 0.00 0.00 0.00 0.00 0.00 0.00 0.00 0.00 0.00 0.00
0.00 0.00 0.00 0.00 0.00 0.00 0.00 0.00 0.00 0.00 0.00 0.00 0.00 0.00 0.00 0.00 0.00 0.00 0.00 0.00 0.00 0.00 0.00 0.00 0.01 0.04 0.07 0.03 0.01 0.00 0.00 0.00 0.00 0.00 0.00 0.00 0.00 0.00 0.00 0.00 0.00 0.00 0.00 0.00 0.00 0.00 0.00 0.00 0.00
0.00 0.00 0.00 0.00 0.00 0.00 0.00 0.00 0.00 0.00 0.00 0.00 0.00 0.00 0.00 0.00 0.00 0.00 0.00 0.00 0.01 0.00 0.00 0.00 0.02 0.03 0.01 0.00 0.00 0.00 0.00 0.00 0.00 0.00 0.00 0.00 0.00 0.00 0.00 0.00 0.00 0.00 0.00 0.00 0.00 0.00 0.00 0.00 0.00
0.00 0.00 0.00 0.00 0.00 0.00 0.00 0.00 0.00 0.00 0.00 0.00 0.00 0.00 0.00 0.00 0.00 0.00 0.01 0.01 0.01 0.00 0.00 0.00 0.00 0.00 0.00 0.00 0.00 0.00 0.00 0.00 0.00 0.00 0.00 0.00 0.00 0.00 0.00 0.00 0.00 0.00 0.00 0.00 0.00 0.00 0.00 0.00 0.00
0.00 0.00 0.00 0.00 0.00 0.00 0.00 0.00 0.00 0.00 0.00 0.00 0.00 0.00 0.00 0.00 0.00 0.00 0.00 0.00 0.00 0.00 0.00 0.00 0.00 0.00 0.00 0.00 0.00 0.00 0.00 0.00 0.00 0.00 0.00 0.00 0.00 0.00 0.00 0.00 0.00 0.00 0.00 0.00 0.00 0.00 0.00 0.00 0.00
0.00 0.00 0.00 0.00 0.00 0.00 0.00 0.00 0.00 0.00 0.00 0.00 0.00 0.00 0.00 0.00 0.00 0.00 0.00 0.00 0.00 0.00 0.00 0.00 0.00 0.00 0.00 0.00 0.00 0.00 0.00 0.00 0.00 0.00 0.00 0.00 0.00 0.00 0.00 0.00 0.00 0.00 0.00 0.00 0.00 0.00 0.00 0.00 0.00
0.00 0.00 0.00 0.00 0.00 0.00 0.00 0.00 0.00 0.00 0.00 0.00 0.00 0.00 0.00 0.00 0.00 0.00 0.00 0.00 0.00 0.00 0.00 0.00 0.00 0.00 0.00 0.00 0.00 0.00 0.00 0.00 0.00 0.00 0.00 0.00 0.00 0.00 0.00 0.00 0.00 0.00 0.00 0.00 0.00 0.00 0.00 0.00 0.00
0.00 0.00 0.00 0.00 0.00 0.00 0.00 0.01 0.01 0.00 0.00 0.00 0.00 0.00 0.00 0.00 0.00 0.00 0.00 0.00 0.00 0.00 0.00 0.00 0.00 0.00 0.00 0.00 0.00 0.00 0.00 0.00 0.00 0.00 0.00 0.00 0.00 0.00 0.00 0.00 0.00 0.00 0.00 0.00 0.00 0.00 0.00 0.00 0.00
0.00 0.00 0.00 0.02 0.02 0.01 0.04 0.04 0.02 0.00 0.00 0.00 0.00 0.00 0.00 0.00 0.00 0.00 0.00 0.00 0.00 0.00 0.00 0.00 0.00 0.00 0.00 0.00 0.00 0.00 0.00 0.00 0.00 0.00 0.00 0.00 0.00 0.00 0.00 0.00 0.00 0.00 0.00 0.00 0.00 0.01 0.03 0.06 0.11
0.00 0.00 0.00 0.01 0.01 0.02 0.01 0.00 0.00 0.00 0.00 0.00 0.00 0.00 0.00 0.00 0.00 0.00 0.00 0.00 0.00 0.00 0.00 0.00 0.00 0.00 0.00 0.00 0.00 0.00 0.00 0.00 0.00 0.00 0.00 0.00 0.00 0.00 0.00 0.00 0.00 0.00 0.01 0.02 0.07 0.20 0.31 0.37 0.42
0.00 0.00 0.00 0.00 0.00 0.00 0.00 0.00 0.00 0.00 0.00 0.00 0.00 0.00 0.00 0.00 0.00 0.00 0.00 0.00 0.00 0.00 0.00 0.00 0.00 0.00 0.00 0.00 0.00 0.00 0.00 0.00 0.00 0.00 0.00 0.00 0.00 0.00 0.00 0.00 0.01 0.05 0.12 0.17 0.25 0.28 0.24 0.22 0.19
0.00 0.00 0.00 0.00 0.00 0.00 0.00 0.00 0.01 0.00 0.00 0.00 0.00 0.00 0.00 0.00 0.00 0.00 0.00 0.00 0.00 0.00 0.00 0.00 0.00 0.00 0.00 0.00 0.00 0.00 0.00 0.00 0.00 0.00 0.00 0.00 0.00 0.00 0.01 0.07 0.16 0.17 0.13 0.07 0.05 0.04 0.04 0.04 0.05
0.00 0.00 0.00 0.00 0.00 0.04 0.07 0.01 0.00 0.00 0.00 0.00 0.00 0.00 0.00 0.00 0.00 0.00 0.00 0.00 0.00 0.00 0.00 0.00 0.00 0.00 0.00 0.00 0.00 0.00 0.00 0.00 0.00 0.00 0.00 0.00 0.00 0.00 0.01 0.03 0.01 0.02 0.04 0.03 0.02 0.02 0.01 0.01 0.01
0.00 0.00 0.00 0.01 0.02 0.01 0.02 0.01 0.00 0.00 0.00 0.00 0.01 0.00 0.00 0.00 0.00 0.00 0.00 0.00 0.00 0.00 0.00 0.00 0.00 0.00 0.00 0.00 0.00 0.00 0.00 0.00 0.00 0.00 0.00 0.00 0.00 0.00 0.03 0.04 0.04 0.05 0.03 0.02 0.02 0.01 0.01 0.00 0.00

GFSSGP_prec_precacc_030.txt.gz
Total_Precipitation_Accumulation
0.00 0.00 0.00 0.00 0.00 0.00 0.00 0.00 0.00 0.00 0.00 0.00 0.00 0.00 0.00 0.00 0.05 0.16 0.08 0.01 0.00 0.00 0.00 0.00 0.00 0.00 0.00 0.02 0.02 0.02 0.03 0.02 0.02 0.02 0.02 0.06 0.05 0.01 0.04 0.16 0.16 0.18 0.10 0.05 0.07 0.14 0.28 0.28 0.21
0.00 0.00 0.00 0.00 0.00 0.00 0.00 0.00 0.00 0.00 0.00 0.00 0.00 0.00 0.00 0.01 0.00 0.01 0.02 0.01 0.00 0.00 0.00 0.00 0.00 0.00 0.00 0.00 0.00 0.00 0.00 0.01 0.00 0.00 0.00 0.01 0.03 0.03 0.01 0.07 0.10 0.07 0.05 0.03 0.05 0.11 0.90 0.70 0.61
0.00 0.00 0.00 0.00 0.00 0.00 0.00 0.00 0.00 0.00 0.00 0.00 0.00 0.00 0.04 0.04 0.01 0.00 0.00 0.00 0.00 0.00 0.00 0.00 0.00 0.00 0.00 0.00 0.00 0.00 0.00 0.00 0.01 0.01 0.02 0.04 0.04 0.04 0.04 0.12 0.05 0.10 0.10 0.05 0.05 0.02 0.65 1.02 0.74
0.00 0.00 0.00 0.00 0.00 0.00 0.00 0.00 0.00 0.00 0.00 0.00 0.00 0.02 0.06 0.03 0.00 0.00 0.00 0.00 0.00 0.00 0.00 0.00 0.00 0.00 0.00 0.00 0.00 0.00 0.00 0.00 0.00 0.00 0.01 0.01 0.01 0.03 0.05 0.03 0.00 0.00 0.00 0.00 0.02 0.04 0.15 0.26 0.53
0.00 0.00 0.00 0.00 0.00 0.00 0.00 0.00 0.00 0.00 0.00 0.00 0.00 0.04 0.08 0.01 0.00 0.00 0.00 0.00 0.00 0.00 0.00 0.00 0.00 0.00 0.00 0.00 0.00 0.00 0.00 0.00 0.00 0.00 0.00 0.00 0.00 0.00 0.00 0.00 0.00 0.00 0.00 0.01 0.01 0.01 0.09 0.32 0.14
0.00 0.00 0.00 0.00 0.00 0.00 0.00 0.00 0.00 0.00 0.00 0.00 0.00 0.02 0.05 0.00 0.00 0.00 0.00 0.00 0.00 0.00 0.00 0.00 0.00 0.00 0.00 0.00 0.00 0.00 0.00 0.00 0.00 0.00 0.00 0.00 0.00 0.00 0.00 0.00 0.00 0.00 0.00 0.00 0.00 0.00 0.00 0.14 0.08
0.00 0.00 0.00 0.00 0.00 0.00 0.00 0.00 0.00 0.00 0.00 0.00 0.00 0.00 0.03 0.02 0.00 0.00 0.00 0.00 0.00 0.00 0.00 0.00 0.00 0.00 0.00 0.00 0.00 0.00 0.00 0.00 0.00 0.00 0.00 0.00 0.00 0.00 0.00 0.00 0.00 0.00 0.00 0.00 0.00 0.00 0.01 0.01 0.01
0.00 0.00 0.00 0.00 0.00 0.00 0.00 0.00 0.00 0.00 0.00 0.00 0.00 0.00 0.02 0.01 0.00 0.01 0.01 0.01 0.00 0.00 0.00 0.00 0.02 0.00 0.00 0.00 0.00 0.00 0.00 0.00 0.00 0.00 0.00 0.00 0.00 0.00 0.00 0.00 0.00 0.00 0.00 0.00 0.00 0.00 0.00 0.00 0.01
0.00 0.00 0.00 0.00 0.00 0.00 0.00 0.00 0.00 0.00 0.00 0.00 0.00 0.00 0.01 0.01 0.00 0.01 0.01 0.01 0.02 0.01 0.01 0.01 0.01 0.00 0.00 0.00 0.00 0.00 0.00 0.00 0.00 0.00 0.00 0.00 0.00 0.00 0.00 0.00 0.00 0.00 0.00 0.00 0.00 0.00 0.00 0.00 0.00
0.00 0.00 0.00 0.00 0.00 0.00 0.00 0.00 0.00 0.00 0.00 0.00 0.00 0.00 0.00 0.00 0.00 0.00 0.00 0.00 0.00 0.00 0.01 0.00 0.00 0.01 0.00 0.00 0.00 0.00 0.02 0.00 0.00 0.00 0.00 0.00 0.00 0.00 0.00 0.00 0.00 0.00 0.00 0.00 0.00 0.00 0.00 0.00 0.00
0.00 0.00 0.00 0.00 0.00 0.00 0.00 0.00 0.00 0.00 0.00 0.00 0.00 0.00 0.00 0.00 0.00 0.00 0.00 0.00 0.00 0.00 0.00 0.00 0.00 0.00 0.00 0.00 0.00 0.00 0.00 0.00 0.00 0.00 0.00 0.00 0.00 0.00 0.00 0.00 0.00 0.00 0.00 0.00 0.00 0.00 0.00 0.00 0.00
0.00 0.00 0.00 0.00 0.00 0.00 0.00 0.00 0.00 0.00 0.00 0.00 0.00 0.00 0.00 0.00 0.00 0.00 0.00 0.00 0.00 0.00 0.00 0.00 0.00 0.00 0.00 0.00 0.00 0.00 0.00 0.00 0.00 0.00 0.00 0.00 0.00 0.00 0.00 0.00 0.00 0.00 0.00 0.00 0.00 0.00 0.00 0.00 0.00
0.00 0.00 0.00 0.00 0.00 0.00 0.00 0.00 0.00 0.00 0.00 0.00 0.00 0.00 0.00 0.00 0.00 0.00 0.00 0.00 0.00 0.00 0.00 0.00 0.00 0.00 0.00 0.00 0.00 0.00 0.00 0.00 0.00 0.00 0.00 0.00 0.00 0.00 0.00 0.00 0.00 0.00 0.00 0.00 0.00 0.00 0.00 0.00 0.00
0.00 0.00 0.00 0.00 0.00 0.00 0.00 0.00 0.00 0.00 0.00 0.00 0.00 0.00 0.00 0.00 0.00 0.00 0.00 0.00 0.00 0.00 0.00 0.02 0.02 0.03 0.03 0.00 0.00 0.00 0.00 0.00 0.00 0.00 0.00 0.00 0.00 0.00 0.00 0.00 0.00 0.00 0.00 0.00 0.00 0.00 0.00 0.00 0.00
0.00 0.00 0.00 0.00 0.00 0.00 0.00 0.00 0.00 0.00 0.00 0.00 0.00 0.00 0.00 0.00 0.00 0.00 0.00 0.00 0.00 0.01 0.00 0.02 0.18 0.19 0.17 0.08 0.02 0.00 0.00 0.00 0.00 0.00 0.00 0.00 0.00 0.00 0.00 0.00 0.00 0.00 0.00 0.00 0.00 0.00 0.00 0.00 0.00
0.00 0.00 0.00 0.00 0.00 0.00 0.00 0.00 0.00 0.00 0.00 0.00 0.00 0.00 0.00 0.00 0.00 0.00 0.00 0.00 0.01 0.00 0.01 0.12 0.31 0.69 0.69 0.14 0.05 0.02 0.00 0.00 0.00 0.00 0.00 0.00 0.00 0.00 0.00 0.00 0.00 0.00 0.00 0.00 0.00 0.00 0.00 0.00 0.00
0.00 0.00 0.00 0.00 0.00 0.00 0.00 0.00 0.00 0.00 0.00 0.00 0.00 0.00 0.00 0.00 0.00 0.00 0.00 0.00 0.00 0.00 0.00 0.04 0.13 0.20 0.23 0.09 0.07 0.01 0.00 0.00 0.00 0.00 0.00 0.00 0.00 0.00 0.00 0.00 0.00 0.00 0.00 0.00 0.00 0.00 0.00 0.00 0.00
0.00 0.00 0.00 0.00 0.00 0.00 0.00 0.00 0.00 0.00 0.00 0.00 0.00 0.00 0.00 0.00 0.00 0.00 0.00 0.00 0.00 0.00 0.01 0.07 0.08 0.09 0.11 0.05 0.03 0.01 0.00 0.00 0.00 0.00 0.00 0.00 0.00 0.00 0.00 0.00 0.00 0.00 0.00 0.00 0.00 0.00 0.00 0.00 0.00
0.00 0.00 0.00 0.00 0.00 0.00 0.00 0.00 0.00 0.00 0.00 0.00 0.00 0.00 0.00 0.00 0.00 0.00 0.00 0.01 0.02 0.01 0.02 0.04 0.06 0.06 0.02 0.01 0.01 0.00 0.00 0.00 0.00 0.00 0.00 0.00 0.00 0.00 0.00 0.00 0.00 0.00 0.00 0.00 0.00 0.00 0.00 0.00 0.00
0.00 0.00 0.00 0.00 0.00 0.00 0.00 0.00 0.00 0.00 0.00 0.00 0.00 0.00 0.00 0.00 0.00 0.00 0.02 0.03 0.05 0.06 0.04 0.01 0.00 0.00 0.00 0.00 0.00 0.00 0.00 0.00 0.00 0.00 0.00 0.00 0.00 0.00 0.00 0.00 0.00 0.00 0.00 0.00 0.00 0.00 0.00 0.00 0.00
0.00 0.00 0.00 0.00 0.00 0.00 0.00 0.00 0.00 0.00 0.00 0.00 0.00 0.00 0.00 0.00 0.00 0.01 0.01 0.01 0.01 0.00 0.00 0.00 0.00 0.00 0.00 0.00 0.00 0.00 0.00 0.00 0.00 0.00 0.00 0.00 0.00 0.00 0.00 0.00 0.00 0.00 0.00 0.00 0.00 0.00 0.00 0.00 0.00
0.00 0.00 0.00 0.00 0.00 0.00 0.00 0.00 0.00 0.00 0.00 0.00 0.00 0.00 0.00 0.00 0.00 0.00 0.00 0.00 0.00 0.00 0.00 0.00 0.00 0.00 0.00 0.00 0.00 0.00 0.00 0.00 0.00 0.00 0.00 0.00 0.00 0.00 0.00 0.00 0.00 0.00 0.00 0.00 0.00 0.00 0.00 0.00 0.00
0.00 0.00 0.00 0.00 0.00 0.00 0.00 0.00 0.00 0.00 0.00 0.00 0.00 0.00 0.00 0.00 0.00 0.00 0.00 0.00 0.00 0.00 0.00 0.00 0.00 0.00 0.00 0.00 0.00 0.00 0.00 0.00 0.00 0.00 0.00 0.00 0.00 0.00 0.00 0.00 0.00 0.00 0.00 0.00 0.00 0.00 0.00 0.00 0.00
0.00 0.00 0.00 0.00 0.00 0.00 0.00 0.01 0.01 0.00 0.00 0.00 0.00 0.00 0.00 0.00 0.00 0.00 0.00 0.00 0.00 0.00 0.00 0.00 0.00 0.00 0.00 0.00 0.00 0.00 0.00 0.00 0.00 0.00 0.00 0.00 0.00 0.00 0.00 0.00 0.00 0.00 0.00 0.00 0.00 0.00 0.00 0.00 0.00
0.00 0.00 0.00 0.02 0.02 0.01 0.04 0.04 0.02 0.00 0.00 0.00 0.00 0.00 0.00 0.00 0.00 0.00 0.00 0.00 0.00 0.00 0.00 0.00 0.00 0.00 0.00 0.00 0.00 0.00 0.00 0.00 0.00 0.00 0.00 0.00 0.00 0.00 0.00 0.00 0.00 0.00 0.00 0.00 0.00 0.01 0.03 0.06 0.11
0.00 0.00 0.00 0.01 0.01 0.02 0.01 0.00 0.00 0.00 0.00 0.00 0.00 0.00 0.00 0.00 0.00 0.00 0.00 0.00 0.00 0.00 0.00 0.00 0.00 0.00 0.00 0.00 0.00 0.00 0.00 0.00 0.00 0.00 0.00 0.00 0.00 0.00 0.00 0.00 0.00 0.00 0.01 0.02 0.07 0.20 0.31 0.37 0.42
0.00 0.00 0.00 0.00 0.00 0.00 0.00 0.00 0.00 0.00 0.00 0.00 0.00 0.00 0.00 0.00 0.00 0.00 0.00 0.00 0.00 0.00 0.00 0.00 0.00 0.00 0.00 0.00 0.00 0.00 0.00 0.00 0.00 0.00 0.00 0.00 0.00 0.00 0.00 0.00 0.01 0.05 0.12 0.17 0.25 0.28 0.24 0.22 0.19
0.00 0.00 0.00 0.00 0.00 0.00 0.00 0.00 0.01 0.00 0.00 0.00 0.00 0.00 0.00 0.00 0.00 0.00 0.00 0.00 0.00 0.00 0.00 0.00 0.00 0.00 0.00 0.00 0.00 0.00 0.00 0.00 0.00 0.00 0.00 0.00 0.00 0.00 0.01 0.07 0.16 0.17 0.13 0.07 0.05 0.04 0.04 0.04 0.05
0.00 0.00 0.00 0.00 0.00 0.04 0.07 0.01 0.00 0.00 0.00 0.00 0.00 0.00 0.00 0.00 0.00 0.00 0.00 0.00 0.00 0.00 0.00 0.00 0.00 0.00 0.00 0.00 0.00 0.00 0.00 0.00 0.00 0.00 0.00 0.00 0.00 0.00 0.01 0.03 0.01 0.02 0.04 0.03 0.02 0.02 0.02 0.01 0.01
0.00 0.00 0.00 0.01 0.02 0.01 0.02 0.01 0.00 0.00 0.00 0.00 0.01 0.00 0.00 0.00 0.00 0.00 0.00 0.00 0.00 0.00 0.00 0.00 0.00 0.00 0.00 0.00 0.00 0.00 0.00 0.00 0.00 0.00 0.00 0.00 0.00 0.00 0.03 0.04 0.04 0.05 0.03 0.02 0.02 0.01 0.01 0.00 0.00

GFSSGP_prec_precacc_033.txt.gz
Total_Precipitation_Accumulation
0.00 0.00 0.00 0.00 0.00 0.00 0.00 0.00 0.00 0.00 0.00 0.00 0.02 0.03 0.02 0.01 0.05 0.17 0.08 0.01 0.00 0.00 0.00 0.00 0.00 0.00 0.00 0.02 0.02 0.02 0.03 0.02 0.02 0.02 0.02 0.06 0.05 0.01 0.04 0.16 0.16 0.18 0.10 0.05 0.07 0.14 0.28 0.28 0.21
0.00 0.00 0.00 0.00 0.00 0.00 0.00 0.00 0.00 0.00 0.00 0.00 0.00 0.01 0.01 0.02 0.01 0.02 0.05 0.02 0.00 0.00 0.00 0.00 0.00 0.00 0.00 0.00 0.00 0.00 0.00 0.01 0.00 0.00 0.00 0.01 0.03 0.03 0.01 0.07 0.10 0.07 0.05 0.03 0.05 0.11 0.90 0.70 0.61
0.00 0.00 0.00 0.00 0.00 0.00 0.00 0.00 0.00 0.00 0.00 0.00 0.00 0.01 0.04 0.05 0.01 0.00 0.01 0.00 0.00 0.00 0.00 0.00 0.00 0.00 0.00 0.00 0.00 0.00 0.00 0.00 0.01 0.01 0.02 0.04 0.04 0.04 0.04 0.12 0.05 0.10 0.10 0.05 0.05 0.02 0.65 1.02 0.74
0.00 0.00 0.00 0.00 0.00 0.00 0.00 0.00 0.00 0.00 0.00 0.00 0.00 0.02 0.07 0.03 0.00 0.00 0.00 0.00 0.00 0.00 0.00 0.00 0.00 0.00 0.00 0.00 0.00 0.00 0.00 0.00 0.00 0.00 0.01 0.01 0.01 0.03 0.05 0.03 0.00 0.00 0.00 0.00 0.02 0.04 0.15 0.26 0.53
0.00 0.00 0.00 0.00 0.00 0.00 0.00 0.00 0.00 0.00 0.00 0.00 0.00 0.04 0.09 0.01 0.00 0.00 0.00 0.00 0.00 0.00 0.00 0.00 0.00 0.00 0.00 0.00 0.00 0.00 0.00 0.00 0.00 0.00 0.00 0.00 0.00 0.00 0.00 0.00 0.00 0.00 0.00 0.01 0.01 0.01 0.09 0.32 0.14
0.00 0.00 0.00 0.00 0.00 0.00 0.00 0.00 0.00 0.00 0.00 0.00 0.00 0.02 0.05 0.00 0.00 0.00 0.00 0.00 0.00 0.00 0.00 0.00 0.00 0.00 0.00 0.00 0.00 0.00 0.00 0.00 0.00 0.00 0.00 0.00 0.00 0.00 0.00 0.00 0.00 0.00 0.00 0.00 0.00 0.00 0.00 0.14 0.08
0.00 0.00 0.00 0.00 0.00 0.00 0.00 0.00 0.00 0.00 0.00 0.00 0.00 0.00 0.03 0.02 0.00 0.00 0.00 0.00 0.00 0.00 0.00 0.00 0.00 0.00 0.00 0.00 0.00 0.00 0.00 0.00 0.00 0.00 0.00 0.00 0.00 0.00 0.00 0.00 0.00 0.00 0.00 0.00 0.00 0.00 0.01 0.01 0.01
0.00 0.00 0.00 0.00 0.00 0.00 0.00 0.00 0.00 0.00 0.00 0.00 0.00 0.00 0.02 0.01 0.00 0.01 0.01 0.01 0.00 0.00 0.00 0.00 0.02 0.00 0.00 0.00 0.00 0.00 0.00 0.00 0.00 0.00 0.00 0.00 0.00 0.00 0.00 0.00 0.00 0.00 0.00 0.00 0.00 0.00 0.00 0.00 0.01
0.00 0.00 0.00 0.00 0.00 0.00 0.00 0.00 0.00 0.00 0.00 0.00 0.00 0.00 0.01 0.01 0.00 0.01 0.01 0.01 0.02 0.01 0.01 0.01 0.01 0.00 0.00 0.00 0.00 0.00 0.00 0.00 0.00 0.00 0.00 0.00 0.00 0.00 0.00 0.00 0.00 0.00 0.00 0.00 0.00 0.00 0.00 0.00 0.00
0.00 0.00 0.00 0.00 0.00 0.00 0.00 0.00 0.00 0.00 0.00 0.00 0.00 0.00 0.00 0.00 0.00 0.00 0.00 0.00 0.00 0.00 0.01 0.00 0.00 0.01 0.00 0.00 0.00 0.00 0.02 0.00 0.00 0.00 0.00 0.00 0.00 0.00 0.00 0.00 0.00 0.00 0.00 0.00 0.00 0.00 0.00 0.00 0.00
0.00 0.00 0.00 0.00 0.00 0.00 0.00 0.00 0.00 0.00 0.00 0.00 0.00 0.00 0.00 0.00 0.00 0.00 0.00 0.00 0.00 0.00 0.00 0.00 0.00 0.00 0.00 0.00 0.00 0.00 0.00 0.00 0.00 0.00 0.00 0.00 0.00 0.00 0.00 0.00 0.00 0.00 0.00 0.00 0.00 0.00 0.00 0.00 0.00
0.00 0.00 0.00 0.00 0.00 0.00 0.00 0.00 0.00 0.00 0.00 0.00 0.00 0.00 0.00 0.00 0.00 0.00 0.00 0.00 0.00 0.00 0.00 0.00 0.00 0.00 0.00 0.00 0.00 0.00 0.00 0.00 0.00 0.00 0.00 0.00 0.00 0.00 0.00 0.00 0.00 0.00 0.00 0.00 0.00 0.00 0.00 0.00 0.00
0.00 0.00 0.00 0.00 0.00 0.00 0.00 0.00 0.00 0.00 0.00 0.00 0.00 0.00 0.00 0.00 0.00 0.00 0.00 0.00 0.00 0.00 0.00 0.00 0.00 0.00 0.00 0.00 0.00 0.00 0.00 0.00 0.00 0.00 0.00 0.00 0.00 0.00 0.00 0.00 0.00 0.00 0.00 0.00 0.00 0.00 0.00 0.00 0.00
0.00 0.00 0.00 0.00 0.00 0.00 0.00 0.00 0.00 0.00 0.00 0.00 0.00 0.00 0.00 0.00 0.00 0.00 0.00 0.00 0.00 0.00 0.00 0.02 0.02 0.04 0.04 0.00 0.00 0.00 0.00 0.00 0.00 0.00 0.00 0.00 0.00 0.00 0.00 0.00 0.00 0.00 0.00 0.00 0.00 0.00 0.00 0.00 0.00
0.00 0.00 0.00 0.00 0.00 0.00 0.00 0.00 0.00 0.00 0.00 0.00 0.00 0.00 0.00 0.00 0.00 0.00 0.00 0.00 0.00 0.01 0.00 0.02 0.19 0.22 0.20 0.09 0.02 0.00 0.00 0.00 0.00 0.00 0.00 0.00 0.00 0.00 0.00 0.00 0.00 0.00 0.00 0.00 0.00 0.00 0.00 0.00 0.00
0.00 0.00 0.00 0.00 0.00 0.00 0.00 0.00 0.00 0.00 0.00 0.00 0.00 0.00 0.00 0.00 0.00 0.00 0.00 0.00 0.01 0.00 0.01 0.15 0.34 0.72 0.71 0.16 0.05 0.02 0.00 0.00 0.00 0.00 0.00 0.00 0.00 0.00 0.00 0.00 0.00 0.00 0.00 0.00 0.00 0.00 0.00 0.00 0.00
0.00 0.00 0.00 0.00 0.00 0.00 0.00 0.00 0.00 0.00 0.00 0.00 0.00 0.00 0.00 0.00 0.00 0.00 0.00 0.00 0.00 0.00 0.02 0.20 0.32 0.39 0.36 0.11 0.07 0.01 0.00 0.00 0.00 0.00 0.00 0.00 0.00 0.00 0.00 0.00 0.00 0.00 0.00 0.00 0.00 0.00 0.00 0.00 0.00
0.00 0.00 0.00 0.00 0.00 0.00 0.00 0.00 0.00 0.00 0.00 0.00 0.00 0.00 0.00 0.00 0.00 0.00 0.00 0.00 0.00 0.01 0.13 0.35 0.36 0.34 0.24 0.08 0.04 0.01 0.00 0.00 0.00 0.00 0.00 0.00 0.00 0.00 0.00 0.00 0.00 0.00 0.00 0.00 0.00 0.00 0.00 0.00 0.00
0.00 0.00 0.00 0.00 0.00 0.00 0.00 0.00 0.00 0.00 0.00 0.00 0.00 0.00 0.00 0.00 0.00 0.00 0.01 0.02 0.02 0.06 0.21 0.28 0.25 0.15 0.05 0.03 0.03 0.02 0.00 0.00 0.00 0.00 0.00 0.00 0.00 0.00 0.00 0.00 0.00 0.00 0.00 0.00 0.00 0.00 0.00 0.00 0.00
0.00 0.00 0.00 0.00 0.00 0.00 0.00 0.00 0.00 0.00 0.00 0.00 0.00 0.00 0.00 0.00 0.00 0.00 0.03 0.05 0.09 0.13 0.09 0.02 0.01 0.00 0.00 0.00 0.00 0.00 0.00 0.00 0.00 0.00 0.00 0.00 0.00 0.00 0.00 0.00 0.00 0.00 0.00 0.00 0.00 0.00 0.00 0.00 0.00
0.00 0.00 0.00 0.00 0.00 0.00 0.00 0.00 0.00 0.00 0.00 0.00 0.00 0.00 0.00 0.00 0.00 0.01 0.03 0.04 0.03 0.01 0.00 0.00 0.00 0.00 0.00 0.00 0.00 0.00 0.00 0.00 0.00 0.00 0.00 0.00 0.00 0.00 0.00 0.00 0.00 0.00 0.00 0.00 0.00 0.00 0.00 0.00 0.00
0.00 0.00 0.00 0.00 0.00 0.00 0.00 0.00 0.00 0.00 0.00 0.00 0.00 0.00 0.00 0.00 0.01 0.01 0.00 0.00 0.00 0.00 0.00 0.00 0.00 0.00 0.00 0.00 0.00 0.00 0.00 0.00 0.00 0.00 0.00 0.00 0.00 0.00 0.00 0.00 0.00 0.00 0.00 0.00 0.00 0.00 0.00 0.00 0.00
0.00 0.00 0.00 0.00 0.00 0.00 0.00 0.00 0.00 0.00 0.00 0.00 0.00 0.00 0.00 0.00 0.00 0.00 0.00 0.00 0.00 0.00 0.00 0.00 0.00 0.00 0.00 0.00 0.00 0.00 0.00 0.00 0.00 0.00 0.00 0.00 0.00 0.00 0.00 0.00 0.00 0.00 0.00 0.00 0.00 0.00 0.00 0.00 0.00
0.00 0.00 0.00 0.00 0.00 0.00 0.00 0.01 0.01 0.00 0.00 0.00 0.00 0.00 0.00 0.00 0.00 0.00 0.00 0.00 0.00 0.00 0.00 0.00 0.00 0.00 0.00 0.00 0.00 0.00 0.00 0.00 0.00 0.00 0.00 0.00 0.00 0.00 0.00 0.00 0.00 0.00 0.00 0.00 0.00 0.00 0.00 0.00 0.00
0.00 0.00 0.00 0.02 0.02 0.01 0.04 0.04 0.02 0.00 0.00 0.00 0.00 0.00 0.00 0.00 0.00 0.00 0.00 0.00 0.00 0.00 0.00 0.00 0.00 0.00 0.00 0.00 0.00 0.00 0.00 0.00 0.00 0.00 0.00 0.00 0.00 0.00 0.00 0.00 0.00 0.00 0.00 0.00 0.00 0.01 0.03 0.06 0.11
0.00 0.00 0.00 0.01 0.01 0.02 0.01 0.00 0.00 0.00 0.00 0.00 0.00 0.00 0.00 0.00 0.00 0.00 0.00 0.00 0.00 0.00 0.00 0.00 0.00 0.00 0.00 0.00 0.00 0.00 0.00 0.00 0.00 0.00 0.00 0.00 0.00 0.00 0.00 0.00 0.00 0.00 0.01 0.02 0.07 0.20 0.31 0.37 0.42
0.00 0.00 0.00 0.00 0.00 0.00 0.00 0.00 0.00 0.00 0.00 0.00 0.00 0.00 0.00 0.00 0.00 0.00 0.00 0.00 0.00 0.00 0.00 0.00 0.00 0.00 0.00 0.00 0.00 0.00 0.00 0.00 0.00 0.00 0.00 0.00 0.00 0.00 0.00 0.00 0.01 0.05 0.12 0.17 0.25 0.28 0.24 0.22 0.19
0.00 0.00 0.00 0.00 0.00 0.00 0.00 0.00 0.01 0.00 0.00 0.00 0.00 0.00 0.00 0.00 0.00 0.00 0.00 0.00 0.00 0.00 0.00 0.00 0.00 0.00 0.00 0.00 0.00 0.00 0.00 0.00 0.00 0.00 0.00 0.00 0.00 0.00 0.01 0.07 0.16 0.17 0.13 0.07 0.05 0.04 0.04 0.04 0.05
0.00 0.00 0.00 0.00 0.00 0.04 0.07 0.01 0.00 0.00 0.00 0.00 0.00 0.00 0.00 0.00 0.00 0.00 0.00 0.00 0.00 0.00 0.00 0.00 0.00 0.00 0.00 0.00 0.00 0.00 0.00 0.00 0.00 0.00 0.00 0.00 0.00 0.00 0.01 0.03 0.01 0.02 0.04 0.03 0.02 0.02 0.02 0.01 0.01
0.00 0.00 0.00 0.01 0.02 0.01 0.02 0.01 0.00 0.00 0.00 0.00 0.01 0.00 0.00 0.00 0.00 0.00 0.00 0.00 0.00 0.00 0.00 0.00 0.00 0.00 0.00 0.00 0.00 0.00 0.00 0.00 0.00 0.00 0.00 0.00 0.00 0.00 0.03 0.04 0.04 0.05 0.03 0.02 0.02 0.01 0.01 0.00 0.00

GFSSGP_prec_precacc_036.txt.gz
Total_Precipitation_Accumulation
0.00 0.00 0.00 0.00 0.00 0.00 0.00 0.00 0.00 0.00 0.00 0.01 0.04 0.10 0.06 0.01 0.06 0.18 0.09 0.01 0.00 0.00 0.00 0.00 0.00 0.00 0.00 0.02 0.02 0.02 0.03 0.02 0.02 0.02 0.02 0.06 0.05 0.01 0.04 0.16 0.16 0.18 0.10 0.05 0.07 0.14 0.28 0.28 0.21
0.00 0.00 0.00 0.00 0.00 0.00 0.00 0.00 0.00 0.00 0.01 0.04 0.08 0.09 0.03 0.06 0.02 0.04 0.11 0.03 0.00 0.00 0.00 0.00 0.00 0.00 0.00 0.00 0.00 0.00 0.00 0.01 0.00 0.00 0.00 0.01 0.03 0.03 0.01 0.07 0.10 0.07 0.05 0.03 0.05 0.11 0.90 0.70 0.61
0.00 0.00 0.00 0.00 0.00 0.00 0.00 0.00 0.00 0.00 0.01 0.00 0.00 0.01 0.07 0.10 0.03 0.03 0.03 0.01 0.01 0.00 0.00 0.00 0.00 0.00 0.00 0.00 0.00 0.00 0.00 0.00 0.01 0.01 0.02 0.04 0.04 0.04 0.04 0.12 0.05 0.10 0.10 0.05 0.05 0.02 0.65 1.02 0.74
0.00 0.00 0.00 0.00 0.00 0.00 0.00 0.00 0.00 0.00 0.00 0.00 0.00 0.02 0.09 0.05 0.02 0.01 0.00 0.00 0.00 0.00 0.00 0.00 0.00 0.00 0.00 0.00 0.00 0.00 0.00 0.00 0.00 0.00 0.01 0.01 0.01 0.03 0.05 0.03 0.00 0.00 0.00 0.00 0.02 0.04 0.15 0.26 0.53
0.00 0.00 0.00 0.00 0.00 0.00 0.00 0.00 0.01 0.00 0.00 0.00 0.00 0.05 0.10 0.04 0.00 0.00 0.00 0.00 0.00 0.00 0.00 0.00 0.00 0.00 0.00 0.00 0.00 0.00 0.00 0.00 0.00 0.00 0.00 0.00 0.00 0.00 0.00 0.00 0.00 0.00 0.00 0.01 0.01 0.01 0.09 0.32 0.14
0.00 0.00 0.00 0.00 0.00 0.00 0.00 0.00 0.01 0.00 0.00 0.00 0.00 0.02 0.08 0.01 0.01 0.00 0.00 0.00 0.00 0.00 0.00 0.00 0.00 0.00 0.00 0.00 0.00 0.00 0.00 0.00 0.00 0.00 0.00 0.00 0.00 0.00 0.00 0.00 0.00 0.00 0.00 0.00 0.00 0.00 0.00 0.14 0.08
0.00 0.00 0.00 0.00 0.00 0.00 0.00 0.00 0.01 0.01 0.00 0.00 0.00 0.01 0.04 0.02 0.01 0.00 0.00 0.00 0.00 0.00 0.00 0.00 0.00 0.00 0.00 0.00 0.00 0.00 0.00 0.00 0.00 0.00 0.00 0.00 0.00 0.00 0.00 0.00 0.00 0.00 0.00 0.00 0.00 0.00 0.01 0.01 0.01
0.00 0.00 0.00 0.00 0.00 0.00 0.00 0.00 0.00 0.00 0.00 0.00 0.00 0.00 0.03 0.01 0.00 0.01 0.01 0.01 0.00 0.00 0.00 0.00 0.02 0.00 0.00 0.00 0.00 0.00 0.00 0.00 0.00 0.00 0.00 0.00 0.00 0.00 0.00 0.00 0.00 0.00 0.00 0.00 0.00 0.00 0.00 0.00 0.01
0.00 0.00 0.00 0.00 0.00 0.00 0.00 0.00 0.00 0.00 0.00 0.00 0.00 0.00 0.01 0.01 0.00 0.01 0.01 0.01 0.02 0.01 0.01 0.01 0.01 0.00 0.00 0.00 0.00 0.00 0.00 0.00 0.00 0.00 0.00 0.00 0.00 0.00 0.00 0.00 0.00 0.00 0.00 0.00 0.00 0.00 0.00 0.00 0.00
0.00 0.00 0.00 0.00 0.00 0.00 0.00 0.00 0.01 0.00 0.00 0.00 0.00 0.00 0.00 0.00 0.00 0.00 0.00 0.00 0.00 0.00 0.01 0.00 0.00 0.01 0.00 0.00 0.00 0.00 0.02 0.00 0.00 0.00 0.00 0.00 0.00 0.00 0.00 0.00 0.00 0.00 0.00 0.00 0.00 0.00 0.00 0.00 0.00
0.00 0.00 0.00 0.00 0.00 0.00 0.00 0.00 0.00 0.00 0.00 0.00 0.00 0.00 0.00 0.00 0.00 0.00 0.00 0.00 0.00 0.00 0.00 0.00 0.00 0.00 0.00 0.00 0.00 0.00 0.00 0.00 0.00 0.00 0.00 0.00 0.00 0.00 0.00 0.00 0.00 0.00 0.00 0.00 0.00 0.00 0.00 0.00 0.00
0.00 0.00 0.00 0.00 0.00 0.00 0.00 0.00 0.00 0.00 0.00 0.00 0.00 0.00 0.00 0.00 0.00 0.00 0.00 0.00 0.00 0.00 0.00 0.00 0.00 0.00 0.00 0.00 0.00 0.00 0.00 0.00 0.00 0.00 0.00 0.00 0.00 0.00 0.00 0.00 0.00 0.00 0.00 0.00 0.00 0.00 0.00 0.00 0.00
0.00 0.00 0.00 0.00 0.00 0.00 0.00 0.00 0.00 0.00 0.00 0.00 0.00 0.00 0.00 0.00 0.00 0.00 0.00 0.00 0.00 0.00 0.00 0.00 0.00 0.00 0.00 0.00 0.00 0.00 0.00 0.00 0.00 0.00 0.00 0.00 0.00 0.00 0.00 0.00 0.00 0.00 0.00 0.00 0.00 0.00 0.00 0.00 0.00
0.00 0.00 0.00 0.00 0.00 0.00 0.00 0.00 0.00 0.00 0.00 0.00 0.00 0.00 0.00 0.00 0.00 0.00 0.00 0.00 0.00 0.00 0.00 0.02 0.02 0.04 0.04 0.00 0.00 0.00 0.00 0.00 0.00 0.00 0.00 0.00 0.00 0.00 0.00 0.00 0.00 0.00 0.00 0.00 0.00 0.00 0.00 0.00 0.00
0.00 0.00 0.00 0.00 0.00 0.00 0.00 0.00 0.00 0.00 0.00 0.00 0.00 0.00 0.00 0.00 0.00 0.00 0.00 0.00 0.00 0.01 0.00 0.02 0.20 0.23 0.20 0.09 0.02 0.02 0.00 0.00 0.00 0.00 0.00 0.00 0.00 0.00 0.00 0.00 0.00 0.00 0.00 0.00 0.00 0.00 0.00 0.00 0.00
0.00 0.00 0.00 0.00 0.00 0.00 0.00 0.00 0.00 0.00 0.00 0.00 0.00 0.00 0.00 0.00 0.00 0.00 0.00 0.00 0.01 0.00 0.02 0.19 0.41 0.79 0.75 0.18 0.09 0.05 0.01 0.00 0.00 0.00 0.00 0.00 0.00 0.00 0.00 0.00 0.00 0.00 0.00 0.00 0.00 0.00 0.00 0.00 0.00
0.00 0.00 0.00 0.00 0.00 0.00 0.00 0.00 0.00 0.00 0.00 0.00 0.00 0.00 0.00 0.00 0.00 0.00 0.00 0.00 0.00 0.00 0.04 0.28 0.53 0.67 0.61 0.47 0.19 0.07 0.03 0.00 0.00 0.00 0.00 0.00 0.00 0.00 0.00 0.00 0.00 0.00 0.00 0.00 0.00 0.00 0.00 0.00 0.00
0.00 0.00 0.00 0.00 0.00 0.00 0.00 0.00 0.00 0.00 0.00 0.00 0.00 0.00 0.00 0.00 0.00 0.00 0.00 0.01 0.00 0.01 0.15 0.49 0.67 0.91 1.08 0.40 0.11 0.03 0.01 0.00 0.00 0.00 0.00 0.00 0.00 0.00 0.00 0.00 0.00 0.00 0.00 0.00 0.00 0.00 0.00 0.00 0.00
0.00 0.00 0.00 0.00 0.00 0.00 0.00 0.00 0.00 0.00 0.00 0.00 0.00 0.00 0.00 0.00 0.00 0.00 0.01 0.02 0.02 0.08 0.31 0.54 0.53 0.38 0.15 0.10 0.05 0.02 0.01 0.00 0.00 0.00 0.00 0.00 0.00 0.00 0.00 0.00 0.00 0.00 0.00 0.00 0.00 0.00 0.00 0.00 0.00
0.00 0.00 0.00 0.00 0.00 0.00 0.00 0.00 0.00 0.00 0.00 0.00 0.00 0.00 0.00 0.00 0.00 0.00 0.04 0.09 0.16 0.25 0.20 0.09 0.03 0.00 0.00 0.00 0.00 0.00 0.00 0.00 0.00 0.00 0.00 0.00 0.00 0.00 0.00 0.00 0.00 0.00 0.00 0.00 0.00 0.00 0.00 0.00 0.00
0.00 0.00 0.00 0.00 0.00 0.00 0.00 0.00 0.00 0.00 0.00 0.00 0.00 0.00 0.00 0.00 0.00 0.04 0.05 0.07 0.05 0.02 0.00 0.00 0.00 0.00 0.00 0.00 0.00 0.00 0.00 0.00 0.00 0.00 0.00 0.00 0.00 0.00 0.00 0.00 0.00 0.00 0.00 0.00 0.00 0.00 0.00 0.00 0.00
0.00 0.00 0.00 0.00 0.00 0.00 0.00 0.00 0.00 0.00 0.00 0.00 0.00 0.00 0.00 0.00 0.01 0.01 0.00 0.00 0.00 0.00 0.00 0.00 0.00 0.00 0.00 0.00 0.00 0.00 0.00 0.00 0.00 0.00 0.00 0.00 0.00 0.00 0.00 0.00 0.00 0.00 0.00 0.00 0.00 0.00 0.00 0.00 0.00
0.00 0.00 0.00 0.00 0.00 0.00 0.00 0.00 0.00 0.00 0.00 0.00 0.00 0.00 0.00 0.00 0.00 0.00 0.00 0.00 0.00 0.00 0.00 0.00 0.00 0.00 0.00 0.00 0.00 0.00 0.00 0.00 0.00 0.00 0.00 0.00 0.00 0.00 0.00 0.00 0.00 0.00 0.00 0.00 0.00 0.00 0.00 0.00 0.00
0.00 0.00 0.00 0.00 0.00 0.00 0.00 0.01 0.01 0.00 0.00 0.00 0.00 0.00 0.00 0.00 0.00 0.00 0.00 0.00 0.00 0.00 0.00 0.00 0.00 0.00 0.00 0.00 0.00 0.00 0.00 0.00 0.00 0.00 0.00 0.00 0.00 0.00 0.00 0.00 0.00 0.00 0.00 0.00 0.00 0.00 0.00 0.00 0.00
0.00 0.00 0.00 0.02 0.02 0.01 0.04 0.04 0.02 0.00 0.00 0.00 0.00 0.00 0.00 0.00 0.00 0.00 0.00 0.00 0.00 0.00 0.00 0.00 0.00 0.00 0.00 0.00 0.00 0.00 0.00 0.00 0.00 0.00 0.00 0.00 0.00 0.00 0.00 0.00 0.00 0.00 0.00 0.00 0.00 0.01 0.03 0.06 0.11
0.00 0.00 0.00 0.01 0.01 0.02 0.01 0.00 0.00 0.00 0.00 0.00 0.00 0.00 0.00 0.00 0.00 0.00 0.00 0.00 0.00 0.00 0.00 0.00 0.00 0.00 0.00 0.00 0.00 0.00 0.00 0.00 0.00 0.00 0.00 0.00 0.00 0.00 0.00 0.00 0.00 0.00 0.01 0.02 0.07 0.20 0.31 0.37 0.42
0.00 0.00 0.00 0.00 0.00 0.00 0.00 0.00 0.00 0.00 0.00 0.00 0.00 0.00 0.00 0.00 0.00 0.00 0.00 0.00 0.00 0.00 0.00 0.00 0.00 0.00 0.00 0.00 0.00 0.00 0.00 0.00 0.00 0.00 0.00 0.00 0.00 0.00 0.00 0.00 0.01 0.05 0.12 0.17 0.25 0.28 0.24 0.22 0.19
0.00 0.00 0.00 0.00 0.00 0.00 0.00 0.00 0.01 0.00 0.00 0.00 0.00 0.00 0.00 0.00 0.00 0.00 0.00 0.00 0.00 0.00 0.00 0.00 0.00 0.00 0.00 0.00 0.00 0.00 0.00 0.00 0.00 0.00 0.00 0.00 0.00 0.00 0.01 0.07 0.16 0.17 0.13 0.07 0.05 0.04 0.04 0.04 0.05
0.00 0.00 0.00 0.00 0.00 0.04 0.07 0.01 0.00 0.00 0.00 0.00 0.00 0.00 0.00 0.00 0.00 0.00 0.00 0.00 0.00 0.00 0.00 0.00 0.00 0.00 0.00 0.00 0.00 0.00 0.00 0.00 0.00 0.00 0.00 0.00 0.00 0.00 0.01 0.03 0.01 0.02 0.04 0.03 0.02 0.02 0.02 0.01 0.01
0.00 0.00 0.00 0.01 0.02 0.01 0.02 0.01 0.00 0.00 0.00 0.00 0.01 0.00 0.00 0.00 0.00 0.00 0.00 0.00 0.00 0.00 0.00 0.00 0.00 0.00 0.00 0.00 0.00 0.00 0.00 0.00 0.00 0.00 0.00 0.00 0.00 0.00 0.03 0.04 0.04 0.05 0.03 0.02 0.02 0.01 0.01 0.00 0.00

GFSSGP_prec_precacc_042.txt.gz
Total_Precipitation_Accumulation
0.00 0.00 0.00 0.00 0.00 0.00 0.00 0.00 0.00 0.02 0.06 0.04 0.04 0.11 0.07 0.03 0.08 0.23 0.11 0.03 0.00 0.00 0.00 0.00 0.02 0.03 0.01 0.02 0.02 0.02 0.03 0.02 0.02 0.02 0.02 0.06 0.05 0.01 0.04 0.16 0.16 0.18 0.10 0.05 0.07 0.14 0.28 0.28 0.21
0.00 0.00 0.00 0.00 0.00 0.00 0.00 0.00 0.00 0.03 0.11 0.16 0.13 0.11 0.07 0.12 0.06 0.09 0.16 0.07 0.01 0.00 0.00 0.00 0.00 0.02 0.01 0.01 0.02 0.01 0.00 0.01 0.00 0.00 0.00 0.01 0.03 0.03 0.01 0.07 0.10 0.07 0.05 0.03 0.05 0.11 0.90 0.70 0.61
0.00 0.00 0.00 0.00 0.00 0.00 0.00 0.00 0.00 0.03 0.11 0.13 0.11 0.04 0.10 0.15 0.18 0.24 0.14 0.04 0.01 0.00 0.00 0.00 0.00 0.04 0.04 0.01 0.01 0.00 0.00 0.00 0.01 0.01 0.02 0.04 0.04 0.04 0.04 0.12 0.05 0.10 0.10 0.05 0.05 0.02 0.65 1.02 0.74
0.00 0.00 0.00 0.00 0.00 0.00 0.00 0.00 0.00 0.01 0.00 0.02 0.07 0.10 0.13 0.12 0.21 0.16 0.05 0.06 0.03 0.01 0.01 0.00 0.01 0.04 0.03 0.01 0.00 0.00 0.00 0.00 0.00 0.00 0.01 0.01 0.01 0.03 0.05 0.03 0.00 0.00 0.00 0.00 0.02 0.04 0.15 0.26 0.53
0.00 0.00 0.00 0.00 0.00 0.00 0.00 0.01 0.03 0.01 0.01 0.02 0.00 0.05 0.12 0.07 0.07 0.09 0.04 0.02 0.04 0.01 0.00 0.00 0.02 0.03 0.00 0.00 0.00 0.00 0.00 0.00 0.00 0.00 0.00 0.00 0.00 0.00 0.00 0.00 0.00 0.00 0.00 0.01 0.01 0.01 0.09 0.32 0.14
0.00 0.00 0.00 0.00 0.00 0.00 0.00 0.06 0.01 0.01 0.00 0.01 0.00 0.03 0.08 0.02 0.02 0.18 0.18 0.06 0.08 0.01 0.00 0.00 0.00 0.00 0.00 0.00 0.00 0.00 0.00 0.00 0.00 0.00 0.00 0.00 0.00 0.00 0.00 0.00 0.00 0.00 0.00 0.00 0.00 0.00 0.00 0.14 0.08
0.00 0.00 0.00 0.00 0.00 0.00 0.00 0.03 0.05 0.02 0.00 0.00 0.00 0.02 0.05 0.05 0.04 0.07 0.09 0.11 0.02 0.00 0.00 0.00 0.00 0.00 0.00 0.00 0.00 0.00 0.00 0.00 0.00 0.00 0.00 0.00 0.00 0.00 0.00 0.00 0.00 0.00 0.00 0.00 0.00 0.00 0.01 0.01 0.01
0.00 0.00 0.00 0.00 0.00 0.01 0.02 0.02 0.02 0.00 0.00 0.00 0.00 0.01 0.05 0.05 0.08 0.04 0.01 0.01 0.00 0.00 0.00 0.00 0.02 0.00 0.00 0.00 0.00 0.00 0.00 0.00 0.00 0.00 0.00 0.00 0.00 0.00 0.00 0.00 0.00 0.00 0.00 0.00 0.00 0.00 0.00 0.00 0.01
0.00 0.00 0.00 0.00 0.02 0.08 0.04 0.03 0.01 0.00 0.00 0.00 0.00 0.00 0.01 0.01 0.00 0.01 0.01 0.01 0.02 0.01 0.01 0.01 0.01 0.00 0.00 0.00 0.00 0.00 0.00 0.00 0.00 0.00 0.00 0.00 0.00 0.00 0.00 0.00 0.00 0.00 0.00 0.00 0.00 0.00 0.00 0.00 0.00
0.00 0.00 0.00 0.00 0.00 0.02 0.02 0.00 0.01 0.01 0.00 0.00 0.00 0.00 0.00 0.00 0.00 0.00 0.00 0.00 0.00 0.00 0.01 0.00 0.00 0.01 0.00 0.00 0.00 0.00 0.02 0.00 0.00 0.00 0.00 0.00 0.00 0.00 0.00 0.00 0.00 0.00 0.00 0.00 0.00 0.00 0.00 0.00 0.00
0.00 0.00 0.00 0.00 0.00 0.00 0.01 0.00 0.00 0.00 0.00 0.00 0.00 0.00 0.00 0.00 0.00 0.00 0.00 0.00 0.00 0.00 0.00 0.00 0.00 0.00 0.00 0.00 0.00 0.00 0.00 0.00 0.00 0.00 0.00 0.00 0.00 0.00 0.00 0.00 0.00 0.00 0.00 0.00 0.00 0.00 0.00 0.00 0.00
0.00 0.00 0.00 0.00 0.00 0.00 0.00 0.00 0.00 0.00 0.00 0.00 0.00 0.00 0.00 0.00 0.00 0.00 0.00 0.00 0.00 0.00 0.00 0.00 0.00 0.00 0.00 0.00 0.00 0.00 0.00 0.00 0.00 0.00 0.00 0.00 0.01 0.01 0.00 0.00 0.00 0.00 0.00 0.00 0.00 0.00 0.00 0.00 0.00
0.00 0.00 0.00 0.00 0.00 0.00 0.00 0.00 0.00 0.00 0.00 0.00 0.00 0.00 0.00 0.00 0.00 0.00 0.00 0.00 0.00 0.00 0.00 0.00 0.00 0.00 0.00 0.00 0.00 0.00 0.00 0.00 0.00 0.00 0.01 0.01 0.04 0.02 0.00 0.00 0.00 0.00 0.00 0.00 0.00 0.00 0.00 0.00 0.00
0.00 0.00 0.00 0.00 0.00 0.00 0.00 0.00 0.00 0.00 0.00 0.00 0.00 0.00 0.00 0.00 0.00 0.00 0.00 0.00 0.00 0.00 0.00 0.02 0.02 0.04 0.04 0.00 0.00 0.00 0.02 0.02 0.03 0.10 0.22 0.19 0.08 0.01 0.00 0.00 0.00 0.00 0.00 0.00 0.00 0.00 0.00 0.00 0.00
0.00 0.00 0.00 0.00 0.00 0.00 0.00 0.00 0.00 0.00 0.00 0.00 0.00 0.00 0.00 0.00 0.00 0.00 0.00 0.00 0.00 0.01 0.00 0.02 0.25 0.25 0.20 0.09 0.06 0.09 0.05 0.05 0.06 0.12 0.25 0.16 0.06 0.02 0.00 0.00 0.00 0.00 0.00 0.00 0.00 0.00 0.00 0.00 0.00
0.00 0.00 0.00 0.00 0.00 0.00 0.00 0.00 0.00 0.00 0.00 0.00 0.00 0.00 0.00 0.00 0.00 0.00 0.00 0.00 0.01 0.01 0.03 0.27 0.59 0.91 0.80 0.22 0.16 0.12 0.10 0.09 0.10 0.10 0.11 0.07 0.02 0.00 0.00 0.00 0.00 0.00 0.00 0.00 0.00 0.00 0.00 0.00 0.00
0.00 0.00 0.00 0.00 0.00 0.00 0.00 0.00 0.00 0.00 0.00 0.00 0.00 0.00 0.00 0.00 0.00 0.00 0.00 0.00 0.02 0.01 0.04 0.32 0.68 0.83 0.80 0.85 0.82 0.48 0.15 0.05 0.03 0.01 0.00 0.00 0.00 0.00 0.00 0.00 0.00 0.00 0.00 0.00 0.00 0.00 0.00 0.00 0.00
0.00 0.00 0.00 0.00 0.00 0.00 0.00 0.00 0.00 0.00 0.00 0.00 0.00 0.00 0.00 0.00 0.00 0.00 0.00 0.02 0.02 0.02 0.17 0.54 0.77 1.26 2.22 1.53 0.49 0.14 0.02 0.00 0.00 0.00 0.00 0.00 0.00 0.00 0.00 0.00 0.00 0.00 0.00 0.00 0.00 0.00 0.00 0.00 0.00
0.00 0.00 0.00 0.00 0.00 0.00 0.00 0.00 0.00 0.00 0.00 0.00 0.00 0.00 0.00 0.00 0.00 0.00 0.01 0.03 0.03 0.13 0.43 0.65 0.68 0.73 0.49 0.16 0.06 0.02 0.01 0.00 0.00 0.00 0.00 0.00 0.00 0.00 0.00 0.00 0.00 0.00 0.00 0.00 0.00 0.00 0.00 0.00 0.00
0.00 0.00 0.00 0.00 0.00 0.00 0.00 0.00 0.00 0.00 0.00 0.00 0.00 0.00 0.00 0.00 0.00 0.00 0.05 0.10 0.17 0.31 0.29 0.14 0.05 0.01 0.00 0.00 0.00 0.00 0.00 0.00 0.00 0.00 0.00 0.00 0.00 0.00 0.00 0.00 0.00 0.00 0.00 0.00 0.00 0.00 0.00 0.00 0.00
0.00 0.00 0.00 0.00 0.00 0.00 0.00 0.00 0.00 0.00 0.00 0.00 0.00 0.00 0.00 0.00 0.00 0.04 0.05 0.07 0.06 0.02 0.00 0.00 0.00 0.00 0.00 0.00 0.00 0.00 0.00 0.00 0.00 0.00 0.00 0.00 0.00 0.00 0.00 0.00 0.00 0.00 0.00 0.00 0.00 0.00 0.00 0.00 0.00
0.00 0.00 0.00 0.00 0.00 0.00 0.00 0.00 0.00 0.00 0.00 0.00 0.00 0.00 0.00 0.00 0.01 0.01 0.00 0.00 0.00 0.00 0.00 0.00 0.00 0.00 0.00 0.00 0.00 0.00 0.00 0.00 0.00 0.00 0.00 0.00 0.00 0.00 0.00 0.00 0.00 0.00 0.00 0.00 0.00 0.00 0.00 0.00 0.00
0.00 0.00 0.00 0.00 0.00 0.00 0.00 0.00 0.00 0.00 0.00 0.00 0.00 0.00 0.00 0.00 0.00 0.00 0.00 0.00 0.00 0.00 0.00 0.00 0.00 0.00 0.00 0.00 0.00 0.00 0.00 0.00 0.00 0.00 0.00 0.00 0.00 0.00 0.00 0.00 0.00 0.00 0.00 0.00 0.00 0.00 0.00 0.00 0.00
0.00 0.00 0.00 0.00 0.00 0.00 0.00 0.01 0.01 0.00 0.00 0.00 0.00 0.00 0.00 0.00 0.00 0.00 0.00 0.00 0.00 0.00 0.00 0.00 0.00 0.00 0.00 0.00 0.00 0.00 0.00 0.00 0.00 0.00 0.00 0.00 0.00 0.00 0.00 0.00 0.00 0.00 0.00 0.00 0.00 0.00 0.00 0.01 0.01
0.00 0.00 0.00 0.02 0.02 0.01 0.04 0.04 0.02 0.00 0.00 0.00 0.00 0.00 0.00 0.00 0.00 0.00 0.00 0.00 0.00 0.00 0.00 0.00 0.00 0.00 0.00 0.00 0.00 0.00 0.00 0.00 0.00 0.00 0.00 0.00 0.00 0.00 0.00 0.00 0.00 0.00 0.00 0.00 0.00 0.01 0.04 0.08 0.13
0.00 0.00 0.00 0.01 0.01 0.02 0.01 0.00 0.00 0.00 0.00 0.00 0.00 0.00 0.00 0.00 0.00 0.00 0.00 0.00 0.00 0.00 0.00 0.00 0.00 0.00 0.00 0.00 0.00 0.00 0.00 0.00 0.00 0.00 0.00 0.00 0.00 0.00 0.00 0.00 0.00 0.00 0.01 0.02 0.07 0.21 0.34 0.40 0.44
0.00 0.00 0.00 0.00 0.00 0.00 0.00 0.00 0.00 0.00 0.00 0.00 0.00 0.00 0.00 0.00 0.00 0.00 0.00 0.00 0.00 0.00 0.00 0.00 0.00 0.00 0.00 0.00 0.00 0.00 0.00 0.00 0.00 0.00 0.00 0.00 0.00 0.00 0.00 0.00 0.01 0.05 0.12 0.18 0.27 0.32 0.28 0.25 0.21
0.00 0.00 0.00 0.00 0.00 0.00 0.00 0.00 0.01 0.00 0.00 0.00 0.00 0.00 0.00 0.00 0.00 0.00 0.00 0.00 0.00 0.00 0.00 0.00 0.00 0.00 0.00 0.00 0.00 0.00 0.00 0.00 0.00 0.00 0.00 0.00 0.00 0.00 0.01 0.07 0.16 0.17 0.13 0.08 0.07 0.06 0.06 0.05 0.06
0.00 0.00 0.00 0.00 0.00 0.04 0.07 0.01 0.00 0.00 0.00 0.00 0.00 0.00 0.00 0.00 0.00 0.00 0.00 0.00 0.00 0.00 0.00 0.00 0.00 0.00 0.00 0.00 0.00 0.00 0.00 0.00 0.00 0.00 0.00 0.00 0.00 0.00 0.01 0.03 0.01 0.02 0.04 0.04 0.02 0.02 0.02 0.01 0.01
0.00 0.00 0.00 0.01 0.02 0.01 0.02 0.01 0.00 0.00 0.00 0.00 0.01 0.00 0.00 0.00 0.00 0.00 0.00 0.00 0.00 0.00 0.00 0.00 0.00 0.00 0.00 0.00 0.00 0.00 0.00 0.00 0.00 0.00 0.00 0.00 0.00 0.00 0.03 0.04 0.04 0.05 0.04 0.03 0.03 0.02 0.01 0.01 0.00

GFSSGP_prec_precacc_045.txt.gz
Total_Precipitation_Accumulation
0.00 0.00 0.00 0.00 0.00 0.00 0.00 0.00 0.00 0.02 0.07 0.04 0.04 0.11 0.08 0.05 0.13 0.31 0.14 0.04 0.00 0.02 0.00 0.00 0.02 0.03 0.01 0.02 0.02 0.02 0.03 0.02 0.02 0.02 0.02 0.06 0.05 0.01 0.04 0.16 0.16 0.18 0.10 0.05 0.07 0.14 0.28 0.28 0.21
0.00 0.00 0.00 0.00 0.00 0.00 0.00 0.00 0.00 0.03 0.12 0.17 0.14 0.11 0.08 0.14 0.07 0.12 0.30 0.20 0.03 0.01 0.00 0.00 0.00 0.02 0.01 0.01 0.02 0.02 0.02 0.01 0.00 0.00 0.00 0.01 0.03 0.03 0.01 0.07 0.10 0.07 0.05 0.03 0.05 0.11 0.90 0.70 0.61
0.00 0.00 0.00 0.00 0.00 0.00 0.00 0.00 0.00 0.03 0.11 0.13 0.11 0.04 0.10 0.16 0.23 0.36 0.37 0.17 0.02 0.01 0.01 0.00 0.00 0.04 0.04 0.01 0.02 0.03 0.03 0.00 0.01 0.01 0.02 0.04 0.04 0.04 0.04 0.12 0.05 0.10 0.10 0.05 0.05 0.02 0.65 1.02 0.74
0.00 0.00 0.00 0.00 0.00 0.00 0.00 0.00 0.00 0.01 0.00 0.02 0.10 0.13 0.15 0.14 0.28 0.34 0.22 0.17 0.22 0.06 0.08 0.00 0.01 0.04 0.05 0.01 0.03 0.02 0.00 0.00 0.00 0.00 0.01 0.01 0.01 0.03 0.05 0.03 0.00 0.00 0.00 0.00 0.02 0.04 0.15 0.26 0.53
0.00 0.00 0.00 0.00 0.00 0.00 0.00 0.01 0.03 0.01 0.01 0.02 0.01 0.12 0.21 0.09 0.09 0.11 0.12 0.08 0.14 0.14 0.05 0.00 0.03 0.08 0.07 0.03 0.03 0.01 0.00 0.00 0.00 0.00 0.00 0.00 0.00 0.00 0.00 0.00 0.00 0.00 0.00 0.01 0.01 0.01 0.09 0.32 0.14
0.00 0.00 0.00 0.00 0.00 0.00 0.00 0.06 0.03 0.03 0.00 0.01 0.00 0.03 0.13 0.03 0.02 0.20 0.36 0.58 0.25 0.12 0.08 0.02 0.03 0.04 0.02 0.02 0.00 0.00 0.00 0.00 0.00 0.00 0.00 0.00 0.00 0.00 0.00 0.00 0.00 0.00 0.00 0.00 0.00 0.00 0.00 0.14 0.08
0.00 0.00 0.00 0.00 0.00 0.00 0.02 0.05 0.10 0.07 0.03 0.00 0.00 0.05 0.07 0.07 0.07 0.50 0.53 0.73 0.33 0.16 0.09 0.03 0.02 0.01 0.00 0.00 0.00 0.00 0.00 0.00 0.00 0.00 0.00 0.00 0.00 0.00 0.00 0.00 0.00 0.00 0.00 0.00 0.00 0.00 0.01 0.01 0.01
0.00 0.00 0.00 0.00 0.00 0.01 0.03 0.03 0.03 0.01 0.00 0.00 0.00 0.02 0.06 0.08 0.15 0.43 0.36 0.21 0.16 0.19 0.07 0.01 0.02 0.00 0.00 0.00 0.00 0.00 0.00 0.00 0.00 0.00 0.00 0.00 0.00 0.00 0.00 0.00 0.00 0.00 0.00 0.00 0.00 0.00 0.00 0.00 0.01
0.00 0.00 0.00 0.01 0.02 0.16 0.09 0.03 0.01 0.00 0.00 0.00 0.00 0.00 0.01 0.02 0.02 0.11 0.20 0.21 0.15 0.08 0.01 0.01 0.01 0.00 0.00 0.00 0.00 0.00 0.00 0.00 0.00 0.00 0.00 0.00 0.00 0.00 0.00 0.00 0.00 0.00 0.00 0.00 0.00 0.00 0.00 0.00 0.00
0.00 0.00 0.00 0.03 0.06 0.04 0.03 0.01 0.01 0.01 0.00 0.00 0.00 0.02 0.00 0.00 0.03 0.07 0.07 0.04 0.04 0.00 0.01 0.00 0.00 0.01 0.00 0.00 0.00 0.00 0.02 0.00 0.00 0.00 0.00 0.00 0.00 0.00 0.00 0.00 0.00 0.00 0.00 0.00 0.00 0.00 0.00 0.00 0.00
0.00 0.00 0.00 0.00 0.05 0.01 0.01 0.00 0.00 0.00 0.00 0.00 0.00 0.05 0.01 0.01 0.05 0.06 0.01 0.01 0.00 0.00 0.00 0.00 0.00 0.00 0.00 0.00 0.00 0.00 0.00 0.00 0.00 0.00 0.00 0.00 0.00 0.00 0.00 0.00 0.00 0.00 0.00 0.00 0.00 0.00 0.00 0.00 0.00
0.00 0.00 0.00 0.00 0.00 0.00 0.00 0.00 0.00 0.00 0.00 0.00 0.00 0.00 0.00 0.00 0.00 0.00 0.00 0.00 0.00 0.00 0.00 0.00 0.00 0.00 0.00 0.00 0.00 0.00 0.00 0.00 0.00 0.02 0.01 0.02 0.03 0.04 0.01 0.00 0.00 0.00 0.00 0.00 0.00 0.00 0.00 0.00 0.00
0.00 0.00 0.00 0.00 0.00 0.00 0.00 0.05 0.03 0.00 0.00 0.00 0.00 0.00 0.00 0.00 0.00 0.00 0.00 0.00 0.00 0.00 0.00 0.00 0.00 0.00 0.00 0.00 0.00 0.00 0.00 0.02 0.07 0.08 0.06 0.03 0.07 0.03 0.00 0.00 0.00 0.00 0.00 0.00 0.00 0.00 0.00 0.00 0.00
0.00 0.00 0.00 0.00 0.00 0.00 0.00 0.02 0.00 0.00 0.00 0.00 0.00 0.00 0.00 0.00 0.00 0.00 0.00 0.00 0.00 0.00 0.00 0.02 0.02 0.04 0.04 0.00 0.00 0.01 0.02 0.03 0.07 0.15 0.22 0.20 0.08 0.01 0.01 0.00 0.00 0.00 0.00 0.00 0.00 0.00 0.00 0.00 0.00
0.00 0.00 0.00 0.00 0.00 0.00 0.00 0.00 0.00 0.00 0.00 0.00 0.00 0.00 0.00 0.00 0.00 0.00 0.00 0.00 0.00 0.01 0.00 0.02 0.25 0.25 0.20 0.09 0.06 0.09 0.05 0.05 0.06 0.12 0.26 0.16 0.06 0.02 0.01 0.00 0.00 0.00 0.00 0.00 0.00 0.00 0.00 0.00 0.00
0.00 0.00 0.00 0.00 0.00 0.00 0.00 0.00 0.00 0.00 0.00 0.00 0.00 0.00 0.00 0.00 0.00 0.00 0.00 0.00 0.01 0.01 0.03 0.27 0.59 0.91 0.81 0.24 0.17 0.12 0.11 0.10 0.11 0.10 0.11 0.08 0.03 0.01 0.00 0.00 0.00 0.00 0.00 0.00 0.00 0.00 0.00 0.00 0.00
0.00 0.00 0.00 0.00 0.00 0.00 0.00 0.00 0.00 0.00 0.00 0.00 0.00 0.00 0.00 0.00 0.00 0.00 0.00 0.00 0.02 0.01 0.04 0.32 0.68 0.84 0.91 0.92 0.97 0.73 0.34 0.16 0.07 0.01 0.01 0.00 0.00 0.00 0.00 0.00 0.00 0.00 0.00 0.00 0.00 0.00 0.00 0.00 0.00
0.00 0.00 0.00 0.00 0.00 0.00 0.00 0.00 0.00 0.00 0.00 0.00 0.00 0.00 0.00 0.00 0.00 0.00 0.00 0.02 0.02 0.02 0.17 0.54 0.78 1.29 2.26 1.66 0.71 0.21 0.07 0.01 0.00 0.00 0.00 0.00 0.00 0.00 0.00 0.00 0.00 0.00 0.00 0.00 0.00 0.00 0.00 0.00 0.00
0.00 0.00 0.00 0.00 0.00 0.00 0.00 0.00 0.00 0.00 0.00 0.00 0.00 0.00 0.00 0.00 0.00 0.00 0.01 0.03 0.03 0.13 0.43 0.65 0.69 0.74 0.50 0.20 0.06 0.02 0.01 0.00 0.00 0.00 0.00 0.00 0.00 0.00 0.00 0.00 0.00 0.00 0.00 0.00 0.00 0.00 0.00 0.00 0.00
0.00 0.00 0.00 0.00 0.00 0.00 0.00 0.00 0.00 0.00 0.00 0.00 0.00 0.00 0.00 0.00 0.00 0.00 0.05 0.10 0.17 0.31 0.29 0.14 0.06 0.01 0.00 0.00 0.00 0.00 0.00 0.00 0.00 0.00 0.00 0.00 0.00 0.00 0.00 0.00 0.00 0.00 0.00 0.00 0.00 0.00 0.00 0.00 0.00
0.00 0.00 0.00 0.00 0.00 0.00 0.00 0.00 0.00 0.00 0.00 0.00 0.00 0.00 0.00 0.00 0.00 0.04 0.05 0.07 0.06 0.02 0.01 0.00 0.00 0.00 0.00 0.00 0.00 0.00 0.00 0.00 0.00 0.00 0.00 0.00 0.00 0.00 0.00 0.00 0.00 0.00 0.00 0.00 0.00 0.00 0.00 0.00 0.00
0.00 0.00 0.00 0.00 0.00 0.00 0.00 0.00 0.00 0.00 0.00 0.00 0.00 0.00 0.00 0.00 0.01 0.01 0.00 0.00 0.00 0.00 0.00 0.00 0.00 0.00 0.00 0.00 0.00 0.00 0.00 0.00 0.00 0.00 0.00 0.00 0.00 0.00 0.00 0.00 0.00 0.00 0.00 0.00 0.00 0.00 0.00 0.00 0.00
0.00 0.00 0.00 0.00 0.00 0.00 0.00 0.00 0.01 0.00 0.00 0.00 0.00 0.00 0.00 0.00 0.00 0.00 0.00 0.00 0.00 0.00 0.00 0.00 0.00 0.00 0.00 0.00 0.00 0.00 0.00 0.00 0.00 0.00 0.00 0.00 0.00 0.00 0.00 0.00 0.00 0.00 0.00 0.00 0.00 0.00 0.00 0.00 0.00
0.00 0.00 0.00 0.00 0.00 0.00 0.00 0.01 0.01 0.00 0.00 0.00 0.00 0.00 0.00 0.00 0.00 0.00 0.00 0.00 0.00 0.00 0.00 0.00 0.00 0.00 0.00 0.00 0.00 0.00 0.00 0.00 0.00 0.00 0.00 0.00 0.00 0.00 0.00 0.00 0.00 0.00 0.00 0.00 0.00 0.00 0.00 0.01 0.02
0.00 0.00 0.00 0.02 0.02 0.01 0.04 0.04 0.02 0.00 0.00 0.00 0.00 0.00 0.00 0.00 0.00 0.00 0.00 0.00 0.00 0.00 0.00 0.00 0.00 0.00 0.00 0.00 0.00 0.00 0.00 0.00 0.00 0.00 0.00 0.00 0.00 0.00 0.00 0.00 0.00 0.00 0.00 0.00 0.00 0.01 0.04 0.09 0.15
0.00 0.00 0.00 0.01 0.01 0.02 0.01 0.00 0.00 0.00 0.00 0.00 0.00 0.00 0.00 0.00 0.00 0.00 0.00 0.00 0.00 0.00 0.00 0.00 0.00 0.00 0.00 0.00 0.00 0.00 0.00 0.00 0.00 0.00 0.00 0.00 0.00 0.00 0.00 0.00 0.00 0.00 0.01 0.02 0.07 0.21 0.35 0.43 0.47
0.00 0.00 0.00 0.00 0.00 0.00 0.00 0.00 0.00 0.00 0.00 0.00 0.00 0.00 0.00 0.00 0.00 0.00 0.00 0.00 0.00 0.00 0.00 0.00 0.00 0.00 0.00 0.00 0.00 0.00 0.00 0.00 0.00 0.00 0.00 0.00 0.00 0.00 0.00 0.00 0.01 0.05 0.12 0.18 0.27 0.32 0.29 0.27 0.23
0.00 0.00 0.00 0.00 0.00 0.00 0.00 0.00 0.01 0.00 0.00 0.00 0.00 0.00 0.00 0.00 0.00 0.00 0.00 0.00 0.00 0.00 0.00 0.00 0.00 0.00 0.00 0.00 0.00 0.00 0.00 0.00 0.00 0.00 0.00 0.00 0.00 0.00 0.01 0.07 0.16 0.17 0.13 0.08 0.07 0.06 0.06 0.06 0.06
0.00 0.00 0.00 0.00 0.00 0.04 0.07 0.01 0.00 0.00 0.00 0.00 0.00 0.00 0.00 0.00 0.00 0.00 0.00 0.00 0.00 0.00 0.00 0.00 0.00 0.00 0.00 0.00 0.00 0.00 0.00 0.00 0.00 0.00 0.00 0.00 0.00 0.00 0.01 0.03 0.01 0.02 0.04 0.04 0.02 0.02 0.02 0.02 0.02
0.00 0.00 0.00 0.01 0.02 0.01 0.02 0.01 0.00 0.00 0.00 0.00 0.01 0.00 0.00 0.00 0.00 0.00 0.00 0.00 0.00 0.00 0.00 0.00 0.00 0.00 0.00 0.00 0.00 0.00 0.00 0.00 0.00 0.00 0.00 0.00 0.00 0.00 0.03 0.04 0.04 0.05 0.04 0.03 0.03 0.02 0.02 0.02 0.01

GFSSGP_prec_precacc_048.txt.gz
Total_Precipitation_Accumulation
0.00 0.00 0.00 0.00 0.00 0.00 0.00 0.00 0.00 0.02 0.07 0.05 0.05 0.11 0.08 0.05 0.14 0.38 0.19 0.06 0.01 0.03 0.00 0.00 0.02 0.03 0.01 0.02 0.02 0.02 0.03 0.02 0.02 0.02 0.02 0.06 0.05 0.01 0.04 0.16 0.16 0.18 0.10 0.05 0.07 0.14 0.28 0.28 0.21
0.00 0.00 0.00 0.00 0.00 0.00 0.00 0.00 0.01 0.05 0.20 0.26 0.16 0.14 0.12 0.15 0.08 0.13 0.35 0.24 0.03 0.01 0.00 0.00 0.00 0.02 0.01 0.01 0.02 0.03 0.03 0.01 0.00 0.00 0.00 0.01 0.03 0.03 0.01 0.07 0.10 0.07 0.05 0.03 0.05 0.11 0.90 0.70 0.61
0.00 0.00 0.00 0.00 0.00 0.00 0.00 0.00 0.01 0.03 0.12 0.13 0.12 0.04 0.11 0.16 0.25 0.39 0.41 0.29 0.03 0.01 0.01 0.00 0.01 0.05 0.05 0.02 0.03 0.04 0.04 0.00 0.01 0.01 0.02 0.04 0.04 0.04 0.04 0.12 0.05 0.10 0.10 0.05 0.05 0.02 0.65 1.02 0.74
0.00 0.00 0.00 0.00 0.00 0.00 0.00 0.00 0.00 0.01 0.01 0.02 0.10 0.13 0.15 0.15 0.31 0.49 0.37 0.27 0.30 0.16 0.21 0.03 0.03 0.05 0.06 0.02 0.04 0.03 0.01 0.00 0.00 0.00 0.01 0.01 0.01 0.03 0.05 0.03 0.00 0.00 0.00 0.00 0.02 0.04 0.15 0.26 0.53
0.00 0.00 0.00 0.00 0.00 0.00 0.00 0.01 0.03 0.01 0.01 0.02 0.01 0.12 0.22 0.10 0.13 0.28 0.51 0.28 0.36 0.50 0.24 0.07 0.13 0.13 0.09 0.05 0.04 0.01 0.00 0.00 0.00 0.00 0.00 0.00 0.00 0.00 0.00 0.00 0.00 0.00 0.00 0.01 0.01 0.01 0.09 0.32 0.14
0.00 0.00 0.00 0.00 0.00 0.00 0.00 0.06 0.06 0.07 0.02 0.01 0.00 0.03 0.14 0.03 0.02 0.24 0.73 0.94 0.67 0.61 0.27 0.10 0.10 0.07 0.04 0.03 0.01 0.00 0.00 0.00 0.00 0.00 0.00 0.00 0.00 0.00 0.00 0.00 0.00 0.00 0.00 0.00 0.00 0.00 0.00 0.14 0.08
0.00 0.00 0.00 0.00 0.00 0.00 0.02 0.24 0.33 0.24 0.07 0.03 0.00 0.05 0.08 0.08 0.12 0.62 0.58 0.85 0.76 0.66 0.29 0.11 0.03 0.01 0.01 0.00 0.00 0.00 0.00 0.00 0.00 0.00 0.00 0.00 0.00 0.00 0.00 0.00 0.00 0.00 0.00 0.00 0.00 0.00 0.01 0.01 0.01
0.00 0.00 0.00 0.00 0.00 0.03 0.07 0.08 0.10 0.04 0.06 0.13 0.05 0.06 0.06 0.10 0.24 0.50 0.45 0.29 0.43 0.73 0.46 0.10 0.03 0.01 0.00 0.00 0.00 0.00 0.00 0.00 0.00 0.00 0.00 0.00 0.00 0.00 0.00 0.00 0.00 0.00 0.00 0.00 0.00 0.00 0.00 0.00 0.01
0.00 0.00 0.00 0.01 0.02 0.18 0.22 0.13 0.12 0.01 0.00 0.00 0.00 0.07 0.02 0.03 0.11 0.20 0.55 0.71 0.74 0.54 0.12 0.01 0.01 0.00 0.00 0.00 0.00 0.00 0.00 0.00 0.00 0.00 0.00 0.00 0.00 0.00 0.00 0.00 0.00 0.00 0.00 0.00 0.00 0.00 0.00 0.00 0.00
0.00 0.00 0.00 0.03 0.08 0.25 0.33 0.04 0.06 0.01 0.00 0.00 0.01 0.03 0.00 0.02 0.08 0.19 0.58 0.58 0.53 0.08 0.02 0.00 0.00 0.01 0.00 0.00 0.00 0.00 0.02 0.00 0.00 0.00 0.00 0.00 0.00 0.00 0.00 0.00 0.00 0.00 0.00 0.00 0.00 0.00 0.00 0.00 0.00
0.00 0.00 0.00 0.00 0.06 0.10 0.29 0.01 0.01 0.01 0.02 0.01 0.02 0.08 0.02 0.05 0.10 0.16 0.22 0.14 0.05 0.00 0.00 0.00 0.00 0.00 0.00 0.00 0.00 0.00 0.00 0.00 0.00 0.00 0.00 0.00 0.00 0.01 0.01 0.02 0.04 0.00 0.00 0.00 0.00 0.00 0.00 0.00 0.00
0.00 0.00 0.00 0.00 0.00 0.00 0.00 0.02 0.06 0.03 0.05 0.08 0.03 0.00 0.00 0.01 0.01 0.03 0.04 0.02 0.00 0.00 0.00 0.00 0.00 0.00 0.00 0.00 0.00 0.00 0.00 0.00 0.02 0.04 0.03 0.04 0.07 0.08 0.02 0.01 0.01 0.00 0.00 0.00 0.00 0.00 0.00 0.00 0.00
0.00 0.00 0.00 0.00 0.00 0.00 0.00 0.09 0.10 0.00 0.00 0.04 0.03 0.00 0.00 0.00 0.12 0.24 0.01 0.00 0.00 0.00 0.00 0.00 0.00 0.00 0.00 0.00 0.00 0.01 0.02 0.07 0.16 0.20 0.19 0.12 0.15 0.07 0.03 0.00 0.00 0.00 0.00 0.00 0.00 0.00 0.00 0.00 0.00
0.00 0.00 0.00 0.00 0.00 0.00 0.00 0.18 0.01 0.00 0.00 0.00 0.00 0.00 0.00 0.00 0.01 0.01 0.00 0.00 0.00 0.00 0.00 0.02 0.02 0.04 0.04 0.00 0.00 0.01 0.04 0.06 0.13 0.23 0.23 0.20 0.10 0.03 0.06 0.04 0.01 0.00 0.00 0.00 0.00 0.00 0.00 0.00 0.00
0.00 0.00 0.00 0.00 0.00 0.00 0.00 0.05 0.00 0.00 0.00 0.00 0.00 0.00 0.00 0.00 0.00 0.00 0.00 0.00 0.00 0.01 0.00 0.02 0.25 0.25 0.20 0.09 0.06 0.09 0.05 0.05 0.06 0.12 0.26 0.16 0.09 0.08 0.06 0.03 0.01 0.00 0.00 0.00 0.00 0.00 0.00 0.00 0.00
0.00 0.00 0.00 0.00 0.00 0.00 0.00 0.01 0.00 0.00 0.00 0.00 0.00 0.00 0.00 0.00 0.00 0.00 0.00 0.00 0.01 0.01 0.03 0.27 0.59 0.91 0.81 0.24 0.17 0.12 0.11 0.10 0.11 0.10 0.11 0.08 0.05 0.02 0.00 0.00 0.00 0.00 0.00 0.00 0.00 0.00 0.00 0.00 0.00
0.00 0.00 0.00 0.00 0.00 0.00 0.00 0.00 0.00 0.00 0.00 0.00 0.00 0.00 0.00 0.00 0.00 0.00 0.00 0.00 0.02 0.01 0.04 0.32 0.68 0.85 0.99 0.98 1.00 0.75 0.37 0.17 0.07 0.02 0.01 0.00 0.00 0.00 0.00 0.00 0.00 0.00 0.00 0.00 0.00 0.00 0.00 0.00 0.00
0.00 0.00 0.00 0.00 0.00 0.00 0.00 0.00 0.00 0.00 0.00 0.00 0.00 0.00 0.00 0.00 0.00 0.00 0.00 0.02 0.02 0.02 0.17 0.55 0.80 1.32 2.30 1.69 0.73 0.22 0.07 0.01 0.00 0.00 0.00 0.00 0.00 0.00 0.00 0.00 0.00 0.00 0.00 0.00 0.00 0.00 0.00 0.00 0.00
0.00 0.00 0.00 0.00 0.00 0.00 0.00 0.00 0.00 0.00 0.00 0.00 0.00 0.00 0.00 0.00 0.00 0.00 0.01 0.03 0.03 0.13 0.43 0.67 0.73 0.76 0.50 0.20 0.07 0.02 0.01 0.00 0.00 0.00 0.00 0.00 0.00 0.00 0.00 0.00 0.00 0.00 0.00 0.00 0.00 0.00 0.00 0.00 0.00
0.00 0.00 0.00 0.00 0.00 0.00 0.00 0.00 0.00 0.00 0.00 0.00 0.00 0.00 0.00 0.00 0.00 0.00 0.05 0.10 0.17 0.31 0.32 0.18 0.06 0.01 0.00 0.01 0.00 0.00 0.00 0.00 0.00 0.00 0.00 0.00 0.00 0.00 0.00 0.00 0.00 0.00 0.00 0.00 0.00 0.00 0.00 0.00 0.00
0.00 0.00 0.00 0.00 0.00 0.00 0.00 0.00 0.00 0.00 0.00 0.00 0.00 0.00 0.00 0.00 0.00 0.04 0.05 0.07 0.06 0.03 0.02 0.01 0.00 0.00 0.00 0.00 0.00 0.00 0.00 0.00 0.00 0.00 0.00 0.00 0.00 0.00 0.00 0.00 0.00 0.00 0.00 0.00 0.00 0.00 0.00 0.00 0.00
0.00 0.00 0.00 0.00 0.00 0.00 0.00 0.00 0.01 0.00 0.00 0.00 0.00 0.00 0.00 0.00 0.01 0.01 0.00 0.01 0.00 0.01 0.00 0.00 0.00 0.00 0.00 0.00 0.00 0.00 0.00 0.00 0.00 0.00 0.00 0.00 0.00 0.00 0.00 0.00 0.00 0.00 0.00 0.00 0.00 0.00 0.00 0.00 0.00
0.01 0.00 0.00 0.00 0.00 0.01 0.01 0.00 0.02 0.00 0.00 0.00 0.00 0.00 0.00 0.00 0.00 0.00 0.00 0.00 0.00 0.00 0.00 0.00 0.00 0.00 0.00 0.00 0.00 0.00 0.00 0.00 0.00 0.00 0.00 0.00 0.00 0.00 0.00 0.00 0.00 0.00 0.00 0.00 0.00 0.00 0.00 0.00 0.00
0.00 0.00 0.00 0.00 0.00 0.00 0.00 0.01 0.01 0.01 0.01 0.01 0.00 0.00 0.00 0.00 0.00 0.00 0.00 0.00 0.00 0.00 0.00 0.00 0.00 0.00 0.00 0.00 0.00 0.00 0.00 0.00 0.00 0.00 0.00 0.00 0.00 0.00 0.00 0.00 0.00 0.00 0.00 0.00 0.00 0.00 0.00 0.01 0.02
0.00 0.00 0.00 0.07 0.04 0.01 0.04 0.04 0.02 0.00 0.00 0.00 0.00 0.00 0.00 0.00 0.00 0.00 0.00 0.00 0.00 0.00 0.00 0.00 0.00 0.00 0.00 0.00 0.00 0.00 0.00 0.00 0.00 0.00 0.00 0.00 0.00 0.00 0.00 0.00 0.00 0.00 0.00 0.00 0.00 0.01 0.04 0.09 0.16
0.00 0.00 0.02 0.02 0.02 0.02 0.01 0.00 0.00 0.00 0.00 0.00 0.00 0.00 0.00 0.00 0.00 0.00 0.00 0.00 0.00 0.00 0.00 0.00 0.00 0.00 0.00 0.00 0.00 0.00 0.00 0.00 0.00 0.00 0.00 0.00 0.00 0.00 0.00 0.00 0.00 0.00 0.01 0.02 0.07 0.21 0.35 0.43 0.48
0.00 0.00 0.00 0.00 0.00 0.00 0.00 0.00 0.00 0.00 0.00 0.00 0.00 0.00 0.00 0.00 0.00 0.00 0.00 0.00 0.00 0.00 0.00 0.00 0.00 0.00 0.00 0.00 0.00 0.00 0.00 0.00 0.00 0.00 0.00 0.00 0.00 0.00 0.00 0.00 0.01 0.05 0.12 0.18 0.27 0.32 0.29 0.27 0.24
0.00 0.00 0.00 0.00 0.00 0.00 0.00 0.00 0.01 0.01 0.00 0.00 0.00 0.00 0.00 0.00 0.00 0.00 0.00 0.00 0.00 0.00 0.00 0.00 0.00 0.00 0.00 0.00 0.00 0.00 0.00 0.00 0.00 0.00 0.00 0.00 0.00 0.00 0.01 0.07 0.16 0.17 0.13 0.08 0.07 0.06 0.06 0.06 0.07
0.00 0.00 0.00 0.00 0.00 0.04 0.07 0.01 0.00 0.00 0.00 0.00 0.00 0.00 0.00 0.00 0.00 0.00 0.00 0.00 0.00 0.00 0.00 0.00 0.00 0.00 0.00 0.00 0.00 0.00 0.00 0.00 0.00 0.00 0.00 0.00 0.00 0.00 0.01 0.03 0.01 0.02 0.04 0.04 0.02 0.02 0.02 0.02 0.02
0.00 0.00 0.00 0.01 0.02 0.01 0.02 0.01 0.00 0.00 0.00 0.00 0.01 0.00 0.00 0.00 0.00 0.00 0.00 0.00 0.00 0.00 0.00 0.00 0.00 0.00 0.00 0.00 0.00 0.00 0.00 0.00 0.00 0.00 0.00 0.00 0.00 0.00 0.03 0.04 0.04 0.05 0.04 0.03 0.03 0.02 0.02 0.03 0.03

GFSSGP_prec_precacc_051.txt.gz
Total_Precipitation_Accumulation
0.00 0.00 0.00 0.00 0.00 0.00 0.00 0.00 0.00 0.02 0.09 0.07 0.06 0.13 0.09 0.06 0.16 0.40 0.22 0.13 0.10 0.07 0.00 0.00 0.02 0.03 0.02 0.02 0.02 0.02 0.03 0.02 0.02 0.02 0.02 0.06 0.05 0.01 0.04 0.16 0.16 0.18 0.10 0.05 0.07 0.14 0.28 0.28 0.21
0.00 0.00 0.00 0.00 0.00 0.00 0.00 0.00 0.01 0.06 0.25 0.28 0.20 0.18 0.13 0.15 0.08 0.14 0.37 0.31 0.09 0.05 0.00 0.00 0.00 0.03 0.02 0.02 0.02 0.03 0.03 0.01 0.00 0.00 0.01 0.01 0.03 0.03 0.01 0.07 0.10 0.07 0.05 0.03 0.05 0.11 0.90 0.70 0.61
0.00 0.00 0.00 0.00 0.00 0.00 0.00 0.01 0.01 0.04 0.13 0.15 0.15 0.05 0.11 0.17 0.26 0.39 0.48 0.40 0.07 0.03 0.01 0.00 0.02 0.07 0.06 0.04 0.03 0.04 0.04 0.00 0.01 0.01 0.02 0.04 0.04 0.04 0.04 0.12 0.05 0.10 0.10 0.05 0.05 0.02 0.65 1.02 0.74
0.00 0.00 0.00 0.00 0.00 0.00 0.00 0.00 0.01 0.04 0.03 0.03 0.11 0.13 0.15 0.15 0.33 0.50 0.48 0.53 0.37 0.19 0.22 0.06 0.07 0.08 0.07 0.04 0.04 0.03 0.01 0.00 0.00 0.00 0.01 0.01 0.01 0.03 0.05 0.03 0.00 0.00 0.00 0.00 0.02 0.04 0.15 0.26 0.53
0.00 0.00 0.00 0.00 0.00 0.00 0.00 0.02 0.06 0.09 0.03 0.02 0.01 0.12 0.22 0.10 0.13 0.33 0.71 0.90 1.00 0.73 0.30 0.14 0.18 0.19 0.13 0.06 0.04 0.01 0.00 0.00 0.00 0.00 0.00 0.00 0.00 0.00 0.00 0.00 0.00 0.00 0.00 0.01 0.01 0.01 0.09 0.32 0.14
0.00 0.00 0.00 0.00 0.00 0.00 0.01 0.10 0.12 0.13 0.03 0.01 0.00 0.03 0.14 0.03 0.03 0.32 0.99 1.74 1.89 0.96 0.54 0.32 0.17 0.11 0.08 0.04 0.01 0.00 0.00 0.00 0.00 0.00 0.00 0.00 0.00 0.00 0.00 0.00 0.00 0.00 0.00 0.00 0.00 0.00 0.00 0.14 0.08
0.00 0.00 0.00 0.00 0.00 0.00 0.03 0.29 0.44 0.30 0.08 0.04 0.00 0.07 0.09 0.09 0.12 0.65 0.63 1.07 1.09 0.98 0.66 0.45 0.15 0.08 0.01 0.00 0.00 0.00 0.00 0.00 0.00 0.00 0.00 0.00 0.00 0.00 0.00 0.00 0.00 0.00 0.00 0.00 0.00 0.00 0.01 0.01 0.01
0.00 0.00 0.00 0.00 0.00 0.03 0.09 0.10 0.12 0.06 0.07 0.16 0.06 0.09 0.08 0.11 0.25 0.54 0.46 0.32 0.52 0.94 0.93 0.55 0.17 0.02 0.00 0.00 0.00 0.00 0.00 0.00 0.00 0.00 0.00 0.00 0.00 0.00 0.00 0.00 0.00 0.00 0.00 0.00 0.00 0.00 0.00 0.00 0.01
0.00 0.00 0.00 0.01 0.02 0.18 0.25 0.17 0.19 0.04 0.01 0.01 0.01 0.13 0.09 0.08 0.12 0.22 0.56 0.81 0.97 0.95 0.51 0.34 0.14 0.00 0.00 0.00 0.00 0.00 0.00 0.00 0.00 0.00 0.00 0.00 0.00 0.00 0.00 0.00 0.00 0.00 0.00 0.00 0.00 0.00 0.00 0.00 0.00
0.00 0.00 0.00 0.03 0.08 0.25 0.33 0.04 0.12 0.02 0.01 0.03 0.10 0.22 0.14 0.05 0.08 0.19 0.64 1.03 0.87 0.35 0.23 0.12 0.01 0.01 0.00 0.00 0.00 0.00 0.02 0.00 0.00 0.00 0.00 0.00 0.00 0.00 0.00 0.00 0.00 0.00 0.00 0.00 0.00 0.00 0.00 0.00 0.00
0.00 0.00 0.00 0.00 0.06 0.10 0.29 0.01 0.04 0.03 0.03 0.03 0.16 0.21 0.13 0.08 0.12 0.19 0.28 0.36 0.17 0.05 0.02 0.01 0.00 0.00 0.00 0.00 0.00 0.00 0.00 0.00 0.00 0.00 0.01 0.00 0.00 0.01 0.04 0.04 0.05 0.00 0.00 0.00 0.00 0.00 0.00 0.00 0.00
0.00 0.00 0.00 0.00 0.00 0.00 0.00 0.07 0.15 0.08 0.06 0.08 0.20 0.16 0.10 0.13 0.22 0.23 0.33 0.10 0.01 0.00 0.00 0.00 0.00 0.00 0.00 0.00 0.00 0.00 0.00 0.00 0.02 0.04 0.03 0.05 0.07 0.12 0.13 0.09 0.02 0.00 0.00 0.00 0.00 0.00 0.00 0.00 0.00
0.00 0.00 0.00 0.00 0.01 0.00 0.01 0.09 0.11 0.01 0.00 0.06 0.10 0.07 0.07 0.11 0.34 0.86 0.13 0.02 0.00 0.00 0.00 0.00 0.00 0.00 0.00 0.00 0.00 0.01 0.02 0.07 0.16 0.20 0.19 0.14 0.17 0.14 0.05 0.03 0.01 0.00 0.00 0.00 0.00 0.00 0.00 0.00 0.00
0.00 0.00 0.00 0.00 0.00 0.00 0.00 0.18 0.01 0.09 0.07 0.04 0.01 0.03 0.04 0.06 0.05 0.11 0.00 0.00 0.00 0.00 0.00 0.02 0.02 0.04 0.04 0.00 0.00 0.01 0.04 0.06 0.13 0.23 0.23 0.20 0.10 0.04 0.09 0.09 0.02 0.00 0.00 0.00 0.00 0.00 0.00 0.00 0.00
0.00 0.00 0.00 0.00 0.00 0.00 0.02 0.06 0.00 0.06 0.08 0.00 0.00 0.01 0.02 0.01 0.00 0.00 0.00 0.00 0.00 0.01 0.00 0.02 0.25 0.25 0.20 0.09 0.06 0.09 0.05 0.05 0.06 0.12 0.26 0.16 0.09 0.08 0.07 0.05 0.02 0.00 0.00 0.00 0.00 0.00 0.00 0.00 0.00
0.00 0.00 0.00 0.00 0.00 0.00 0.01 0.04 0.00 0.02 0.01 0.00 0.01 0.01 0.00 0.00 0.00 0.00 0.00 0.00 0.01 0.01 0.03 0.27 0.59 0.91 0.81 0.24 0.17 0.12 0.11 0.10 0.11 0.10 0.11 0.08 0.05 0.02 0.00 0.00 0.00 0.00 0.00 0.00 0.00 0.00 0.00 0.00 0.00
0.00 0.00 0.00 0.00 0.00 0.00 0.00 0.00 0.00 0.00 0.00 0.00 0.00 0.00 0.00 0.00 0.00 0.00 0.00 0.00 0.02 0.02 0.04 0.32 0.68 0.86 1.00 0.99 1.00 0.76 0.38 0.17 0.07 0.02 0.01 0.00 0.00 0.00 0.00 0.00 0.00 0.00 0.00 0.00 0.00 0.00 0.00 0.00 0.00
0.00 0.00 0.00 0.00 0.00 0.00 0.00 0.00 0.00 0.00 0.00 0.00 0.00 0.00 0.00 0.00 0.00 0.00 0.00 0.02 0.02 0.04 0.20 0.55 0.80 1.32 2.33 1.70 0.74 0.23 0.08 0.01 0.00 0.00 0.00 0.00 0.00 0.00 0.00 0.00 0.00 0.00 0.00 0.00 0.00 0.00 0.00 0.00 0.00
0.00 0.00 0.00 0.00 0.00 0.00 0.00 0.00 0.00 0.00 0.00 0.01 0.00 0.00 0.00 0.00 0.00 0.00 0.01 0.03 0.03 0.15 0.46 0.72 0.74 0.77 0.50 0.21 0.08 0.03 0.01 0.00 0.00 0.00 0.00 0.00 0.00 0.00 0.00 0.00 0.00 0.00 0.00 0.00 0.00 0.00 0.00 0.00 0.00
0.00 0.00 0.00 0.00 0.00 0.00 0.00 0.00 0.00 0.00 0.00 0.00 0.01 0.00 0.00 0.00 0.00 0.00 0.05 0.10 0.17 0.31 0.34 0.21 0.07 0.01 0.01 0.02 0.00 0.00 0.00 0.00 0.00 0.00 0.00 0.00 0.00 0.00 0.00 0.00 0.00 0.00 0.00 0.00 0.00 0.00 0.00 0.00 0.00
0.00 0.00 0.00 0.00 0.00 0.00 0.00 0.00 0.00 0.00 0.00 0.00 0.00 0.00 0.00 0.00 0.00 0.04 0.05 0.07 0.06 0.03 0.09 0.03 0.01 0.01 0.00 0.00 0.00 0.00 0.00 0.00 0.00 0.00 0.00 0.00 0.00 0.00 0.00 0.00 0.00 0.00 0.00 0.00 0.00 0.00 0.00 0.00 0.00
0.01 0.00 0.00 0.00 0.00 0.00 0.00 0.00 0.01 0.00 0.00 0.00 0.00 0.00 0.01 0.00 0.01 0.01 0.00 0.01 0.01 0.05 0.01 0.02 0.01 0.00 0.00 0.00 0.00 0.00 0.00 0.00 0.00 0.00 0.00 0.00 0.00 0.00 0.00 0.00 0.00 0.00 0.00 0.00 0.00 0.00 0.00 0.00 0.00
0.01 0.00 0.00 0.00 0.00 0.01 0.01 0.00 0.02 0.00 0.00 0.00 0.00 0.00 0.00 0.00 0.00 0.00 0.00 0.00 0.01 0.02 0.01 0.02 0.00 0.00 0.00 0.00 0.00 0.00 0.00 0.00 0.00 0.00 0.00 0.00 0.00 0.00 0.00 0.00 0.00 0.00 0.00 0.00 0.00 0.00 0.00 0.00 0.00
0.00 0.00 0.00 0.00 0.00 0.00 0.00 0.01 0.01 0.01 0.01 0.03 0.02 0.00 0.00 0.00 0.00 0.00 0.01 0.00 0.00 0.00 0.00 0.00 0.00 0.00 0.00 0.00 0.00 0.00 0.00 0.00 0.00 0.00 0.00 0.00 0.00 0.00 0.00 0.00 0.00 0.00 0.00 0.00 0.00 0.00 0.00 0.01 0.02
0.00 0.00 0.00 0.08 0.04 0.01 0.04 0.05 0.03 0.00 0.00 0.01 0.01 0.00 0.00 0.00 0.00 0.00 0.00 0.00 0.00 0.01 0.00 0.00 0.00 0.00 0.00 0.00 0.00 0.00 0.00 0.00 0.00 0.00 0.00 0.00 0.00 0.00 0.00 0.00 0.00 0.00 0.00 0.00 0.00 0.01 0.04 0.09 0.16
0.01 0.00 0.02 0.03 0.03 0.03 0.02 0.01 0.00 0.00 0.00 0.00 0.00 0.00 0.00 0.00 0.00 0.00 0.00 0.00 0.00 0.00 0.00 0.00 0.00 0.00 0.00 0.00 0.00 0.00 0.00 0.00 0.00 0.00 0.00 0.00 0.00 0.00 0.00 0.00 0.00 0.00 0.01 0.02 0.07 0.21 0.35 0.43 0.48
0.01 0.02 0.00 0.00 0.00 0.00 0.00 0.00 0.00 0.00 0.00 0.00 0.00 0.00 0.00 0.00 0.00 0.00 0.00 0.00 0.00 0.00 0.00 0.00 0.00 0.00 0.00 0.00 0.00 0.00 0.00 0.00 0.00 0.00 0.00 0.00 0.00 0.00 0.00 0.00 0.01 0.05 0.12 0.18 0.27 0.32 0.29 0.27 0.24
0.00 0.00 0.00 0.00 0.00 0.00 0.00 0.00 0.01 0.01 0.00 0.00 0.00 0.00 0.00 0.00 0.00 0.00 0.00 0.00 0.00 0.00 0.00 0.00 0.00 0.00 0.00 0.00 0.00 0.00 0.00 0.00 0.00 0.00 0.00 0.00 0.00 0.00 0.01 0.07 0.16 0.17 0.13 0.08 0.07 0.06 0.06 0.06 0.07
0.00 0.00 0.00 0.00 0.00 0.04 0.07 0.01 0.00 0.00 0.00 0.00 0.00 0.00 0.00 0.00 0.00 0.00 0.00 0.00 0.00 0.00 0.00 0.00 0.00 0.00 0.00 0.00 0.00 0.00 0.00 0.00 0.00 0.00 0.00 0.00 0.00 0.00 0.01 0.03 0.01 0.02 0.04 0.04 0.02 0.02 0.02 0.02 0.02
0.00 0.00 0.00 0.01 0.02 0.01 0.02 0.01 0.00 0.00 0.00 0.00 0.01 0.00 0.00 0.00 0.00 0.00 0.00 0.00 0.00 0.00 0.00 0.00 0.00 0.00 0.00 0.00 0.00 0.00 0.00 0.00 0.00 0.00 0.00 0.00 0.00 0.00 0.03 0.04 0.04 0.05 0.04 0.03 0.03 0.02 0.02 0.03 0.03

GFSSGP_prec_precacc_054.txt.gz
Total_Precipitation_Accumulation
0.00 0.00 0.00 0.00 0.00 0.00 0.00 0.00 0.00 0.02 0.09 0.07 0.06 0.13 0.09 0.06 0.16 0.40 0.25 0.14 0.12 0.08 0.00 0.00 0.02 0.03 0.02 0.02 0.02 0.02 0.03 0.02 0.02 0.02 0.02 0.06 0.05 0.01 0.04 0.16 0.16 0.18 0.10 0.05 0.07 0.14 0.28 0.28 0.21
0.00 0.00 0.00 0.00 0.00 0.00 0.00 0.00 0.01 0.07 0.26 0.28 0.20 0.18 0.13 0.16 0.08 0.15 0.39 0.38 0.11 0.05 0.00 0.00 0.00 0.03 0.02 0.02 0.03 0.03 0.03 0.01 0.00 0.00 0.01 0.01 0.03 0.03 0.01 0.07 0.10 0.07 0.05 0.03 0.05 0.11 0.90 0.70 0.61
0.00 0.00 0.00 0.00 0.00 0.00 0.00 0.01 0.01 0.04 0.13 0.15 0.15 0.05 0.11 0.18 0.27 0.40 0.49 0.45 0.10 0.03 0.01 0.00 0.02 0.07 0.06 0.04 0.04 0.04 0.04 0.00 0.01 0.01 0.02 0.04 0.04 0.04 0.04 0.12 0.05 0.10 0.10 0.05 0.05 0.02 0.65 1.02 0.74
0.00 0.00 0.00 0.00 0.00 0.00 0.00 0.00 0.02 0.05 0.03 0.03 0.11 0.13 0.15 0.18 0.34 0.53 0.49 0.58 0.44 0.20 0.26 0.11 0.08 0.09 0.08 0.06 0.05 0.03 0.01 0.00 0.00 0.00 0.01 0.01 0.01 0.03 0.05 0.03 0.00 0.00 0.00 0.00 0.02 0.04 0.15 0.26 0.53
0.00 0.00 0.00 0.00 0.00 0.00 0.00 0.04 0.14 0.12 0.05 0.02 0.01 0.12 0.22 0.11 0.14 0.38 0.89 1.07 1.35 0.99 0.57 0.33 0.30 0.27 0.17 0.08 0.04 0.01 0.00 0.00 0.00 0.00 0.00 0.00 0.00 0.00 0.00 0.00 0.00 0.00 0.00 0.01 0.01 0.01 0.09 0.32 0.14
0.00 0.00 0.00 0.00 0.00 0.01 0.04 0.16 0.22 0.24 0.11 0.01 0.00 0.03 0.14 0.04 0.06 0.45 1.19 2.03 3.12 2.31 1.23 0.72 0.50 0.35 0.21 0.05 0.01 0.00 0.00 0.00 0.00 0.00 0.00 0.00 0.00 0.00 0.00 0.00 0.00 0.00 0.00 0.00 0.00 0.00 0.00 0.14 0.08
0.00 0.00 0.00 0.00 0.00 0.00 0.03 0.30 0.47 0.33 0.12 0.05 0.00 0.07 0.09 0.09 0.13 0.70 0.84 1.33 1.23 1.49 1.23 1.01 0.56 0.28 0.13 0.00 0.00 0.00 0.00 0.00 0.00 0.00 0.00 0.00 0.00 0.00 0.00 0.00 0.00 0.00 0.00 0.00 0.00 0.00 0.01 0.01 0.01
0.00 0.00 0.00 0.00 0.00 0.03 0.09 0.10 0.14 0.07 0.07 0.17 0.07 0.09 0.09 0.11 0.26 0.55 0.53 0.70 0.81 1.06 1.11 0.79 0.54 0.35 0.04 0.00 0.00 0.00 0.00 0.00 0.00 0.00 0.00 0.00 0.00 0.00 0.00 0.00 0.00 0.00 0.00 0.00 0.00 0.00 0.00 0.00 0.01
0.00 0.00 0.00 0.01 0.02 0.18 0.25 0.17 0.19 0.04 0.01 0.01 0.01 0.15 0.12 0.09 0.12 0.23 0.57 0.89 1.10 1.09 0.69 0.68 0.62 0.18 0.00 0.00 0.00 0.00 0.00 0.00 0.00 0.00 0.00 0.00 0.00 0.00 0.00 0.00 0.00 0.00 0.00 0.00 0.00 0.00 0.00 0.00 0.00
0.00 0.00 0.00 0.03 0.08 0.25 0.33 0.04 0.12 0.02 0.01 0.04 0.13 0.29 0.22 0.13 0.11 0.19 0.64 1.04 0.97 0.52 0.55 0.36 0.20 0.04 0.00 0.00 0.00 0.00 0.02 0.00 0.00 0.00 0.00 0.00 0.00 0.00 0.00 0.00 0.00 0.00 0.00 0.00 0.00 0.00 0.00 0.00 0.00
0.00 0.00 0.00 0.00 0.06 0.10 0.29 0.01 0.04 0.03 0.03 0.05 0.20 0.31 0.25 0.17 0.15 0.22 0.30 0.41 0.21 0.17 0.15 0.08 0.03 0.00 0.00 0.00 0.00 0.00 0.00 0.00 0.00 0.00 0.01 0.00 0.00 0.01 0.04 0.04 0.05 0.00 0.00 0.00 0.00 0.00 0.00 0.00 0.00
0.00 0.00 0.00 0.00 0.00 0.00 0.00 0.07 0.15 0.09 0.06 0.09 0.24 0.30 0.17 0.17 0.26 0.27 0.37 0.12 0.02 0.02 0.03 0.02 0.00 0.00 0.00 0.00 0.00 0.00 0.00 0.00 0.02 0.04 0.03 0.05 0.07 0.12 0.13 0.09 0.02 0.00 0.00 0.00 0.00 0.00 0.00 0.00 0.00
0.00 0.00 0.00 0.00 0.01 0.00 0.01 0.09 0.11 0.01 0.00 0.11 0.17 0.10 0.09 0.13 0.44 1.03 0.18 0.02 0.00 0.00 0.00 0.00 0.00 0.00 0.00 0.00 0.00 0.01 0.02 0.07 0.16 0.20 0.19 0.14 0.17 0.14 0.05 0.03 0.01 0.00 0.00 0.00 0.00 0.00 0.00 0.00 0.00
0.00 0.00 0.00 0.00 0.00 0.00 0.00 0.18 0.01 0.09 0.07 0.06 0.13 0.05 0.05 0.08 0.06 0.12 0.01 0.00 0.00 0.00 0.00 0.02 0.02 0.04 0.04 0.00 0.00 0.01 0.04 0.06 0.13 0.23 0.23 0.20 0.10 0.04 0.09 0.09 0.02 0.00 0.00 0.00 0.00 0.00 0.00 0.00 0.00
0.00 0.00 0.00 0.00 0.00 0.00 0.02 0.06 0.00 0.06 0.10 0.05 0.07 0.04 0.02 0.01 0.00 0.00 0.00 0.00 0.00 0.01 0.00 0.02 0.25 0.25 0.20 0.09 0.06 0.09 0.05 0.05 0.06 0.12 0.26 0.16 0.09 0.08 0.07 0.05 0.02 0.00 0.00 0.00 0.00 0.00 0.00 0.00 0.00
0.00 0.00 0.00 0.00 0.00 0.00 0.01 0.04 0.00 0.02 0.02 0.06 0.08 0.03 0.01 0.00 0.00 0.00 0.00 0.00 0.01 0.01 0.03 0.27 0.59 0.91 0.81 0.24 0.17 0.12 0.11 0.10 0.11 0.10 0.11 0.08 0.05 0.02 0.00 0.00 0.00 0.00 0.00 0.00 0.00 0.00 0.00 0.00 0.00
0.00 0.00 0.00 0.00 0.00 0.00 0.00 0.00 0.00 0.00 0.02 0.03 0.01 0.01 0.00 0.00 0.00 0.00 0.00 0.00 0.03 0.02 0.04 0.32 0.68 0.86 1.00 0.99 1.00 0.76 0.38 0.18 0.07 0.02 0.01 0.00 0.00 0.00 0.00 0.00 0.00 0.00 0.00 0.00 0.00 0.00 0.00 0.00 0.00
0.00 0.00 0.00 0.00 0.00 0.00 0.00 0.00 0.00 0.00 0.00 0.01 0.00 0.00 0.00 0.00 0.00 0.00 0.00 0.02 0.03 0.04 0.20 0.55 0.80 1.32 2.33 1.70 0.74 0.23 0.08 0.01 0.00 0.00 0.00 0.00 0.00 0.00 0.00 0.00 0.00 0.00 0.00 0.00 0.00 0.00 0.00 0.00 0.00
0.00 0.00 0.00 0.00 0.00 0.00 0.00 0.00 0.00 0.00 0.00 0.01 0.00 0.00 0.00 0.00 0.00 0.00 0.01 0.03 0.03 0.15 0.46 0.72 0.74 0.77 0.50 0.21 0.09 0.03 0.01 0.00 0.00 0.00 0.00 0.00 0.00 0.00 0.00 0.00 0.00 0.00 0.00 0.00 0.00 0.00 0.00 0.00 0.00
0.00 0.00 0.00 0.00 0.00 0.00 0.00 0.00 0.00 0.00 0.00 0.00 0.01 0.00 0.00 0.00 0.00 0.00 0.05 0.10 0.17 0.31 0.34 0.21 0.07 0.02 0.01 0.02 0.00 0.00 0.00 0.00 0.00 0.00 0.00 0.00 0.00 0.00 0.00 0.00 0.00 0.00 0.00 0.00 0.00 0.00 0.00 0.00 0.00
0.00 0.00 0.00 0.00 0.00 0.00 0.00 0.00 0.00 0.00 0.00 0.01 0.01 0.00 0.00 0.00 0.00 0.04 0.05 0.07 0.06 0.03 0.09 0.03 0.03 0.02 0.01 0.00 0.00 0.00 0.00 0.00 0.00 0.00 0.00 0.00 0.00 0.00 0.00 0.00 0.00 0.00 0.00 0.00 0.00 0.00 0.00 0.00 0.00
0.01 0.00 0.00 0.00 0.00 0.00 0.00 0.00 0.01 0.00 0.00 0.00 0.01 0.01 0.01 0.00 0.01 0.01 0.00 0.01 0.01 0.06 0.02 0.04 0.05 0.01 0.02 0.00 0.00 0.00 0.00 0.00 0.00 0.00 0.00 0.00 0.00 0.00 0.00 0.00 0.00 0.00 0.00 0.00 0.00 0.00 0.00 0.00 0.00
0.01 0.00 0.00 0.00 0.00 0.01 0.01 0.00 0.02 0.00 0.00 0.00 0.00 0.00 0.00 0.00 0.00 0.00 0.00 0.00 0.02 0.02 0.04 0.06 0.03 0.04 0.01 0.00 0.00 0.00 0.00 0.00 0.00 0.00 0.00 0.00 0.00 0.00 0.00 0.00 0.00 0.00 0.00 0.00 0.00 0.00 0.00 0.00 0.00
0.00 0.00 0.00 0.00 0.00 0.00 0.00 0.01 0.01 0.01 0.01 0.03 0.02 0.00 0.00 0.00 0.00 0.00 0.01 0.00 0.00 0.02 0.01 0.02 0.03 0.02 0.01 0.00 0.00 0.00 0.00 0.00 0.00 0.00 0.00 0.00 0.00 0.00 0.00 0.00 0.00 0.00 0.00 0.00 0.00 0.00 0.00 0.01 0.02
0.00 0.00 0.00 0.08 0.04 0.01 0.04 0.05 0.03 0.00 0.00 0.01 0.01 0.00 0.00 0.01 0.01 0.00 0.00 0.00 0.02 0.01 0.01 0.02 0.01 0.00 0.00 0.00 0.00 0.00 0.00 0.00 0.00 0.00 0.00 0.00 0.00 0.00 0.00 0.00 0.00 0.00 0.00 0.00 0.00 0.01 0.04 0.09 0.16
0.01 0.00 0.02 0.03 0.03 0.03 0.02 0.01 0.00 0.00 0.00 0.00 0.00 0.00 0.00 0.00 0.00 0.00 0.00 0.02 0.04 0.02 0.02 0.01 0.00 0.00 0.00 0.00 0.00 0.00 0.00 0.00 0.00 0.00 0.00 0.00 0.00 0.00 0.00 0.00 0.00 0.00 0.01 0.02 0.07 0.21 0.35 0.43 0.48
0.01 0.02 0.00 0.00 0.00 0.00 0.00 0.00 0.00 0.00 0.00 0.00 0.00 0.00 0.00 0.00 0.00 0.00 0.00 0.02 0.02 0.01 0.01 0.00 0.00 0.00 0.00 0.00 0.00 0.00 0.00 0.00 0.00 0.00 0.00 0.00 0.01 0.00 0.00 0.00 0.01 0.05 0.12 0.18 0.27 0.32 0.29 0.27 0.24
0.00 0.00 0.00 0.00 0.00 0.00 0.00 0.00 0.01 0.01 0.00 0.00 0.00 0.00 0.00 0.00 0.00 0.00 0.00 0.01 0.00 0.00 0.00 0.00 0.00 0.00 0.00 0.00 0.00 0.00 0.00 0.00 0.00 0.00 0.01 0.01 0.01 0.00 0.01 0.07 0.16 0.17 0.13 0.08 0.07 0.06 0.06 0.06 0.07
0.00 0.00 0.00 0.00 0.00 0.04 0.07 0.01 0.00 0.00 0.00 0.00 0.00 0.00 0.00 0.00 0.00 0.00 0.00 0.00 0.00 0.00 0.00 0.00 0.00 0.00 0.00 0.00 0.00 0.00 0.00 0.00 0.00 0.01 0.01 0.01 0.01 0.00 0.01 0.03 0.01 0.02 0.04 0.04 0.02 0.02 0.02 0.02 0.02
0.00 0.00 0.01 0.01 0.02 0.01 0.02 0.01 0.00 0.00 0.00 0.00 0.01 0.00 0.00 0.00 0.00 0.00 0.00 0.00 0.00 0.00 0.00 0.00 0.00 0.00 0.00 0.00 0.00 0.01 0.01 0.00 0.01 0.01 0.02 0.01 0.00 0.00 0.03 0.04 0.04 0.05 0.04 0.03 0.03 0.02 0.02 0.03 0.03

GFSSGP_prec_precacc_057.txt.gz
Total_Precipitation_Accumulation
0.00 0.00 0.00 0.00 0.00 0.00 0.00 0.00 0.00 0.02 0.09 0.08 0.06 0.13 0.09 0.06 0.16 0.41 0.26 0.15 0.12 0.08 0.01 0.00 0.02 0.03 0.02 0.02 0.02 0.03 0.03 0.02 0.02 0.02 0.02 0.06 0.05 0.01 0.04 0.16 0.16 0.18 0.10 0.05 0.07 0.14 0.28 0.28 0.21
0.00 0.00 0.00 0.00 0.00 0.00 0.00 0.00 0.02 0.07 0.27 0.33 0.22 0.19 0.13 0.16 0.08 0.15 0.41 0.40 0.11 0.06 0.01 0.00 0.01 0.03 0.02 0.02 0.03 0.03 0.03 0.01 0.00 0.00 0.01 0.01 0.03 0.03 0.01 0.07 0.10 0.07 0.05 0.03 0.05 0.11 0.90 0.70 0.61
0.00 0.00 0.00 0.00 0.00 0.00 0.00 0.01 0.02 0.04 0.14 0.19 0.18 0.06 0.11 0.19 0.28 0.41 0.53 0.47 0.10 0.04 0.02 0.02 0.08 0.08 0.06 0.04 0.05 0.05 0.04 0.00 0.01 0.01 0.02 0.04 0.04 0.04 0.04 0.12 0.05 0.10 0.10 0.05 0.05 0.02 0.65 1.02 0.74
0.00 0.00 0.00 0.00 0.00 0.00 0.00 0.00 0.02 0.06 0.05 0.06 0.13 0.14 0.16 0.22 0.36 0.54 0.58 0.61 0.45 0.22 0.28 0.16 0.21 0.19 0.09 0.06 0.06 0.04 0.01 0.00 0.00 0.00 0.01 0.01 0.01 0.03 0.05 0.03 0.00 0.00 0.00 0.00 0.02 0.04 0.15 0.26 0.53
0.00 0.00 0.00 0.00 0.00 0.00 0.01 0.04 0.16 0.15 0.07 0.06 0.03 0.14 0.24 0.22 0.20 0.42 0.92 1.14 1.38 1.10 0.73 0.61 0.56 0.43 0.24 0.11 0.06 0.01 0.00 0.00 0.00 0.00 0.00 0.00 0.00 0.00 0.00 0.00 0.00 0.00 0.00 0.01 0.01 0.01 0.09 0.32 0.14
0.00 0.00 0.00 0.00 0.00 0.01 0.04 0.16 0.23 0.25 0.13 0.10 0.01 0.05 0.17 0.17 0.16 0.53 1.30 2.14 3.17 2.52 1.68 1.15 0.87 0.72 0.52 0.22 0.04 0.00 0.00 0.00 0.00 0.00 0.00 0.00 0.00 0.00 0.00 0.00 0.00 0.00 0.00 0.00 0.00 0.00 0.00 0.14 0.08
0.00 0.00 0.00 0.00 0.00 0.00 0.03 0.30 0.47 0.33 0.13 0.06 0.01 0.07 0.10 0.18 0.18 0.78 0.98 1.51 1.32 1.62 1.61 1.53 1.08 0.75 0.51 0.11 0.00 0.00 0.00 0.00 0.00 0.00 0.00 0.00 0.00 0.00 0.00 0.00 0.00 0.00 0.00 0.00 0.00 0.00 0.01 0.01 0.01
0.00 0.00 0.00 0.00 0.00 0.03 0.09 0.10 0.14 0.07 0.07 0.17 0.07 0.09 0.09 0.16 0.28 0.56 0.55 0.80 0.91 1.24 1.33 1.08 0.83 0.61 0.22 0.02 0.00 0.00 0.00 0.00 0.00 0.00 0.00 0.00 0.00 0.00 0.00 0.00 0.00 0.00 0.00 0.00 0.00 0.00 0.00 0.00 0.01
0.00 0.00 0.00 0.01 0.02 0.18 0.25 0.17 0.19 0.04 0.01 0.01 0.02 0.16 0.12 0.11 0.14 0.23 0.59 1.11 1.58 1.41 0.86 0.83 0.91 0.43 0.15 0.01 0.00 0.00 0.00 0.00 0.00 0.00 0.00 0.00 0.00 0.00 0.00 0.00 0.00 0.00 0.00 0.00 0.00 0.00 0.00 0.00 0.00
0.00 0.00 0.00 0.03 0.08 0.25 0.33 0.04 0.12 0.02 0.01 0.06 0.17 0.30 0.24 0.15 0.12 0.21 0.68 1.11 1.17 0.86 0.67 0.50 0.46 0.20 0.04 0.00 0.00 0.00 0.02 0.00 0.00 0.00 0.00 0.00 0.00 0.00 0.00 0.00 0.00 0.00 0.00 0.00 0.00 0.00 0.00 0.00 0.00
0.00 0.00 0.00 0.00 0.06 0.10 0.29 0.01 0.04 0.03 0.03 0.06 0.29 0.34 0.29 0.21 0.19 0.28 0.33 0.45 0.24 0.32 0.31 0.19 0.11 0.09 0.01 0.00 0.00 0.00 0.00 0.00 0.00 0.00 0.01 0.00 0.00 0.01 0.04 0.04 0.05 0.00 0.00 0.00 0.00 0.00 0.00 0.00 0.00
0.00 0.00 0.00 0.00 0.00 0.00 0.00 0.07 0.15 0.09 0.06 0.10 0.26 0.34 0.20 0.20 0.27 0.29 0.37 0.13 0.04 0.03 0.04 0.07 0.08 0.01 0.00 0.00 0.00 0.00 0.00 0.00 0.02 0.04 0.03 0.05 0.07 0.12 0.13 0.09 0.02 0.00 0.00 0.00 0.00 0.00 0.00 0.00 0.00
0.00 0.00 0.00 0.00 0.01 0.00 0.01 0.09 0.11 0.01 0.01 0.13 0.19 0.13 0.09 0.13 0.44 1.03 0.18 0.02 0.00 0.01 0.01 0.04 0.01 0.01 0.00 0.00 0.00 0.01 0.02 0.07 0.16 0.20 0.19 0.14 0.17 0.14 0.05 0.03 0.01 0.00 0.00 0.00 0.00 0.00 0.00 0.00 0.00
0.00 0.00 0.00 0.00 0.00 0.00 0.00 0.18 0.01 0.09 0.08 0.06 0.13 0.06 0.07 0.11 0.06 0.12 0.01 0.00 0.00 0.00 0.00 0.02 0.02 0.04 0.04 0.00 0.00 0.01 0.04 0.06 0.13 0.23 0.23 0.20 0.10 0.04 0.09 0.09 0.02 0.00 0.00 0.00 0.00 0.00 0.00 0.00 0.00
0.00 0.00 0.00 0.00 0.00 0.00 0.02 0.06 0.00 0.07 0.10 0.05 0.07 0.04 0.03 0.02 0.00 0.00 0.00 0.00 0.00 0.01 0.00 0.02 0.25 0.25 0.20 0.09 0.06 0.09 0.05 0.05 0.06 0.12 0.26 0.16 0.09 0.08 0.07 0.05 0.02 0.00 0.00 0.00 0.00 0.00 0.00 0.00 0.00
0.00 0.00 0.00 0.00 0.00 0.00 0.01 0.04 0.00 0.02 0.02 0.06 0.08 0.03 0.01 0.00 0.00 0.00 0.00 0.00 0.01 0.01 0.03 0.27 0.59 0.91 0.81 0.24 0.17 0.12 0.11 0.10 0.11 0.10 0.11 0.08 0.05 0.02 0.01 0.00 0.00 0.00 0.00 0.00 0.00 0.00 0.00 0.00 0.00
0.00 0.00 0.00 0.00 0.00 0.00 0.00 0.00 0.00 0.00 0.02 0.03 0.01 0.01 0.00 0.00 0.00 0.00 0.00 0.00 0.03 0.02 0.04 0.32 0.68 0.86 1.00 0.99 1.00 0.76 0.38 0.18 0.07 0.02 0.01 0.00 0.00 0.00 0.00 0.00 0.00 0.00 0.00 0.00 0.00 0.00 0.00 0.00 0.00
0.00 0.00 0.00 0.00 0.00 0.00 0.00 0.00 0.00 0.00 0.00 0.01 0.00 0.00 0.00 0.00 0.00 0.00 0.00 0.02 0.03 0.05 0.20 0.55 0.80 1.32 2.33 1.70 0.74 0.23 0.08 0.01 0.00 0.00 0.00 0.00 0.00 0.00 0.00 0.00 0.00 0.00 0.00 0.00 0.00 0.00 0.00 0.00 0.00
0.00 0.00 0.00 0.00 0.00 0.00 0.00 0.00 0.00 0.00 0.00 0.01 0.00 0.00 0.00 0.00 0.00 0.00 0.01 0.03 0.03 0.15 0.47 0.72 0.74 0.77 0.50 0.21 0.09 0.03 0.01 0.00 0.00 0.00 0.00 0.00 0.00 0.00 0.00 0.00 0.00 0.00 0.00 0.00 0.00 0.00 0.00 0.00 0.00
0.00 0.00 0.00 0.00 0.00 0.00 0.00 0.00 0.00 0.00 0.00 0.00 0.01 0.00 0.00 0.00 0.00 0.00 0.05 0.10 0.17 0.31 0.35 0.22 0.07 0.02 0.01 0.02 0.00 0.00 0.00 0.00 0.00 0.00 0.00 0.00 0.00 0.00 0.00 0.00 0.00 0.00 0.00 0.00 0.00 0.00 0.00 0.00 0.00
0.00 0.00 0.00 0.00 0.00 0.00 0.00 0.00 0.00 0.00 0.01 0.01 0.01 0.00 0.00 0.00 0.00 0.04 0.05 0.07 0.06 0.03 0.09 0.04 0.03 0.02 0.01 0.01 0.00 0.00 0.00 0.00 0.00 0.00 0.00 0.00 0.00 0.00 0.00 0.00 0.00 0.00 0.00 0.00 0.00 0.00 0.00 0.00 0.00
0.01 0.00 0.00 0.00 0.00 0.00 0.00 0.00 0.01 0.00 0.00 0.00 0.01 0.01 0.01 0.00 0.01 0.01 0.00 0.01 0.01 0.06 0.02 0.06 0.10 0.04 0.03 0.02 0.01 0.00 0.00 0.00 0.00 0.00 0.00 0.00 0.00 0.00 0.00 0.00 0.00 0.00 0.00 0.00 0.00 0.00 0.00 0.00 0.00
0.01 0.00 0.00 0.00 0.00 0.01 0.01 0.00 0.02 0.00 0.00 0.00 0.00 0.00 0.00 0.00 0.00 0.00 0.00 0.00 0.02 0.03 0.05 0.09 0.08 0.09 0.09 0.04 0.02 0.01 0.00 0.00 0.00 0.00 0.00 0.00 0.00 0.00 0.00 0.00 0.00 0.00 0.00 0.00 0.00 0.00 0.00 0.00 0.00
0.00 0.00 0.00 0.00 0.00 0.00 0.00 0.01 0.01 0.01 0.01 0.03 0.02 0.00 0.00 0.00 0.01 0.00 0.01 0.00 0.00 0.03 0.02 0.05 0.07 0.06 0.11 0.09 0.02 0.01 0.00 0.00 0.00 0.00 0.00 0.00 0.00 0.00 0.00 0.00 0.00 0.00 0.00 0.00 0.00 0.00 0.00 0.01 0.02
0.00 0.00 0.00 0.08 0.04 0.01 0.04 0.05 0.03 0.00 0.00 0.01 0.01 0.00 0.00 0.01 0.01 0.00 0.00 0.00 0.02 0.02 0.06 0.12 0.07 0.07 0.06 0.02 0.02 0.00 0.00 0.00 0.00 0.00 0.00 0.00 0.00 0.00 0.00 0.00 0.02 0.02 0.00 0.00 0.00 0.01 0.04 0.09 0.16
0.01 0.00 0.02 0.03 0.03 0.03 0.02 0.01 0.00 0.00 0.00 0.00 0.00 0.00 0.00 0.00 0.00 0.00 0.00 0.02 0.04 0.03 0.09 0.19 0.14 0.09 0.05 0.01 0.00 0.00 0.00 0.00 0.00 0.00 0.00 0.00 0.00 0.00 0.02 0.05 0.03 0.01 0.01 0.02 0.07 0.21 0.35 0.43 0.48
0.01 0.02 0.00 0.00 0.00 0.00 0.00 0.00 0.00 0.00 0.00 0.00 0.00 0.00 0.00 0.00 0.00 0.00 0.00 0.02 0.03 0.04 0.08 0.13 0.09 0.03 0.01 0.00 0.00 0.00 0.00 0.00 0.00 0.00 0.00 0.01 0.04 0.08 0.07 0.02 0.02 0.05 0.12 0.18 0.27 0.32 0.29 0.27 0.24
0.00 0.00 0.00 0.00 0.00 0.00 0.00 0.00 0.01 0.01 0.00 0.00 0.00 0.00 0.00 0.00 0.00 0.00 0.00 0.01 0.01 0.01 0.02 0.04 0.01 0.01 0.00 0.00 0.00 0.00 0.00 0.00 0.00 0.01 0.01 0.03 0.05 0.07 0.03 0.09 0.18 0.17 0.13 0.08 0.07 0.06 0.06 0.06 0.07
0.00 0.00 0.00 0.00 0.00 0.04 0.07 0.01 0.00 0.00 0.00 0.00 0.00 0.00 0.00 0.00 0.00 0.00 0.00 0.00 0.00 0.00 0.00 0.00 0.00 0.00 0.00 0.00 0.00 0.00 0.00 0.00 0.00 0.02 0.05 0.08 0.08 0.06 0.08 0.09 0.04 0.03 0.04 0.04 0.02 0.02 0.02 0.02 0.02
0.00 0.00 0.01 0.01 0.02 0.01 0.02 0.01 0.00 0.00 0.00 0.00 0.01 0.00 0.00 0.00 0.00 0.00 0.00 0.00 0.00 0.00 0.00 0.00 0.00 0.00 0.00 0.00 0.00 0.01 0.01 0.02 0.03 0.03 0.03 0.04 0.06 0.05 0.05 0.05 0.04 0.05 0.04 0.03 0.03 0.02 0.02 0.03 0.03

GFSSGP_prec_precacc_060.txt.gz
Total_Precipitation_Accumulation
0.00 0.00 0.00 0.00 0.00 0.00 0.00 0.00 0.00 0.05 0.09 0.10 0.08 0.14 0.15 0.11 0.20 0.42 0.26 0.15 0.12 0.08 0.01 0.00 0.02 0.03 0.02 0.02 0.02 0.03 0.03 0.02 0.02 0.02 0.02 0.06 0.05 0.01 0.04 0.16 0.16 0.18 0.10 0.05 0.07 0.14 0.28 0.28 0.21
0.00 0.00 0.00 0.00 0.00 0.00 0.00 0.00 0.02 0.10 0.34 0.42 0.29 0.22 0.17 0.21 0.12 0.17 0.42 0.41 0.12 0.06 0.01 0.01 0.01 0.03 0.02 0.02 0.03 0.03 0.03 0.01 0.00 0.00 0.01 0.01 0.03 0.03 0.01 0.07 0.10 0.07 0.05 0.03 0.05 0.11 0.90 0.70 0.61
0.00 0.00 0.00 0.00 0.00 0.00 0.00 0.01 0.02 0.05 0.21 0.22 0.19 0.13 0.22 0.29 0.33 0.47 0.60 0.50 0.13 0.06 0.04 0.04 0.09 0.10 0.06 0.04 0.05 0.05 0.04 0.00 0.01 0.01 0.02 0.04 0.04 0.04 0.04 0.12 0.05 0.10 0.10 0.05 0.05 0.02 0.65 1.02 0.74
0.00 0.00 0.00 0.00 0.00 0.00 0.00 0.00 0.02 0.07 0.06 0.07 0.14 0.15 0.18 0.26 0.42 0.61 0.61 0.63 0.49 0.28 0.34 0.24 0.31 0.36 0.11 0.06 0.06 0.04 0.01 0.00 0.00 0.00 0.01 0.01 0.01 0.03 0.05 0.03 0.00 0.00 0.00 0.00 0.02 0.04 0.15 0.26 0.53
0.00 0.00 0.00 0.00 0.00 0.00 0.01 0.04 0.16 0.16 0.09 0.09 0.04 0.14 0.27 0.29 0.23 0.45 0.93 1.16 1.41 1.18 0.92 0.80 0.71 0.72 0.36 0.18 0.10 0.01 0.00 0.00 0.00 0.00 0.00 0.00 0.00 0.00 0.00 0.00 0.00 0.00 0.00 0.01 0.01 0.01 0.09 0.32 0.14
0.00 0.00 0.00 0.00 0.00 0.01 0.04 0.16 0.24 0.30 0.18 0.13 0.01 0.05 0.19 0.25 0.22 0.56 1.32 2.15 3.22 2.65 2.03 1.40 1.01 0.94 0.95 0.58 0.13 0.00 0.00 0.00 0.00 0.00 0.00 0.00 0.00 0.00 0.00 0.00 0.00 0.00 0.00 0.00 0.00 0.00 0.00 0.14 0.08
0.00 0.00 0.00 0.00 0.00 0.00 0.03 0.30 0.47 0.35 0.15 0.07 0.01 0.07 0.11 0.22 0.20 0.82 1.04 1.54 1.40 1.97 1.95 1.78 1.22 0.98 0.91 0.32 0.02 0.00 0.00 0.00 0.00 0.00 0.00 0.00 0.00 0.00 0.00 0.00 0.00 0.00 0.00 0.00 0.00 0.00 0.01 0.01 0.01
0.00 0.00 0.00 0.00 0.00 0.03 0.09 0.10 0.14 0.07 0.07 0.17 0.07 0.09 0.09 0.17 0.29 0.57 0.58 0.83 0.98 1.37 1.53 1.66 1.24 0.78 0.35 0.11 0.04 0.00 0.00 0.00 0.00 0.00 0.00 0.00 0.00 0.00 0.00 0.00 0.00 0.00 0.00 0.00 0.00 0.00 0.00 0.00 0.01
0.00 0.00 0.00 0.01 0.02 0.18 0.25 0.17 0.19 0.04 0.01 0.01 0.02 0.16 0.12 0.12 0.14 0.24 0.60 1.16 1.70 1.70 1.20 1.05 1.21 0.52 0.25 0.08 0.02 0.00 0.00 0.00 0.00 0.00 0.00 0.00 0.00 0.00 0.00 0.00 0.00 0.00 0.00 0.00 0.00 0.00 0.00 0.00 0.00
0.00 0.00 0.00 0.03 0.08 0.25 0.33 0.04 0.12 0.02 0.01 0.06 0.18 0.31 0.24 0.16 0.12 0.22 0.69 1.17 1.43 1.25 1.03 0.72 0.60 0.26 0.09 0.00 0.00 0.00 0.02 0.00 0.00 0.00 0.00 0.00 0.00 0.00 0.00 0.00 0.00 0.00 0.00 0.00 0.00 0.00 0.00 0.00 0.00
0.00 0.00 0.00 0.00 0.06 0.10 0.29 0.01 0.04 0.03 0.03 0.07 0.31 0.37 0.30 0.23 0.23 0.33 0.37 0.50 0.30 0.53 0.71 0.27 0.20 0.13 0.02 0.00 0.00 0.00 0.00 0.00 0.00 0.00 0.01 0.00 0.00 0.01 0.04 0.04 0.05 0.00 0.00 0.00 0.00 0.00 0.00 0.00 0.00
0.00 0.00 0.00 0.00 0.00 0.00 0.00 0.07 0.15 0.09 0.06 0.10 0.30 0.38 0.25 0.28 0.34 0.32 0.43 0.16 0.10 0.10 0.10 0.11 0.08 0.02 0.01 0.00 0.00 0.00 0.00 0.00 0.02 0.04 0.03 0.05 0.07 0.12 0.13 0.09 0.02 0.00 0.00 0.00 0.00 0.00 0.00 0.00 0.00
0.00 0.00 0.00 0.00 0.01 0.00 0.01 0.09 0.11 0.01 0.01 0.13 0.20 0.13 0.10 0.16 0.47 1.04 0.21 0.06 0.02 0.05 0.02 0.04 0.01 0.01 0.00 0.00 0.00 0.01 0.02 0.07 0.16 0.20 0.19 0.14 0.17 0.14 0.05 0.03 0.01 0.00 0.00 0.00 0.00 0.00 0.00 0.00 0.00
0.00 0.00 0.00 0.00 0.00 0.00 0.00 0.18 0.01 0.09 0.08 0.07 0.13 0.06 0.07 0.12 0.06 0.12 0.02 0.00 0.00 0.00 0.00 0.02 0.02 0.04 0.04 0.00 0.00 0.01 0.04 0.06 0.13 0.23 0.23 0.20 0.10 0.04 0.09 0.09 0.02 0.00 0.00 0.00 0.00 0.00 0.00 0.00 0.00
0.00 0.00 0.00 0.00 0.00 0.00 0.02 0.06 0.00 0.07 0.10 0.05 0.07 0.04 0.03 0.02 0.00 0.00 0.00 0.00 0.00 0.01 0.00 0.02 0.25 0.25 0.20 0.09 0.06 0.09 0.05 0.05 0.06 0.13 0.27 0.17 0.11 0.11 0.07 0.05 0.02 0.00 0.00 0.00 0.00 0.00 0.00 0.00 0.00
0.00 0.00 0.00 0.00 0.00 0.00 0.01 0.04 0.00 0.02 0.02 0.06 0.08 0.03 0.01 0.00 0.00 0.00 0.00 0.00 0.01 0.01 0.03 0.27 0.59 0.91 0.81 0.24 0.17 0.12 0.11 0.10 0.12 0.11 0.13 0.10 0.07 0.03 0.01 0.00 0.00 0.00 0.00 0.00 0.00 0.00 0.00 0.00 0.00
0.00 0.00 0.00 0.00 0.00 0.00 0.00 0.00 0.00 0.00 0.02 0.03 0.01 0.01 0.00 0.00 0.00 0.00 0.00 0.00 0.03 0.02 0.04 0.32 0.68 0.86 1.00 0.99 1.00 0.76 0.38 0.19 0.11 0.06 0.05 0.01 0.00 0.00 0.00 0.00 0.00 0.00 0.00 0.00 0.00 0.00 0.00 0.00 0.00
0.00 0.00 0.00 0.00 0.00 0.00 0.00 0.00 0.00 0.00 0.00 0.01 0.00 0.00 0.00 0.00 0.00 0.00 0.00 0.02 0.03 0.05 0.20 0.55 0.80 1.32 2.33 1.70 0.74 0.23 0.09 0.05 0.03 0.03 0.00 0.00 0.00 0.00 0.00 0.00 0.00 0.00 0.00 0.00 0.00 0.00 0.00 0.00 0.00
0.00 0.00 0.00 0.00 0.00 0.00 0.00 0.00 0.00 0.00 0.00 0.01 0.00 0.00 0.00 0.00 0.00 0.00 0.01 0.03 0.03 0.15 0.47 0.72 0.74 0.77 0.50 0.21 0.09 0.05 0.04 0.03 0.01 0.01 0.00 0.00 0.00 0.00 0.00 0.00 0.00 0.00 0.00 0.00 0.00 0.00 0.00 0.00 0.00
0.00 0.00 0.00 0.00 0.00 0.00 0.00 0.00 0.00 0.00 0.00 0.00 0.01 0.00 0.00 0.00 0.00 0.00 0.05 0.10 0.17 0.31 0.35 0.22 0.07 0.02 0.01 0.02 0.00 0.00 0.01 0.00 0.00 0.00 0.00 0.00 0.00 0.00 0.00 0.00 0.00 0.00 0.00 0.00 0.00 0.00 0.00 0.00 0.00
0.00 0.00 0.00 0.00 0.00 0.00 0.00 0.00 0.00 0.00 0.01 0.01 0.01 0.00 0.00 0.00 0.00 0.04 0.05 0.07 0.06 0.03 0.09 0.04 0.03 0.02 0.01 0.01 0.00 0.00 0.00 0.01 0.00 0.00 0.00 0.00 0.00 0.00 0.00 0.00 0.00 0.00 0.00 0.00 0.00 0.00 0.00 0.00 0.00
0.01 0.00 0.00 0.00 0.00 0.00 0.00 0.00 0.01 0.00 0.00 0.00 0.01 0.01 0.01 0.00 0.01 0.01 0.00 0.01 0.01 0.06 0.02 0.06 0.10 0.04 0.04 0.02 0.02 0.02 0.02 0.01 0.00 0.00 0.00 0.00 0.00 0.00 0.00 0.00 0.00 0.00 0.00 0.00 0.00 0.00 0.00 0.00 0.00
0.01 0.00 0.00 0.00 0.00 0.01 0.01 0.00 0.02 0.00 0.00 0.00 0.00 0.00 0.00 0.00 0.00 0.00 0.00 0.01 0.03 0.04 0.05 0.09 0.08 0.10 0.10 0.06 0.07 0.07 0.05 0.04 0.01 0.00 0.00 0.00 0.00 0.00 0.00 0.00 0.00 0.00 0.00 0.00 0.00 0.00 0.00 0.00 0.00
0.00 0.00 0.00 0.00 0.00 0.00 0.00 0.01 0.01 0.01 0.01 0.03 0.02 0.00 0.00 0.00 0.01 0.00 0.01 0.00 0.01 0.03 0.03 0.06 0.11 0.15 0.15 0.16 0.12 0.13 0.09 0.03 0.01 0.00 0.00 0.00 0.00 0.00 0.00 0.00 0.00 0.00 0.00 0.01 0.00 0.00 0.00 0.01 0.02
0.00 0.00 0.00 0.08 0.04 0.01 0.04 0.05 0.03 0.00 0.00 0.01 0.01 0.00 0.00 0.01 0.01 0.00 0.00 0.00 0.02 0.03 0.06 0.15 0.16 0.17 0.15 0.12 0.12 0.10 0.06 0.04 0.01 0.00 0.00 0.00 0.00 0.00 0.00 0.00 0.02 0.03 0.03 0.01 0.00 0.01 0.04 0.09 0.16
0.01 0.00 0.02 0.03 0.03 0.03 0.02 0.01 0.00 0.00 0.00 0.00 0.00 0.00 0.00 0.00 0.00 0.00 0.00 0.02 0.05 0.04 0.10 0.24 0.30 0.23 0.20 0.16 0.14 0.07 0.03 0.01 0.00 0.00 0.00 0.00 0.00 0.00 0.02 0.06 0.07 0.05 0.03 0.02 0.08 0.22 0.35 0.43 0.48
0.01 0.02 0.00 0.00 0.00 0.00 0.00 0.00 0.00 0.00 0.00 0.00 0.00 0.00 0.00 0.00 0.00 0.00 0.00 0.02 0.03 0.04 0.08 0.20 0.20 0.10 0.11 0.08 0.06 0.05 0.05 0.02 0.00 0.00 0.00 0.01 0.05 0.08 0.08 0.05 0.07 0.10 0.14 0.19 0.28 0.33 0.29 0.27 0.24
0.00 0.00 0.00 0.00 0.00 0.00 0.00 0.00 0.01 0.01 0.00 0.00 0.00 0.00 0.00 0.00 0.00 0.00 0.00 0.01 0.01 0.01 0.03 0.07 0.05 0.03 0.00 0.00 0.03 0.03 0.02 0.01 0.01 0.01 0.01 0.03 0.05 0.08 0.09 0.15 0.20 0.19 0.15 0.08 0.07 0.06 0.06 0.06 0.07
0.00 0.00 0.00 0.00 0.00 0.04 0.07 0.01 0.00 0.00 0.00 0.00 0.00 0.00 0.00 0.00 0.00 0.00 0.00 0.00 0.00 0.00 0.01 0.01 0.02 0.01 0.00 0.00 0.02 0.01 0.01 0.01 0.02 0.03 0.06 0.09 0.09 0.09 0.13 0.11 0.06 0.04 0.04 0.04 0.02 0.02 0.02 0.02 0.02
0.00 0.00 0.01 0.01 0.02 0.01 0.02 0.01 0.00 0.00 0.00 0.00 0.01 0.00 0.00 0.00 0.00 0.00 0.00 0.00 0.00 0.00 0.00 0.00 0.01 0.01 0.01 0.01 0.01 0.01 0.02 0.02 0.04 0.04 0.05 0.08 0.12 0.13 0.06 0.05 0.04 0.05 0.04 0.03 0.03 0.02 0.02 0.03 0.03

GFSSGP_prec_precacc_063.txt.gz
Total_Precipitation_Accumulation
0.00 0.00 0.00 0.00 0.00 0.00 0.00 0.00 0.00 0.05 0.10 0.12 0.11 0.17 0.15 0.11 0.22 0.44 0.28 0.20 0.14 0.10 0.01 0.00 0.02 0.03 0.02 0.02 0.02 0.03 0.03 0.02 0.02 0.02 0.02 0.06 0.05 0.01 0.04 0.16 0.16 0.18 0.10 0.05 0.07 0.14 0.28 0.28 0.21
0.00 0.00 0.00 0.00 0.00 0.00 0.00 0.00 0.02 0.10 0.36 0.44 0.33 0.27 0.18 0.21 0.15 0.24 0.49 0.46 0.16 0.08 0.01 0.01 0.02 0.04 0.02 0.02 0.04 0.03 0.03 0.01 0.00 0.00 0.01 0.01 0.03 0.03 0.01 0.07 0.10 0.07 0.05 0.03 0.05 0.11 0.90 0.70 0.61
0.00 0.00 0.00 0.00 0.00 0.00 0.00 0.01 0.02 0.05 0.21 0.23 0.20 0.20 0.24 0.29 0.38 0.57 0.68 0.56 0.21 0.09 0.05 0.06 0.13 0.13 0.07 0.05 0.05 0.05 0.04 0.00 0.01 0.01 0.02 0.04 0.04 0.04 0.04 0.12 0.05 0.10 0.10 0.05 0.05 0.02 0.65 1.02 0.74
0.00 0.00 0.00 0.00 0.00 0.00 0.00 0.00 0.02 0.08 0.07 0.08 0.14 0.17 0.19 0.27 0.46 0.65 0.63 0.77 0.62 0.33 0.36 0.25 0.37 0.45 0.17 0.06 0.06 0.04 0.01 0.00 0.00 0.00 0.01 0.01 0.01 0.03 0.05 0.03 0.00 0.00 0.00 0.00 0.02 0.04 0.15 0.26 0.53
0.00 0.00 0.00 0.00 0.00 0.00 0.01 0.04 0.17 0.20 0.11 0.10 0.05 0.15 0.30 0.31 0.24 0.48 0.98 1.43 1.72 1.26 1.05 0.91 0.89 0.95 0.46 0.24 0.12 0.01 0.00 0.00 0.00 0.00 0.00 0.00 0.00 0.00 0.00 0.00 0.00 0.00 0.00 0.01 0.01 0.01 0.09 0.32 0.14
0.00 0.00 0.00 0.00 0.00 0.01 0.04 0.16 0.24 0.32 0.18 0.13 0.05 0.09 0.21 0.26 0.23 0.56 1.33 2.19 3.43 2.83 2.32 1.73 1.24 1.23 1.13 0.74 0.18 0.00 0.00 0.00 0.00 0.00 0.00 0.00 0.00 0.00 0.00 0.00 0.00 0.00 0.00 0.00 0.00 0.00 0.00 0.14 0.08
0.00 0.00 0.00 0.00 0.00 0.00 0.03 0.30 0.47 0.35 0.15 0.08 0.01 0.09 0.13 0.27 0.22 0.83 1.05 1.55 1.43 2.15 2.38 2.19 1.47 1.25 1.04 0.38 0.04 0.00 0.00 0.00 0.00 0.00 0.00 0.00 0.00 0.00 0.00 0.00 0.00 0.00 0.00 0.00 0.00 0.00 0.01 0.01 0.01
0.00 0.00 0.00 0.00 0.00 0.03 0.09 0.10 0.14 0.07 0.07 0.17 0.07 0.09 0.10 0.22 0.30 0.58 0.61 0.89 1.08 1.53 1.79 2.26 1.82 1.25 0.58 0.17 0.07 0.00 0.00 0.00 0.00 0.00 0.00 0.00 0.00 0.00 0.00 0.00 0.00 0.00 0.00 0.00 0.00 0.00 0.00 0.00 0.01
0.00 0.00 0.00 0.01 0.02 0.18 0.25 0.17 0.19 0.04 0.01 0.01 0.02 0.16 0.12 0.13 0.15 0.24 0.62 1.25 1.81 1.80 1.33 1.19 1.56 0.98 0.62 0.20 0.05 0.01 0.00 0.00 0.00 0.00 0.00 0.00 0.00 0.00 0.00 0.00 0.00 0.00 0.00 0.00 0.00 0.00 0.00 0.00 0.00
0.00 0.00 0.00 0.03 0.08 0.25 0.33 0.04 0.12 0.02 0.01 0.06 0.18 0.32 0.25 0.16 0.12 0.23 0.70 1.21 1.49 1.36 1.39 1.04 0.75 0.36 0.22 0.19 0.07 0.01 0.02 0.00 0.00 0.00 0.00 0.00 0.00 0.00 0.00 0.00 0.00 0.00 0.00 0.00 0.00 0.00 0.00 0.00 0.00
0.00 0.00 0.00 0.00 0.06 0.10 0.29 0.01 0.04 0.03 0.03 0.07 0.31 0.37 0.31 0.23 0.24 0.34 0.40 0.57 0.43 0.61 0.90 0.59 0.41 0.23 0.12 0.09 0.02 0.00 0.00 0.00 0.00 0.00 0.01 0.00 0.00 0.01 0.04 0.04 0.05 0.00 0.00 0.00 0.00 0.00 0.00 0.00 0.00
0.00 0.00 0.00 0.00 0.00 0.00 0.00 0.07 0.15 0.09 0.06 0.10 0.30 0.38 0.26 0.32 0.38 0.35 0.48 0.25 0.19 0.17 0.20 0.27 0.11 0.05 0.03 0.01 0.00 0.00 0.00 0.00 0.02 0.04 0.03 0.05 0.07 0.12 0.13 0.09 0.02 0.00 0.00 0.00 0.00 0.00 0.00 0.00 0.00
0.00 0.00 0.00 0.00 0.01 0.00 0.01 0.09 0.11 0.01 0.01 0.13 0.20 0.13 0.13 0.23 0.52 1.15 0.34 0.17 0.10 0.09 0.08 0.07 0.02 0.02 0.01 0.00 0.00 0.01 0.02 0.07 0.16 0.20 0.19 0.14 0.17 0.14 0.05 0.03 0.01 0.00 0.00 0.00 0.00 0.00 0.00 0.00 0.00
0.00 0.00 0.00 0.00 0.00 0.00 0.00 0.18 0.01 0.09 0.08 0.07 0.14 0.06 0.09 0.17 0.12 0.29 0.23 0.04 0.01 0.00 0.01 0.02 0.02 0.04 0.05 0.01 0.00 0.01 0.04 0.06 0.13 0.23 0.23 0.20 0.10 0.04 0.09 0.09 0.02 0.00 0.00 0.00 0.00 0.00 0.00 0.00 0.00
0.00 0.00 0.00 0.00 0.00 0.00 0.02 0.06 0.00 0.07 0.10 0.06 0.08 0.04 0.03 0.02 0.00 0.01 0.01 0.00 0.00 0.01 0.00 0.02 0.25 0.25 0.20 0.09 0.06 0.09 0.05 0.05 0.06 0.13 0.29 0.19 0.12 0.14 0.12 0.07 0.03 0.00 0.00 0.00 0.00 0.00 0.00 0.00 0.00
0.00 0.00 0.00 0.00 0.00 0.00 0.01 0.04 0.00 0.02 0.02 0.06 0.08 0.03 0.01 0.00 0.00 0.00 0.00 0.00 0.01 0.01 0.03 0.27 0.59 0.91 0.81 0.24 0.17 0.12 0.11 0.10 0.13 0.15 0.17 0.15 0.14 0.11 0.04 0.01 0.00 0.00 0.00 0.00 0.00 0.00 0.00 0.00 0.00
0.00 0.00 0.00 0.00 0.00 0.00 0.00 0.00 0.01 0.01 0.02 0.03 0.01 0.01 0.00 0.00 0.00 0.00 0.00 0.00 0.03 0.02 0.04 0.32 0.68 0.86 1.00 0.99 1.00 0.76 0.38 0.19 0.13 0.11 0.12 0.09 0.08 0.04 0.01 0.00 0.00 0.00 0.00 0.00 0.00 0.00 0.00 0.00 0.00
0.00 0.00 0.00 0.00 0.00 0.00 0.00 0.00 0.00 0.00 0.00 0.01 0.00 0.00 0.00 0.00 0.00 0.00 0.00 0.02 0.03 0.05 0.20 0.55 0.80 1.32 2.33 1.70 0.74 0.23 0.09 0.05 0.08 0.10 0.06 0.06 0.02 0.00 0.00 0.00 0.00 0.00 0.00 0.00 0.00 0.00 0.00 0.00 0.00
0.00 0.00 0.00 0.00 0.00 0.00 0.00 0.00 0.00 0.00 0.00 0.01 0.00 0.00 0.00 0.00 0.00 0.00 0.01 0.03 0.03 0.15 0.47 0.72 0.74 0.77 0.50 0.21 0.09 0.05 0.04 0.05 0.06 0.06 0.02 0.01 0.00 0.00 0.00 0.00 0.00 0.00 0.00 0.00 0.00 0.00 0.00 0.00 0.00
0.00 0.00 0.00 0.00 0.00 0.00 0.00 0.00 0.00 0.00 0.00 0.00 0.01 0.00 0.00 0.00 0.00 0.00 0.05 0.10 0.17 0.31 0.35 0.22 0.07 0.02 0.01 0.02 0.00 0.00 0.01 0.00 0.03 0.05 0.05 0.02 0.00 0.00 0.00 0.00 0.00 0.00 0.00 0.00 0.00 0.00 0.00 0.00 0.00
0.00 0.00 0.00 0.00 0.00 0.00 0.00 0.00 0.00 0.00 0.01 0.01 0.01 0.00 0.00 0.00 0.00 0.04 0.05 0.07 0.06 0.03 0.09 0.04 0.03 0.02 0.01 0.01 0.00 0.00 0.00 0.01 0.05 0.06 0.01 0.00 0.00 0.00 0.00 0.00 0.00 0.00 0.00 0.00 0.00 0.00 0.00 0.00 0.00
0.01 0.00 0.00 0.00 0.00 0.00 0.00 0.00 0.01 0.00 0.00 0.00 0.01 0.01 0.01 0.00 0.01 0.01 0.00 0.01 0.01 0.06 0.02 0.06 0.10 0.04 0.04 0.02 0.02 0.02 0.02 0.03 0.05 0.02 0.00 0.00 0.00 0.00 0.00 0.00 0.00 0.00 0.00 0.00 0.00 0.00 0.00 0.00 0.00
0.01 0.00 0.00 0.00 0.00 0.01 0.01 0.00 0.02 0.00 0.00 0.00 0.00 0.00 0.00 0.00 0.00 0.00 0.00 0.01 0.03 0.04 0.05 0.09 0.08 0.10 0.11 0.06 0.07 0.07 0.07 0.10 0.07 0.02 0.00 0.00 0.00 0.00 0.00 0.00 0.00 0.00 0.00 0.00 0.00 0.00 0.00 0.00 0.00
0.00 0.00 0.00 0.00 0.00 0.00 0.00 0.01 0.01 0.01 0.01 0.03 0.02 0.00 0.00 0.00 0.01 0.00 0.01 0.00 0.01 0.03 0.03 0.06 0.11 0.16 0.18 0.16 0.13 0.14 0.15 0.11 0.07 0.04 0.00 0.00 0.00 0.00 0.00 0.00 0.00 0.00 0.00 0.01 0.00 0.00 0.00 0.01 0.02
0.00 0.00 0.00 0.08 0.04 0.01 0.04 0.05 0.03 0.00 0.00 0.01 0.01 0.00 0.00 0.01 0.01 0.00 0.00 0.00 0.03 0.04 0.07 0.15 0.16 0.18 0.20 0.18 0.16 0.13 0.11 0.08 0.05 0.02 0.00 0.00 0.00 0.00 0.00 0.00 0.02 0.03 0.03 0.01 0.00 0.01 0.04 0.09 0.16
0.01 0.00 0.02 0.03 0.03 0.03 0.02 0.01 0.00 0.00 0.00 0.00 0.00 0.00 0.00 0.00 0.00 0.00 0.00 0.02 0.05 0.05 0.12 0.28 0.30 0.24 0.23 0.22 0.23 0.18 0.11 0.06 0.02 0.00 0.01 0.00 0.00 0.00 0.02 0.06 0.07 0.05 0.04 0.04 0.08 0.22 0.35 0.43 0.48
0.01 0.02 0.00 0.00 0.00 0.00 0.00 0.00 0.00 0.00 0.00 0.00 0.00 0.00 0.00 0.00 0.00 0.00 0.00 0.02 0.03 0.04 0.08 0.20 0.21 0.11 0.15 0.17 0.15 0.13 0.10 0.09 0.07 0.04 0.01 0.01 0.05 0.08 0.08 0.05 0.07 0.12 0.16 0.20 0.28 0.33 0.29 0.27 0.24
0.00 0.00 0.00 0.00 0.00 0.00 0.00 0.00 0.01 0.01 0.00 0.00 0.00 0.00 0.00 0.00 0.00 0.00 0.00 0.01 0.01 0.01 0.03 0.07 0.05 0.04 0.01 0.01 0.06 0.08 0.07 0.06 0.07 0.08 0.03 0.03 0.05 0.08 0.09 0.17 0.28 0.28 0.17 0.09 0.07 0.06 0.06 0.06 0.07
0.00 0.00 0.00 0.00 0.00 0.04 0.07 0.01 0.00 0.00 0.00 0.00 0.00 0.00 0.00 0.00 0.00 0.00 0.00 0.00 0.00 0.00 0.01 0.01 0.02 0.02 0.02 0.04 0.09 0.07 0.06 0.11 0.15 0.14 0.10 0.10 0.11 0.14 0.21 0.20 0.08 0.05 0.05 0.04 0.02 0.02 0.02 0.02 0.02
0.00 0.00 0.01 0.01 0.02 0.01 0.02 0.01 0.00 0.00 0.00 0.00 0.01 0.00 0.00 0.00 0.00 0.00 0.00 0.00 0.00 0.00 0.00 0.00 0.01 0.03 0.05 0.06 0.07 0.08 0.10 0.12 0.14 0.11 0.09 0.12 0.20 0.19 0.11 0.06 0.05 0.06 0.05 0.04 0.03 0.02 0.02 0.03 0.03

GFSSGP_prec_precacc_066.txt.gz
Total_Precipitation_Accumulation
0.00 0.00 0.00 0.00 0.00 0.00 0.00 0.00 0.00 0.05 0.11 0.13 0.13 0.21 0.19 0.15 0.24 0.50 0.28 0.22 0.16 0.12 0.05 0.00 0.02 0.04 0.02 0.03 0.02 0.03 0.03 0.02 0.02 0.02 0.02 0.06 0.05 0.01 0.04 0.16 0.16 0.18 0.10 0.05 0.07 0.14 0.28 0.28 0.21
0.00 0.00 0.00 0.00 0.00 0.00 0.00 0.00 0.02 0.10 0.36 0.44 0.35 0.34 0.25 0.32 0.15 0.25 0.50 0.47 0.19 0.10 0.05 0.02 0.02 0.04 0.03 0.02 0.04 0.03 0.03 0.01 0.00 0.00 0.01 0.01 0.03 0.03 0.01 0.07 0.10 0.07 0.05 0.03 0.05 0.11 0.90 0.70 0.61
0.00 0.00 0.00 0.00 0.00 0.00 0.00 0.01 0.02 0.05 0.21 0.23 0.24 0.26 0.33 0.37 0.39 0.57 0.68 0.56 0.23 0.14 0.06 0.06 0.17 0.16 0.07 0.05 0.05 0.05 0.04 0.00 0.01 0.01 0.02 0.04 0.04 0.04 0.04 0.12 0.05 0.10 0.10 0.05 0.05 0.02 0.65 1.02 0.74
0.00 0.00 0.00 0.00 0.00 0.00 0.00 0.00 0.02 0.08 0.07 0.08 0.14 0.26 0.26 0.29 0.47 0.66 0.63 0.78 0.71 0.46 0.40 0.28 0.41 0.50 0.17 0.06 0.06 0.04 0.01 0.00 0.00 0.00 0.01 0.01 0.01 0.03 0.05 0.03 0.00 0.00 0.00 0.00 0.02 0.04 0.15 0.26 0.53
0.00 0.00 0.00 0.00 0.00 0.01 0.01 0.04 0.17 0.20 0.11 0.10 0.05 0.18 0.32 0.31 0.26 0.48 1.00 1.75 2.26 1.46 1.24 0.98 1.01 1.06 0.48 0.25 0.12 0.01 0.00 0.00 0.00 0.00 0.00 0.00 0.00 0.00 0.00 0.00 0.00 0.00 0.00 0.01 0.01 0.01 0.09 0.32 0.14
0.00 0.00 0.00 0.00 0.00 0.01 0.04 0.16 0.24 0.32 0.18 0.13 0.05 0.09 0.22 0.27 0.24 0.58 1.42 2.47 4.57 3.71 2.60 1.92 1.52 1.55 1.22 0.75 0.18 0.00 0.00 0.00 0.00 0.00 0.00 0.00 0.00 0.00 0.00 0.00 0.00 0.00 0.00 0.00 0.00 0.00 0.00 0.14 0.08
0.00 0.00 0.00 0.00 0.00 0.00 0.03 0.30 0.47 0.35 0.15 0.08 0.01 0.09 0.13 0.28 0.23 0.84 1.09 1.68 1.63 2.56 2.63 2.43 1.71 1.64 1.36 0.47 0.05 0.00 0.00 0.00 0.00 0.00 0.00 0.00 0.00 0.00 0.00 0.00 0.00 0.00 0.00 0.00 0.00 0.00 0.01 0.01 0.01
0.00 0.00 0.00 0.00 0.00 0.03 0.09 0.10 0.14 0.07 0.07 0.17 0.07 0.09 0.10 0.24 0.31 0.59 0.63 0.98 1.22 1.80 2.07 2.52 2.22 1.63 1.00 0.49 0.16 0.00 0.00 0.00 0.00 0.00 0.00 0.00 0.00 0.00 0.00 0.00 0.00 0.00 0.00 0.00 0.00 0.00 0.00 0.00 0.01
0.00 0.00 0.00 0.01 0.02 0.18 0.25 0.17 0.19 0.04 0.01 0.01 0.02 0.16 0.12 0.15 0.19 0.27 0.66 1.31 1.91 2.07 1.62 1.37 2.19 1.67 0.91 0.62 0.25 0.02 0.00 0.00 0.00 0.00 0.00 0.00 0.00 0.00 0.00 0.00 0.00 0.00 0.00 0.00 0.00 0.00 0.00 0.00 0.00
0.00 0.00 0.00 0.03 0.08 0.25 0.33 0.04 0.12 0.02 0.01 0.06 0.18 0.32 0.25 0.17 0.16 0.28 0.76 1.25 1.55 1.44 1.56 1.29 0.92 0.59 0.31 0.28 0.21 0.08 0.04 0.00 0.00 0.00 0.00 0.00 0.00 0.00 0.00 0.00 0.00 0.00 0.00 0.00 0.00 0.00 0.00 0.00 0.00
0.00 0.00 0.00 0.00 0.06 0.10 0.29 0.01 0.04 0.03 0.03 0.07 0.31 0.38 0.32 0.25 0.25 0.36 0.46 0.62 0.50 0.69 1.00 0.76 0.73 0.31 0.16 0.14 0.07 0.04 0.02 0.00 0.00 0.00 0.01 0.00 0.00 0.01 0.04 0.04 0.05 0.00 0.00 0.00 0.00 0.00 0.00 0.00 0.00
0.00 0.00 0.00 0.00 0.00 0.00 0.00 0.07 0.15 0.09 0.06 0.10 0.30 0.38 0.28 0.37 0.42 0.37 0.51 0.27 0.25 0.28 0.40 0.48 0.21 0.13 0.11 0.08 0.05 0.02 0.00 0.00 0.02 0.04 0.03 0.05 0.07 0.12 0.13 0.09 0.02 0.00 0.00 0.00 0.00 0.00 0.00 0.00 0.00
0.00 0.00 0.00 0.00 0.01 0.00 0.01 0.09 0.11 0.01 0.01 0.13 0.20 0.14 0.17 0.27 0.54 1.19 0.37 0.32 0.51 0.35 0.34 0.31 0.19 0.10 0.07 0.05 0.02 0.01 0.02 0.07 0.16 0.20 0.19 0.14 0.17 0.14 0.05 0.03 0.01 0.00 0.00 0.00 0.00 0.00 0.00 0.00 0.00
0.00 0.00 0.00 0.00 0.00 0.00 0.00 0.18 0.01 0.09 0.08 0.07 0.14 0.07 0.11 0.18 0.14 0.38 0.46 0.19 0.12 0.19 0.13 0.15 0.06 0.11 0.09 0.04 0.00 0.01 0.04 0.06 0.13 0.23 0.23 0.20 0.10 0.04 0.09 0.09 0.02 0.00 0.00 0.00 0.00 0.00 0.00 0.00 0.00
0.00 0.00 0.00 0.00 0.00 0.00 0.02 0.06 0.00 0.07 0.10 0.07 0.08 0.05 0.03 0.03 0.04 0.09 0.16 0.04 0.01 0.01 0.01 0.02 0.26 0.34 0.25 0.12 0.06 0.09 0.05 0.05 0.06 0.13 0.29 0.19 0.12 0.15 0.14 0.09 0.04 0.00 0.00 0.00 0.00 0.00 0.00 0.00 0.00
0.00 0.00 0.00 0.00 0.00 0.00 0.01 0.04 0.00 0.02 0.02 0.07 0.11 0.03 0.01 0.00 0.00 0.00 0.00 0.00 0.01 0.01 0.03 0.27 0.60 0.95 0.84 0.25 0.17 0.12 0.11 0.10 0.13 0.15 0.17 0.17 0.16 0.15 0.10 0.03 0.01 0.00 0.00 0.00 0.00 0.00 0.00 0.00 0.00
0.00 0.00 0.00 0.00 0.00 0.00 0.00 0.00 0.01 0.01 0.02 0.03 0.02 0.01 0.00 0.00 0.00 0.00 0.00 0.00 0.03 0.02 0.04 0.32 0.68 0.87 1.02 0.99 1.00 0.76 0.38 0.19 0.13 0.11 0.13 0.14 0.16 0.11 0.04 0.01 0.00 0.00 0.00 0.00 0.00 0.00 0.00 0.00 0.00
0.00 0.00 0.00 0.00 0.00 0.00 0.00 0.00 0.00 0.00 0.00 0.01 0.00 0.00 0.00 0.00 0.00 0.00 0.00 0.02 0.03 0.05 0.20 0.55 0.80 1.33 2.34 1.70 0.74 0.23 0.09 0.05 0.08 0.13 0.10 0.12 0.09 0.04 0.00 0.00 0.00 0.00 0.00 0.00 0.00 0.00 0.00 0.00 0.00
0.00 0.00 0.00 0.00 0.00 0.00 0.00 0.00 0.00 0.00 0.00 0.01 0.00 0.00 0.00 0.00 0.00 0.00 0.01 0.03 0.03 0.15 0.47 0.72 0.74 0.78 0.51 0.21 0.09 0.05 0.04 0.05 0.07 0.11 0.06 0.07 0.05 0.02 0.00 0.00 0.00 0.00 0.00 0.00 0.00 0.00 0.00 0.00 0.00
0.00 0.00 0.00 0.00 0.00 0.00 0.00 0.00 0.00 0.00 0.00 0.00 0.01 0.00 0.00 0.00 0.00 0.00 0.05 0.10 0.17 0.31 0.35 0.22 0.07 0.02 0.01 0.02 0.00 0.00 0.01 0.00 0.06 0.09 0.10 0.08 0.05 0.01 0.00 0.00 0.00 0.00 0.00 0.00 0.00 0.00 0.00 0.00 0.00
0.00 0.00 0.00 0.00 0.00 0.00 0.00 0.00 0.00 0.00 0.01 0.01 0.01 0.00 0.00 0.00 0.00 0.04 0.05 0.07 0.06 0.03 0.09 0.04 0.03 0.02 0.01 0.01 0.00 0.00 0.00 0.01 0.06 0.16 0.10 0.05 0.01 0.00 0.00 0.00 0.00 0.00 0.00 0.00 0.00 0.00 0.00 0.00 0.00
0.01 0.00 0.00 0.00 0.00 0.00 0.00 0.00 0.01 0.00 0.00 0.00 0.01 0.01 0.01 0.00 0.01 0.01 0.00 0.01 0.01 0.06 0.02 0.06 0.10 0.04 0.04 0.02 0.02 0.02 0.02 0.03 0.09 0.08 0.03 0.01 0.00 0.00 0.00 0.00 0.00 0.00 0.00 0.00 0.00 0.00 0.00 0.00 0.00
0.01 0.00 0.00 0.00 0.00 0.01 0.01 0.00 0.02 0.00 0.00 0.00 0.00 0.00 0.00 0.00 0.00 0.00 0.00 0.01 0.03 0.04 0.05 0.09 0.08 0.10 0.11 0.07 0.07 0.07 0.07 0.12 0.11 0.05 0.03 0.01 0.01 0.00 0.00 0.00 0.00 0.00 0.00 0.00 0.00 0.00 0.00 0.00 0.00
0.00 0.00 0.00 0.00 0.00 0.00 0.00 0.01 0.01 0.01 0.01 0.03 0.02 0.00 0.00 0.00 0.01 0.00 0.01 0.00 0.01 0.03 0.03 0.06 0.11 0.16 0.19 0.17 0.13 0.14 0.16 0.15 0.10 0.06 0.05 0.04 0.02 0.00 0.00 0.00 0.00 0.00 0.00 0.01 0.00 0.00 0.00 0.01 0.02
0.00 0.00 0.00 0.08 0.04 0.01 0.04 0.05 0.03 0.00 0.00 0.01 0.01 0.00 0.00 0.01 0.01 0.00 0.00 0.00 0.03 0.04 0.07 0.15 0.16 0.18 0.20 0.18 0.19 0.17 0.13 0.10 0.07 0.04 0.02 0.03 0.03 0.02 0.01 0.01 0.02 0.03 0.03 0.01 0.00 0.02 0.04 0.09 0.16
0.01 0.00 0.02 0.03 0.03 0.03 0.02 0.01 0.00 0.00 0.00 0.00 0.00 0.00 0.00 0.00 0.00 0.00 0.00 0.02 0.05 0.05 0.12 0.28 0.30 0.24 0.23 0.22 0.24 0.20 0.13 0.07 0.06 0.03 0.04 0.03 0.02 0.01 0.02 0.06 0.07 0.05 0.04 0.04 0.09 0.23 0.35 0.43 0.48
0.01 0.02 0.00 0.00 0.00 0.00 0.00 0.00 0.00 0.00 0.00 0.00 0.00 0.00 0.00 0.00 0.00 0.00 0.00 0.02 0.03 0.04 0.08 0.20 0.21 0.11 0.15 0.17 0.16 0.16 0.13 0.10 0.08 0.07 0.05 0.04 0.07 0.09 0.08 0.05 0.07 0.12 0.18 0.26 0.31 0.33 0.30 0.27 0.24
0.00 0.00 0.00 0.00 0.00 0.00 0.00 0.00 0.01 0.01 0.00 0.00 0.00 0.00 0.00 0.00 0.00 0.00 0.00 0.01 0.01 0.01 0.03 0.07 0.05 0.04 0.01 0.01 0.07 0.12 0.13 0.13 0.13 0.13 0.08 0.08 0.09 0.09 0.09 0.17 0.29 0.31 0.25 0.12 0.08 0.07 0.06 0.06 0.07
0.00 0.00 0.00 0.00 0.00 0.04 0.07 0.01 0.00 0.00 0.00 0.00 0.00 0.00 0.00 0.00 0.00 0.00 0.00 0.00 0.00 0.00 0.01 0.01 0.02 0.02 0.02 0.05 0.10 0.10 0.10 0.14 0.20 0.21 0.16 0.16 0.15 0.15 0.21 0.26 0.20 0.17 0.12 0.07 0.04 0.03 0.03 0.02 0.02
0.00 0.00 0.01 0.01 0.02 0.01 0.02 0.01 0.00 0.00 0.00 0.00 0.01 0.00 0.00 0.00 0.00 0.00 0.00 0.00 0.00 0.00 0.00 0.00 0.01 0.03 0.05 0.07 0.09 0.12 0.13 0.16 0.19 0.18 0.15 0.16 0.23 0.23 0.24 0.29 0.26 0.16 0.08 0.10 0.10 0.05 0.02 0.03 0.03

GFSSGP_prec_precacc_069.txt.gz
Total_Precipitation_Accumulation
0.00 0.00 0.00 0.00 0.00 0.00 0.00 0.00 0.00 0.05 0.11 0.16 0.13 0.21 0.19 0.22 0.73 1.19 0.37 0.22 0.16 0.12 0.06 0.01 0.03 0.04 0.02 0.03 0.03 0.03 0.04 0.02 0.02 0.02 0.02 0.06 0.05 0.01 0.04 0.16 0.16 0.18 0.10 0.05 0.07 0.14 0.28 0.28 0.21
0.00 0.00 0.00 0.00 0.00 0.00 0.00 0.00 0.02 0.10 0.36 0.53 0.36 0.34 0.25 0.34 0.36 0.73 0.59 0.49 0.20 0.12 0.07 0.03 0.03 0.04 0.03 0.03 0.04 0.04 0.03 0.01 0.00 0.00 0.01 0.01 0.03 0.03 0.01 0.07 0.10 0.07 0.05 0.03 0.05 0.11 0.90 0.70 0.61
0.00 0.00 0.00 0.00 0.00 0.00 0.00 0.01 0.02 0.05 0.21 0.23 0.24 0.26 0.33 0.41 0.43 0.57 0.69 0.59 0.25 0.19 0.14 0.07 0.18 0.17 0.08 0.05 0.05 0.06 0.04 0.00 0.01 0.01 0.02 0.04 0.04 0.04 0.04 0.12 0.05 0.10 0.10 0.05 0.05 0.02 0.65 1.02 0.74
0.00 0.00 0.00 0.00 0.00 0.00 0.00 0.00 0.02 0.08 0.07 0.08 0.15 0.27 0.30 0.31 0.52 0.68 0.64 0.81 0.99 0.65 0.48 0.28 0.42 0.52 0.17 0.07 0.06 0.04 0.01 0.00 0.00 0.00 0.01 0.01 0.01 0.03 0.05 0.03 0.00 0.00 0.00 0.01 0.02 0.04 0.15 0.26 0.53
0.00 0.00 0.00 0.00 0.00 0.01 0.01 0.04 0.17 0.20 0.11 0.11 0.05 0.20 0.40 0.37 0.30 0.54 1.06 1.94 2.68 1.82 1.37 0.99 1.01 1.07 0.48 0.25 0.12 0.01 0.00 0.00 0.00 0.00 0.00 0.00 0.00 0.00 0.00 0.00 0.00 0.00 0.00 0.01 0.01 0.01 0.09 0.32 0.14
0.00 0.00 0.00 0.00 0.00 0.01 0.04 0.16 0.24 0.32 0.18 0.14 0.05 0.12 0.26 0.29 0.29 0.61 1.48 2.62 4.98 4.59 3.42 2.15 1.66 1.71 1.24 0.76 0.18 0.00 0.00 0.00 0.00 0.00 0.00 0.00 0.00 0.00 0.00 0.00 0.00 0.00 0.00 0.00 0.00 0.00 0.00 0.14 0.08
0.00 0.00 0.00 0.00 0.00 0.00 0.03 0.30 0.47 0.35 0.15 0.09 0.02 0.10 0.15 0.28 0.24 0.86 1.17 1.85 1.72 2.99 3.73 3.34 2.14 2.10 1.60 0.59 0.07 0.00 0.00 0.00 0.00 0.00 0.00 0.00 0.00 0.00 0.00 0.00 0.00 0.00 0.00 0.00 0.00 0.00 0.01 0.01 0.01
0.00 0.00 0.00 0.00 0.00 0.03 0.09 0.10 0.14 0.07 0.07 0.17 0.07 0.10 0.12 0.24 0.34 0.61 0.74 1.08 1.49 1.94 2.42 2.88 2.45 2.78 1.64 0.71 0.20 0.00 0.00 0.00 0.00 0.00 0.00 0.00 0.00 0.00 0.00 0.00 0.00 0.00 0.00 0.00 0.00 0.00 0.00 0.00 0.01
0.00 0.00 0.00 0.01 0.02 0.18 0.25 0.17 0.19 0.04 0.01 0.01 0.02 0.16 0.14 0.15 0.24 0.37 0.71 1.38 2.09 2.21 1.82 1.55 2.36 2.34 1.32 0.85 0.35 0.04 0.00 0.00 0.00 0.00 0.00 0.00 0.00 0.00 0.00 0.00 0.00 0.00 0.00 0.00 0.00 0.00 0.00 0.00 0.00
0.00 0.00 0.00 0.03 0.08 0.25 0.33 0.04 0.12 0.02 0.01 0.06 0.18 0.33 0.26 0.18 0.19 0.31 0.82 1.38 1.69 1.57 1.83 1.51 1.08 0.92 0.86 0.50 0.33 0.13 0.05 0.00 0.00 0.00 0.00 0.00 0.00 0.00 0.00 0.00 0.00 0.00 0.00 0.00 0.00 0.00 0.00 0.00 0.00
0.00 0.00 0.00 0.00 0.06 0.10 0.29 0.01 0.04 0.03 0.03 0.07 0.31 0.38 0.34 0.29 0.32 0.44 0.55 0.74 0.65 0.98 1.28 0.98 0.97 0.72 0.35 0.23 0.10 0.06 0.04 0.01 0.00 0.00 0.01 0.00 0.00 0.01 0.04 0.04 0.05 0.00 0.00 0.00 0.00 0.00 0.00 0.00 0.00
0.00 0.00 0.00 0.00 0.00 0.00 0.00 0.07 0.15 0.09 0.06 0.10 0.30 0.38 0.30 0.39 0.48 0.45 0.60 0.40 0.36 0.45 0.59 0.64 0.34 0.33 0.24 0.11 0.06 0.02 0.02 0.01 0.02 0.04 0.03 0.05 0.07 0.12 0.13 0.09 0.02 0.00 0.00 0.00 0.00 0.00 0.00 0.00 0.00
0.00 0.00 0.00 0.00 0.01 0.00 0.01 0.09 0.11 0.01 0.01 0.13 0.20 0.14 0.17 0.28 0.56 1.23 0.42 0.42 0.59 0.49 0.48 0.49 0.37 0.30 0.19 0.08 0.04 0.03 0.03 0.08 0.16 0.20 0.19 0.14 0.17 0.14 0.05 0.03 0.01 0.00 0.00 0.00 0.00 0.00 0.00 0.00 0.00
0.00 0.00 0.00 0.00 0.00 0.00 0.00 0.18 0.01 0.09 0.08 0.07 0.14 0.07 0.12 0.19 0.15 0.40 0.49 0.29 0.34 0.43 0.42 0.36 0.38 0.34 0.21 0.11 0.02 0.01 0.04 0.06 0.13 0.23 0.23 0.20 0.10 0.04 0.09 0.09 0.02 0.00 0.00 0.00 0.00 0.00 0.00 0.00 0.00
0.00 0.00 0.00 0.02 0.00 0.00 0.02 0.06 0.01 0.07 0.10 0.07 0.08 0.05 0.03 0.04 0.09 0.12 0.25 0.14 0.08 0.11 0.13 0.17 0.35 0.41 0.30 0.18 0.09 0.09 0.05 0.05 0.06 0.13 0.29 0.19 0.12 0.15 0.14 0.09 0.04 0.00 0.00 0.00 0.00 0.00 0.00 0.00 0.00
0.00 0.00 0.00 0.04 0.00 0.00 0.01 0.11 0.07 0.02 0.02 0.07 0.11 0.03 0.01 0.00 0.01 0.00 0.01 0.03 0.07 0.04 0.04 0.29 0.62 0.99 0.91 0.31 0.19 0.12 0.11 0.10 0.13 0.15 0.17 0.17 0.16 0.15 0.11 0.05 0.02 0.00 0.00 0.00 0.00 0.00 0.00 0.00 0.00
0.00 0.00 0.00 0.00 0.00 0.00 0.00 0.00 0.01 0.01 0.02 0.04 0.03 0.01 0.00 0.00 0.00 0.00 0.00 0.00 0.03 0.02 0.04 0.32 0.73 0.95 1.13 1.05 1.01 0.76 0.38 0.19 0.13 0.11 0.14 0.14 0.16 0.11 0.06 0.02 0.00 0.00 0.00 0.00 0.00 0.00 0.00 0.00 0.00
0.00 0.00 0.00 0.00 0.00 0.00 0.00 0.00 0.00 0.00 0.00 0.01 0.00 0.00 0.00 0.00 0.00 0.00 0.00 0.02 0.03 0.05 0.20 0.55 0.83 1.40 2.38 1.73 0.74 0.23 0.09 0.05 0.09 0.15 0.14 0.14 0.10 0.04 0.00 0.00 0.00 0.00 0.00 0.00 0.00 0.00 0.00 0.00 0.00
0.00 0.00 0.00 0.00 0.00 0.00 0.00 0.00 0.00 0.00 0.00 0.01 0.00 0.00 0.00 0.00 0.00 0.00 0.01 0.03 0.03 0.15 0.47 0.72 0.75 0.82 0.55 0.22 0.09 0.05 0.04 0.05 0.07 0.14 0.09 0.08 0.05 0.03 0.00 0.00 0.00 0.00 0.00 0.00 0.00 0.00 0.00 0.00 0.00
0.00 0.00 0.00 0.00 0.00 0.00 0.00 0.00 0.00 0.00 0.00 0.00 0.01 0.00 0.00 0.00 0.00 0.00 0.05 0.10 0.17 0.31 0.35 0.22 0.07 0.02 0.01 0.02 0.00 0.00 0.01 0.00 0.06 0.11 0.12 0.09 0.06 0.02 0.00 0.00 0.00 0.00 0.00 0.00 0.00 0.00 0.00 0.00 0.00
0.00 0.00 0.00 0.00 0.00 0.00 0.00 0.00 0.00 0.00 0.01 0.01 0.01 0.00 0.00 0.00 0.00 0.04 0.05 0.07 0.06 0.03 0.09 0.04 0.03 0.02 0.01 0.01 0.00 0.00 0.00 0.01 0.06 0.16 0.10 0.06 0.03 0.02 0.00 0.00 0.00 0.00 0.00 0.00 0.00 0.00 0.00 0.00 0.00
0.01 0.00 0.00 0.00 0.00 0.01 0.00 0.00 0.01 0.00 0.00 0.00 0.01 0.01 0.01 0.00 0.01 0.01 0.00 0.01 0.01 0.06 0.02 0.06 0.10 0.04 0.04 0.02 0.02 0.02 0.02 0.03 0.09 0.08 0.03 0.01 0.00 0.00 0.00 0.00 0.00 0.00 0.00 0.00 0.00 0.00 0.00 0.00 0.00
0.01 0.00 0.00 0.00 0.00 0.01 0.01 0.00 0.02 0.00 0.00 0.00 0.00 0.00 0.00 0.00 0.00 0.00 0.00 0.01 0.03 0.04 0.05 0.09 0.08 0.10 0.11 0.07 0.07 0.07 0.07 0.12 0.11 0.05 0.03 0.02 0.02 0.03 0.03 0.01 0.00 0.00 0.00 0.00 0.00 0.00 0.00 0.00 0.00
0.00 0.00 0.00 0.00 0.00 0.00 0.01 0.01 0.01 0.01 0.01 0.03 0.02 0.00 0.00 0.00 0.01 0.00 0.01 0.00 0.01 0.03 0.03 0.06 0.11 0.16 0.19 0.17 0.13 0.14 0.16 0.15 0.10 0.08 0.06 0.05 0.04 0.04 0.03 0.01 0.00 0.00 0.00 0.01 0.00 0.00 0.00 0.01 0.02
0.00 0.00 0.01 0.08 0.04 0.01 0.04 0.05 0.03 0.00 0.00 0.01 0.01 0.00 0.00 0.01 0.01 0.00 0.00 0.00 0.03 0.04 0.07 0.15 0.16 0.18 0.20 0.18 0.19 0.17 0.13 0.10 0.07 0.04 0.03 0.05 0.06 0.06 0.05 0.03 0.03 0.04 0.03 0.01 0.00 0.02 0.04 0.09 0.16
0.01 0.00 0.02 0.04 0.03 0.03 0.02 0.01 0.00 0.00 0.00 0.00 0.00 0.00 0.00 0.00 0.00 0.00 0.00 0.02 0.05 0.05 0.12 0.28 0.30 0.24 0.23 0.22 0.24 0.20 0.13 0.07 0.09 0.04 0.05 0.04 0.04 0.05 0.05 0.09 0.09 0.06 0.04 0.04 0.09 0.23 0.36 0.43 0.48
0.01 0.02 0.00 0.00 0.00 0.00 0.00 0.00 0.00 0.00 0.00 0.00 0.00 0.00 0.00 0.00 0.00 0.00 0.00 0.02 0.03 0.04 0.08 0.20 0.21 0.11 0.15 0.17 0.16 0.16 0.13 0.10 0.09 0.08 0.06 0.05 0.08 0.11 0.11 0.08 0.10 0.14 0.19 0.26 0.33 0.37 0.35 0.31 0.25
0.00 0.00 0.00 0.00 0.00 0.01 0.00 0.00 0.01 0.01 0.00 0.00 0.00 0.00 0.00 0.00 0.00 0.00 0.00 0.01 0.01 0.01 0.03 0.07 0.05 0.04 0.01 0.01 0.07 0.12 0.13 0.13 0.14 0.15 0.11 0.11 0.12 0.13 0.15 0.27 0.41 0.36 0.26 0.17 0.17 0.16 0.12 0.07 0.08
0.00 0.00 0.00 0.00 0.00 0.04 0.07 0.01 0.00 0.00 0.00 0.00 0.00 0.00 0.00 0.00 0.00 0.00 0.00 0.00 0.00 0.00 0.01 0.01 0.02 0.02 0.02 0.05 0.10 0.10 0.10 0.14 0.21 0.24 0.20 0.19 0.21 0.25 0.33 0.40 0.25 0.19 0.21 0.20 0.15 0.09 0.06 0.06 0.04
0.00 0.00 0.01 0.01 0.02 0.01 0.02 0.01 0.00 0.00 0.00 0.00 0.01 0.00 0.00 0.00 0.00 0.00 0.00 0.00 0.00 0.00 0.00 0.00 0.01 0.03 0.05 0.07 0.09 0.13 0.14 0.16 0.20 0.19 0.15 0.17 0.24 0.24 0.27 0.39 0.47 0.43 0.31 0.24 0.19 0.16 0.10 0.06 0.04

GFSSGP_prec_precacc_072.txt.gz
Total_Precipitation_Accumulation
0.00 0.00 0.00 0.00 0.00 0.00 0.00 0.00 0.00 0.05 0.11 0.16 0.13 0.21 0.19 0.22 0.84 1.30 1.00 1.68 1.85 0.58 0.06 0.01 0.04 0.05 0.03 0.03 0.03 0.03 0.04 0.02 0.02 0.02 0.02 0.06 0.05 0.01 0.04 0.16 0.16 0.19 0.11 0.05 0.07 0.14 0.28 0.28 0.21
0.00 0.00 0.00 0.00 0.00 0.00 0.00 0.00 0.02 0.10 0.36 0.55 0.37 0.34 0.25 0.35 0.64 0.97 0.96 1.28 1.43 0.47 0.08 0.04 0.04 0.05 0.04 0.03 0.04 0.04 0.03 0.01 0.00 0.00 0.01 0.01 0.03 0.03 0.01 0.07 0.10 0.07 0.05 0.03 0.05 0.11 0.90 0.70 0.61
0.00 0.00 0.00 0.00 0.00 0.00 0.00 0.01 0.02 0.05 0.21 0.23 0.24 0.27 0.33 0.42 0.45 0.60 0.71 0.63 0.71 0.37 0.16 0.09 0.21 0.20 0.10 0.06 0.06 0.06 0.04 0.00 0.01 0.01 0.02 0.04 0.04 0.04 0.04 0.12 0.05 0.10 0.10 0.05 0.05 0.02 0.65 1.02 0.74
0.00 0.00 0.00 0.00 0.00 0.00 0.00 0.00 0.02 0.08 0.13 0.17 0.20 0.65 0.34 0.31 0.52 0.68 0.65 0.85 1.39 0.78 0.60 0.36 0.43 0.53 0.19 0.08 0.06 0.04 0.01 0.00 0.00 0.00 0.01 0.01 0.01 0.03 0.05 0.03 0.00 0.00 0.01 0.01 0.02 0.04 0.15 0.26 0.53
0.00 0.00 0.00 0.00 0.00 0.01 0.01 0.05 0.18 0.21 0.15 0.47 0.17 0.47 0.78 0.39 0.30 0.54 1.06 1.98 3.03 2.09 1.79 1.32 1.23 1.22 0.61 0.38 0.13 0.01 0.00 0.00 0.00 0.00 0.00 0.00 0.00 0.00 0.00 0.00 0.00 0.00 0.00 0.01 0.01 0.01 0.09 0.32 0.14
0.00 0.00 0.00 0.00 0.00 0.01 0.04 0.16 0.24 0.32 0.19 0.22 0.29 0.58 0.68 0.31 0.33 0.63 1.55 2.87 5.41 5.17 4.19 3.17 2.23 2.17 1.53 0.88 0.21 0.01 0.00 0.00 0.00 0.00 0.00 0.00 0.00 0.00 0.00 0.00 0.00 0.00 0.00 0.00 0.00 0.00 0.00 0.14 0.08
0.00 0.00 0.00 0.00 0.00 0.00 0.04 0.30 0.47 0.35 0.16 0.19 0.21 0.24 0.82 0.54 0.31 0.87 1.22 2.01 2.01 3.59 4.34 4.77 3.33 3.44 2.06 0.72 0.12 0.01 0.00 0.00 0.00 0.00 0.00 0.00 0.00 0.00 0.00 0.00 0.00 0.00 0.00 0.00 0.00 0.00 0.01 0.01 0.01
0.00 0.00 0.00 0.00 0.00 0.03 0.10 0.11 0.15 0.07 0.10 0.20 0.09 0.16 0.93 0.76 0.37 0.62 0.78 1.26 1.74 2.03 2.46 2.98 2.79 3.98 2.66 0.87 0.25 0.01 0.00 0.00 0.00 0.00 0.00 0.00 0.00 0.00 0.00 0.00 0.00 0.00 0.00 0.00 0.00 0.00 0.00 0.00 0.01
0.00 0.00 0.00 0.01 0.02 0.18 0.25 0.17 0.26 0.11 0.01 0.01 0.02 0.19 0.25 0.20 0.26 0.43 0.77 1.66 2.41 2.27 1.96 1.57 2.41 2.60 1.83 1.21 0.50 0.07 0.00 0.00 0.00 0.00 0.00 0.00 0.00 0.00 0.00 0.00 0.00 0.00 0.00 0.00 0.00 0.00 0.00 0.00 0.00
0.00 0.00 0.00 0.03 0.08 0.25 0.33 0.04 0.18 0.07 0.03 0.15 0.40 0.43 0.26 0.19 0.22 0.36 0.85 1.43 1.79 1.67 1.99 1.68 1.17 1.19 1.00 0.62 0.53 0.24 0.09 0.01 0.00 0.00 0.00 0.00 0.00 0.00 0.00 0.00 0.00 0.00 0.00 0.00 0.00 0.00 0.00 0.00 0.00
0.00 0.00 0.00 0.00 0.06 0.10 0.29 0.01 0.05 0.03 0.06 0.37 0.40 0.48 0.34 0.32 0.34 0.47 0.57 0.80 0.80 1.18 1.50 1.17 1.12 0.89 0.70 0.47 0.18 0.17 0.14 0.02 0.00 0.00 0.01 0.00 0.00 0.01 0.04 0.04 0.05 0.00 0.00 0.00 0.00 0.00 0.00 0.00 0.00
0.00 0.00 0.00 0.00 0.00 0.00 0.00 0.07 0.15 0.09 0.07 0.11 0.31 0.38 0.30 0.40 0.52 0.49 0.62 0.46 0.41 0.50 0.72 0.83 0.48 0.59 0.65 0.30 0.17 0.07 0.04 0.01 0.02 0.04 0.03 0.05 0.07 0.12 0.13 0.09 0.02 0.00 0.00 0.00 0.00 0.00 0.00 0.00 0.00
0.00 0.00 0.00 0.00 0.01 0.00 0.01 0.09 0.11 0.01 0.01 0.13 0.20 0.14 0.18 0.29 0.59 1.25 0.45 0.47 0.63 0.52 0.53 0.55 0.52 0.46 0.36 0.18 0.10 0.07 0.05 0.09 0.17 0.21 0.21 0.16 0.17 0.14 0.05 0.03 0.01 0.00 0.00 0.00 0.00 0.00 0.00 0.00 0.00
0.00 0.00 0.00 0.00 0.00 0.00 0.00 0.18 0.02 0.10 0.09 0.07 0.14 0.07 0.12 0.19 0.16 0.41 0.52 0.36 0.51 0.49 0.51 0.43 0.47 0.50 0.39 0.21 0.08 0.04 0.05 0.07 0.16 0.26 0.25 0.21 0.10 0.05 0.09 0.09 0.02 0.00 0.00 0.00 0.00 0.00 0.00 0.00 0.00
0.00 0.00 0.00 0.04 0.02 0.00 0.02 0.06 0.02 0.16 0.17 0.08 0.08 0.06 0.04 0.04 0.09 0.14 0.26 0.17 0.14 0.22 0.27 0.30 0.48 0.53 0.42 0.26 0.12 0.11 0.05 0.05 0.06 0.14 0.30 0.20 0.13 0.15 0.15 0.09 0.04 0.00 0.00 0.00 0.00 0.00 0.00 0.00 0.00
0.00 0.00 0.00 0.05 0.01 0.00 0.01 0.13 0.25 0.31 0.12 0.09 0.11 0.05 0.02 0.00 0.01 0.02 0.03 0.05 0.14 0.07 0.13 0.39 0.65 1.00 0.92 0.32 0.19 0.12 0.11 0.10 0.13 0.15 0.17 0.17 0.19 0.17 0.11 0.05 0.02 0.01 0.00 0.00 0.00 0.00 0.00 0.00 0.00
0.00 0.00 0.00 0.00 0.00 0.00 0.00 0.00 0.02 0.10 0.13 0.06 0.03 0.03 0.00 0.00 0.00 0.00 0.00 0.01 0.07 0.11 0.08 0.34 0.73 0.95 1.14 1.07 1.03 0.76 0.38 0.19 0.13 0.11 0.14 0.17 0.18 0.13 0.06 0.02 0.00 0.00 0.00 0.00 0.00 0.00 0.00 0.00 0.00
0.00 0.00 0.00 0.00 0.00 0.00 0.00 0.00 0.00 0.01 0.02 0.02 0.00 0.00 0.00 0.00 0.00 0.00 0.00 0.02 0.03 0.05 0.20 0.55 0.83 1.42 2.42 1.78 0.78 0.24 0.10 0.05 0.09 0.15 0.14 0.16 0.12 0.04 0.00 0.00 0.00 0.00 0.00 0.00 0.00 0.00 0.00 0.00 0.00
0.00 0.00 0.00 0.00 0.00 0.00 0.00 0.00 0.00 0.00 0.00 0.01 0.00 0.00 0.00 0.00 0.00 0.00 0.01 0.03 0.03 0.15 0.47 0.72 0.75 0.84 0.60 0.28 0.10 0.05 0.04 0.05 0.07 0.14 0.10 0.11 0.08 0.03 0.01 0.00 0.00 0.00 0.00 0.00 0.00 0.00 0.00 0.00 0.00
0.00 0.00 0.00 0.00 0.00 0.00 0.00 0.00 0.00 0.00 0.00 0.00 0.01 0.00 0.00 0.00 0.00 0.00 0.05 0.10 0.17 0.31 0.35 0.22 0.08 0.04 0.03 0.03 0.00 0.00 0.01 0.00 0.06 0.12 0.13 0.12 0.08 0.03 0.00 0.00 0.00 0.00 0.00 0.00 0.00 0.00 0.00 0.00 0.00
0.00 0.00 0.00 0.00 0.00 0.00 0.00 0.00 0.00 0.00 0.01 0.01 0.01 0.00 0.00 0.00 0.00 0.04 0.05 0.07 0.06 0.03 0.09 0.04 0.03 0.02 0.01 0.01 0.00 0.00 0.00 0.01 0.06 0.17 0.11 0.07 0.04 0.02 0.00 0.00 0.00 0.00 0.00 0.00 0.00 0.00 0.00 0.00 0.00
0.01 0.00 0.00 0.00 0.00 0.02 0.00 0.00 0.01 0.00 0.00 0.00 0.01 0.01 0.01 0.00 0.01 0.01 0.00 0.01 0.01 0.06 0.02 0.06 0.10 0.04 0.04 0.02 0.02 0.02 0.02 0.03 0.09 0.08 0.03 0.01 0.00 0.00 0.00 0.00 0.00 0.00 0.00 0.00 0.00 0.00 0.00 0.00 0.00
0.01 0.00 0.00 0.00 0.00 0.01 0.02 0.00 0.02 0.00 0.00 0.00 0.00 0.00 0.00 0.00 0.00 0.00 0.00 0.01 0.03 0.04 0.05 0.09 0.08 0.10 0.11 0.07 0.07 0.07 0.07 0.12 0.11 0.05 0.03 0.02 0.02 0.04 0.03 0.02 0.02 0.01 0.01 0.00 0.00 0.00 0.00 0.00 0.00
0.00 0.00 0.00 0.00 0.00 0.00 0.01 0.01 0.01 0.01 0.01 0.03 0.02 0.00 0.00 0.00 0.01 0.00 0.01 0.00 0.01 0.03 0.03 0.06 0.11 0.16 0.19 0.17 0.13 0.14 0.16 0.15 0.10 0.14 0.14 0.05 0.05 0.06 0.06 0.04 0.02 0.01 0.01 0.01 0.01 0.01 0.00 0.01 0.02
0.00 0.00 0.01 0.10 0.04 0.02 0.05 0.05 0.03 0.00 0.00 0.01 0.01 0.00 0.00 0.01 0.01 0.00 0.00 0.01 0.03 0.04 0.07 0.15 0.16 0.18 0.20 0.18 0.19 0.17 0.13 0.10 0.08 0.09 0.07 0.07 0.09 0.07 0.07 0.05 0.05 0.06 0.05 0.04 0.03 0.04 0.05 0.09 0.16
0.01 0.00 0.04 0.07 0.04 0.04 0.03 0.01 0.00 0.00 0.00 0.00 0.00 0.00 0.00 0.00 0.00 0.00 0.00 0.02 0.05 0.05 0.12 0.28 0.30 0.24 0.23 0.22 0.24 0.20 0.13 0.08 0.12 0.05 0.07 0.06 0.05 0.05 0.05 0.09 0.10 0.07 0.07 0.07 0.14 0.27 0.37 0.43 0.49
0.01 0.02 0.00 0.00 0.00 0.00 0.00 0.00 0.00 0.00 0.00 0.00 0.00 0.00 0.00 0.00 0.00 0.00 0.00 0.02 0.03 0.04 0.08 0.20 0.21 0.11 0.15 0.17 0.16 0.16 0.13 0.11 0.13 0.09 0.07 0.10 0.08 0.11 0.11 0.08 0.12 0.17 0.28 0.38 0.44 0.46 0.43 0.37 0.30
0.00 0.00 0.00 0.00 0.00 0.01 0.00 0.00 0.01 0.01 0.00 0.00 0.00 0.00 0.00 0.00 0.00 0.00 0.00 0.01 0.01 0.01 0.03 0.07 0.05 0.04 0.01 0.01 0.07 0.12 0.13 0.14 0.14 0.19 0.26 0.18 0.14 0.15 0.16 0.29 0.49 0.55 0.50 0.39 0.32 0.21 0.18 0.15 0.16
0.00 0.00 0.00 0.00 0.00 0.04 0.08 0.01 0.00 0.00 0.00 0.00 0.00 0.00 0.00 0.00 0.00 0.00 0.00 0.00 0.00 0.00 0.02 0.01 0.02 0.02 0.02 0.05 0.10 0.10 0.10 0.17 0.25 0.29 0.27 0.21 0.26 0.30 0.34 0.42 0.35 0.32 0.33 0.30 0.24 0.26 0.27 0.24 0.16
0.00 0.00 0.01 0.01 0.02 0.01 0.03 0.01 0.00 0.00 0.00 0.00 0.01 0.00 0.00 0.00 0.00 0.00 0.00 0.00 0.00 0.00 0.00 0.00 0.01 0.03 0.05 0.07 0.10 0.18 0.19 0.25 0.29 0.28 0.22 0.24 0.30 0.26 0.27 0.40 0.48 0.47 0.39 0.39 0.41 0.34 0.21 0.12 0.06

GFSSGP_prec_precacc_075.txt.gz
Total_Precipitation_Accumulation
0.00 0.00 0.00 0.00 0.00 0.00 0.00 0.00 0.00 0.05 0.11 0.16 0.13 0.21 0.19 0.22 0.84 1.30 1.00 1.68 1.99 1.15 0.86 0.49 0.24 0.06 0.03 0.03 0.03 0.03 0.04 0.02 0.02 0.02 0.02 0.06 0.05 0.01 0.04 0.17 0.17 0.19 0.11 0.05 0.07 0.14 0.28 0.28 0.21
0.00 0.00 0.00 0.00 0.00 0.00 0.00 0.00 0.02 0.10 0.36 0.55 0.37 0.34 0.25 0.35 0.64 0.97 0.96 1.28 1.51 0.89 1.01 0.80 0.34 0.18 0.06 0.03 0.04 0.04 0.03 0.01 0.00 0.00 0.01 0.01 0.03 0.03 0.01 0.07 0.10 0.07 0.05 0.03 0.05 0.11 0.90 0.70 0.61
0.00 0.00 0.00 0.00 0.00 0.00 0.00 0.01 0.02 0.05 0.21 0.23 0.24 0.27 0.36 0.47 0.46 0.61 0.71 0.63 0.92 0.73 0.45 0.75 0.59 0.35 0.12 0.06 0.06 0.06 0.04 0.00 0.01 0.01 0.02 0.04 0.04 0.04 0.04 0.12 0.05 0.10 0.10 0.05 0.05 0.02 0.65 1.02 0.74
0.00 0.00 0.00 0.00 0.00 0.00 0.00 0.00 0.02 0.08 0.14 0.18 0.20 0.67 0.40 0.49 0.59 0.72 0.72 0.87 1.43 0.88 0.86 0.89 0.68 0.54 0.19 0.08 0.06 0.04 0.01 0.00 0.00 0.00 0.01 0.01 0.01 0.03 0.05 0.03 0.01 0.00 0.01 0.01 0.02 0.04 0.15 0.26 0.53
0.00 0.00 0.00 0.00 0.00 0.01 0.01 0.05 0.18 0.22 0.21 0.51 0.22 0.70 0.86 0.43 0.35 0.62 1.22 2.12 3.10 2.23 2.00 2.02 1.75 1.30 0.69 0.39 0.13 0.01 0.00 0.00 0.00 0.00 0.00 0.00 0.00 0.00 0.00 0.00 0.00 0.00 0.00 0.01 0.01 0.01 0.09 0.32 0.14
0.00 0.00 0.00 0.00 0.00 0.01 0.04 0.16 0.24 0.32 0.21 0.26 0.33 0.61 0.69 0.32 0.40 0.79 1.77 3.10 5.74 5.54 4.53 4.52 3.65 2.90 1.94 0.98 0.21 0.01 0.00 0.00 0.00 0.00 0.00 0.00 0.00 0.00 0.00 0.00 0.00 0.00 0.00 0.00 0.00 0.00 0.00 0.14 0.08
0.00 0.00 0.00 0.00 0.00 0.00 0.04 0.30 0.47 0.35 0.16 0.20 0.22 0.27 0.92 0.71 0.64 1.35 1.43 2.25 2.27 3.95 4.68 5.71 5.04 5.22 3.43 0.88 0.23 0.10 0.01 0.00 0.00 0.00 0.00 0.00 0.00 0.00 0.00 0.00 0.00 0.00 0.00 0.00 0.00 0.00 0.01 0.01 0.01
0.00 0.00 0.00 0.00 0.00 0.03 0.10 0.11 0.15 0.08 0.10 0.21 0.16 0.67 1.14 1.02 0.63 0.83 0.96 1.60 1.85 2.14 2.56 3.02 3.10 5.62 6.73 2.17 0.48 0.05 0.00 0.00 0.00 0.00 0.00 0.00 0.00 0.00 0.00 0.00 0.00 0.00 0.00 0.00 0.00 0.00 0.00 0.00 0.01
0.00 0.00 0.00 0.01 0.02 0.18 0.25 0.17 0.26 0.11 0.01 0.03 0.20 1.06 0.42 0.22 0.29 0.47 0.84 1.80 2.54 2.42 2.02 1.58 2.42 2.78 3.10 3.24 1.17 0.12 0.00 0.00 0.00 0.00 0.00 0.00 0.00 0.00 0.00 0.00 0.00 0.00 0.00 0.00 0.00 0.00 0.00 0.00 0.00
0.00 0.00 0.00 0.03 0.08 0.25 0.33 0.04 0.18 0.07 0.03 0.18 0.62 1.02 0.33 0.21 0.24 0.37 0.86 1.46 1.80 1.72 2.04 1.71 1.17 1.20 1.04 1.10 1.02 0.35 0.09 0.01 0.00 0.00 0.00 0.00 0.00 0.00 0.00 0.00 0.00 0.00 0.00 0.00 0.00 0.00 0.00 0.00 0.00
0.00 0.00 0.00 0.00 0.06 0.10 0.29 0.01 0.05 0.03 0.06 0.42 0.46 0.60 0.36 0.33 0.34 0.47 0.58 0.80 0.81 1.20 1.53 1.19 1.13 0.89 0.71 0.55 0.26 0.22 0.15 0.02 0.00 0.00 0.01 0.00 0.00 0.01 0.04 0.04 0.05 0.00 0.00 0.00 0.00 0.00 0.00 0.00 0.00
0.00 0.00 0.00 0.00 0.00 0.00 0.00 0.07 0.15 0.09 0.10 0.21 0.45 0.45 0.31 0.41 0.52 0.49 0.63 0.47 0.42 0.55 0.73 0.84 0.49 0.61 0.85 0.43 0.22 0.09 0.05 0.02 0.03 0.04 0.03 0.05 0.07 0.12 0.13 0.09 0.02 0.00 0.00 0.00 0.00 0.00 0.00 0.00 0.00
0.00 0.00 0.00 0.00 0.01 0.00 0.01 0.09 0.11 0.01 0.05 0.21 0.31 0.16 0.18 0.29 0.59 1.26 0.46 0.50 0.66 0.55 0.56 0.61 0.62 0.59 0.49 0.25 0.11 0.08 0.06 0.09 0.17 0.21 0.21 0.16 0.17 0.14 0.05 0.03 0.01 0.00 0.00 0.00 0.00 0.00 0.00 0.00 0.00
0.00 0.00 0.00 0.00 0.00 0.00 0.00 0.18 0.02 0.11 0.13 0.29 0.53 0.13 0.12 0.19 0.16 0.41 0.53 0.39 0.53 0.51 0.55 0.46 0.49 0.60 0.51 0.30 0.16 0.05 0.05 0.07 0.16 0.26 0.25 0.21 0.11 0.05 0.09 0.09 0.02 0.00 0.00 0.00 0.00 0.00 0.00 0.00 0.00
0.00 0.00 0.00 0.04 0.02 0.00 0.02 0.06 0.02 0.16 0.27 0.39 0.33 0.14 0.04 0.04 0.10 0.14 0.27 0.18 0.15 0.28 0.27 0.34 0.52 0.59 0.58 0.37 0.18 0.15 0.07 0.06 0.06 0.14 0.30 0.20 0.13 0.16 0.15 0.09 0.04 0.00 0.00 0.00 0.00 0.00 0.00 0.00 0.00
0.00 0.00 0.00 0.05 0.01 0.00 0.01 0.13 0.25 0.31 0.13 0.32 0.42 0.10 0.03 0.00 0.02 0.03 0.03 0.05 0.15 0.07 0.13 0.45 0.69 1.02 0.96 0.33 0.20 0.13 0.11 0.10 0.13 0.15 0.17 0.18 0.19 0.17 0.11 0.05 0.02 0.01 0.00 0.00 0.00 0.00 0.00 0.00 0.00
0.00 0.00 0.00 0.00 0.00 0.00 0.00 0.00 0.03 0.15 0.27 0.38 0.28 0.04 0.00 0.00 0.00 0.01 0.00 0.01 0.07 0.12 0.09 0.35 0.73 0.95 1.14 1.07 1.03 0.76 0.38 0.19 0.13 0.11 0.14 0.17 0.18 0.13 0.06 0.03 0.00 0.00 0.00 0.00 0.00 0.00 0.00 0.00 0.00
0.00 0.00 0.00 0.00 0.00 0.00 0.00 0.00 0.00 0.02 0.06 0.06 0.05 0.02 0.01 0.00 0.00 0.00 0.00 0.02 0.03 0.05 0.20 0.55 0.83 1.42 2.42 1.78 0.78 0.24 0.10 0.05 0.09 0.15 0.14 0.16 0.12 0.07 0.03 0.01 0.00 0.00 0.00 0.00 0.00 0.00 0.00 0.00 0.00
0.00 0.00 0.00 0.00 0.00 0.00 0.00 0.00 0.00 0.00 0.01 0.03 0.04 0.02 0.00 0.00 0.00 0.00 0.01 0.03 0.03 0.15 0.47 0.72 0.75 0.84 0.60 0.28 0.10 0.05 0.04 0.05 0.07 0.14 0.11 0.12 0.09 0.05 0.05 0.01 0.00 0.00 0.00 0.00 0.00 0.00 0.00 0.00 0.00
0.00 0.00 0.00 0.00 0.00 0.00 0.00 0.00 0.00 0.00 0.00 0.00 0.01 0.01 0.00 0.00 0.00 0.00 0.05 0.10 0.17 0.31 0.35 0.22 0.08 0.04 0.03 0.03 0.00 0.00 0.01 0.00 0.06 0.12 0.13 0.12 0.08 0.04 0.05 0.01 0.00 0.00 0.00 0.00 0.00 0.00 0.00 0.00 0.00
0.00 0.00 0.00 0.00 0.00 0.00 0.00 0.00 0.00 0.00 0.01 0.01 0.01 0.00 0.00 0.00 0.00 0.04 0.05 0.07 0.06 0.03 0.09 0.04 0.03 0.02 0.01 0.01 0.00 0.00 0.00 0.01 0.06 0.17 0.12 0.08 0.06 0.06 0.04 0.05 0.01 0.01 0.00 0.00 0.00 0.00 0.00 0.00 0.00
0.01 0.00 0.00 0.00 0.00 0.02 0.00 0.00 0.01 0.00 0.00 0.00 0.01 0.01 0.01 0.00 0.01 0.01 0.00 0.01 0.01 0.06 0.02 0.06 0.10 0.04 0.04 0.02 0.02 0.02 0.02 0.03 0.09 0.08 0.03 0.02 0.01 0.00 0.00 0.02 0.01 0.00 0.01 0.00 0.00 0.00 0.00 0.00 0.00
0.01 0.00 0.00 0.00 0.00 0.01 0.02 0.00 0.02 0.00 0.00 0.00 0.00 0.00 0.00 0.00 0.00 0.00 0.00 0.01 0.03 0.04 0.05 0.09 0.08 0.10 0.11 0.07 0.07 0.07 0.07 0.12 0.11 0.05 0.03 0.02 0.02 0.04 0.04 0.04 0.03 0.02 0.01 0.01 0.00 0.00 0.00 0.00 0.01
0.00 0.00 0.00 0.00 0.00 0.00 0.01 0.02 0.01 0.01 0.01 0.03 0.02 0.00 0.00 0.00 0.01 0.00 0.01 0.00 0.01 0.03 0.03 0.06 0.11 0.16 0.19 0.17 0.14 0.17 0.22 0.15 0.10 0.14 0.14 0.05 0.08 0.08 0.08 0.07 0.06 0.04 0.03 0.06 0.09 0.06 0.03 0.03 0.04
0.00 0.00 0.01 0.10 0.04 0.02 0.05 0.05 0.03 0.00 0.00 0.01 0.01 0.00 0.00 0.01 0.01 0.00 0.00 0.01 0.03 0.04 0.07 0.15 0.16 0.18 0.20 0.18 0.27 0.20 0.18 0.13 0.08 0.09 0.07 0.07 0.16 0.18 0.10 0.07 0.07 0.07 0.06 0.05 0.04 0.06 0.10 0.15 0.28
0.01 0.00 0.04 0.08 0.04 0.05 0.05 0.01 0.00 0.00 0.00 0.00 0.00 0.00 0.00 0.00 0.00 0.00 0.00 0.03 0.05 0.05 0.12 0.28 0.30 0.24 0.23 0.22 0.26 0.26 0.13 0.09 0.13 0.06 0.11 0.09 0.09 0.13 0.18 0.14 0.10 0.07 0.07 0.08 0.16 0.33 0.49 0.61 0.70
0.01 0.02 0.00 0.00 0.01 0.01 0.00 0.00 0.00 0.00 0.00 0.00 0.00 0.00 0.00 0.00 0.00 0.00 0.01 0.03 0.03 0.05 0.09 0.20 0.21 0.11 0.15 0.17 0.16 0.18 0.17 0.11 0.13 0.09 0.10 0.24 0.23 0.18 0.18 0.12 0.13 0.18 0.28 0.38 0.49 0.61 0.66 0.60 0.51
0.00 0.00 0.00 0.00 0.00 0.02 0.00 0.00 0.01 0.01 0.00 0.00 0.00 0.00 0.00 0.00 0.00 0.00 0.00 0.02 0.03 0.02 0.03 0.08 0.06 0.04 0.01 0.01 0.07 0.12 0.15 0.17 0.15 0.19 0.35 0.49 0.26 0.16 0.19 0.31 0.51 0.56 0.50 0.40 0.36 0.30 0.24 0.19 0.22
0.00 0.00 0.00 0.00 0.00 0.04 0.08 0.01 0.00 0.00 0.00 0.00 0.00 0.00 0.00 0.00 0.00 0.00 0.00 0.00 0.01 0.03 0.05 0.02 0.05 0.04 0.02 0.05 0.11 0.10 0.10 0.18 0.30 0.33 0.56 0.40 0.37 0.39 0.40 0.47 0.38 0.33 0.34 0.30 0.25 0.27 0.32 0.31 0.24
0.00 0.00 0.01 0.01 0.02 0.01 0.03 0.01 0.00 0.00 0.00 0.00 0.01 0.00 0.00 0.00 0.00 0.00 0.00 0.01 0.03 0.06 0.07 0.01 0.05 0.23 0.13 0.17 0.21 0.21 0.32 0.50 0.67 0.61 0.53 0.45 0.41 0.36 0.36 0.46 0.50 0.47 0.39 0.39 0.41 0.35 0.21 0.12 0.06

GFSSGP_prec_precacc_081.txt.gz
Total_Precipitation_Accumulation
0.00 0.00 0.00 0.00 0.00 0.00 0.00 0.00 0.00 0.05 0.11 0.16 0.13 0.21 0.19 0.22 0.84 1.30 1.00 1.68 1.99 1.18 0.99 0.78 0.67 0.18 0.04 0.03 0.03 0.03 0.04 0.02 0.02 0.02 0.02 0.06 0.05 0.01 0.04 0.17 0.17 0.19 0.11 0.05 0.07 0.14 0.28 0.29 0.21
0.00 0.00 0.00 0.00 0.00 0.00 0.00 0.00 0.02 0.10 0.36 0.55 0.37 0.34 0.25 0.35 0.64 0.97 0.96 1.28 1.51 0.93 1.20 0.90 1.03 1.01 0.32 0.09 0.05 0.04 0.03 0.01 0.00 0.00 0.01 0.01 0.03 0.03 0.01 0.07 0.10 0.07 0.05 0.03 0.05 0.11 0.90 0.70 0.61
0.00 0.00 0.00 0.00 0.00 0.00 0.00 0.01 0.02 0.05 0.21 0.23 0.24 0.27 0.36 0.47 0.46 0.61 0.72 0.64 0.96 0.80 0.47 0.84 0.99 0.79 0.60 0.24 0.10 0.06 0.04 0.00 0.01 0.01 0.02 0.04 0.04 0.04 0.04 0.12 0.05 0.10 0.10 0.05 0.05 0.02 0.65 1.02 0.74
0.00 0.00 0.00 0.00 0.00 0.00 0.00 0.00 0.02 0.08 0.14 0.18 0.20 0.67 0.40 0.49 0.59 0.72 0.74 0.90 1.54 0.96 0.89 1.02 0.91 0.89 0.39 0.16 0.09 0.05 0.01 0.00 0.00 0.00 0.01 0.01 0.01 0.03 0.05 0.03 0.01 0.00 0.01 0.01 0.02 0.04 0.15 0.26 0.53
0.00 0.00 0.00 0.00 0.00 0.01 0.01 0.05 0.18 0.22 0.21 0.51 0.22 0.70 0.86 0.43 0.35 0.62 1.26 2.25 3.32 2.44 2.20 2.28 2.52 1.78 1.03 0.61 0.23 0.05 0.00 0.00 0.00 0.00 0.00 0.00 0.00 0.00 0.00 0.00 0.00 0.00 0.00 0.01 0.01 0.01 0.09 0.32 0.14
0.00 0.00 0.00 0.00 0.00 0.01 0.04 0.16 0.24 0.32 0.21 0.26 0.33 0.61 0.69 0.32 0.40 0.80 1.81 3.36 6.17 6.11 5.03 5.11 5.91 4.24 2.78 1.61 0.52 0.19 0.04 0.00 0.00 0.00 0.01 0.00 0.00 0.00 0.00 0.00 0.00 0.00 0.00 0.00 0.00 0.00 0.00 0.14 0.08
0.00 0.00 0.00 0.00 0.00 0.00 0.04 0.30 0.47 0.35 0.16 0.20 0.22 0.29 0.93 0.71 0.64 1.36 1.46 2.43 2.50 4.40 5.74 6.82 7.34 7.40 6.21 2.72 1.05 0.46 0.23 0.03 0.00 0.01 0.01 0.00 0.00 0.00 0.00 0.00 0.00 0.00 0.00 0.00 0.00 0.00 0.01 0.01 0.01
0.00 0.00 0.00 0.00 0.00 0.03 0.10 0.11 0.15 0.08 0.10 0.21 0.16 0.80 1.24 1.02 0.63 0.85 1.08 1.79 2.02 2.41 3.16 3.52 3.67 6.85 10.31 6.54 2.64 0.89 0.36 0.07 0.00 0.01 0.01 0.00 0.00 0.00 0.00 0.00 0.00 0.00 0.00 0.00 0.00 0.00 0.00 0.00 0.01
0.00 0.00 0.00 0.01 0.02 0.18 0.25 0.17 0.26 0.11 0.01 0.04 0.21 1.07 0.42 0.22 0.30 0.48 0.92 1.88 2.76 2.69 2.30 1.76 2.51 3.26 5.67 8.68 4.53 1.77 0.72 0.11 0.01 0.01 0.01 0.00 0.00 0.00 0.00 0.00 0.00 0.00 0.00 0.00 0.00 0.00 0.00 0.00 0.00
0.00 0.00 0.00 0.03 0.08 0.25 0.33 0.04 0.18 0.07 0.03 0.19 0.63 1.02 0.34 0.21 0.24 0.37 0.87 1.49 1.84 1.91 2.24 1.81 1.22 1.26 1.76 3.96 3.46 2.20 0.92 0.20 0.03 0.01 0.01 0.00 0.00 0.00 0.00 0.00 0.00 0.00 0.00 0.00 0.00 0.00 0.00 0.00 0.00
0.00 0.00 0.00 0.00 0.06 0.10 0.29 0.01 0.05 0.03 0.06 0.42 0.46 0.60 0.36 0.33 0.35 0.47 0.58 0.81 0.86 1.30 1.62 1.25 1.15 0.90 0.84 1.48 1.30 1.15 0.54 0.12 0.03 0.00 0.01 0.00 0.00 0.01 0.04 0.04 0.05 0.00 0.00 0.00 0.00 0.00 0.00 0.00 0.00
0.00 0.00 0.00 0.00 0.00 0.00 0.00 0.07 0.15 0.09 0.10 0.21 0.45 0.47 0.33 0.41 0.52 0.49 0.63 0.47 0.47 0.65 0.79 0.86 0.50 0.62 0.86 0.52 0.50 0.45 0.18 0.07 0.07 0.09 0.06 0.06 0.07 0.12 0.13 0.09 0.02 0.00 0.00 0.00 0.00 0.00 0.00 0.00 0.00
0.00 0.00 0.00 0.00 0.01 0.00 0.01 0.09 0.11 0.01 0.05 0.22 0.39 0.26 0.24 0.29 0.59 1.26 0.47 0.53 0.73 0.65 0.69 0.63 0.62 0.60 0.49 0.26 0.14 0.17 0.13 0.11 0.21 0.27 0.26 0.20 0.17 0.14 0.05 0.03 0.01 0.00 0.00 0.00 0.00 0.00 0.00 0.00 0.00
0.00 0.00 0.00 0.00 0.00 0.00 0.00 0.18 0.02 0.11 0.13 0.30 0.94 0.29 0.16 0.19 0.16 0.42 0.53 0.43 0.69 0.61 0.79 0.50 0.51 0.63 0.52 0.30 0.16 0.07 0.06 0.07 0.16 0.28 0.27 0.22 0.11 0.05 0.09 0.09 0.02 0.00 0.00 0.00 0.00 0.00 0.00 0.00 0.00
0.00 0.00 0.00 0.04 0.02 0.00 0.02 0.06 0.02 0.16 0.27 0.40 0.34 0.16 0.04 0.04 0.11 0.15 0.28 0.18 0.27 0.40 0.40 0.37 0.57 0.61 0.63 0.38 0.18 0.15 0.07 0.06 0.06 0.14 0.30 0.20 0.13 0.16 0.15 0.09 0.04 0.00 0.00 0.00 0.00 0.00 0.00 0.00 0.00
0.00 0.00 0.00 0.05 0.01 0.00 0.01 0.13 0.25 0.31 0.13 0.33 0.47 0.10 0.03 0.00 0.02 0.03 0.04 0.05 0.15 0.15 0.20 0.53 0.77 1.09 1.04 0.35 0.20 0.13 0.11 0.10 0.13 0.15 0.17 0.18 0.19 0.17 0.11 0.05 0.02 0.01 0.00 0.00 0.00 0.00 0.00 0.00 0.00
0.00 0.00 0.00 0.00 0.00 0.00 0.00 0.00 0.03 0.15 0.27 0.39 0.29 0.04 0.00 0.00 0.00 0.02 0.01 0.01 0.07 0.15 0.13 0.40 0.86 1.04 1.18 1.09 1.04 0.77 0.38 0.19 0.13 0.11 0.14 0.17 0.18 0.13 0.06 0.03 0.00 0.00 0.00 0.00 0.00 0.00 0.00 0.00 0.00
0.00 0.00 0.00 0.00 0.00 0.00 0.00 0.00 0.00 0.02 0.06 0.06 0.05 0.02 0.01 0.00 0.00 0.00 0.01 0.03 0.04 0.05 0.21 0.56 0.91 1.49 2.50 1.83 0.81 0.25 0.10 0.05 0.09 0.15 0.14 0.16 0.13 0.07 0.03 0.01 0.00 0.00 0.00 0.00 0.00 0.00 0.00 0.00 0.00
0.00 0.00 0.00 0.00 0.00 0.00 0.00 0.00 0.00 0.00 0.01 0.03 0.04 0.03 0.01 0.00 0.00 0.00 0.01 0.03 0.03 0.15 0.47 0.72 0.76 0.86 0.62 0.31 0.14 0.06 0.05 0.05 0.07 0.14 0.11 0.12 0.09 0.05 0.05 0.01 0.00 0.00 0.00 0.00 0.00 0.00 0.00 0.00 0.00
0.00 0.00 0.00 0.00 0.00 0.00 0.00 0.00 0.00 0.00 0.00 0.00 0.01 0.01 0.00 0.00 0.00 0.00 0.05 0.10 0.17 0.32 0.35 0.22 0.08 0.04 0.04 0.04 0.01 0.00 0.01 0.00 0.06 0.12 0.13 0.12 0.08 0.04 0.05 0.01 0.00 0.00 0.00 0.00 0.00 0.00 0.00 0.00 0.00
0.00 0.00 0.00 0.00 0.00 0.00 0.00 0.00 0.00 0.00 0.01 0.01 0.01 0.00 0.00 0.00 0.00 0.04 0.05 0.07 0.06 0.04 0.09 0.04 0.03 0.02 0.01 0.01 0.00 0.00 0.00 0.01 0.06 0.17 0.12 0.08 0.06 0.06 0.04 0.05 0.01 0.01 0.01 0.00 0.00 0.00 0.00 0.00 0.00
0.01 0.00 0.00 0.00 0.00 0.02 0.00 0.00 0.01 0.00 0.00 0.00 0.01 0.01 0.01 0.00 0.01 0.01 0.00 0.01 0.01 0.06 0.02 0.06 0.10 0.04 0.04 0.02 0.02 0.02 0.02 0.03 0.09 0.08 0.03 0.02 0.01 0.00 0.00 0.02 0.01 0.00 0.01 0.00 0.01 0.02 0.02 0.02 0.00
0.01 0.00 0.00 0.00 0.00 0.01 0.02 0.00 0.02 0.00 0.00 0.00 0.00 0.00 0.00 0.00 0.00 0.00 0.00 0.01 0.03 0.04 0.05 0.09 0.08 0.10 0.11 0.07 0.07 0.07 0.07 0.12 0.11 0.05 0.03 0.02 0.02 0.04 0.04 0.04 0.03 0.02 0.03 0.04 0.06 0.04 0.07 0.07 0.06
0.00 0.00 0.00 0.00 0.00 0.00 0.01 0.02 0.01 0.01 0.01 0.03 0.02 0.00 0.00 0.00 0.01 0.00 0.01 0.00 0.01 0.03 0.03 0.06 0.11 0.16 0.19 0.17 0.14 0.17 0.22 0.15 0.10 0.14 0.14 0.05 0.08 0.08 0.08 0.07 0.06 0.04 0.04 0.11 0.15 0.17 0.13 0.08 0.06
0.00 0.00 0.01 0.10 0.04 0.02 0.05 0.05 0.03 0.00 0.00 0.01 0.01 0.00 0.00 0.01 0.01 0.00 0.00 0.01 0.03 0.04 0.07 0.15 0.16 0.18 0.20 0.18 0.27 0.20 0.18 0.13 0.08 0.09 0.07 0.07 0.16 0.18 0.10 0.09 0.09 0.07 0.09 0.11 0.13 0.12 0.13 0.17 0.31
0.01 0.00 0.04 0.08 0.04 0.05 0.05 0.01 0.00 0.00 0.00 0.00 0.00 0.00 0.00 0.00 0.00 0.00 0.01 0.03 0.06 0.05 0.12 0.28 0.30 0.24 0.23 0.22 0.26 0.26 0.13 0.10 0.13 0.06 0.11 0.09 0.09 0.13 0.29 0.17 0.15 0.18 0.16 0.22 0.27 0.38 0.51 0.65 0.84
0.01 0.02 0.00 0.00 0.01 0.01 0.00 0.00 0.00 0.00 0.00 0.00 0.00 0.00 0.00 0.00 0.00 0.00 0.01 0.04 0.05 0.06 0.10 0.20 0.21 0.11 0.15 0.17 0.16 0.18 0.18 0.12 0.15 0.14 0.10 0.25 0.25 0.20 0.23 0.25 0.28 0.38 0.45 0.55 0.62 0.72 0.75 0.69 0.59
0.00 0.00 0.00 0.00 0.00 0.02 0.00 0.00 0.01 0.01 0.00 0.00 0.00 0.00 0.00 0.00 0.00 0.00 0.00 0.02 0.04 0.05 0.10 0.16 0.09 0.06 0.02 0.01 0.07 0.12 0.17 0.21 0.20 0.28 0.40 0.54 0.40 0.33 0.38 0.59 0.82 0.86 0.83 0.71 0.57 0.46 0.35 0.22 0.23
0.00 0.00 0.00 0.00 0.00 0.04 0.08 0.01 0.00 0.00 0.00 0.00 0.00 0.00 0.00 0.00 0.00 0.00 0.00 0.00 0.02 0.06 0.10 0.13 0.18 0.14 0.14 0.15 0.16 0.12 0.12 0.25 0.46 0.51 0.84 0.70 0.66 0.84 1.13 1.33 1.20 1.02 0.84 0.71 0.63 0.45 0.35 0.31 0.24
0.00 0.00 0.01 0.01 0.02 0.01 0.03 0.01 0.00 0.00 0.00 0.00 0.01 0.00 0.00 0.00 0.00 0.00 0.00 0.01 0.03 0.06 0.08 0.06 0.23 0.43 0.25 0.24 0.30 0.29 0.42 0.67 0.98 0.95 1.10 1.36 1.61 1.48 1.44 1.25 1.00 0.82 0.59 0.51 0.50 0.38 0.22 0.12 0.07

GFSSGP_prec_precacc_084.txt.gz
Total_Precipitation_Accumulation
0.00 0.00 0.00 0.00 0.00 0.00 0.00 0.00 0.00 0.05 0.11 0.16 0.13 0.21 0.19 0.22 0.84 1.30 1.00 1.68 1.99 1.19 0.99 0.78 0.67 0.18 0.04 0.03 0.03 0.03 0.04 0.02 0.02 0.02 0.02 0.06 0.05 0.01 0.04 0.17 0.17 0.19 0.11 0.05 0.07 0.14 0.28 0.29 0.21
0.00 0.00 0.00 0.00 0.00 0.00 0.00 0.00 0.02 0.10 0.36 0.55 0.37 0.34 0.25 0.35 0.64 0.97 0.96 1.28 1.51 0.95 1.21 0.90 1.03 1.01 0.32 0.09 0.05 0.04 0.03 0.01 0.00 0.00 0.01 0.01 0.03 0.03 0.01 0.07 0.10 0.07 0.05 0.03 0.06 0.11 0.90 0.70 0.61
0.00 0.00 0.00 0.00 0.00 0.00 0.00 0.01 0.02 0.05 0.21 0.23 0.24 0.27 0.36 0.47 0.46 0.61 0.72 0.64 0.97 0.92 0.54 0.85 1.00 0.79 0.60 0.24 0.10 0.07 0.04 0.00 0.01 0.01 0.02 0.04 0.04 0.04 0.04 0.12 0.05 0.10 0.10 0.06 0.05 0.02 0.65 1.02 0.74
0.00 0.00 0.00 0.00 0.00 0.00 0.00 0.00 0.02 0.08 0.14 0.18 0.20 0.67 0.40 0.49 0.59 0.72 0.74 0.90 1.57 1.17 1.30 1.43 1.00 0.91 0.40 0.16 0.09 0.05 0.01 0.00 0.00 0.00 0.01 0.01 0.01 0.03 0.05 0.03 0.01 0.01 0.01 0.01 0.02 0.04 0.15 0.26 0.53
0.00 0.00 0.00 0.00 0.00 0.01 0.01 0.05 0.18 0.22 0.21 0.51 0.22 0.70 0.86 0.43 0.35 0.62 1.26 2.27 3.38 2.60 2.42 2.82 2.92 1.84 1.06 0.63 0.24 0.05 0.00 0.00 0.00 0.00 0.00 0.00 0.00 0.00 0.00 0.00 0.00 0.00 0.00 0.01 0.01 0.01 0.09 0.32 0.14
0.00 0.00 0.00 0.00 0.00 0.01 0.04 0.16 0.24 0.32 0.21 0.26 0.33 0.61 0.69 0.32 0.40 0.80 1.81 3.39 6.23 6.22 5.23 5.34 6.20 4.43 2.81 1.74 0.59 0.23 0.09 0.01 0.00 0.00 0.01 0.00 0.00 0.00 0.00 0.00 0.00 0.00 0.00 0.00 0.00 0.00 0.00 0.14 0.08
0.00 0.00 0.00 0.00 0.00 0.00 0.04 0.30 0.47 0.35 0.16 0.20 0.22 0.29 0.93 0.71 0.64 1.36 1.46 2.44 2.54 4.44 5.82 6.86 7.46 7.84 6.71 3.04 1.44 0.64 0.31 0.14 0.02 0.01 0.01 0.00 0.00 0.00 0.00 0.00 0.00 0.00 0.00 0.00 0.00 0.00 0.01 0.01 0.01
0.00 0.00 0.00 0.00 0.00 0.03 0.10 0.11 0.15 0.08 0.10 0.21 0.16 0.80 1.24 1.02 0.64 0.85 1.08 1.79 2.03 2.46 3.21 3.57 3.70 7.00 11.30 7.22 3.34 1.37 0.55 0.30 0.08 0.02 0.01 0.00 0.00 0.00 0.00 0.00 0.00 0.00 0.00 0.00 0.00 0.00 0.00 0.00 0.01
0.00 0.00 0.00 0.01 0.02 0.18 0.25 0.17 0.26 0.11 0.01 0.04 0.21 1.07 0.42 0.22 0.31 0.49 0.93 1.88 2.76 2.71 2.36 1.87 2.56 3.29 5.77 8.97 5.06 2.74 1.05 0.45 0.24 0.03 0.01 0.00 0.00 0.00 0.00 0.00 0.00 0.00 0.00 0.00 0.00 0.00 0.00 0.00 0.00
0.00 0.00 0.00 0.03 0.08 0.25 0.33 0.04 0.18 0.07 0.03 0.19 0.63 1.02 0.34 0.21 0.24 0.38 0.89 1.51 1.84 1.92 2.25 1.83 1.27 1.29 1.85 4.19 3.58 3.12 1.48 0.53 0.39 0.06 0.01 0.00 0.00 0.00 0.00 0.00 0.00 0.00 0.00 0.00 0.00 0.00 0.00 0.00 0.00
0.00 0.00 0.00 0.00 0.06 0.10 0.29 0.01 0.05 0.03 0.06 0.42 0.46 0.60 0.36 0.34 0.35 0.47 0.59 0.82 0.87 1.32 1.63 1.25 1.15 0.90 1.03 2.05 1.44 1.56 1.11 0.43 0.35 0.08 0.01 0.00 0.00 0.01 0.04 0.04 0.05 0.00 0.00 0.00 0.00 0.00 0.00 0.00 0.00
0.00 0.00 0.00 0.00 0.00 0.00 0.00 0.07 0.15 0.09 0.10 0.21 0.45 0.47 0.33 0.41 0.53 0.49 0.64 0.48 0.50 0.68 0.83 0.87 0.50 0.62 0.90 0.85 0.89 0.85 0.53 0.34 0.34 0.20 0.06 0.06 0.07 0.12 0.13 0.09 0.02 0.00 0.00 0.00 0.00 0.00 0.00 0.00 0.00
0.00 0.00 0.00 0.00 0.01 0.00 0.01 0.09 0.11 0.01 0.05 0.22 0.39 0.26 0.25 0.29 0.59 1.26 0.48 0.53 0.77 0.69 0.73 0.65 0.63 0.60 0.49 0.28 0.37 0.62 0.44 0.29 0.37 0.40 0.31 0.20 0.17 0.14 0.05 0.03 0.01 0.00 0.00 0.00 0.00 0.00 0.00 0.00 0.00
0.00 0.00 0.00 0.00 0.00 0.00 0.00 0.18 0.02 0.11 0.13 0.30 0.94 0.29 0.16 0.19 0.16 0.42 0.54 0.43 0.72 0.70 0.85 0.52 0.51 0.63 0.52 0.31 0.21 0.28 0.26 0.19 0.25 0.32 0.31 0.23 0.11 0.05 0.09 0.09 0.02 0.00 0.00 0.00 0.00 0.00 0.00 0.00 0.00
0.00 0.00 0.00 0.04 0.02 0.00 0.02 0.06 0.02 0.16 0.27 0.40 0.34 0.16 0.04 0.04 0.11 0.15 0.28 0.18 0.27 0.49 0.49 0.40 0.57 0.61 0.63 0.38 0.19 0.19 0.11 0.08 0.08 0.16 0.33 0.20 0.13 0.16 0.15 0.09 0.04 0.00 0.00 0.00 0.00 0.00 0.00 0.00 0.00
0.00 0.00 0.00 0.05 0.01 0.00 0.01 0.13 0.25 0.31 0.13 0.33 0.47 0.10 0.03 0.00 0.02 0.03 0.04 0.05 0.16 0.17 0.32 0.58 0.83 1.11 1.08 0.36 0.20 0.14 0.12 0.11 0.14 0.16 0.18 0.18 0.19 0.17 0.11 0.05 0.02 0.01 0.00 0.00 0.00 0.00 0.00 0.00 0.00
0.00 0.00 0.00 0.00 0.00 0.00 0.00 0.00 0.03 0.15 0.27 0.39 0.29 0.04 0.00 0.00 0.01 0.02 0.01 0.02 0.07 0.17 0.24 0.47 0.90 1.08 1.29 1.12 1.06 0.78 0.40 0.19 0.14 0.12 0.14 0.17 0.18 0.13 0.06 0.03 0.00 0.00 0.00 0.00 0.00 0.00 0.00 0.00 0.00
0.00 0.00 0.00 0.00 0.00 0.00 0.00 0.00 0.00 0.02 0.06 0.06 0.05 0.02 0.01 0.00 0.00 0.00 0.01 0.03 0.04 0.06 0.24 0.59 1.05 1.55 2.62 1.84 0.83 0.27 0.12 0.06 0.09 0.15 0.15 0.17 0.13 0.07 0.03 0.01 0.00 0.00 0.00 0.00 0.00 0.00 0.00 0.00 0.00
0.00 0.00 0.00 0.00 0.00 0.00 0.00 0.00 0.00 0.00 0.01 0.03 0.04 0.03 0.01 0.00 0.00 0.00 0.01 0.03 0.03 0.15 0.48 0.73 0.80 0.90 0.79 0.34 0.21 0.09 0.06 0.06 0.08 0.15 0.11 0.13 0.09 0.05 0.05 0.01 0.00 0.00 0.00 0.00 0.00 0.00 0.00 0.00 0.00
0.00 0.00 0.00 0.00 0.00 0.00 0.00 0.00 0.00 0.00 0.00 0.00 0.01 0.01 0.00 0.00 0.00 0.01 0.05 0.10 0.18 0.32 0.36 0.22 0.08 0.04 0.07 0.07 0.08 0.05 0.01 0.01 0.06 0.13 0.15 0.13 0.08 0.04 0.05 0.01 0.01 0.00 0.00 0.00 0.00 0.00 0.00 0.00 0.00
0.00 0.00 0.00 0.00 0.00 0.00 0.00 0.00 0.00 0.00 0.01 0.01 0.01 0.00 0.00 0.00 0.00 0.04 0.05 0.07 0.06 0.04 0.09 0.04 0.03 0.02 0.01 0.02 0.01 0.02 0.00 0.01 0.07 0.18 0.13 0.10 0.07 0.07 0.06 0.05 0.01 0.02 0.01 0.00 0.00 0.00 0.00 0.00 0.00
0.01 0.00 0.00 0.00 0.00 0.02 0.00 0.00 0.01 0.00 0.00 0.00 0.01 0.01 0.01 0.00 0.01 0.01 0.00 0.01 0.01 0.06 0.02 0.06 0.10 0.04 0.04 0.02 0.02 0.02 0.02 0.03 0.09 0.08 0.04 0.02 0.01 0.01 0.01 0.02 0.01 0.00 0.01 0.00 0.01 0.02 0.02 0.02 0.01
0.01 0.00 0.00 0.00 0.00 0.01 0.02 0.00 0.02 0.00 0.00 0.00 0.00 0.00 0.00 0.00 0.00 0.00 0.00 0.01 0.03 0.04 0.05 0.09 0.08 0.10 0.11 0.07 0.07 0.07 0.07 0.12 0.11 0.05 0.03 0.02 0.02 0.04 0.04 0.04 0.03 0.02 0.03 0.04 0.06 0.04 0.07 0.08 0.07
0.00 0.00 0.00 0.00 0.00 0.00 0.01 0.02 0.01 0.01 0.01 0.03 0.02 0.00 0.00 0.00 0.01 0.00 0.01 0.00 0.01 0.03 0.03 0.06 0.11 0.16 0.19 0.17 0.14 0.17 0.22 0.15 0.10 0.14 0.14 0.05 0.08 0.08 0.08 0.07 0.06 0.04 0.04 0.11 0.15 0.17 0.14 0.09 0.08
0.00 0.00 0.01 0.10 0.04 0.02 0.05 0.05 0.03 0.00 0.00 0.01 0.01 0.00 0.00 0.01 0.01 0.00 0.00 0.01 0.03 0.04 0.07 0.15 0.16 0.18 0.20 0.18 0.27 0.20 0.18 0.13 0.08 0.09 0.07 0.07 0.16 0.18 0.10 0.09 0.09 0.07 0.09 0.11 0.13 0.14 0.15 0.20 0.33
0.01 0.00 0.04 0.08 0.04 0.05 0.05 0.01 0.00 0.00 0.00 0.00 0.00 0.00 0.00 0.00 0.00 0.00 0.01 0.03 0.06 0.05 0.12 0.28 0.30 0.24 0.23 0.22 0.26 0.26 0.13 0.10 0.13 0.06 0.11 0.09 0.09 0.13 0.29 0.17 0.15 0.18 0.16 0.23 0.31 0.46 0.60 0.75 0.93
0.01 0.02 0.00 0.00 0.01 0.01 0.00 0.00 0.00 0.00 0.00 0.00 0.00 0.00 0.00 0.00 0.00 0.00 0.01 0.04 0.05 0.06 0.10 0.20 0.21 0.11 0.15 0.17 0.16 0.18 0.18 0.12 0.15 0.14 0.10 0.25 0.25 0.20 0.23 0.25 0.28 0.38 0.45 0.56 0.68 0.80 0.88 0.88 0.78
0.00 0.00 0.00 0.00 0.00 0.02 0.00 0.00 0.01 0.01 0.00 0.00 0.00 0.00 0.00 0.00 0.00 0.00 0.00 0.02 0.04 0.05 0.11 0.16 0.10 0.06 0.02 0.01 0.07 0.12 0.17 0.21 0.20 0.28 0.40 0.54 0.41 0.36 0.41 0.62 0.83 0.87 0.86 0.75 0.75 0.80 0.82 0.68 0.55
0.00 0.00 0.00 0.00 0.00 0.04 0.08 0.01 0.00 0.00 0.00 0.00 0.00 0.00 0.00 0.00 0.00 0.00 0.00 0.00 0.02 0.06 0.11 0.16 0.19 0.14 0.14 0.15 0.16 0.12 0.12 0.25 0.46 0.51 0.84 0.70 0.67 0.88 1.18 1.40 1.29 1.12 0.94 0.83 0.82 0.75 0.69 0.56 0.36
0.00 0.00 0.01 0.01 0.02 0.01 0.03 0.01 0.00 0.00 0.00 0.00 0.01 0.00 0.00 0.00 0.00 0.00 0.00 0.01 0.03 0.06 0.08 0.06 0.23 0.44 0.28 0.25 0.30 0.29 0.42 0.67 0.98 0.96 1.10 1.36 1.64 1.54 1.53 1.37 1.18 0.99 0.69 0.55 0.52 0.44 0.30 0.18 0.11

GFSSGP_prec_precacc_087.txt.gz
Total_Precipitation_Accumulation
0.00 0.00 0.00 0.00 0.00 0.00 0.00 0.00 0.00 0.05 0.11 0.16 0.13 0.21 0.19 0.22 0.84 1.30 1.00 1.68 1.99 1.19 1.00 0.78 0.68 0.21 0.04 0.04 0.03 0.03 0.04 0.02 0.02 0.02 0.02 0.06 0.05 0.01 0.04 0.17 0.17 0.19 0.11 0.05 0.07 0.14 0.28 0.29 0.22
0.00 0.00 0.00 0.00 0.00 0.00 0.00 0.00 0.02 0.10 0.36 0.55 0.37 0.34 0.25 0.35 0.64 0.97 0.96 1.28 1.51 0.95 1.22 0.90 1.05 1.06 0.33 0.10 0.05 0.04 0.03 0.01 0.00 0.00 0.01 0.01 0.03 0.03 0.01 0.07 0.10 0.07 0.05 0.03 0.06 0.11 0.90 0.70 0.61
0.00 0.00 0.00 0.00 0.00 0.00 0.00 0.01 0.02 0.05 0.21 0.23 0.24 0.27 0.36 0.47 0.46 0.61 0.72 0.64 0.97 0.93 0.58 0.91 1.05 0.88 0.62 0.25 0.10 0.07 0.04 0.00 0.01 0.01 0.02 0.04 0.04 0.04 0.04 0.12 0.05 0.10 0.10 0.06 0.05 0.02 0.65 1.02 0.74
0.00 0.00 0.00 0.00 0.00 0.00 0.00 0.00 0.02 0.08 0.14 0.18 0.20 0.67 0.40 0.49 0.59 0.72 0.74 0.90 1.58 1.21 1.41 1.91 1.42 1.16 0.50 0.19 0.10 0.05 0.01 0.00 0.00 0.00 0.01 0.01 0.01 0.03 0.05 0.03 0.01 0.01 0.01 0.01 0.02 0.04 0.15 0.26 0.53
0.00 0.00 0.00 0.00 0.00 0.01 0.01 0.05 0.18 0.22 0.21 0.51 0.22 0.70 0.86 0.43 0.35 0.62 1.26 2.27 3.38 2.60 2.46 3.07 3.85 2.90 1.57 0.85 0.27 0.05 0.00 0.00 0.00 0.00 0.00 0.00 0.00 0.00 0.00 0.01 0.01 0.00 0.00 0.01 0.01 0.01 0.09 0.32 0.14
0.00 0.00 0.00 0.00 0.00 0.01 0.04 0.16 0.24 0.32 0.21 0.26 0.33 0.61 0.69 0.32 0.40 0.80 1.81 3.39 6.23 6.22 5.28 5.53 6.56 5.69 3.97 2.22 0.79 0.27 0.09 0.01 0.00 0.00 0.01 0.00 0.00 0.00 0.00 0.00 0.00 0.00 0.00 0.00 0.00 0.00 0.00 0.14 0.08
0.00 0.00 0.00 0.00 0.00 0.00 0.04 0.30 0.47 0.35 0.16 0.20 0.22 0.29 0.93 0.71 0.64 1.36 1.46 2.44 2.54 4.44 5.84 6.88 7.52 8.15 7.18 3.58 1.96 1.05 0.37 0.14 0.02 0.01 0.01 0.00 0.00 0.00 0.00 0.00 0.00 0.00 0.00 0.00 0.00 0.00 0.01 0.01 0.01
0.00 0.00 0.00 0.00 0.00 0.03 0.10 0.11 0.15 0.08 0.10 0.21 0.16 0.80 1.24 1.02 0.64 0.85 1.08 1.79 2.03 2.47 3.23 3.58 3.71 7.10 11.60 7.69 3.79 1.82 0.84 0.36 0.09 0.02 0.01 0.00 0.00 0.00 0.00 0.00 0.00 0.00 0.00 0.00 0.00 0.00 0.00 0.00 0.01
0.00 0.00 0.00 0.01 0.02 0.18 0.25 0.17 0.26 0.11 0.01 0.04 0.21 1.07 0.42 0.22 0.31 0.49 0.93 1.88 2.77 2.71 2.36 1.88 2.57 3.29 5.90 9.56 5.64 3.41 1.55 0.70 0.31 0.04 0.01 0.00 0.00 0.00 0.00 0.00 0.00 0.00 0.00 0.00 0.00 0.00 0.00 0.00 0.00
0.00 0.00 0.00 0.03 0.08 0.25 0.33 0.04 0.18 0.07 0.03 0.19 0.63 1.02 0.34 0.21 0.24 0.38 0.89 1.51 1.86 1.92 2.25 1.83 1.27 1.29 1.86 4.27 3.81 3.63 2.09 0.83 0.58 0.11 0.01 0.00 0.00 0.00 0.00 0.00 0.00 0.00 0.00 0.00 0.00 0.00 0.00 0.00 0.00
0.00 0.00 0.00 0.00 0.06 0.10 0.29 0.01 0.05 0.03 0.06 0.42 0.46 0.60 0.36 0.34 0.35 0.47 0.59 0.83 0.88 1.32 1.63 1.25 1.15 0.91 1.03 2.06 1.50 1.82 1.41 0.68 0.61 0.22 0.02 0.01 0.00 0.01 0.04 0.04 0.05 0.00 0.00 0.00 0.00 0.00 0.00 0.00 0.00
0.00 0.00 0.00 0.00 0.00 0.00 0.00 0.07 0.15 0.09 0.10 0.21 0.45 0.47 0.33 0.41 0.53 0.49 0.64 0.48 0.50 0.70 0.86 0.88 0.50 0.62 0.90 0.86 0.93 1.06 0.61 0.51 0.52 0.37 0.06 0.06 0.07 0.12 0.13 0.09 0.02 0.00 0.00 0.00 0.00 0.00 0.00 0.00 0.00
0.00 0.00 0.00 0.00 0.01 0.00 0.01 0.09 0.11 0.01 0.05 0.22 0.39 0.26 0.25 0.29 0.59 1.26 0.48 0.53 0.77 0.72 0.79 0.76 0.63 0.60 0.49 0.28 0.39 0.95 0.58 0.40 0.54 0.57 0.32 0.20 0.17 0.14 0.05 0.03 0.01 0.00 0.00 0.00 0.00 0.00 0.00 0.00 0.00
0.00 0.00 0.00 0.00 0.00 0.00 0.00 0.18 0.02 0.11 0.13 0.30 0.94 0.29 0.16 0.19 0.16 0.42 0.54 0.43 0.72 0.71 0.87 0.61 0.54 0.63 0.52 0.32 0.31 0.75 0.58 0.36 0.42 0.41 0.32 0.23 0.11 0.05 0.09 0.09 0.02 0.00 0.00 0.00 0.00 0.00 0.00 0.00 0.00
0.00 0.00 0.00 0.04 0.02 0.00 0.02 0.06 0.02 0.16 0.27 0.40 0.34 0.16 0.04 0.04 0.11 0.15 0.28 0.19 0.27 0.52 0.60 0.44 0.61 0.66 0.64 0.43 0.47 0.59 0.51 0.29 0.20 0.19 0.33 0.20 0.13 0.16 0.15 0.09 0.04 0.00 0.00 0.00 0.00 0.00 0.00 0.00 0.00
0.00 0.00 0.00 0.05 0.01 0.00 0.01 0.13 0.25 0.31 0.13 0.33 0.47 0.10 0.03 0.00 0.02 0.03 0.04 0.05 0.16 0.19 0.41 0.63 0.84 1.14 1.09 0.40 0.38 0.37 0.32 0.25 0.21 0.18 0.19 0.18 0.19 0.17 0.11 0.05 0.02 0.01 0.00 0.00 0.00 0.00 0.00 0.00 0.00
0.00 0.00 0.00 0.00 0.00 0.00 0.00 0.00 0.03 0.15 0.27 0.39 0.29 0.04 0.00 0.00 0.01 0.02 0.01 0.02 0.07 0.18 0.29 0.57 0.92 1.08 1.32 1.13 1.09 0.84 0.45 0.24 0.18 0.14 0.15 0.17 0.18 0.13 0.06 0.03 0.00 0.00 0.00 0.00 0.00 0.00 0.00 0.00 0.00
0.00 0.00 0.00 0.00 0.00 0.00 0.00 0.00 0.00 0.02 0.06 0.06 0.05 0.02 0.01 0.00 0.00 0.00 0.01 0.03 0.04 0.07 0.28 0.66 1.06 1.56 2.71 1.88 0.85 0.31 0.21 0.10 0.13 0.19 0.15 0.17 0.13 0.07 0.03 0.01 0.00 0.00 0.00 0.00 0.00 0.00 0.00 0.00 0.00
0.00 0.00 0.00 0.00 0.00 0.00 0.00 0.00 0.00 0.00 0.01 0.03 0.04 0.03 0.01 0.00 0.00 0.01 0.01 0.03 0.03 0.16 0.48 0.74 0.83 0.93 0.80 0.35 0.22 0.11 0.11 0.10 0.10 0.16 0.11 0.14 0.09 0.05 0.05 0.01 0.00 0.00 0.00 0.00 0.00 0.00 0.00 0.00 0.00
0.00 0.00 0.00 0.00 0.00 0.00 0.00 0.00 0.00 0.00 0.00 0.00 0.01 0.01 0.00 0.00 0.00 0.01 0.05 0.10 0.18 0.32 0.36 0.22 0.08 0.06 0.09 0.10 0.10 0.08 0.02 0.02 0.07 0.14 0.15 0.14 0.08 0.04 0.05 0.01 0.01 0.00 0.00 0.00 0.00 0.00 0.00 0.00 0.00
0.00 0.00 0.00 0.00 0.00 0.00 0.00 0.00 0.00 0.00 0.01 0.01 0.01 0.00 0.00 0.00 0.00 0.04 0.06 0.07 0.06 0.04 0.09 0.04 0.03 0.02 0.02 0.04 0.05 0.09 0.01 0.02 0.08 0.19 0.15 0.10 0.08 0.07 0.06 0.05 0.01 0.02 0.01 0.00 0.00 0.00 0.00 0.00 0.00
0.01 0.00 0.00 0.00 0.00 0.02 0.00 0.00 0.01 0.00 0.00 0.00 0.01 0.01 0.01 0.00 0.01 0.01 0.00 0.01 0.01 0.06 0.02 0.06 0.10 0.04 0.04 0.02 0.03 0.04 0.02 0.03 0.09 0.08 0.04 0.03 0.02 0.02 0.01 0.03 0.01 0.01 0.01 0.01 0.01 0.02 0.02 0.02 0.02
0.01 0.00 0.00 0.00 0.00 0.01 0.02 0.00 0.02 0.00 0.00 0.00 0.00 0.00 0.00 0.00 0.00 0.00 0.00 0.01 0.03 0.04 0.05 0.09 0.08 0.10 0.11 0.07 0.07 0.07 0.07 0.12 0.11 0.05 0.03 0.02 0.03 0.04 0.05 0.04 0.03 0.02 0.03 0.04 0.06 0.05 0.07 0.08 0.07
0.00 0.00 0.00 0.00 0.00 0.00 0.01 0.02 0.01 0.01 0.01 0.03 0.02 0.00 0.00 0.00 0.01 0.00 0.01 0.00 0.01 0.03 0.03 0.06 0.11 0.16 0.19 0.17 0.14 0.17 0.22 0.15 0.10 0.14 0.14 0.05 0.08 0.08 0.08 0.07 0.06 0.04 0.04 0.11 0.15 0.17 0.14 0.09 0.08
0.00 0.00 0.01 0.10 0.04 0.02 0.05 0.05 0.03 0.00 0.00 0.01 0.01 0.00 0.00 0.01 0.01 0.00 0.00 0.01 0.03 0.04 0.07 0.15 0.16 0.18 0.20 0.18 0.27 0.20 0.18 0.13 0.08 0.09 0.07 0.07 0.16 0.18 0.10 0.09 0.09 0.07 0.09 0.11 0.13 0.14 0.15 0.21 0.34
0.01 0.00 0.04 0.08 0.04 0.05 0.05 0.01 0.00 0.00 0.00 0.00 0.00 0.00 0.00 0.00 0.00 0.00 0.01 0.03 0.06 0.05 0.12 0.28 0.31 0.24 0.23 0.22 0.26 0.26 0.13 0.10 0.13 0.06 0.11 0.09 0.09 0.13 0.29 0.17 0.15 0.18 0.16 0.23 0.31 0.46 0.61 0.77 0.96
0.01 0.02 0.00 0.00 0.01 0.01 0.00 0.00 0.00 0.00 0.00 0.00 0.00 0.00 0.00 0.00 0.00 0.00 0.01 0.04 0.05 0.06 0.10 0.20 0.21 0.11 0.15 0.17 0.16 0.18 0.18 0.12 0.15 0.14 0.10 0.25 0.25 0.20 0.23 0.25 0.28 0.38 0.45 0.56 0.68 0.80 0.88 0.89 0.84
0.00 0.00 0.00 0.00 0.00 0.02 0.00 0.00 0.01 0.01 0.00 0.00 0.00 0.00 0.00 0.00 0.00 0.00 0.00 0.02 0.04 0.05 0.11 0.16 0.10 0.06 0.02 0.01 0.07 0.12 0.17 0.21 0.20 0.28 0.40 0.54 0.41 0.36 0.41 0.62 0.83 0.87 0.86 0.77 0.77 0.83 0.85 0.76 0.70
0.00 0.00 0.00 0.00 0.00 0.04 0.08 0.01 0.00 0.00 0.00 0.00 0.00 0.00 0.00 0.00 0.00 0.00 0.00 0.00 0.02 0.06 0.11 0.17 0.19 0.15 0.14 0.15 0.16 0.12 0.12 0.25 0.46 0.51 0.84 0.70 0.67 0.88 1.19 1.41 1.30 1.14 1.04 1.02 1.05 0.96 0.83 0.64 0.47
0.00 0.00 0.01 0.01 0.02 0.01 0.03 0.01 0.00 0.00 0.00 0.00 0.01 0.00 0.00 0.00 0.00 0.00 0.00 0.01 0.03 0.06 0.08 0.06 0.23 0.45 0.31 0.28 0.30 0.29 0.42 0.67 0.98 0.96 1.10 1.36 1.64 1.54 1.55 1.40 1.22 1.06 0.89 0.82 0.80 0.59 0.32 0.20 0.12

GFSSGP_prec_precacc_090.txt.gz
Total_Precipitation_Accumulation
0.00 0.00 0.00 0.00 0.00 0.00 0.00 0.00 0.00 0.05 0.11 0.16 0.13 0.21 0.19 0.22 0.84 1.30 1.00 1.68 1.99 1.19 1.00 0.78 0.68 0.21 0.09 0.10 0.03 0.03 0.04 0.02 0.02 0.02 0.02 0.07 0.05 0.01 0.04 0.17 0.17 0.19 0.11 0.05 0.07 0.14 0.29 0.29 0.22
0.00 0.00 0.00 0.00 0.00 0.00 0.00 0.00 0.02 0.10 0.36 0.55 0.37 0.34 0.25 0.35 0.64 0.97 0.96 1.28 1.51 0.95 1.22 0.90 1.05 1.11 0.45 0.20 0.07 0.04 0.04 0.01 0.00 0.00 0.01 0.01 0.03 0.03 0.01 0.07 0.10 0.07 0.05 0.03 0.06 0.11 0.90 0.70 0.61
0.00 0.00 0.00 0.00 0.00 0.00 0.00 0.01 0.02 0.05 0.21 0.23 0.24 0.27 0.36 0.47 0.46 0.61 0.72 0.64 0.97 0.93 0.58 0.94 1.09 0.96 0.70 0.33 0.20 0.24 0.06 0.01 0.01 0.01 0.02 0.04 0.04 0.04 0.04 0.12 0.05 0.10 0.10 0.06 0.05 0.02 0.65 1.02 0.74
0.00 0.00 0.00 0.00 0.00 0.00 0.00 0.00 0.02 0.08 0.14 0.18 0.20 0.67 0.40 0.49 0.59 0.72 0.74 0.90 1.58 1.21 1.41 2.04 1.73 1.41 0.69 0.41 0.44 0.36 0.12 0.00 0.00 0.00 0.01 0.01 0.01 0.03 0.05 0.03 0.01 0.01 0.01 0.01 0.02 0.04 0.15 0.26 0.53
0.00 0.00 0.00 0.00 0.00 0.01 0.01 0.05 0.18 0.22 0.21 0.51 0.22 0.70 0.86 0.43 0.35 0.62 1.26 2.27 3.38 2.60 2.46 3.17 4.22 3.72 2.67 1.50 0.86 0.24 0.02 0.00 0.00 0.00 0.00 0.00 0.00 0.00 0.00 0.01 0.01 0.01 0.01 0.01 0.01 0.01 0.09 0.32 0.14
0.00 0.00 0.00 0.00 0.00 0.01 0.04 0.16 0.24 0.32 0.21 0.26 0.33 0.61 0.69 0.32 0.40 0.80 1.81 3.39 6.23 6.22 5.28 5.61 6.67 5.82 4.50 3.40 1.87 0.89 0.12 0.01 0.00 0.00 0.01 0.00 0.00 0.00 0.00 0.00 0.00 0.00 0.00 0.00 0.00 0.00 0.00 0.14 0.08
0.00 0.00 0.00 0.00 0.00 0.00 0.04 0.30 0.47 0.35 0.16 0.20 0.22 0.29 0.93 0.71 0.64 1.36 1.46 2.44 2.54 4.44 5.85 6.89 7.53 8.33 7.48 4.15 3.17 2.26 0.73 0.17 0.03 0.01 0.01 0.00 0.00 0.00 0.00 0.00 0.00 0.00 0.00 0.00 0.00 0.00 0.01 0.01 0.01
0.00 0.00 0.00 0.00 0.00 0.03 0.10 0.11 0.15 0.08 0.10 0.21 0.16 0.80 1.24 1.02 0.64 0.85 1.08 1.79 2.04 2.47 3.24 3.58 3.72 7.18 11.77 7.93 4.78 3.16 1.60 0.90 0.16 0.02 0.01 0.00 0.00 0.00 0.00 0.00 0.00 0.00 0.00 0.00 0.00 0.00 0.00 0.00 0.01
0.00 0.00 0.00 0.01 0.02 0.18 0.25 0.17 0.26 0.11 0.01 0.04 0.21 1.07 0.42 0.22 0.31 0.49 0.93 1.88 2.77 2.71 2.37 1.88 2.58 3.35 5.94 9.63 6.25 4.26 2.45 1.16 0.51 0.07 0.01 0.00 0.01 0.00 0.00 0.00 0.00 0.00 0.00 0.00 0.00 0.00 0.00 0.00 0.00
0.00 0.00 0.00 0.03 0.08 0.25 0.33 0.04 0.18 0.07 0.03 0.19 0.63 1.02 0.34 0.21 0.24 0.38 0.89 1.51 1.86 1.92 2.26 1.84 1.27 1.31 1.94 4.34 3.99 3.96 2.91 1.32 0.83 0.16 0.02 0.00 0.00 0.00 0.00 0.00 0.00 0.00 0.00 0.00 0.00 0.00 0.00 0.00 0.00
0.00 0.00 0.00 0.00 0.06 0.10 0.29 0.01 0.05 0.03 0.06 0.42 0.46 0.60 0.36 0.34 0.35 0.47 0.59 0.83 0.88 1.33 1.63 1.26 1.15 0.91 1.04 2.09 1.57 1.95 2.12 1.15 1.03 0.48 0.07 0.02 0.01 0.01 0.04 0.04 0.05 0.00 0.00 0.00 0.00 0.00 0.00 0.00 0.00
0.00 0.00 0.00 0.00 0.00 0.00 0.00 0.07 0.15 0.09 0.10 0.21 0.45 0.47 0.33 0.41 0.53 0.49 0.64 0.48 0.50 0.70 0.88 0.89 0.50 0.63 0.90 0.88 0.95 1.12 1.01 1.23 0.86 0.77 0.20 0.09 0.08 0.12 0.13 0.09 0.02 0.00 0.00 0.00 0.00 0.00 0.00 0.00 0.00
0.00 0.00 0.00 0.00 0.01 0.00 0.01 0.09 0.11 0.01 0.05 0.22 0.39 0.26 0.25 0.29 0.59 1.26 0.48 0.53 0.77 0.72 0.81 0.78 0.65 0.61 0.49 0.28 0.40 1.04 0.73 0.99 0.81 0.74 0.41 0.21 0.17 0.14 0.05 0.03 0.01 0.00 0.00 0.00 0.00 0.00 0.00 0.00 0.00
0.00 0.00 0.00 0.00 0.00 0.00 0.00 0.18 0.02 0.11 0.13 0.30 0.94 0.29 0.16 0.19 0.16 0.42 0.54 0.43 0.73 0.71 0.89 0.64 0.62 0.64 0.52 0.33 0.32 0.80 0.74 0.65 0.70 0.49 0.35 0.23 0.11 0.05 0.09 0.09 0.02 0.00 0.00 0.00 0.00 0.00 0.00 0.00 0.00
0.00 0.00 0.00 0.04 0.02 0.00 0.02 0.06 0.02 0.16 0.27 0.40 0.34 0.16 0.04 0.04 0.11 0.15 0.28 0.19 0.27 0.52 0.60 0.46 0.68 0.73 0.69 0.46 0.53 0.71 0.75 0.49 0.40 0.27 0.34 0.20 0.13 0.16 0.15 0.09 0.04 0.00 0.00 0.00 0.00 0.00 0.00 0.00 0.00
0.00 0.00 0.00 0.05 0.01 0.00 0.01 0.13 0.25 0.31 0.13 0.33 0.47 0.10 0.03 0.00 0.02 0.03 0.04 0.05 0.16 0.19 0.43 0.64 0.86 1.17 1.10 0.45 0.57 0.65 0.65 0.49 0.39 0.28 0.20 0.18 0.19 0.17 0.11 0.05 0.02 0.01 0.00 0.00 0.00 0.00 0.00 0.00 0.00
0.00 0.00 0.00 0.00 0.00 0.00 0.00 0.00 0.03 0.15 0.27 0.39 0.29 0.04 0.00 0.00 0.01 0.02 0.02 0.02 0.08 0.18 0.30 0.58 0.92 1.09 1.32 1.19 1.42 1.16 0.68 0.48 0.37 0.24 0.16 0.17 0.18 0.13 0.06 0.03 0.00 0.00 0.00 0.00 0.00 0.00 0.00 0.00 0.00
0.00 0.00 0.00 0.00 0.00 0.00 0.00 0.00 0.00 0.02 0.06 0.06 0.05 0.02 0.01 0.00 0.00 0.00 0.01 0.03 0.04 0.07 0.29 0.67 1.06 1.57 2.74 1.90 1.04 0.49 0.39 0.29 0.30 0.25 0.16 0.17 0.13 0.07 0.03 0.01 0.00 0.00 0.00 0.00 0.00 0.00 0.00 0.00 0.00
0.00 0.00 0.00 0.00 0.00 0.00 0.00 0.00 0.00 0.00 0.01 0.03 0.04 0.03 0.01 0.00 0.00 0.01 0.01 0.04 0.03 0.16 0.48 0.74 0.83 0.93 0.82 0.37 0.30 0.21 0.23 0.22 0.21 0.21 0.12 0.14 0.09 0.05 0.05 0.01 0.00 0.00 0.00 0.00 0.00 0.00 0.00 0.00 0.00
0.00 0.00 0.00 0.00 0.00 0.00 0.00 0.00 0.00 0.00 0.00 0.00 0.01 0.01 0.00 0.00 0.00 0.01 0.05 0.11 0.18 0.33 0.36 0.22 0.09 0.06 0.09 0.10 0.12 0.10 0.06 0.09 0.13 0.17 0.16 0.14 0.08 0.04 0.05 0.01 0.01 0.00 0.00 0.00 0.00 0.00 0.00 0.00 0.00
0.00 0.00 0.00 0.00 0.00 0.00 0.00 0.00 0.00 0.00 0.01 0.01 0.01 0.00 0.00 0.00 0.00 0.04 0.06 0.07 0.06 0.04 0.10 0.04 0.03 0.02 0.02 0.05 0.05 0.11 0.05 0.05 0.10 0.22 0.16 0.10 0.08 0.07 0.06 0.05 0.01 0.02 0.01 0.00 0.00 0.00 0.00 0.00 0.00
0.01 0.00 0.00 0.00 0.00 0.02 0.00 0.00 0.01 0.00 0.00 0.00 0.01 0.01 0.01 0.00 0.01 0.01 0.00 0.01 0.01 0.06 0.02 0.06 0.10 0.04 0.04 0.02 0.03 0.05 0.03 0.03 0.09 0.08 0.04 0.03 0.02 0.02 0.01 0.03 0.01 0.01 0.01 0.01 0.01 0.02 0.02 0.02 0.02
0.01 0.00 0.00 0.00 0.00 0.01 0.02 0.00 0.02 0.00 0.00 0.00 0.00 0.00 0.00 0.00 0.00 0.00 0.00 0.01 0.03 0.04 0.06 0.09 0.08 0.10 0.11 0.07 0.07 0.07 0.08 0.12 0.11 0.05 0.03 0.02 0.03 0.04 0.05 0.04 0.03 0.02 0.03 0.04 0.06 0.05 0.08 0.09 0.07
0.00 0.00 0.00 0.00 0.00 0.00 0.01 0.02 0.01 0.01 0.01 0.03 0.02 0.00 0.00 0.00 0.01 0.00 0.01 0.00 0.01 0.03 0.03 0.07 0.11 0.16 0.19 0.17 0.14 0.17 0.22 0.15 0.10 0.14 0.14 0.05 0.08 0.08 0.08 0.07 0.06 0.04 0.04 0.11 0.15 0.17 0.14 0.09 0.08
0.00 0.00 0.01 0.10 0.04 0.02 0.05 0.05 0.03 0.00 0.00 0.01 0.01 0.00 0.00 0.01 0.01 0.00 0.00 0.01 0.03 0.04 0.07 0.15 0.16 0.18 0.20 0.18 0.27 0.20 0.18 0.13 0.08 0.09 0.07 0.07 0.16 0.18 0.10 0.09 0.09 0.07 0.09 0.11 0.13 0.14 0.15 0.22 0.35
0.01 0.00 0.04 0.08 0.04 0.05 0.05 0.01 0.00 0.00 0.00 0.00 0.00 0.00 0.00 0.00 0.00 0.00 0.01 0.03 0.06 0.05 0.12 0.28 0.31 0.24 0.23 0.22 0.26 0.26 0.13 0.10 0.13 0.06 0.11 0.09 0.09 0.13 0.29 0.17 0.15 0.18 0.16 0.23 0.32 0.46 0.61 0.77 0.96
0.01 0.02 0.00 0.00 0.01 0.01 0.00 0.00 0.00 0.00 0.00 0.00 0.00 0.00 0.00 0.00 0.00 0.00 0.01 0.04 0.05 0.06 0.10 0.20 0.21 0.11 0.15 0.17 0.16 0.18 0.18 0.12 0.15 0.14 0.10 0.25 0.25 0.20 0.23 0.25 0.28 0.38 0.45 0.56 0.68 0.80 0.88 0.90 0.85
0.00 0.00 0.00 0.00 0.00 0.02 0.00 0.00 0.01 0.01 0.00 0.00 0.00 0.00 0.00 0.00 0.00 0.00 0.00 0.02 0.04 0.05 0.11 0.16 0.10 0.06 0.02 0.01 0.07 0.12 0.17 0.21 0.20 0.28 0.40 0.54 0.41 0.36 0.41 0.62 0.83 0.87 0.86 0.77 0.77 0.83 0.85 0.76 0.71
0.00 0.00 0.00 0.00 0.00 0.04 0.08 0.01 0.00 0.00 0.00 0.00 0.00 0.00 0.00 0.00 0.00 0.00 0.00 0.00 0.02 0.06 0.11 0.17 0.19 0.15 0.14 0.15 0.16 0.12 0.12 0.25 0.46 0.51 0.84 0.70 0.67 0.88 1.19 1.41 1.30 1.14 1.04 1.02 1.06 1.01 0.93 0.78 0.57
0.00 0.00 0.01 0.01 0.02 0.01 0.03 0.01 0.00 0.00 0.00 0.00 0.01 0.00 0.00 0.00 0.00 0.00 0.00 0.01 0.03 0.06 0.08 0.06 0.23 0.45 0.32 0.28 0.30 0.29 0.42 0.67 0.98 0.96 1.10 1.36 1.64 1.54 1.55 1.40 1.22 1.06 0.89 0.83 0.87 0.79 0.64 0.49 0.28

GFSSGP_prec_precacc_093.txt.gz
Total_Precipitation_Accumulation
0.00 0.00 0.00 0.00 0.00 0.00 0.00 0.00 0.00 0.05 0.11 0.16 0.13 0.21 0.19 0.22 0.84 1.30 1.00 1.68 1.99 1.19 1.00 0.80 0.68 0.21 0.14 0.30 0.11 0.03 0.04 0.03 0.02 0.02 0.02 0.07 0.05 0.01 0.05 0.17 0.17 0.19 0.11 0.05 0.07 0.14 0.29 0.29 0.22
0.00 0.00 0.00 0.00 0.00 0.00 0.00 0.00 0.02 0.10 0.36 0.55 0.37 0.34 0.25 0.35 0.64 0.97 0.96 1.28 1.51 0.95 1.22 0.91 1.05 1.11 0.50 0.38 0.18 0.10 0.06 0.02 0.00 0.00 0.01 0.01 0.03 0.03 0.02 0.07 0.10 0.07 0.05 0.03 0.06 0.12 0.91 0.70 0.61
0.00 0.00 0.00 0.00 0.00 0.00 0.00 0.01 0.02 0.05 0.21 0.23 0.24 0.27 0.36 0.47 0.46 0.61 0.72 0.64 0.97 0.93 0.58 0.94 1.09 0.97 0.75 0.41 0.24 0.31 0.26 0.15 0.01 0.01 0.02 0.04 0.04 0.04 0.04 0.12 0.05 0.10 0.10 0.06 0.05 0.03 0.65 1.02 0.74
0.00 0.00 0.00 0.00 0.00 0.00 0.00 0.00 0.02 0.08 0.14 0.18 0.20 0.67 0.40 0.49 0.59 0.72 0.74 0.90 1.58 1.21 1.41 2.04 1.77 1.49 0.83 0.60 0.63 0.67 0.54 0.25 0.01 0.00 0.01 0.01 0.01 0.03 0.05 0.03 0.01 0.01 0.01 0.01 0.02 0.04 0.15 0.26 0.53
0.00 0.00 0.00 0.00 0.00 0.01 0.01 0.05 0.18 0.22 0.21 0.51 0.22 0.70 0.86 0.43 0.35 0.62 1.26 2.27 3.38 2.60 2.46 3.18 4.31 3.79 2.87 1.88 1.25 0.95 0.90 0.49 0.05 0.00 0.00 0.00 0.00 0.00 0.00 0.01 0.01 0.01 0.01 0.01 0.01 0.01 0.09 0.32 0.14
0.00 0.00 0.00 0.00 0.00 0.01 0.04 0.16 0.24 0.32 0.21 0.26 0.33 0.61 0.69 0.32 0.40 0.80 1.81 3.39 6.23 6.22 5.28 5.61 6.69 5.82 4.53 3.50 2.18 2.07 1.63 0.86 0.22 0.02 0.01 0.00 0.00 0.00 0.00 0.00 0.00 0.00 0.00 0.00 0.00 0.00 0.00 0.14 0.08
0.00 0.00 0.00 0.00 0.00 0.00 0.04 0.30 0.47 0.35 0.16 0.20 0.22 0.29 0.93 0.71 0.64 1.36 1.46 2.44 2.54 4.44 5.85 6.89 7.53 8.33 7.49 4.19 3.21 3.19 2.98 1.47 0.45 0.12 0.03 0.00 0.00 0.00 0.00 0.00 0.00 0.00 0.00 0.00 0.00 0.00 0.01 0.01 0.01
0.00 0.00 0.00 0.00 0.00 0.03 0.10 0.11 0.15 0.08 0.10 0.21 0.16 0.80 1.24 1.02 0.64 0.85 1.08 1.79 2.04 2.47 3.24 3.59 3.72 7.19 11.78 7.94 4.88 3.88 3.12 2.20 0.77 0.19 0.04 0.00 0.00 0.00 0.00 0.00 0.00 0.00 0.00 0.00 0.00 0.00 0.00 0.00 0.01
0.00 0.00 0.00 0.01 0.02 0.18 0.25 0.17 0.26 0.11 0.01 0.04 0.21 1.07 0.42 0.22 0.31 0.49 0.93 1.88 2.77 2.72 2.37 1.88 2.58 3.35 5.94 9.65 6.43 4.99 3.80 1.90 1.25 0.28 0.03 0.00 0.01 0.01 0.00 0.00 0.00 0.00 0.00 0.00 0.00 0.00 0.00 0.00 0.00
0.00 0.00 0.00 0.03 0.08 0.25 0.33 0.04 0.18 0.07 0.03 0.19 0.63 1.02 0.34 0.21 0.24 0.38 0.89 1.51 1.86 1.93 2.26 1.84 1.27 1.32 1.95 4.35 4.15 4.43 4.41 2.30 1.24 0.38 0.06 0.02 0.01 0.00 0.01 0.00 0.00 0.00 0.00 0.00 0.00 0.00 0.00 0.00 0.00
0.00 0.00 0.00 0.00 0.06 0.10 0.29 0.01 0.05 0.03 0.06 0.42 0.46 0.60 0.36 0.34 0.35 0.47 0.59 0.83 0.88 1.33 1.64 1.26 1.15 0.91 1.05 2.15 1.77 2.20 3.00 3.09 1.67 0.66 0.12 0.06 0.02 0.04 0.06 0.04 0.05 0.00 0.00 0.00 0.00 0.00 0.00 0.00 0.00
0.00 0.00 0.00 0.00 0.00 0.00 0.00 0.07 0.15 0.09 0.10 0.21 0.45 0.47 0.33 0.41 0.53 0.49 0.64 0.48 0.50 0.70 0.89 0.91 0.51 0.64 0.93 0.90 1.06 1.29 1.30 2.55 2.00 1.00 0.34 0.15 0.13 0.14 0.13 0.09 0.02 0.00 0.00 0.00 0.00 0.00 0.00 0.00 0.00
0.00 0.00 0.00 0.00 0.01 0.00 0.01 0.09 0.11 0.01 0.05 0.22 0.39 0.26 0.25 0.29 0.59 1.26 0.48 0.53 0.77 0.73 0.82 0.80 0.66 0.62 0.51 0.29 0.41 1.08 0.82 1.41 1.46 0.94 0.57 0.34 0.21 0.15 0.05 0.03 0.01 0.00 0.00 0.00 0.00 0.00 0.00 0.00 0.00
0.00 0.00 0.00 0.00 0.00 0.00 0.00 0.18 0.02 0.11 0.13 0.30 0.94 0.29 0.16 0.19 0.16 0.42 0.54 0.43 0.73 0.72 0.90 0.65 0.62 0.64 0.52 0.34 0.35 0.81 0.79 0.84 0.90 0.58 0.42 0.36 0.16 0.05 0.09 0.09 0.02 0.00 0.00 0.00 0.00 0.00 0.00 0.00 0.00
0.00 0.00 0.00 0.04 0.02 0.00 0.02 0.06 0.02 0.16 0.27 0.40 0.34 0.16 0.04 0.04 0.11 0.15 0.28 0.19 0.27 0.53 0.60 0.47 0.68 0.73 0.69 0.47 0.54 0.72 0.76 0.77 0.62 0.33 0.40 0.27 0.17 0.16 0.15 0.09 0.04 0.00 0.00 0.00 0.00 0.00 0.00 0.00 0.00
0.00 0.00 0.00 0.05 0.01 0.00 0.01 0.13 0.25 0.31 0.13 0.33 0.47 0.10 0.03 0.00 0.02 0.03 0.04 0.05 0.16 0.20 0.43 0.64 0.86 1.18 1.11 0.45 0.57 0.66 0.70 0.74 0.68 0.33 0.25 0.21 0.20 0.17 0.11 0.05 0.02 0.01 0.00 0.00 0.00 0.00 0.00 0.00 0.00
0.00 0.00 0.00 0.00 0.00 0.00 0.00 0.00 0.03 0.15 0.27 0.39 0.29 0.04 0.00 0.00 0.01 0.02 0.02 0.02 0.08 0.18 0.30 0.58 0.92 1.09 1.33 1.20 1.45 1.19 0.82 0.71 0.57 0.31 0.20 0.18 0.19 0.13 0.06 0.03 0.00 0.00 0.00 0.00 0.00 0.00 0.00 0.00 0.00
0.00 0.00 0.00 0.00 0.00 0.00 0.00 0.00 0.00 0.02 0.06 0.06 0.05 0.02 0.01 0.00 0.00 0.00 0.01 0.03 0.04 0.07 0.29 0.67 1.07 1.58 2.74 1.92 1.09 0.60 0.54 0.57 0.42 0.35 0.20 0.18 0.13 0.07 0.03 0.01 0.00 0.00 0.00 0.00 0.00 0.00 0.00 0.00 0.00
0.00 0.00 0.00 0.00 0.00 0.00 0.00 0.00 0.00 0.00 0.01 0.03 0.04 0.03 0.01 0.00 0.00 0.01 0.01 0.04 0.03 0.16 0.49 0.75 0.83 0.94 0.82 0.37 0.33 0.32 0.41 0.53 0.48 0.37 0.18 0.15 0.10 0.05 0.05 0.01 0.00 0.00 0.00 0.00 0.00 0.00 0.00 0.00 0.00
0.00 0.00 0.00 0.00 0.00 0.00 0.00 0.00 0.00 0.00 0.00 0.00 0.01 0.01 0.00 0.00 0.00 0.01 0.05 0.11 0.18 0.33 0.37 0.23 0.09 0.06 0.10 0.11 0.13 0.14 0.16 0.28 0.34 0.31 0.20 0.15 0.09 0.04 0.05 0.01 0.01 0.00 0.00 0.00 0.00 0.00 0.00 0.00 0.00
0.00 0.00 0.00 0.00 0.00 0.00 0.00 0.00 0.00 0.00 0.01 0.01 0.01 0.00 0.00 0.00 0.00 0.04 0.06 0.07 0.06 0.04 0.10 0.05 0.04 0.02 0.02 0.05 0.05 0.11 0.07 0.10 0.17 0.29 0.19 0.11 0.08 0.07 0.06 0.05 0.01 0.02 0.01 0.00 0.00 0.00 0.00 0.00 0.00
0.01 0.00 0.00 0.00 0.00 0.02 0.00 0.00 0.01 0.00 0.00 0.00 0.01 0.01 0.01 0.00 0.01 0.01 0.00 0.01 0.01 0.06 0.03 0.06 0.10 0.05 0.04 0.02 0.03 0.05 0.04 0.04 0.10 0.09 0.06 0.05 0.02 0.02 0.02 0.03 0.01 0.02 0.01 0.01 0.01 0.02 0.02 0.02 0.02
0.01 0.00 0.00 0.00 0.00 0.01 0.02 0.00 0.02 0.00 0.00 0.00 0.00 0.00 0.00 0.00 0.00 0.00 0.00 0.01 0.03 0.04 0.06 0.10 0.09 0.10 0.11 0.07 0.08 0.08 0.08 0.12 0.11 0.06 0.04 0.03 0.03 0.05 0.06 0.05 0.04 0.02 0.03 0.04 0.06 0.05 0.08 0.09 0.07
0.00 0.00 0.00 0.00 0.00 0.00 0.01 0.02 0.01 0.01 0.01 0.03 0.02 0.00 0.00 0.00 0.01 0.00 0.01 0.00 0.01 0.03 0.03 0.07 0.12 0.16 0.19 0.18 0.14 0.17 0.22 0.15 0.10 0.14 0.14 0.05 0.09 0.09 0.10 0.08 0.08 0.04 0.04 0.11 0.15 0.17 0.14 0.10 0.10
0.00 0.00 0.01 0.10 0.04 0.02 0.05 0.05 0.03 0.00 0.00 0.01 0.01 0.00 0.00 0.01 0.01 0.00 0.00 0.01 0.03 0.04 0.07 0.15 0.16 0.19 0.21 0.18 0.27 0.20 0.18 0.13 0.08 0.09 0.07 0.07 0.16 0.19 0.11 0.10 0.10 0.07 0.09 0.11 0.14 0.16 0.17 0.24 0.41
0.01 0.00 0.04 0.08 0.05 0.05 0.05 0.01 0.00 0.00 0.00 0.00 0.00 0.00 0.00 0.00 0.00 0.00 0.01 0.03 0.06 0.05 0.12 0.28 0.31 0.24 0.23 0.23 0.26 0.26 0.13 0.10 0.13 0.06 0.11 0.09 0.09 0.13 0.29 0.17 0.15 0.19 0.16 0.24 0.39 0.51 0.64 0.80 1.00
0.01 0.02 0.00 0.00 0.01 0.01 0.00 0.00 0.00 0.00 0.00 0.00 0.00 0.00 0.00 0.00 0.00 0.00 0.01 0.04 0.05 0.06 0.10 0.20 0.21 0.11 0.15 0.17 0.16 0.18 0.18 0.12 0.15 0.14 0.10 0.25 0.25 0.20 0.23 0.25 0.28 0.39 0.46 0.57 0.70 0.82 0.89 0.91 0.88
0.00 0.00 0.00 0.00 0.00 0.02 0.00 0.00 0.01 0.01 0.00 0.00 0.00 0.00 0.00 0.00 0.00 0.00 0.00 0.02 0.04 0.05 0.11 0.16 0.10 0.06 0.02 0.01 0.07 0.12 0.17 0.21 0.20 0.28 0.40 0.55 0.41 0.36 0.41 0.62 0.84 0.88 0.87 0.77 0.77 0.83 0.85 0.78 0.72
0.00 0.00 0.00 0.00 0.00 0.04 0.08 0.01 0.00 0.00 0.00 0.00 0.00 0.00 0.00 0.00 0.00 0.00 0.00 0.00 0.02 0.06 0.11 0.17 0.19 0.15 0.14 0.15 0.16 0.12 0.12 0.25 0.46 0.51 0.84 0.70 0.67 0.88 1.19 1.41 1.31 1.14 1.04 1.03 1.06 1.01 0.93 0.79 0.58
0.00 0.00 0.01 0.01 0.02 0.01 0.03 0.01 0.00 0.00 0.00 0.00 0.01 0.00 0.00 0.00 0.00 0.00 0.00 0.01 0.03 0.06 0.08 0.06 0.23 0.45 0.32 0.28 0.30 0.29 0.42 0.67 0.98 0.96 1.10 1.36 1.64 1.54 1.55 1.40 1.22 1.06 0.89 0.83 0.87 0.79 0.64 0.50 0.31

GFSSGP_prec_precacc_096.txt.gz
Total_Precipitation_Accumulation
0.00 0.00 0.00 0.00 0.00 0.00 0.00 0.00 0.00 0.05 0.11 0.16 0.13 0.21 0.19 0.22 0.84 1.30 1.00 1.68 1.99 1.19 1.00 0.80 0.68 0.21 0.14 0.32 0.11 0.04 0.04 0.03 0.02 0.02 0.02 0.07 0.05 0.01 0.05 0.17 0.17 0.19 0.11 0.05 0.07 0.14 0.29 0.29 0.22
0.00 0.00 0.00 0.00 0.00 0.00 0.00 0.00 0.02 0.10 0.36 0.55 0.37 0.34 0.25 0.35 0.64 0.97 0.96 1.28 1.51 0.95 1.22 0.91 1.05 1.11 0.51 0.42 0.21 0.14 0.07 0.02 0.00 0.00 0.01 0.01 0.03 0.03 0.02 0.08 0.11 0.07 0.05 0.03 0.06 0.12 0.91 0.70 0.61
0.00 0.00 0.00 0.00 0.00 0.00 0.00 0.01 0.02 0.05 0.21 0.23 0.24 0.27 0.36 0.47 0.46 0.61 0.72 0.64 0.97 0.93 0.58 0.94 1.10 0.97 0.77 0.44 0.26 0.40 0.42 0.28 0.03 0.01 0.03 0.04 0.04 0.04 0.04 0.12 0.05 0.10 0.10 0.06 0.05 0.03 0.65 1.02 0.74
0.00 0.00 0.00 0.00 0.00 0.00 0.00 0.00 0.02 0.08 0.14 0.18 0.20 0.67 0.40 0.49 0.59 0.72 0.74 0.90 1.58 1.21 1.41 2.04 1.78 1.51 0.84 0.62 0.78 0.97 0.91 0.67 0.28 0.02 0.05 0.03 0.02 0.03 0.05 0.04 0.01 0.01 0.01 0.01 0.03 0.04 0.15 0.26 0.53
0.00 0.00 0.00 0.00 0.00 0.01 0.01 0.05 0.18 0.22 0.21 0.51 0.22 0.70 0.86 0.43 0.35 0.62 1.26 2.27 3.38 2.60 2.46 3.18 4.31 3.80 2.88 1.89 1.39 1.26 1.22 0.97 0.79 0.38 0.11 0.07 0.03 0.00 0.00 0.01 0.01 0.01 0.01 0.01 0.01 0.01 0.09 0.32 0.14
0.00 0.00 0.00 0.00 0.00 0.01 0.04 0.16 0.24 0.32 0.21 0.26 0.33 0.61 0.69 0.32 0.40 0.80 1.81 3.39 6.23 6.22 5.28 5.61 6.69 5.82 4.57 3.52 2.30 2.30 1.92 1.54 1.39 0.85 0.35 0.05 0.01 0.00 0.00 0.00 0.00 0.00 0.00 0.00 0.00 0.00 0.00 0.14 0.08
0.00 0.00 0.00 0.00 0.00 0.00 0.04 0.30 0.47 0.35 0.16 0.20 0.22 0.29 0.93 0.71 0.64 1.36 1.46 2.44 2.54 4.44 5.85 6.89 7.53 8.33 7.49 4.23 3.27 3.26 3.13 2.45 2.01 1.69 0.85 0.16 0.05 0.00 0.00 0.00 0.00 0.00 0.00 0.00 0.00 0.00 0.01 0.01 0.01
0.00 0.00 0.00 0.00 0.00 0.03 0.10 0.11 0.15 0.08 0.10 0.21 0.16 0.80 1.24 1.02 0.64 0.85 1.08 1.79 2.04 2.47 3.24 3.59 3.72 7.19 11.78 7.95 4.89 3.88 3.14 2.59 1.85 1.97 0.93 0.17 0.08 0.00 0.00 0.00 0.00 0.00 0.00 0.00 0.00 0.00 0.00 0.00 0.01
0.00 0.00 0.00 0.01 0.02 0.18 0.25 0.17 0.26 0.11 0.01 0.04 0.21 1.07 0.42 0.22 0.31 0.49 0.93 1.88 2.77 2.72 2.37 1.88 2.59 3.36 5.95 9.65 6.44 5.00 3.81 2.20 2.06 1.49 0.72 0.17 0.04 0.01 0.01 0.00 0.00 0.00 0.00 0.00 0.00 0.00 0.00 0.00 0.00
0.00 0.00 0.00 0.03 0.08 0.25 0.33 0.04 0.18 0.07 0.03 0.19 0.63 1.02 0.34 0.21 0.24 0.38 0.89 1.51 1.86 1.93 2.26 1.84 1.27 1.32 1.96 4.35 4.16 4.45 4.42 2.44 1.83 1.22 0.77 0.25 0.03 0.01 0.03 0.00 0.00 0.00 0.00 0.00 0.00 0.00 0.00 0.00 0.00
0.00 0.00 0.00 0.00 0.06 0.10 0.29 0.01 0.05 0.03 0.06 0.42 0.46 0.60 0.36 0.34 0.35 0.47 0.59 0.83 0.88 1.33 1.64 1.27 1.16 0.93 1.07 2.15 1.83 2.28 3.04 3.27 2.06 1.67 0.78 0.38 0.06 0.07 0.10 0.05 0.05 0.00 0.00 0.00 0.00 0.00 0.00 0.00 0.00
0.00 0.00 0.00 0.00 0.00 0.00 0.00 0.07 0.15 0.09 0.10 0.21 0.45 0.47 0.33 0.41 0.53 0.49 0.64 0.48 0.50 0.70 0.89 0.91 0.51 0.66 0.98 0.93 1.12 1.40 1.41 3.00 2.71 2.04 1.26 0.36 0.17 0.16 0.16 0.10 0.02 0.00 0.00 0.00 0.00 0.00 0.00 0.00 0.00
0.00 0.00 0.00 0.00 0.01 0.00 0.01 0.09 0.11 0.01 0.05 0.22 0.39 0.26 0.25 0.29 0.59 1.26 0.48 0.53 0.77 0.73 0.82 0.81 0.67 0.64 0.57 0.33 0.43 1.12 0.93 1.68 2.63 2.00 1.14 0.44 0.22 0.17 0.08 0.04 0.01 0.00 0.00 0.00 0.00 0.00 0.00 0.00 0.00
0.00 0.00 0.00 0.00 0.00 0.00 0.00 0.18 0.02 0.11 0.13 0.30 0.94 0.29 0.16 0.19 0.16 0.42 0.54 0.43 0.73 0.72 0.90 0.66 0.63 0.65 0.53 0.36 0.35 0.82 0.83 0.94 1.90 1.41 0.66 0.42 0.17 0.06 0.10 0.10 0.02 0.00 0.00 0.00 0.00 0.00 0.00 0.00 0.00
0.00 0.00 0.00 0.04 0.02 0.00 0.02 0.06 0.02 0.16 0.27 0.40 0.34 0.16 0.04 0.04 0.11 0.15 0.28 0.19 0.27 0.53 0.60 0.47 0.69 0.73 0.69 0.47 0.54 0.72 0.80 0.79 0.94 0.76 0.62 0.31 0.17 0.16 0.16 0.11 0.04 0.00 0.00 0.00 0.00 0.00 0.00 0.00 0.00
0.00 0.00 0.00 0.05 0.01 0.00 0.01 0.13 0.25 0.31 0.13 0.33 0.47 0.10 0.03 0.00 0.02 0.03 0.04 0.05 0.16 0.20 0.44 0.64 0.86 1.18 1.11 0.46 0.57 0.66 0.71 0.76 0.73 0.47 0.39 0.23 0.21 0.17 0.11 0.06 0.02 0.01 0.00 0.00 0.00 0.00 0.00 0.00 0.00
0.00 0.00 0.00 0.00 0.00 0.00 0.00 0.00 0.03 0.15 0.27 0.39 0.29 0.04 0.00 0.00 0.01 0.02 0.02 0.02 0.08 0.18 0.30 0.59 0.92 1.09 1.33 1.20 1.45 1.19 0.83 0.72 0.61 0.36 0.27 0.22 0.19 0.13 0.07 0.04 0.01 0.00 0.00 0.00 0.00 0.00 0.00 0.00 0.00
0.00 0.00 0.00 0.00 0.00 0.00 0.00 0.00 0.00 0.02 0.06 0.06 0.05 0.02 0.01 0.00 0.00 0.00 0.01 0.03 0.04 0.07 0.29 0.67 1.07 1.58 2.74 1.92 1.09 0.61 0.57 0.62 0.47 0.41 0.26 0.23 0.14 0.07 0.03 0.02 0.01 0.02 0.00 0.00 0.00 0.00 0.00 0.00 0.00
0.00 0.00 0.00 0.00 0.00 0.00 0.00 0.00 0.00 0.00 0.01 0.03 0.04 0.03 0.01 0.00 0.00 0.01 0.01 0.04 0.03 0.16 0.49 0.75 0.83 0.94 0.82 0.38 0.34 0.33 0.43 0.63 0.54 0.46 0.25 0.21 0.11 0.05 0.05 0.01 0.00 0.00 0.00 0.00 0.00 0.00 0.00 0.00 0.00
0.00 0.00 0.00 0.00 0.00 0.00 0.00 0.00 0.00 0.00 0.00 0.00 0.01 0.01 0.00 0.00 0.00 0.01 0.05 0.11 0.18 0.33 0.37 0.23 0.09 0.06 0.10 0.11 0.15 0.16 0.19 0.37 0.40 0.43 0.32 0.20 0.10 0.04 0.05 0.01 0.01 0.00 0.00 0.00 0.00 0.00 0.00 0.00 0.00
0.00 0.00 0.00 0.00 0.00 0.00 0.00 0.00 0.00 0.00 0.01 0.01 0.01 0.00 0.00 0.00 0.00 0.04 0.06 0.07 0.06 0.04 0.10 0.05 0.04 0.03 0.03 0.05 0.08 0.15 0.09 0.13 0.26 0.41 0.31 0.16 0.10 0.08 0.06 0.05 0.01 0.02 0.01 0.00 0.00 0.00 0.00 0.00 0.00
0.01 0.00 0.00 0.00 0.00 0.02 0.00 0.00 0.01 0.00 0.00 0.00 0.01 0.01 0.01 0.00 0.01 0.01 0.00 0.01 0.01 0.06 0.03 0.06 0.10 0.05 0.04 0.02 0.03 0.05 0.06 0.06 0.12 0.11 0.10 0.09 0.07 0.06 0.05 0.06 0.03 0.03 0.02 0.02 0.01 0.02 0.02 0.02 0.02
0.01 0.00 0.00 0.00 0.00 0.01 0.02 0.00 0.02 0.00 0.00 0.00 0.00 0.00 0.00 0.00 0.00 0.00 0.00 0.01 0.03 0.04 0.06 0.10 0.09 0.10 0.12 0.07 0.08 0.08 0.08 0.12 0.12 0.06 0.05 0.06 0.06 0.08 0.07 0.06 0.07 0.05 0.06 0.09 0.09 0.06 0.08 0.09 0.08
0.00 0.00 0.00 0.00 0.00 0.00 0.01 0.02 0.01 0.01 0.01 0.03 0.02 0.00 0.00 0.00 0.01 0.00 0.01 0.00 0.01 0.03 0.03 0.07 0.12 0.16 0.19 0.18 0.14 0.17 0.22 0.15 0.10 0.14 0.14 0.06 0.09 0.09 0.10 0.08 0.10 0.08 0.07 0.14 0.19 0.20 0.16 0.11 0.10
0.00 0.00 0.01 0.11 0.05 0.02 0.05 0.05 0.03 0.00 0.00 0.01 0.01 0.00 0.00 0.01 0.01 0.00 0.00 0.01 0.03 0.04 0.07 0.15 0.16 0.19 0.21 0.18 0.27 0.20 0.18 0.13 0.08 0.09 0.07 0.07 0.16 0.19 0.11 0.10 0.12 0.11 0.14 0.13 0.16 0.18 0.20 0.25 0.42
0.01 0.00 0.04 0.09 0.05 0.06 0.05 0.01 0.00 0.00 0.00 0.00 0.00 0.00 0.00 0.00 0.00 0.00 0.01 0.03 0.06 0.05 0.12 0.28 0.31 0.24 0.23 0.23 0.26 0.26 0.13 0.10 0.13 0.06 0.11 0.09 0.09 0.13 0.29 0.17 0.16 0.21 0.21 0.29 0.41 0.53 0.65 0.82 1.02
0.01 0.02 0.00 0.00 0.02 0.03 0.00 0.00 0.00 0.00 0.00 0.00 0.00 0.00 0.00 0.00 0.00 0.00 0.01 0.04 0.05 0.06 0.10 0.20 0.21 0.11 0.15 0.17 0.16 0.18 0.18 0.12 0.15 0.14 0.10 0.25 0.25 0.20 0.23 0.25 0.28 0.39 0.47 0.59 0.74 0.87 0.94 0.95 0.94
0.00 0.00 0.00 0.00 0.00 0.02 0.00 0.01 0.01 0.01 0.00 0.00 0.00 0.00 0.00 0.00 0.00 0.00 0.00 0.02 0.04 0.05 0.11 0.16 0.10 0.06 0.02 0.01 0.07 0.12 0.17 0.21 0.20 0.28 0.40 0.55 0.41 0.36 0.41 0.62 0.84 0.88 0.88 0.78 0.80 0.87 0.89 0.79 0.73
0.00 0.00 0.00 0.00 0.00 0.04 0.08 0.02 0.00 0.01 0.00 0.00 0.00 0.00 0.00 0.00 0.00 0.00 0.00 0.00 0.02 0.06 0.11 0.17 0.19 0.15 0.14 0.15 0.16 0.12 0.12 0.25 0.46 0.51 0.84 0.70 0.67 0.88 1.19 1.41 1.31 1.15 1.05 1.04 1.07 1.02 0.94 0.79 0.58
0.00 0.00 0.01 0.01 0.02 0.01 0.03 0.01 0.00 0.00 0.00 0.00 0.01 0.00 0.00 0.00 0.00 0.00 0.00 0.01 0.03 0.06 0.08 0.06 0.23 0.45 0.32 0.28 0.30 0.29 0.42 0.67 0.98 0.96 1.10 1.36 1.64 1.54 1.55 1.40 1.22 1.06 0.89 0.84 0.87 0.79 0.64 0.50 0.31

GFSSGP_prec_precacc_099.txt.gz
Total_Precipitation_Accumulation
0.00 0.00 0.00 0.00 0.00 0.00 0.00 0.00 0.00 0.05 0.11 0.16 0.13 0.21 0.19 0.22 0.84 1.30 1.00 1.68 1.99 1.19 1.00 0.80 0.68 0.21 0.14 0.32 0.11 0.04 0.04 0.03 0.02 0.02 0.02 0.07 0.05 0.01 0.05 0.17 0.17 0.19 0.11 0.06 0.07 0.14 0.29 0.29 0.22
0.00 0.00 0.00 0.00 0.00 0.00 0.00 0.00 0.02 0.10 0.36 0.55 0.37 0.34 0.25 0.35 0.64 0.97 0.96 1.28 1.51 0.95 1.22 0.91 1.05 1.11 0.51 0.42 0.21 0.14 0.07 0.02 0.00 0.00 0.01 0.01 0.03 0.03 0.02 0.08 0.11 0.08 0.05 0.03 0.06 0.12 0.91 0.70 0.61
0.00 0.00 0.00 0.00 0.00 0.00 0.00 0.01 0.02 0.05 0.21 0.23 0.24 0.27 0.36 0.47 0.46 0.61 0.72 0.64 0.97 0.93 0.58 0.94 1.10 0.97 0.77 0.44 0.26 0.40 0.45 0.31 0.03 0.01 0.03 0.04 0.04 0.04 0.04 0.12 0.05 0.10 0.11 0.06 0.05 0.03 0.65 1.02 0.74
0.00 0.00 0.00 0.00 0.00 0.00 0.00 0.00 0.02 0.08 0.14 0.18 0.20 0.67 0.40 0.49 0.59 0.72 0.74 0.90 1.58 1.21 1.41 2.04 1.78 1.51 0.84 0.62 0.82 1.06 1.02 0.77 0.48 0.16 0.09 0.04 0.07 0.05 0.05 0.04 0.01 0.01 0.02 0.01 0.03 0.04 0.15 0.26 0.53
0.00 0.00 0.00 0.00 0.00 0.01 0.01 0.05 0.18 0.22 0.21 0.51 0.22 0.70 0.86 0.43 0.35 0.62 1.26 2.27 3.38 2.60 2.46 3.18 4.31 3.80 2.88 1.89 1.41 1.40 1.46 1.06 1.01 0.96 0.62 0.35 0.16 0.05 0.00 0.01 0.01 0.01 0.01 0.01 0.01 0.01 0.09 0.32 0.14
0.00 0.00 0.00 0.00 0.00 0.01 0.04 0.16 0.24 0.32 0.21 0.26 0.33 0.61 0.69 0.32 0.40 0.80 1.81 3.39 6.23 6.22 5.28 5.61 6.69 5.82 4.58 3.52 2.30 2.32 2.07 1.59 1.51 1.18 1.25 1.24 0.43 0.12 0.00 0.00 0.00 0.00 0.01 0.00 0.00 0.00 0.00 0.14 0.08
0.00 0.00 0.00 0.00 0.00 0.00 0.04 0.30 0.47 0.35 0.16 0.20 0.22 0.29 0.93 0.71 0.64 1.36 1.46 2.44 2.54 4.44 5.85 6.89 7.53 8.33 7.50 4.24 3.27 3.28 3.27 2.53 2.06 1.85 1.47 1.41 0.89 0.33 0.02 0.00 0.00 0.00 0.00 0.00 0.00 0.00 0.01 0.01 0.01
0.00 0.00 0.00 0.00 0.00 0.03 0.10 0.11 0.15 0.08 0.10 0.21 0.16 0.80 1.24 1.02 0.64 0.85 1.08 1.79 2.04 2.47 3.24 3.59 3.72 7.19 11.78 7.98 4.99 3.99 3.22 2.68 1.88 1.99 1.37 0.99 1.23 0.63 0.08 0.00 0.00 0.00 0.00 0.00 0.00 0.00 0.00 0.00 0.01
0.00 0.00 0.00 0.01 0.02 0.18 0.25 0.17 0.26 0.11 0.01 0.04 0.21 1.07 0.42 0.22 0.31 0.49 0.93 1.88 2.77 2.72 2.37 1.88 2.59 3.36 5.95 9.66 6.48 5.07 3.86 2.25 2.07 1.54 1.15 0.91 0.78 0.50 0.11 0.00 0.00 0.00 0.00 0.00 0.00 0.00 0.00 0.00 0.00
0.00 0.00 0.00 0.03 0.08 0.25 0.33 0.04 0.18 0.07 0.03 0.19 0.63 1.02 0.34 0.21 0.24 0.38 0.89 1.51 1.86 1.93 2.26 1.84 1.27 1.32 1.96 4.35 4.16 4.47 4.45 2.44 1.84 1.30 0.99 0.91 0.75 0.25 0.07 0.00 0.00 0.00 0.00 0.00 0.00 0.00 0.00 0.00 0.00
0.00 0.00 0.00 0.00 0.06 0.10 0.29 0.01 0.05 0.03 0.06 0.42 0.46 0.60 0.36 0.34 0.35 0.47 0.59 0.83 0.88 1.33 1.64 1.27 1.16 0.93 1.08 2.16 1.83 2.28 3.04 3.28 2.12 1.77 1.04 1.08 0.67 0.25 0.12 0.05 0.05 0.00 0.00 0.00 0.00 0.00 0.00 0.00 0.00
0.00 0.00 0.00 0.00 0.00 0.00 0.00 0.07 0.15 0.09 0.10 0.21 0.45 0.47 0.33 0.41 0.53 0.49 0.64 0.48 0.50 0.70 0.89 0.91 0.51 0.66 0.99 0.96 1.12 1.40 1.41 3.00 2.73 2.08 1.50 1.18 0.64 0.22 0.16 0.10 0.02 0.00 0.00 0.00 0.00 0.00 0.00 0.00 0.00
0.00 0.00 0.00 0.00 0.01 0.00 0.01 0.09 0.11 0.01 0.05 0.22 0.39 0.26 0.25 0.29 0.59 1.26 0.48 0.53 0.77 0.73 0.82 0.81 0.67 0.64 0.58 0.37 0.48 1.13 0.94 1.68 2.65 2.05 1.58 1.12 0.44 0.19 0.08 0.04 0.01 0.00 0.00 0.00 0.00 0.00 0.00 0.00 0.00
0.00 0.00 0.00 0.00 0.00 0.00 0.00 0.18 0.02 0.11 0.13 0.30 0.94 0.29 0.16 0.19 0.16 0.42 0.54 0.43 0.73 0.72 0.90 0.66 0.63 0.65 0.53 0.37 0.37 0.82 0.84 0.94 1.97 1.51 1.05 1.02 0.29 0.06 0.10 0.10 0.02 0.00 0.00 0.00 0.00 0.00 0.00 0.00 0.00
0.00 0.00 0.00 0.04 0.02 0.00 0.02 0.06 0.02 0.16 0.27 0.40 0.34 0.16 0.04 0.04 0.11 0.15 0.28 0.19 0.27 0.53 0.60 0.47 0.69 0.73 0.69 0.47 0.54 0.72 0.81 0.83 1.23 0.92 0.88 0.89 0.29 0.16 0.16 0.11 0.04 0.00 0.00 0.00 0.00 0.00 0.00 0.00 0.00
0.00 0.00 0.00 0.05 0.01 0.00 0.01 0.13 0.25 0.31 0.13 0.33 0.47 0.10 0.03 0.00 0.02 0.03 0.04 0.05 0.16 0.20 0.44 0.64 0.86 1.18 1.11 0.46 0.57 0.66 0.71 0.77 0.93 0.70 0.73 0.71 0.28 0.17 0.11 0.06 0.02 0.01 0.00 0.00 0.00 0.00 0.00 0.00 0.00
0.00 0.00 0.00 0.00 0.00 0.00 0.00 0.00 0.03 0.15 0.27 0.39 0.29 0.04 0.00 0.00 0.01 0.02 0.02 0.02 0.08 0.18 0.30 0.59 0.92 1.09 1.33 1.20 1.45 1.19 0.83 0.73 0.68 0.55 0.57 0.43 0.22 0.13 0.07 0.05 0.01 0.00 0.00 0.00 0.00 0.00 0.00 0.00 0.00
0.00 0.00 0.00 0.00 0.00 0.00 0.00 0.00 0.00 0.02 0.06 0.06 0.05 0.02 0.01 0.00 0.00 0.00 0.01 0.03 0.04 0.07 0.29 0.67 1.07 1.58 2.74 1.92 1.09 0.61 0.57 0.62 0.53 0.54 0.40 0.44 0.17 0.08 0.04 0.03 0.03 0.04 0.00 0.00 0.00 0.00 0.00 0.00 0.00
0.00 0.00 0.00 0.00 0.00 0.00 0.00 0.00 0.00 0.00 0.01 0.03 0.04 0.03 0.01 0.00 0.00 0.01 0.01 0.04 0.03 0.16 0.49 0.75 0.83 0.94 0.82 0.38 0.34 0.33 0.44 0.64 0.56 0.53 0.29 0.36 0.19 0.08 0.05 0.01 0.02 0.04 0.00 0.00 0.00 0.00 0.00 0.00 0.00
0.00 0.00 0.00 0.00 0.00 0.00 0.00 0.00 0.00 0.00 0.00 0.00 0.01 0.01 0.00 0.00 0.00 0.01 0.05 0.11 0.18 0.33 0.37 0.23 0.09 0.06 0.10 0.11 0.15 0.16 0.19 0.40 0.43 0.46 0.41 0.30 0.17 0.07 0.05 0.01 0.01 0.04 0.01 0.00 0.00 0.00 0.00 0.00 0.00
0.00 0.00 0.00 0.00 0.00 0.00 0.00 0.00 0.00 0.00 0.01 0.01 0.01 0.00 0.00 0.00 0.00 0.04 0.06 0.07 0.06 0.04 0.10 0.05 0.04 0.03 0.03 0.05 0.09 0.16 0.09 0.16 0.31 0.53 0.46 0.33 0.17 0.10 0.07 0.05 0.01 0.03 0.01 0.01 0.00 0.00 0.00 0.00 0.00
0.01 0.00 0.00 0.00 0.00 0.02 0.00 0.00 0.01 0.00 0.00 0.00 0.01 0.01 0.01 0.00 0.01 0.01 0.00 0.01 0.01 0.06 0.03 0.06 0.10 0.05 0.05 0.02 0.04 0.06 0.07 0.09 0.16 0.16 0.21 0.26 0.14 0.08 0.06 0.06 0.03 0.03 0.02 0.03 0.01 0.02 0.02 0.02 0.02
0.01 0.00 0.00 0.00 0.00 0.01 0.02 0.00 0.02 0.00 0.00 0.00 0.00 0.00 0.00 0.00 0.00 0.00 0.00 0.01 0.03 0.04 0.06 0.10 0.09 0.11 0.12 0.07 0.08 0.08 0.08 0.15 0.16 0.08 0.07 0.14 0.13 0.13 0.10 0.08 0.08 0.06 0.07 0.09 0.09 0.06 0.08 0.09 0.08
0.00 0.00 0.00 0.00 0.00 0.00 0.01 0.02 0.01 0.01 0.01 0.03 0.02 0.00 0.00 0.00 0.01 0.00 0.01 0.00 0.01 0.03 0.03 0.07 0.12 0.16 0.19 0.18 0.14 0.17 0.22 0.15 0.11 0.16 0.15 0.07 0.11 0.11 0.11 0.09 0.11 0.09 0.08 0.15 0.20 0.21 0.16 0.11 0.11
0.00 0.00 0.01 0.11 0.05 0.02 0.05 0.05 0.03 0.00 0.00 0.01 0.01 0.00 0.00 0.01 0.01 0.00 0.00 0.01 0.03 0.04 0.07 0.15 0.17 0.20 0.21 0.19 0.27 0.20 0.18 0.13 0.08 0.09 0.07 0.08 0.19 0.21 0.12 0.10 0.12 0.12 0.14 0.13 0.16 0.19 0.20 0.26 0.43
0.01 0.00 0.04 0.09 0.06 0.06 0.06 0.01 0.00 0.00 0.00 0.00 0.00 0.00 0.00 0.00 0.00 0.00 0.01 0.03 0.06 0.05 0.12 0.28 0.31 0.25 0.23 0.24 0.27 0.26 0.13 0.10 0.13 0.06 0.11 0.10 0.10 0.14 0.30 0.17 0.16 0.21 0.21 0.30 0.42 0.54 0.66 0.84 1.03
0.01 0.02 0.00 0.00 0.02 0.04 0.01 0.00 0.00 0.00 0.00 0.00 0.00 0.00 0.00 0.00 0.00 0.00 0.01 0.04 0.05 0.06 0.10 0.20 0.21 0.11 0.16 0.17 0.16 0.18 0.18 0.12 0.15 0.14 0.10 0.25 0.25 0.20 0.23 0.25 0.28 0.39 0.48 0.59 0.76 0.88 0.96 0.97 0.96
0.00 0.00 0.00 0.00 0.00 0.02 0.00 0.01 0.01 0.01 0.00 0.00 0.00 0.00 0.00 0.00 0.00 0.00 0.00 0.02 0.04 0.05 0.11 0.16 0.10 0.06 0.02 0.01 0.07 0.12 0.17 0.21 0.20 0.28 0.40 0.55 0.41 0.36 0.41 0.62 0.84 0.88 0.88 0.79 0.80 0.87 0.90 0.81 0.74
0.00 0.00 0.00 0.00 0.00 0.04 0.08 0.02 0.00 0.01 0.00 0.00 0.00 0.00 0.00 0.00 0.00 0.00 0.00 0.00 0.02 0.06 0.11 0.17 0.19 0.15 0.14 0.15 0.16 0.12 0.12 0.25 0.46 0.51 0.84 0.70 0.67 0.88 1.19 1.41 1.31 1.15 1.05 1.04 1.07 1.02 0.95 0.80 0.58
0.00 0.00 0.01 0.02 0.02 0.01 0.03 0.01 0.00 0.00 0.00 0.00 0.01 0.00 0.00 0.00 0.00 0.00 0.00 0.01 0.03 0.06 0.08 0.06 0.23 0.45 0.32 0.28 0.30 0.29 0.42 0.67 0.98 0.96 1.10 1.36 1.64 1.54 1.55 1.40 1.22 1.06 0.89 0.84 0.88 0.79 0.65 0.50 0.31

GFSSGP_prec_precacc_105.txt.gz
Total_Precipitation_Accumulation
0.00 0.00 0.00 0.00 0.00 0.00 0.00 0.00 0.00 0.05 0.11 0.16 0.13 0.21 0.19 0.22 0.84 1.30 1.00 1.68 1.99 1.19 1.00 0.80 0.68 0.21 0.14 0.32 0.11 0.04 0.04 0.04 0.02 0.02 0.02 0.07 0.05 0.01 0.05 0.17 0.17 0.19 0.11 0.06 0.07 0.16 0.31 0.30 0.22
0.00 0.00 0.00 0.00 0.00 0.00 0.00 0.00 0.02 0.10 0.36 0.55 0.37 0.34 0.25 0.35 0.64 0.97 0.96 1.28 1.51 0.95 1.22 0.91 1.05 1.11 0.51 0.42 0.21 0.14 0.07 0.02 0.00 0.00 0.01 0.01 0.03 0.03 0.02 0.08 0.11 0.08 0.05 0.04 0.07 0.14 0.93 0.71 0.61
0.00 0.00 0.00 0.00 0.00 0.00 0.00 0.01 0.02 0.05 0.21 0.23 0.24 0.27 0.36 0.47 0.46 0.61 0.72 0.64 0.97 0.93 0.58 0.94 1.10 0.97 0.77 0.44 0.26 0.40 0.45 0.31 0.03 0.01 0.03 0.04 0.04 0.04 0.04 0.12 0.06 0.11 0.11 0.07 0.08 0.06 0.67 1.02 0.74
0.00 0.00 0.00 0.00 0.00 0.00 0.00 0.00 0.02 0.08 0.14 0.18 0.20 0.67 0.40 0.49 0.59 0.72 0.74 0.90 1.58 1.21 1.41 2.04 1.78 1.51 0.84 0.62 0.82 1.07 1.04 0.77 0.49 0.20 0.20 0.14 0.16 0.11 0.08 0.04 0.01 0.01 0.03 0.04 0.06 0.06 0.16 0.26 0.53
0.00 0.00 0.00 0.00 0.00 0.01 0.01 0.05 0.18 0.22 0.21 0.51 0.22 0.70 0.86 0.43 0.35 0.62 1.26 2.27 3.38 2.60 2.46 3.18 4.31 3.80 2.88 1.89 1.41 1.42 1.62 1.26 1.09 1.33 1.34 0.90 0.49 0.47 0.21 0.06 0.02 0.02 0.04 0.05 0.04 0.03 0.09 0.32 0.14
0.00 0.00 0.00 0.00 0.00 0.01 0.04 0.16 0.24 0.32 0.21 0.26 0.33 0.61 0.69 0.32 0.40 0.80 1.81 3.39 6.23 6.22 5.28 5.61 6.69 5.82 4.58 3.52 2.31 2.32 2.10 1.74 1.67 1.51 1.97 2.21 0.90 0.84 0.54 0.17 0.07 0.02 0.04 0.06 0.03 0.01 0.01 0.14 0.08
0.00 0.00 0.00 0.00 0.00 0.00 0.04 0.30 0.47 0.35 0.16 0.20 0.22 0.29 0.93 0.71 0.64 1.36 1.46 2.44 2.54 4.44 5.85 6.89 7.53 8.33 7.50 4.24 3.28 3.29 3.28 2.61 2.24 2.09 1.89 2.07 1.41 1.14 0.82 0.30 0.14 0.04 0.01 0.02 0.01 0.01 0.01 0.01 0.01
0.00 0.00 0.00 0.00 0.00 0.03 0.10 0.11 0.15 0.08 0.10 0.21 0.16 0.80 1.24 1.02 0.64 0.85 1.08 1.79 2.04 2.47 3.24 3.59 3.72 7.19 11.78 7.98 5.02 4.13 3.68 3.27 2.35 2.31 1.65 1.10 1.38 1.48 1.33 0.51 0.21 0.06 0.01 0.01 0.00 0.00 0.00 0.00 0.01
0.00 0.00 0.00 0.01 0.02 0.18 0.25 0.17 0.26 0.11 0.01 0.04 0.21 1.07 0.42 0.22 0.31 0.49 0.93 1.88 2.77 2.72 2.37 1.88 2.59 3.36 5.95 9.66 6.50 5.14 4.06 2.62 2.35 1.94 1.46 1.02 0.84 0.83 0.78 0.45 0.26 0.11 0.01 0.00 0.00 0.00 0.00 0.00 0.00
0.00 0.00 0.00 0.03 0.08 0.25 0.33 0.04 0.18 0.07 0.03 0.19 0.63 1.02 0.34 0.21 0.24 0.38 0.89 1.51 1.86 1.93 2.26 1.84 1.27 1.32 1.96 4.35 4.16 4.49 4.52 2.62 2.09 1.58 1.16 1.00 0.78 0.45 0.35 0.24 0.17 0.14 0.01 0.00 0.00 0.00 0.00 0.00 0.00
0.00 0.00 0.00 0.00 0.06 0.10 0.29 0.01 0.05 0.03 0.06 0.42 0.46 0.60 0.36 0.34 0.35 0.47 0.59 0.83 0.88 1.33 1.64 1.27 1.16 0.93 1.08 2.16 1.83 2.29 3.05 3.30 2.23 1.89 1.12 1.11 0.72 0.36 0.35 0.19 0.15 0.11 0.02 0.00 0.00 0.00 0.00 0.00 0.00
0.00 0.00 0.00 0.00 0.00 0.00 0.00 0.07 0.15 0.09 0.10 0.21 0.45 0.47 0.33 0.41 0.53 0.49 0.64 0.48 0.50 0.70 0.89 0.91 0.51 0.66 0.99 0.96 1.12 1.40 1.41 3.03 2.76 2.11 1.53 1.20 0.76 0.30 0.24 0.12 0.03 0.01 0.00 0.00 0.00 0.00 0.00 0.00 0.00
0.00 0.00 0.00 0.00 0.01 0.00 0.01 0.09 0.11 0.01 0.05 0.22 0.39 0.26 0.25 0.29 0.59 1.26 0.48 0.53 0.77 0.73 0.82 0.81 0.67 0.64 0.58 0.37 0.48 1.14 0.94 1.71 2.71 2.09 1.62 1.17 0.62 0.24 0.10 0.04 0.02 0.01 0.00 0.00 0.00 0.00 0.00 0.00 0.00
0.00 0.00 0.00 0.00 0.00 0.00 0.00 0.18 0.02 0.11 0.13 0.30 0.94 0.29 0.16 0.19 0.16 0.42 0.54 0.43 0.73 0.72 0.90 0.66 0.63 0.65 0.53 0.37 0.37 0.83 0.84 0.95 2.02 1.58 1.10 1.21 0.47 0.12 0.11 0.10 0.02 0.00 0.00 0.00 0.00 0.00 0.00 0.00 0.00
0.00 0.00 0.00 0.04 0.02 0.00 0.02 0.06 0.02 0.16 0.27 0.40 0.34 0.16 0.04 0.04 0.11 0.15 0.28 0.19 0.27 0.53 0.60 0.47 0.69 0.73 0.69 0.47 0.54 0.73 0.81 0.83 1.26 1.03 1.00 1.19 0.51 0.24 0.17 0.11 0.04 0.01 0.00 0.00 0.00 0.00 0.00 0.00 0.00
0.00 0.00 0.00 0.05 0.01 0.00 0.01 0.13 0.25 0.31 0.13 0.33 0.47 0.10 0.03 0.00 0.02 0.03 0.04 0.05 0.16 0.20 0.44 0.64 0.86 1.18 1.11 0.46 0.57 0.67 0.71 0.78 1.02 0.84 0.90 1.24 0.57 0.28 0.13 0.07 0.02 0.01 0.00 0.00 0.00 0.00 0.00 0.00 0.00
0.00 0.00 0.00 0.00 0.00 0.00 0.00 0.00 0.03 0.15 0.27 0.39 0.29 0.04 0.00 0.00 0.01 0.02 0.02 0.02 0.08 0.18 0.30 0.59 0.92 1.09 1.33 1.20 1.45 1.20 0.84 0.74 0.81 0.66 0.74 1.26 0.60 0.24 0.09 0.05 0.01 0.00 0.00 0.00 0.00 0.00 0.00 0.00 0.00
0.00 0.00 0.00 0.00 0.00 0.00 0.00 0.00 0.00 0.02 0.06 0.06 0.05 0.02 0.01 0.00 0.00 0.00 0.01 0.03 0.04 0.07 0.29 0.67 1.07 1.58 2.74 1.92 1.09 0.61 0.59 0.63 0.68 0.71 0.60 1.13 0.56 0.14 0.07 0.03 0.03 0.04 0.00 0.00 0.00 0.00 0.00 0.00 0.00
0.00 0.00 0.00 0.00 0.00 0.00 0.00 0.00 0.00 0.00 0.01 0.03 0.04 0.03 0.01 0.00 0.00 0.01 0.01 0.04 0.03 0.16 0.49 0.75 0.83 0.94 0.82 0.38 0.34 0.33 0.45 0.65 0.73 0.82 0.51 0.95 0.64 0.14 0.07 0.01 0.02 0.04 0.00 0.00 0.00 0.00 0.00 0.00 0.00
0.00 0.00 0.00 0.00 0.00 0.00 0.00 0.00 0.00 0.00 0.00 0.00 0.01 0.01 0.00 0.00 0.00 0.01 0.05 0.11 0.18 0.33 0.37 0.23 0.09 0.06 0.10 0.11 0.15 0.16 0.19 0.41 0.47 1.05 0.72 0.71 0.71 0.17 0.08 0.02 0.01 0.04 0.01 0.00 0.00 0.00 0.00 0.00 0.00
0.00 0.00 0.00 0.00 0.00 0.00 0.00 0.00 0.00 0.00 0.01 0.01 0.01 0.00 0.00 0.00 0.00 0.04 0.06 0.07 0.06 0.04 0.10 0.05 0.04 0.03 0.03 0.05 0.09 0.16 0.10 0.18 0.32 1.01 1.03 0.64 0.56 0.29 0.12 0.07 0.01 0.03 0.01 0.01 0.00 0.00 0.00 0.00 0.00
0.01 0.00 0.00 0.00 0.00 0.02 0.00 0.00 0.01 0.00 0.00 0.00 0.01 0.01 0.01 0.00 0.01 0.01 0.00 0.01 0.01 0.06 0.03 0.06 0.10 0.05 0.05 0.02 0.04 0.06 0.08 0.10 0.18 0.42 0.62 0.60 0.39 0.32 0.17 0.10 0.04 0.04 0.03 0.03 0.02 0.02 0.02 0.02 0.02
0.01 0.00 0.00 0.00 0.00 0.01 0.02 0.00 0.02 0.00 0.00 0.00 0.00 0.00 0.00 0.00 0.00 0.00 0.00 0.01 0.03 0.04 0.06 0.10 0.09 0.11 0.12 0.07 0.08 0.09 0.09 0.17 0.19 0.30 0.54 0.50 0.40 0.32 0.30 0.21 0.14 0.10 0.09 0.11 0.10 0.06 0.08 0.09 0.08
0.00 0.00 0.00 0.00 0.00 0.00 0.01 0.02 0.01 0.01 0.01 0.03 0.02 0.00 0.00 0.00 0.01 0.00 0.01 0.00 0.01 0.03 0.03 0.07 0.12 0.16 0.19 0.18 0.14 0.18 0.23 0.16 0.13 0.22 0.56 0.50 0.40 0.27 0.26 0.29 0.25 0.18 0.17 0.21 0.25 0.23 0.16 0.11 0.11
0.00 0.00 0.01 0.11 0.05 0.02 0.05 0.05 0.03 0.00 0.00 0.01 0.01 0.00 0.00 0.01 0.01 0.00 0.00 0.01 0.03 0.04 0.07 0.15 0.17 0.20 0.21 0.19 0.27 0.21 0.18 0.13 0.08 0.10 0.14 0.37 0.44 0.37 0.26 0.26 0.30 0.26 0.27 0.30 0.27 0.28 0.21 0.26 0.43
0.01 0.00 0.04 0.09 0.06 0.06 0.06 0.02 0.01 0.01 0.00 0.00 0.00 0.00 0.00 0.00 0.00 0.00 0.01 0.03 0.06 0.05 0.12 0.28 0.31 0.25 0.23 0.24 0.27 0.26 0.13 0.10 0.13 0.06 0.11 0.12 0.18 0.29 0.49 0.35 0.31 0.39 0.39 0.51 0.63 0.73 0.79 0.86 1.04
0.01 0.02 0.00 0.00 0.02 0.04 0.01 0.00 0.00 0.00 0.00 0.00 0.00 0.00 0.00 0.00 0.00 0.00 0.01 0.04 0.05 0.06 0.10 0.20 0.21 0.11 0.16 0.18 0.16 0.18 0.18 0.12 0.15 0.14 0.11 0.26 0.31 0.35 0.46 0.48 0.44 0.56 0.67 0.78 0.96 1.07 1.16 1.07 0.99
0.00 0.00 0.00 0.00 0.00 0.02 0.00 0.01 0.02 0.02 0.01 0.00 0.00 0.00 0.00 0.00 0.00 0.00 0.00 0.02 0.04 0.05 0.11 0.16 0.10 0.06 0.02 0.02 0.07 0.12 0.17 0.21 0.20 0.28 0.40 0.55 0.44 0.48 0.53 0.74 0.98 1.03 1.08 0.94 0.96 1.02 1.03 0.91 0.78
0.00 0.00 0.00 0.00 0.00 0.04 0.08 0.02 0.00 0.01 0.01 0.02 0.01 0.00 0.01 0.02 0.02 0.01 0.00 0.01 0.03 0.07 0.11 0.17 0.19 0.15 0.14 0.15 0.17 0.12 0.12 0.25 0.46 0.51 0.84 0.70 0.68 0.93 1.28 1.48 1.38 1.20 1.09 1.09 1.10 1.07 0.99 0.83 0.60
0.00 0.00 0.01 0.02 0.02 0.01 0.03 0.01 0.00 0.00 0.00 0.02 0.04 0.01 0.00 0.00 0.01 0.01 0.01 0.04 0.07 0.09 0.08 0.06 0.23 0.45 0.32 0.28 0.30 0.29 0.42 0.67 0.98 0.96 1.10 1.36 1.64 1.55 1.58 1.46 1.29 1.07 0.89 0.84 0.88 0.79 0.65 0.50 0.31

GFSSGP_prec_precacc_108.txt.gz
Total_Precipitation_Accumulation
0.00 0.00 0.00 0.00 0.00 0.00 0.00 0.00 0.00 0.05 0.11 0.16 0.13 0.21 0.19 0.22 0.84 1.30 1.00 1.68 1.99 1.19 1.00 0.80 0.68 0.21 0.14 0.32 0.11 0.04 0.04 0.04 0.02 0.02 0.02 0.07 0.05 0.01 0.05 0.17 0.17 0.19 0.12 0.06 0.07 0.16 0.33 0.31 0.23
0.00 0.00 0.00 0.00 0.00 0.00 0.00 0.00 0.02 0.10 0.36 0.55 0.37 0.34 0.25 0.35 0.64 0.97 0.96 1.28 1.51 0.95 1.22 0.91 1.05 1.11 0.51 0.42 0.21 0.14 0.07 0.02 0.00 0.01 0.01 0.02 0.03 0.04 0.02 0.08 0.11 0.08 0.06 0.05 0.08 0.16 0.96 0.73 0.62
0.00 0.00 0.00 0.00 0.00 0.00 0.00 0.01 0.02 0.05 0.21 0.23 0.24 0.27 0.36 0.47 0.46 0.61 0.72 0.64 0.97 0.93 0.58 0.94 1.10 0.97 0.77 0.44 0.26 0.40 0.45 0.31 0.04 0.02 0.05 0.05 0.04 0.05 0.06 0.15 0.06 0.11 0.13 0.10 0.11 0.10 0.69 1.03 0.74
0.00 0.00 0.00 0.00 0.00 0.00 0.00 0.00 0.02 0.08 0.14 0.18 0.20 0.67 0.40 0.49 0.59 0.72 0.74 0.90 1.58 1.21 1.41 2.04 1.78 1.51 0.84 0.62 0.82 1.07 1.04 0.77 0.49 0.28 0.38 0.37 0.31 0.26 0.19 0.12 0.05 0.02 0.04 0.06 0.09 0.09 0.17 0.26 0.53
0.00 0.00 0.00 0.00 0.00 0.01 0.01 0.05 0.18 0.22 0.21 0.51 0.22 0.70 0.86 0.43 0.35 0.62 1.26 2.27 3.38 2.60 2.46 3.18 4.31 3.80 2.88 1.89 1.41 1.43 1.62 1.27 1.11 1.44 1.56 1.25 0.77 0.67 0.32 0.12 0.05 0.03 0.05 0.09 0.08 0.04 0.10 0.32 0.14
0.00 0.00 0.00 0.00 0.00 0.01 0.04 0.16 0.24 0.32 0.21 0.26 0.33 0.61 0.69 0.32 0.40 0.80 1.81 3.39 6.23 6.22 5.28 5.61 6.69 5.82 4.58 3.52 2.31 2.32 2.12 1.80 1.76 1.54 2.03 2.41 1.05 0.97 0.70 0.30 0.14 0.07 0.07 0.11 0.06 0.02 0.01 0.14 0.08
0.00 0.00 0.00 0.00 0.00 0.00 0.04 0.30 0.47 0.35 0.16 0.20 0.22 0.29 0.93 0.71 0.64 1.36 1.46 2.44 2.54 4.44 5.85 6.89 7.53 8.33 7.50 4.24 3.28 3.29 3.34 2.84 2.36 2.14 1.92 2.11 1.44 1.22 0.91 0.35 0.22 0.14 0.07 0.08 0.05 0.01 0.01 0.01 0.01
0.00 0.00 0.00 0.00 0.00 0.03 0.10 0.11 0.15 0.08 0.10 0.21 0.16 0.80 1.24 1.02 0.64 0.85 1.08 1.79 2.04 2.47 3.24 3.59 3.72 7.19 11.78 7.98 5.02 4.13 3.77 3.58 2.59 2.38 1.72 1.18 1.41 1.48 1.35 0.52 0.22 0.12 0.08 0.04 0.03 0.00 0.00 0.00 0.01
0.00 0.00 0.00 0.01 0.02 0.18 0.25 0.17 0.26 0.11 0.01 0.04 0.21 1.07 0.42 0.22 0.31 0.49 0.93 1.88 2.77 2.72 2.37 1.88 2.59 3.36 5.95 9.66 6.51 5.16 4.16 2.76 2.54 2.15 1.56 1.07 0.87 0.84 0.78 0.46 0.28 0.15 0.03 0.01 0.00 0.00 0.00 0.00 0.00
0.00 0.00 0.00 0.03 0.08 0.25 0.33 0.04 0.18 0.07 0.03 0.19 0.63 1.02 0.34 0.21 0.24 0.38 0.89 1.51 1.86 1.93 2.26 1.84 1.27 1.32 1.96 4.35 4.16 4.49 4.54 2.68 2.15 1.75 1.25 1.07 0.85 0.47 0.35 0.24 0.18 0.18 0.03 0.00 0.00 0.00 0.00 0.00 0.00
0.00 0.00 0.00 0.00 0.06 0.10 0.29 0.01 0.05 0.03 0.06 0.42 0.46 0.60 0.36 0.34 0.35 0.47 0.59 0.83 0.88 1.33 1.64 1.27 1.16 0.93 1.08 2.16 1.83 2.29 3.05 3.32 2.25 1.91 1.17 1.14 0.75 0.39 0.36 0.19 0.16 0.16 0.04 0.00 0.00 0.00 0.00 0.00 0.00
0.00 0.00 0.00 0.00 0.00 0.00 0.00 0.07 0.15 0.09 0.10 0.21 0.45 0.47 0.33 0.41 0.53 0.49 0.64 0.48 0.50 0.70 0.89 0.91 0.51 0.66 0.99 0.96 1.12 1.40 1.41 3.04 2.77 2.12 1.54 1.22 0.78 0.30 0.24 0.12 0.05 0.02 0.00 0.00 0.00 0.00 0.00 0.00 0.00
0.00 0.00 0.00 0.00 0.01 0.00 0.01 0.09 0.11 0.01 0.05 0.22 0.39 0.26 0.25 0.29 0.59 1.26 0.48 0.53 0.77 0.73 0.82 0.81 0.67 0.64 0.58 0.38 0.48 1.14 0.94 1.72 2.73 2.11 1.64 1.19 0.63 0.26 0.10 0.04 0.03 0.01 0.00 0.00 0.00 0.00 0.00 0.00 0.00
0.00 0.00 0.00 0.00 0.00 0.00 0.00 0.18 0.02 0.11 0.13 0.30 0.94 0.29 0.16 0.19 0.16 0.42 0.54 0.43 0.73 0.72 0.90 0.66 0.63 0.65 0.53 0.37 0.37 0.83 0.85 0.96 2.05 1.63 1.14 1.23 0.48 0.13 0.12 0.10 0.03 0.02 0.00 0.00 0.00 0.00 0.00 0.00 0.00
0.00 0.00 0.00 0.04 0.02 0.00 0.02 0.06 0.02 0.16 0.27 0.40 0.34 0.16 0.04 0.04 0.11 0.15 0.28 0.19 0.27 0.53 0.60 0.47 0.69 0.73 0.69 0.47 0.54 0.73 0.82 0.84 1.28 1.07 1.07 1.23 0.53 0.25 0.17 0.13 0.09 0.02 0.00 0.00 0.00 0.00 0.00 0.00 0.00
0.00 0.00 0.00 0.05 0.01 0.00 0.01 0.13 0.25 0.31 0.13 0.33 0.47 0.10 0.03 0.00 0.02 0.03 0.04 0.05 0.16 0.20 0.44 0.64 0.86 1.18 1.11 0.46 0.57 0.67 0.72 0.78 1.02 0.84 0.95 1.34 0.65 0.31 0.14 0.07 0.05 0.04 0.01 0.00 0.00 0.00 0.00 0.00 0.00
0.00 0.00 0.00 0.00 0.00 0.00 0.00 0.00 0.03 0.15 0.27 0.39 0.29 0.04 0.00 0.00 0.01 0.02 0.02 0.02 0.08 0.18 0.30 0.59 0.92 1.09 1.33 1.20 1.45 1.20 0.84 0.74 0.81 0.66 0.80 1.41 0.81 0.45 0.13 0.06 0.01 0.01 0.01 0.00 0.00 0.00 0.00 0.00 0.00
0.00 0.00 0.00 0.00 0.00 0.00 0.00 0.00 0.00 0.02 0.06 0.06 0.05 0.02 0.01 0.00 0.00 0.00 0.01 0.03 0.04 0.07 0.29 0.67 1.07 1.58 2.74 1.92 1.10 0.62 0.59 0.63 0.68 0.75 0.72 1.27 0.69 0.41 0.23 0.07 0.03 0.05 0.01 0.00 0.00 0.00 0.00 0.00 0.00
0.00 0.00 0.00 0.00 0.00 0.00 0.00 0.00 0.00 0.00 0.01 0.03 0.04 0.03 0.01 0.00 0.00 0.01 0.01 0.04 0.03 0.16 0.49 0.75 0.83 0.94 0.82 0.38 0.34 0.34 0.46 0.65 0.74 0.85 0.62 1.10 0.72 0.23 0.26 0.07 0.02 0.05 0.01 0.00 0.00 0.00 0.00 0.00 0.00
0.00 0.00 0.00 0.00 0.00 0.00 0.00 0.00 0.00 0.00 0.00 0.00 0.01 0.01 0.00 0.00 0.00 0.01 0.05 0.11 0.18 0.33 0.37 0.23 0.09 0.06 0.10 0.11 0.15 0.16 0.19 0.41 0.48 1.07 0.75 0.77 0.79 0.20 0.16 0.05 0.02 0.05 0.01 0.00 0.00 0.00 0.00 0.00 0.00
0.00 0.00 0.00 0.00 0.00 0.00 0.00 0.00 0.00 0.00 0.01 0.01 0.01 0.00 0.00 0.00 0.00 0.04 0.06 0.07 0.06 0.04 0.10 0.05 0.04 0.03 0.03 0.05 0.09 0.16 0.10 0.18 0.33 1.02 1.08 0.72 0.67 0.35 0.13 0.10 0.03 0.03 0.01 0.01 0.00 0.00 0.00 0.00 0.00
0.01 0.00 0.00 0.00 0.00 0.02 0.00 0.00 0.01 0.00 0.00 0.00 0.01 0.01 0.01 0.00 0.01 0.01 0.00 0.01 0.01 0.06 0.03 0.06 0.10 0.05 0.05 0.02 0.04 0.06 0.08 0.10 0.19 0.42 0.66 0.74 0.53 0.40 0.18 0.12 0.05 0.04 0.03 0.03 0.02 0.02 0.02 0.02 0.02
0.01 0.00 0.00 0.00 0.00 0.01 0.02 0.00 0.02 0.00 0.00 0.00 0.00 0.00 0.00 0.00 0.00 0.00 0.00 0.01 0.03 0.04 0.06 0.10 0.09 0.11 0.12 0.07 0.08 0.09 0.09 0.17 0.19 0.30 0.60 0.67 0.68 0.47 0.34 0.23 0.14 0.10 0.09 0.11 0.10 0.06 0.08 0.09 0.08
0.00 0.00 0.00 0.00 0.00 0.00 0.01 0.02 0.01 0.01 0.01 0.03 0.02 0.00 0.00 0.00 0.01 0.00 0.01 0.00 0.01 0.03 0.03 0.07 0.12 0.16 0.19 0.18 0.14 0.18 0.23 0.17 0.14 0.23 0.64 0.73 0.68 0.53 0.39 0.35 0.27 0.18 0.17 0.21 0.25 0.23 0.16 0.11 0.11
0.00 0.00 0.01 0.11 0.05 0.02 0.05 0.05 0.03 0.00 0.00 0.01 0.01 0.00 0.00 0.01 0.01 0.00 0.00 0.01 0.03 0.04 0.07 0.15 0.17 0.20 0.21 0.19 0.27 0.21 0.18 0.14 0.09 0.10 0.17 0.53 0.79 0.62 0.45 0.37 0.35 0.28 0.28 0.30 0.28 0.28 0.21 0.26 0.43
0.01 0.00 0.04 0.09 0.06 0.06 0.06 0.02 0.01 0.01 0.00 0.00 0.00 0.00 0.00 0.00 0.00 0.00 0.01 0.03 0.06 0.05 0.12 0.28 0.31 0.25 0.23 0.24 0.27 0.26 0.13 0.10 0.14 0.06 0.12 0.15 0.39 0.46 0.67 0.49 0.42 0.47 0.44 0.54 0.67 0.76 0.80 0.87 1.04
0.01 0.02 0.00 0.00 0.02 0.04 0.01 0.00 0.00 0.00 0.00 0.00 0.00 0.00 0.00 0.00 0.00 0.00 0.01 0.04 0.05 0.06 0.10 0.20 0.21 0.11 0.16 0.18 0.16 0.18 0.18 0.12 0.16 0.15 0.11 0.27 0.37 0.53 0.59 0.65 0.59 0.69 0.79 0.89 1.05 1.14 1.22 1.10 1.02
0.00 0.00 0.00 0.00 0.00 0.02 0.00 0.01 0.02 0.02 0.01 0.01 0.00 0.00 0.00 0.00 0.00 0.00 0.00 0.02 0.04 0.06 0.12 0.17 0.10 0.07 0.03 0.02 0.07 0.12 0.17 0.21 0.20 0.29 0.41 0.56 0.47 0.54 0.61 0.87 1.14 1.18 1.20 1.07 1.10 1.12 1.12 1.03 0.86
0.00 0.00 0.00 0.00 0.00 0.04 0.08 0.02 0.00 0.01 0.01 0.02 0.01 0.00 0.01 0.02 0.02 0.01 0.00 0.01 0.03 0.08 0.11 0.17 0.19 0.15 0.14 0.15 0.17 0.12 0.12 0.25 0.46 0.51 0.85 0.70 0.70 0.98 1.40 1.57 1.50 1.39 1.25 1.26 1.28 1.22 1.13 0.97 0.73
0.00 0.00 0.01 0.02 0.02 0.01 0.03 0.01 0.00 0.00 0.00 0.02 0.04 0.01 0.00 0.00 0.01 0.01 0.02 0.04 0.09 0.12 0.11 0.07 0.23 0.45 0.32 0.28 0.30 0.29 0.42 0.67 0.98 0.96 1.11 1.36 1.65 1.56 1.63 1.57 1.39 1.22 1.05 0.95 1.05 0.94 0.76 0.60 0.41

GFSSGP_prec_precacc_111.txt.gz
Total_Precipitation_Accumulation
0.00 0.00 0.00 0.00 0.00 0.00 0.00 0.00 0.00 0.05 0.11 0.16 0.13 0.21 0.19 0.22 0.84 1.30 1.00 1.68 1.99 1.19 1.00 0.80 0.68 0.22 0.14 0.32 0.11 0.04 0.04 0.04 0.02 0.02 0.02 0.07 0.05 0.01 0.05 0.18 0.17 0.19 0.12 0.06 0.07 0.16 0.34 0.31 0.23
0.00 0.00 0.00 0.00 0.00 0.00 0.00 0.00 0.02 0.10 0.36 0.55 0.37 0.34 0.25 0.35 0.64 0.97 0.96 1.28 1.51 0.95 1.22 0.91 1.05 1.11 0.52 0.42 0.21 0.14 0.07 0.02 0.01 0.11 0.10 0.05 0.03 0.04 0.03 0.08 0.12 0.08 0.06 0.05 0.09 0.17 0.97 0.73 0.63
0.00 0.00 0.00 0.00 0.00 0.00 0.00 0.01 0.02 0.05 0.21 0.23 0.24 0.27 0.36 0.47 0.46 0.61 0.72 0.64 0.97 0.93 0.58 0.94 1.10 0.97 0.77 0.44 0.26 0.40 0.45 0.31 0.07 0.06 0.10 0.13 0.08 0.08 0.09 0.16 0.06 0.12 0.13 0.13 0.14 0.13 0.69 1.04 0.79
0.00 0.00 0.00 0.00 0.00 0.00 0.00 0.00 0.02 0.08 0.14 0.18 0.20 0.67 0.40 0.49 0.59 0.72 0.74 0.90 1.58 1.21 1.41 2.04 1.78 1.51 0.84 0.62 0.82 1.07 1.05 0.79 0.49 0.39 0.59 0.67 0.65 0.52 0.46 0.27 0.12 0.12 0.10 0.09 0.12 0.11 0.18 0.27 0.53
0.00 0.00 0.00 0.00 0.00 0.01 0.01 0.05 0.18 0.22 0.21 0.51 0.22 0.70 0.86 0.43 0.35 0.62 1.26 2.27 3.38 2.60 2.46 3.18 4.31 3.80 2.88 1.90 1.41 1.43 1.64 1.32 1.21 1.52 1.63 1.55 1.37 0.98 0.50 0.22 0.12 0.08 0.08 0.13 0.12 0.05 0.10 0.32 0.14
0.00 0.00 0.00 0.00 0.00 0.01 0.04 0.16 0.24 0.32 0.21 0.26 0.33 0.61 0.69 0.32 0.40 0.80 1.81 3.39 6.23 6.22 5.28 5.61 6.69 5.82 4.58 3.52 2.31 2.32 2.14 1.88 1.89 1.58 2.03 2.42 1.11 1.00 0.71 0.34 0.18 0.10 0.09 0.18 0.14 0.03 0.01 0.14 0.08
0.00 0.00 0.00 0.00 0.00 0.00 0.04 0.30 0.47 0.35 0.16 0.20 0.22 0.29 0.93 0.71 0.64 1.36 1.46 2.44 2.54 4.44 5.85 6.89 7.53 8.33 7.50 4.24 3.28 3.30 3.37 2.92 2.39 2.14 1.92 2.11 1.44 1.22 0.92 0.36 0.23 0.15 0.08 0.14 0.16 0.05 0.01 0.01 0.01
0.00 0.00 0.00 0.00 0.00 0.03 0.10 0.11 0.15 0.08 0.10 0.21 0.16 0.80 1.24 1.02 0.64 0.85 1.08 1.79 2.04 2.47 3.24 3.59 3.72 7.19 11.78 7.98 5.02 4.13 3.79 3.59 2.59 2.38 1.74 1.20 1.42 1.48 1.36 0.54 0.23 0.14 0.09 0.09 0.15 0.05 0.06 0.03 0.01
0.00 0.00 0.00 0.01 0.02 0.18 0.25 0.17 0.26 0.11 0.01 0.04 0.21 1.07 0.42 0.22 0.31 0.49 0.93 1.88 2.77 2.72 2.37 1.88 2.59 3.36 5.95 9.66 6.51 5.16 4.19 2.77 2.60 2.22 1.61 1.07 0.87 0.84 0.80 0.47 0.28 0.15 0.04 0.03 0.03 0.02 0.03 0.01 0.00
0.00 0.00 0.00 0.03 0.08 0.25 0.33 0.04 0.18 0.07 0.03 0.19 0.63 1.02 0.34 0.21 0.24 0.38 0.89 1.51 1.86 1.93 2.26 1.84 1.27 1.32 1.96 4.35 4.17 4.50 4.55 2.69 2.15 1.77 1.26 1.07 0.85 0.49 0.37 0.26 0.20 0.22 0.04 0.00 0.01 0.00 0.00 0.00 0.00
0.00 0.00 0.00 0.00 0.06 0.10 0.29 0.01 0.05 0.03 0.06 0.42 0.46 0.60 0.36 0.34 0.35 0.47 0.59 0.83 0.88 1.33 1.64 1.27 1.16 0.93 1.08 2.16 1.84 2.29 3.06 3.33 2.26 1.92 1.17 1.14 0.75 0.39 0.37 0.20 0.20 0.32 0.18 0.02 0.03 0.00 0.00 0.00 0.00
0.00 0.00 0.00 0.00 0.00 0.00 0.00 0.07 0.15 0.09 0.10 0.21 0.45 0.47 0.33 0.41 0.53 0.49 0.64 0.48 0.50 0.70 0.89 0.91 0.51 0.66 0.99 0.96 1.13 1.41 1.42 3.05 2.81 2.15 1.56 1.23 0.78 0.30 0.24 0.13 0.06 0.06 0.14 0.05 0.02 0.00 0.00 0.00 0.00
0.00 0.00 0.00 0.00 0.01 0.00 0.01 0.09 0.11 0.01 0.05 0.22 0.39 0.26 0.25 0.29 0.59 1.26 0.48 0.53 0.77 0.73 0.82 0.81 0.67 0.64 0.58 0.38 0.48 1.14 0.95 1.72 2.76 2.17 1.68 1.21 0.63 0.26 0.11 0.05 0.04 0.02 0.03 0.04 0.03 0.00 0.00 0.00 0.00
0.00 0.00 0.00 0.00 0.00 0.00 0.00 0.18 0.02 0.11 0.13 0.30 0.94 0.29 0.16 0.19 0.16 0.42 0.54 0.43 0.73 0.72 0.90 0.66 0.63 0.65 0.53 0.38 0.37 0.83 0.85 0.97 2.07 1.68 1.17 1.25 0.50 0.14 0.13 0.10 0.03 0.03 0.04 0.03 0.01 0.00 0.00 0.00 0.00
0.00 0.00 0.00 0.04 0.02 0.00 0.02 0.06 0.02 0.16 0.27 0.40 0.34 0.16 0.04 0.04 0.11 0.15 0.28 0.19 0.27 0.53 0.60 0.47 0.69 0.73 0.69 0.47 0.54 0.73 0.83 0.85 1.31 1.11 1.09 1.27 0.56 0.27 0.18 0.13 0.09 0.02 0.01 0.01 0.00 0.00 0.00 0.00 0.00
0.00 0.00 0.00 0.05 0.01 0.00 0.01 0.13 0.25 0.31 0.13 0.33 0.47 0.10 0.03 0.00 0.02 0.03 0.04 0.05 0.16 0.20 0.44 0.64 0.86 1.18 1.11 0.46 0.58 0.67 0.72 0.78 1.02 0.86 0.98 1.37 0.68 0.33 0.15 0.08 0.06 0.05 0.02 0.00 0.00 0.00 0.00 0.00 0.00
0.00 0.00 0.00 0.00 0.00 0.00 0.00 0.00 0.03 0.15 0.27 0.39 0.29 0.04 0.00 0.00 0.01 0.02 0.02 0.02 0.08 0.18 0.30 0.59 0.92 1.09 1.33 1.20 1.45 1.21 0.84 0.74 0.81 0.67 0.81 1.43 0.93 0.59 0.17 0.06 0.01 0.02 0.03 0.00 0.00 0.00 0.00 0.00 0.00
0.00 0.00 0.00 0.00 0.00 0.00 0.00 0.00 0.00 0.02 0.06 0.06 0.05 0.02 0.01 0.00 0.00 0.00 0.01 0.03 0.04 0.07 0.29 0.67 1.07 1.58 2.74 1.92 1.10 0.62 0.60 0.64 0.68 0.75 0.72 1.30 0.82 0.71 0.60 0.19 0.04 0.06 0.03 0.00 0.00 0.00 0.00 0.00 0.00
0.00 0.00 0.00 0.00 0.00 0.00 0.00 0.00 0.00 0.00 0.01 0.03 0.04 0.03 0.01 0.00 0.00 0.01 0.01 0.04 0.03 0.16 0.49 0.75 0.83 0.94 0.82 0.38 0.34 0.35 0.47 0.65 0.74 0.85 0.62 1.17 0.96 0.55 0.67 0.60 0.16 0.07 0.02 0.00 0.00 0.00 0.00 0.00 0.00
0.00 0.00 0.00 0.00 0.00 0.00 0.00 0.00 0.00 0.00 0.00 0.00 0.01 0.01 0.00 0.00 0.00 0.01 0.05 0.11 0.18 0.33 0.37 0.23 0.09 0.06 0.10 0.11 0.15 0.16 0.20 0.42 0.48 1.07 0.76 0.79 0.87 0.32 0.32 0.28 0.20 0.14 0.03 0.01 0.00 0.00 0.00 0.00 0.00
0.00 0.00 0.00 0.00 0.00 0.00 0.00 0.00 0.00 0.00 0.01 0.01 0.01 0.00 0.00 0.00 0.00 0.04 0.06 0.07 0.06 0.04 0.10 0.05 0.04 0.03 0.03 0.05 0.09 0.16 0.11 0.18 0.33 1.02 1.09 0.74 0.71 0.45 0.23 0.16 0.11 0.15 0.04 0.01 0.00 0.00 0.00 0.00 0.00
0.01 0.00 0.00 0.00 0.00 0.02 0.00 0.00 0.01 0.00 0.00 0.00 0.01 0.01 0.01 0.00 0.01 0.01 0.00 0.01 0.01 0.06 0.03 0.06 0.10 0.05 0.05 0.02 0.04 0.06 0.09 0.11 0.19 0.42 0.66 0.75 0.56 0.51 0.30 0.21 0.12 0.11 0.04 0.03 0.02 0.02 0.02 0.02 0.02
0.01 0.00 0.00 0.00 0.00 0.01 0.02 0.00 0.02 0.00 0.00 0.00 0.00 0.00 0.00 0.00 0.00 0.00 0.00 0.01 0.03 0.04 0.06 0.10 0.09 0.11 0.12 0.07 0.08 0.09 0.09 0.17 0.19 0.30 0.61 0.68 0.71 0.62 0.50 0.33 0.24 0.13 0.11 0.11 0.10 0.06 0.08 0.09 0.08
0.00 0.00 0.00 0.00 0.00 0.00 0.01 0.02 0.01 0.01 0.01 0.03 0.02 0.00 0.00 0.00 0.01 0.00 0.01 0.00 0.01 0.03 0.03 0.07 0.12 0.16 0.19 0.18 0.14 0.18 0.23 0.17 0.14 0.23 0.64 0.74 0.73 0.74 0.62 0.46 0.35 0.21 0.19 0.22 0.25 0.23 0.16 0.11 0.11
0.00 0.00 0.01 0.11 0.05 0.02 0.05 0.05 0.03 0.00 0.00 0.01 0.01 0.00 0.00 0.01 0.01 0.00 0.00 0.01 0.03 0.04 0.07 0.15 0.17 0.20 0.21 0.19 0.27 0.21 0.18 0.14 0.09 0.10 0.17 0.54 0.89 0.80 0.72 0.48 0.42 0.32 0.29 0.30 0.28 0.28 0.21 0.26 0.43
0.01 0.00 0.04 0.09 0.06 0.06 0.06 0.02 0.01 0.01 0.00 0.00 0.00 0.00 0.00 0.00 0.00 0.00 0.01 0.03 0.06 0.05 0.12 0.28 0.31 0.25 0.23 0.24 0.27 0.26 0.13 0.10 0.14 0.06 0.12 0.16 0.47 0.62 0.91 0.69 0.48 0.49 0.45 0.54 0.67 0.76 0.80 0.87 1.04
0.01 0.02 0.00 0.00 0.02 0.04 0.01 0.00 0.00 0.00 0.00 0.00 0.00 0.00 0.00 0.00 0.00 0.00 0.01 0.04 0.05 0.06 0.10 0.21 0.21 0.11 0.16 0.18 0.16 0.18 0.18 0.12 0.16 0.15 0.11 0.28 0.41 0.73 0.79 0.95 0.74 0.74 0.81 0.89 1.06 1.14 1.22 1.10 1.02
0.00 0.00 0.00 0.00 0.00 0.02 0.00 0.01 0.02 0.02 0.01 0.01 0.00 0.00 0.00 0.00 0.00 0.00 0.00 0.02 0.04 0.06 0.12 0.17 0.10 0.07 0.03 0.02 0.07 0.12 0.17 0.21 0.21 0.29 0.41 0.56 0.50 0.69 0.78 1.07 1.33 1.31 1.30 1.12 1.14 1.15 1.13 1.03 0.86
0.00 0.00 0.00 0.00 0.00 0.04 0.08 0.02 0.00 0.01 0.01 0.02 0.01 0.00 0.01 0.02 0.02 0.01 0.00 0.01 0.03 0.08 0.13 0.18 0.20 0.17 0.16 0.16 0.17 0.12 0.12 0.25 0.46 0.51 0.85 0.71 0.71 1.04 1.52 1.63 1.61 1.55 1.44 1.36 1.33 1.26 1.16 0.98 0.75
0.01 0.00 0.01 0.02 0.02 0.01 0.03 0.01 0.00 0.00 0.00 0.02 0.04 0.01 0.00 0.00 0.01 0.01 0.02 0.05 0.10 0.12 0.12 0.09 0.29 0.49 0.32 0.28 0.30 0.29 0.42 0.67 0.98 0.96 1.11 1.37 1.66 1.60 1.74 1.76 1.53 1.36 1.25 1.12 1.10 0.96 0.80 0.64 0.44

GFSSGP_prec_precacc_114.txt.gz
Total_Precipitation_Accumulation
0.00 0.00 0.00 0.00 0.00 0.00 0.00 0.00 0.00 0.05 0.11 0.16 0.13 0.21 0.19 0.22 0.84 1.30 1.00 1.68 1.99 1.19 1.00 0.80 0.68 0.22 0.14 0.32 0.11 0.04 0.04 0.04 0.02 0.02 0.03 0.07 0.06 0.01 0.05 0.18 0.18 0.20 0.12 0.07 0.08 0.17 0.36 0.32 0.26
0.00 0.00 0.00 0.00 0.00 0.00 0.00 0.00 0.02 0.10 0.36 0.55 0.37 0.34 0.25 0.35 0.64 0.97 0.96 1.28 1.51 0.95 1.22 0.91 1.05 1.11 0.52 0.42 0.21 0.14 0.07 0.02 0.01 0.11 0.11 0.22 0.06 0.07 0.12 0.11 0.12 0.09 0.07 0.06 0.09 0.19 0.99 0.74 0.63
0.00 0.00 0.00 0.00 0.00 0.00 0.00 0.01 0.02 0.05 0.21 0.23 0.24 0.27 0.36 0.47 0.46 0.61 0.72 0.64 0.97 0.93 0.58 0.94 1.10 0.97 0.77 0.45 0.26 0.40 0.46 0.32 0.07 0.07 0.16 0.19 0.20 0.24 0.27 0.37 0.08 0.12 0.14 0.17 0.20 0.17 0.70 1.05 0.79
0.00 0.00 0.00 0.00 0.00 0.00 0.00 0.00 0.02 0.08 0.14 0.18 0.20 0.67 0.40 0.49 0.59 0.72 0.74 0.90 1.58 1.21 1.41 2.04 1.78 1.51 0.84 0.62 0.82 1.07 1.06 0.81 0.54 0.43 0.62 0.78 1.04 1.07 0.88 0.64 0.26 0.16 0.23 0.20 0.20 0.12 0.18 0.27 0.53
0.00 0.00 0.00 0.00 0.00 0.01 0.01 0.05 0.18 0.22 0.21 0.51 0.22 0.70 0.86 0.43 0.35 0.62 1.26 2.27 3.38 2.60 2.46 3.18 4.31 3.80 2.88 1.90 1.41 1.43 1.64 1.33 1.35 1.72 1.71 1.67 1.59 1.96 1.11 0.55 0.49 0.16 0.13 0.15 0.17 0.08 0.11 0.34 0.16
0.00 0.00 0.00 0.00 0.00 0.01 0.04 0.16 0.24 0.32 0.21 0.26 0.33 0.61 0.69 0.32 0.40 0.80 1.81 3.39 6.23 6.22 5.28 5.61 6.69 5.82 4.58 3.52 2.31 2.32 2.14 1.88 1.91 1.65 2.08 2.42 1.12 1.02 0.72 0.38 0.23 0.13 0.09 0.19 0.17 0.06 0.04 0.20 0.12
0.00 0.00 0.00 0.00 0.00 0.00 0.04 0.30 0.47 0.35 0.16 0.20 0.22 0.29 0.93 0.71 0.64 1.36 1.46 2.44 2.54 4.44 5.85 6.89 7.53 8.33 7.50 4.24 3.28 3.30 3.37 2.92 2.39 2.15 1.94 2.11 1.44 1.22 0.94 0.40 0.23 0.15 0.08 0.14 0.19 0.10 0.11 0.06 0.03
0.00 0.00 0.00 0.00 0.00 0.03 0.10 0.11 0.15 0.08 0.10 0.21 0.16 0.80 1.24 1.02 0.64 0.85 1.08 1.79 2.04 2.47 3.24 3.59 3.72 7.19 11.78 7.98 5.02 4.13 3.79 3.59 2.59 2.38 1.74 1.23 1.43 1.49 1.36 0.54 0.23 0.14 0.09 0.09 0.16 0.10 0.13 0.11 0.05
0.00 0.00 0.00 0.01 0.02 0.18 0.25 0.17 0.26 0.11 0.01 0.04 0.21 1.07 0.42 0.22 0.31 0.49 0.93 1.88 2.77 2.72 2.37 1.88 2.59 3.36 5.96 9.66 6.51 5.17 4.19 2.77 2.60 2.22 1.64 1.11 0.92 0.87 0.81 0.47 0.28 0.15 0.04 0.03 0.07 0.06 0.08 0.06 0.04
0.00 0.00 0.00 0.03 0.08 0.25 0.33 0.04 0.18 0.07 0.03 0.19 0.63 1.02 0.34 0.21 0.24 0.38 0.89 1.51 1.86 1.93 2.26 1.84 1.27 1.32 1.96 4.35 4.17 4.51 4.56 2.70 2.15 1.78 1.27 1.08 0.87 0.49 0.37 0.26 0.20 0.23 0.05 0.01 0.06 0.13 0.07 0.09 0.02
0.00 0.00 0.00 0.00 0.06 0.10 0.29 0.01 0.05 0.03 0.06 0.42 0.46 0.60 0.36 0.34 0.35 0.47 0.59 0.83 0.88 1.33 1.64 1.27 1.16 0.93 1.08 2.16 1.84 2.30 3.07 3.34 2.28 1.95 1.20 1.16 0.77 0.40 0.38 0.20 0.22 0.41 0.25 0.05 0.06 0.05 0.03 0.04 0.02
0.00 0.00 0.00 0.00 0.00 0.00 0.00 0.07 0.15 0.09 0.10 0.21 0.45 0.47 0.33 0.41 0.53 0.49 0.64 0.48 0.50 0.70 0.89 0.91 0.51 0.66 0.99 0.96 1.13 1.41 1.43 3.06 2.82 2.17 1.59 1.25 0.79 0.31 0.25 0.14 0.07 0.13 0.30 0.13 0.06 0.03 0.03 0.03 0.01
0.00 0.00 0.00 0.00 0.01 0.00 0.01 0.09 0.11 0.01 0.05 0.22 0.39 0.26 0.25 0.29 0.59 1.26 0.48 0.53 0.77 0.73 0.82 0.81 0.67 0.64 0.58 0.38 0.48 1.15 0.95 1.73 2.78 2.24 1.73 1.24 0.69 0.28 0.12 0.05 0.05 0.06 0.15 0.17 0.11 0.04 0.02 0.01 0.00
0.00 0.00 0.00 0.00 0.00 0.00 0.00 0.18 0.02 0.11 0.13 0.30 0.94 0.29 0.16 0.19 0.16 0.42 0.54 0.43 0.73 0.72 0.90 0.66 0.63 0.65 0.53 0.38 0.37 0.83 0.86 0.98 2.09 1.72 1.20 1.27 0.57 0.19 0.15 0.13 0.04 0.08 0.08 0.11 0.05 0.03 0.01 0.00 0.00
0.00 0.00 0.00 0.04 0.02 0.00 0.02 0.06 0.02 0.16 0.27 0.40 0.34 0.16 0.04 0.04 0.11 0.15 0.28 0.19 0.27 0.53 0.60 0.47 0.69 0.73 0.69 0.48 0.54 0.73 0.83 0.85 1.32 1.12 1.11 1.29 0.59 0.32 0.21 0.16 0.13 0.04 0.04 0.04 0.03 0.02 0.02 0.00 0.00
0.00 0.00 0.00 0.05 0.01 0.00 0.01 0.13 0.25 0.31 0.13 0.33 0.47 0.10 0.03 0.00 0.02 0.03 0.04 0.05 0.16 0.20 0.44 0.64 0.86 1.18 1.11 0.46 0.58 0.67 0.72 0.79 1.03 0.87 0.99 1.38 0.69 0.34 0.17 0.12 0.11 0.08 0.02 0.01 0.01 0.01 0.01 0.00 0.00
0.00 0.00 0.00 0.00 0.00 0.00 0.00 0.00 0.03 0.15 0.27 0.39 0.29 0.04 0.00 0.00 0.01 0.02 0.02 0.02 0.08 0.18 0.30 0.59 0.92 1.09 1.33 1.20 1.45 1.21 0.85 0.74 0.82 0.67 0.82 1.46 0.94 0.62 0.19 0.10 0.08 0.04 0.05 0.01 0.00 0.01 0.01 0.00 0.00
0.00 0.00 0.00 0.00 0.00 0.00 0.00 0.00 0.00 0.02 0.06 0.06 0.05 0.02 0.01 0.00 0.00 0.00 0.01 0.03 0.04 0.07 0.29 0.67 1.07 1.58 2.74 1.92 1.10 0.62 0.60 0.64 0.69 0.75 0.73 1.31 0.84 0.74 0.73 0.33 0.15 0.08 0.05 0.02 0.00 0.01 0.01 0.00 0.00
0.00 0.00 0.00 0.00 0.00 0.00 0.00 0.00 0.00 0.00 0.01 0.03 0.04 0.03 0.01 0.00 0.00 0.01 0.01 0.04 0.03 0.16 0.49 0.75 0.83 0.94 0.82 0.38 0.34 0.35 0.47 0.66 0.75 0.86 0.63 1.17 0.96 0.61 0.85 0.93 0.34 0.11 0.04 0.01 0.00 0.01 0.01 0.00 0.00
0.00 0.00 0.00 0.00 0.00 0.00 0.00 0.00 0.00 0.00 0.00 0.00 0.01 0.01 0.00 0.00 0.00 0.01 0.05 0.11 0.18 0.33 0.37 0.23 0.09 0.06 0.10 0.11 0.15 0.16 0.20 0.42 0.49 1.08 0.76 0.80 0.88 0.33 0.40 0.65 0.56 0.29 0.05 0.02 0.00 0.00 0.01 0.00 0.00
0.00 0.00 0.00 0.00 0.00 0.00 0.00 0.00 0.00 0.00 0.01 0.01 0.01 0.00 0.00 0.00 0.00 0.04 0.06 0.07 0.06 0.04 0.10 0.05 0.04 0.03 0.03 0.05 0.09 0.17 0.11 0.19 0.34 1.03 1.11 0.75 0.71 0.45 0.25 0.34 0.37 0.39 0.15 0.03 0.00 0.00 0.01 0.00 0.00
0.01 0.00 0.00 0.00 0.00 0.02 0.00 0.00 0.01 0.00 0.00 0.00 0.01 0.01 0.01 0.00 0.01 0.01 0.00 0.01 0.01 0.06 0.03 0.06 0.10 0.05 0.05 0.02 0.04 0.06 0.09 0.11 0.19 0.43 0.67 0.76 0.57 0.52 0.33 0.30 0.33 0.39 0.20 0.08 0.03 0.02 0.02 0.02 0.02
0.01 0.00 0.00 0.00 0.00 0.01 0.02 0.00 0.02 0.00 0.00 0.00 0.00 0.00 0.00 0.00 0.00 0.00 0.00 0.01 0.03 0.04 0.06 0.10 0.09 0.11 0.12 0.07 0.08 0.09 0.10 0.18 0.20 0.31 0.61 0.69 0.71 0.63 0.60 0.52 0.52 0.32 0.36 0.18 0.13 0.07 0.08 0.09 0.08
0.00 0.00 0.00 0.00 0.00 0.00 0.01 0.02 0.01 0.01 0.01 0.03 0.02 0.00 0.00 0.00 0.01 0.00 0.01 0.00 0.01 0.03 0.03 0.08 0.12 0.16 0.19 0.18 0.14 0.18 0.23 0.17 0.15 0.23 0.65 0.75 0.74 0.75 0.66 0.65 0.69 0.47 0.31 0.41 0.28 0.25 0.17 0.11 0.11
0.00 0.00 0.01 0.11 0.05 0.02 0.05 0.05 0.03 0.00 0.00 0.01 0.01 0.00 0.00 0.01 0.01 0.00 0.00 0.01 0.03 0.04 0.07 0.16 0.17 0.20 0.21 0.19 0.28 0.21 0.18 0.14 0.09 0.10 0.18 0.55 0.89 0.82 0.79 0.65 0.70 0.58 0.42 0.45 0.37 0.32 0.24 0.27 0.43
0.01 0.00 0.04 0.09 0.06 0.06 0.06 0.02 0.01 0.01 0.00 0.00 0.00 0.00 0.00 0.00 0.00 0.00 0.01 0.03 0.06 0.05 0.12 0.28 0.31 0.25 0.23 0.24 0.27 0.26 0.14 0.10 0.15 0.07 0.13 0.16 0.47 0.63 1.00 0.88 0.72 0.72 0.60 0.68 0.83 0.86 0.90 0.88 1.04
0.01 0.02 0.00 0.00 0.02 0.04 0.01 0.00 0.00 0.00 0.00 0.00 0.00 0.00 0.00 0.00 0.00 0.00 0.01 0.04 0.05 0.06 0.10 0.21 0.21 0.11 0.16 0.18 0.17 0.18 0.18 0.12 0.16 0.15 0.11 0.28 0.41 0.74 0.88 1.13 1.01 0.89 0.98 1.03 1.18 1.28 1.36 1.17 1.02
0.00 0.00 0.00 0.00 0.00 0.02 0.00 0.01 0.02 0.02 0.01 0.01 0.00 0.00 0.00 0.00 0.00 0.00 0.00 0.02 0.04 0.06 0.12 0.17 0.10 0.07 0.03 0.03 0.08 0.13 0.17 0.21 0.21 0.29 0.41 0.57 0.51 0.71 0.85 1.19 1.58 1.47 1.37 1.21 1.20 1.21 1.16 1.05 0.86
0.00 0.00 0.00 0.00 0.00 0.04 0.08 0.02 0.00 0.01 0.01 0.02 0.01 0.00 0.01 0.02 0.02 0.01 0.00 0.01 0.03 0.08 0.13 0.18 0.21 0.18 0.19 0.18 0.17 0.12 0.12 0.25 0.46 0.52 0.85 0.71 0.72 1.08 1.61 1.69 1.75 1.70 1.47 1.39 1.35 1.27 1.16 0.98 0.75
0.01 0.00 0.01 0.02 0.02 0.01 0.03 0.01 0.00 0.00 0.00 0.02 0.04 0.01 0.00 0.00 0.01 0.01 0.02 0.05 0.10 0.13 0.13 0.10 0.30 0.52 0.38 0.30 0.31 0.29 0.42 0.67 0.99 0.96 1.11 1.37 1.67 1.63 1.81 1.84 1.59 1.48 1.32 1.19 1.13 0.97 0.81 0.64 0.44

GFSSGP_prec_precacc_117.txt.gz
Total_Precipitation_Accumulation
0.00 0.00 0.00 0.00 0.00 0.00 0.00 0.00 0.00 0.05 0.11 0.16 0.13 0.21 0.19 0.22 0.84 1.30 1.00 1.68 1.99 1.19 1.00 0.80 0.68 0.22 0.14 0.32 0.11 0.04 0.04 0.04 0.02 0.02 0.03 0.12 0.15 0.08 0.06 0.19 0.18 0.28 0.20 0.07 0.08 0.19 0.37 0.36 0.30
0.00 0.00 0.00 0.00 0.00 0.00 0.00 0.00 0.02 0.10 0.36 0.55 0.37 0.34 0.25 0.35 0.64 0.97 0.96 1.28 1.51 0.95 1.22 0.91 1.05 1.11 0.52 0.42 0.21 0.14 0.07 0.02 0.01 0.11 0.13 0.28 0.12 0.13 0.44 0.37 0.22 0.13 0.10 0.06 0.10 0.22 1.01 0.75 0.64
0.00 0.00 0.00 0.00 0.00 0.00 0.00 0.01 0.02 0.05 0.21 0.23 0.24 0.27 0.36 0.47 0.46 0.61 0.72 0.64 0.97 0.93 0.58 0.94 1.10 0.97 0.77 0.45 0.26 0.40 0.46 0.32 0.07 0.07 0.25 0.32 0.43 0.97 1.27 1.11 0.54 0.30 0.17 0.20 0.22 0.20 0.72 1.05 0.79
0.00 0.00 0.00 0.00 0.00 0.00 0.00 0.00 0.02 0.08 0.14 0.18 0.20 0.67 0.40 0.49 0.59 0.72 0.74 0.90 1.58 1.21 1.41 2.04 1.78 1.51 0.84 0.62 0.82 1.07 1.06 0.81 0.54 0.47 0.66 0.88 1.36 2.08 1.84 1.12 0.98 0.79 0.56 0.35 0.32 0.15 0.19 0.27 0.53
0.00 0.00 0.00 0.00 0.00 0.01 0.01 0.05 0.18 0.22 0.21 0.51 0.22 0.70 0.86 0.43 0.35 0.62 1.26 2.27 3.38 2.60 2.46 3.18 4.31 3.80 2.88 1.90 1.41 1.43 1.64 1.34 1.35 1.75 1.77 1.81 1.77 2.41 1.37 0.64 0.97 1.41 0.48 0.20 0.20 0.09 0.11 0.37 0.17
0.00 0.00 0.00 0.00 0.00 0.01 0.04 0.16 0.24 0.32 0.21 0.26 0.33 0.61 0.69 0.32 0.40 0.80 1.81 3.39 6.23 6.22 5.28 5.61 6.69 5.82 4.58 3.52 2.31 2.32 2.14 1.88 1.91 1.65 2.11 2.43 1.28 1.09 0.74 0.38 0.37 0.50 0.29 0.25 0.18 0.06 0.05 0.21 0.13
0.00 0.00 0.00 0.00 0.00 0.00 0.04 0.30 0.47 0.35 0.16 0.20 0.22 0.29 0.93 0.71 0.64 1.36 1.46 2.44 2.54 4.44 5.85 6.89 7.53 8.33 7.50 4.24 3.28 3.30 3.37 2.92 2.39 2.15 1.94 2.12 1.55 1.22 0.94 0.40 0.27 0.21 0.13 0.15 0.19 0.11 0.11 0.08 0.06
0.00 0.00 0.00 0.00 0.00 0.03 0.10 0.11 0.15 0.08 0.10 0.21 0.16 0.80 1.24 1.02 0.64 0.85 1.08 1.79 2.04 2.47 3.24 3.59 3.72 7.19 11.78 7.98 5.02 4.13 3.79 3.59 2.59 2.38 1.75 1.29 1.52 1.49 1.36 0.54 0.25 0.18 0.11 0.09 0.18 0.17 0.19 0.12 0.07
0.00 0.00 0.00 0.01 0.02 0.18 0.25 0.17 0.26 0.11 0.01 0.04 0.21 1.07 0.42 0.22 0.31 0.49 0.93 1.88 2.77 2.72 2.37 1.88 2.59 3.36 5.96 9.66 6.51 5.17 4.19 2.77 2.60 2.23 1.68 1.18 0.94 0.88 0.82 0.47 0.29 0.16 0.08 0.11 0.19 0.19 0.17 0.10 0.09
0.00 0.00 0.00 0.03 0.08 0.25 0.33 0.04 0.18 0.07 0.03 0.19 0.63 1.02 0.34 0.21 0.24 0.38 0.89 1.51 1.86 1.93 2.26 1.84 1.27 1.32 1.96 4.35 4.17 4.51 4.56 2.70 2.16 1.78 1.29 1.12 0.93 0.53 0.39 0.27 0.22 0.25 0.12 0.15 0.19 0.22 0.17 0.19 0.05
0.00 0.00 0.00 0.00 0.06 0.10 0.29 0.01 0.05 0.03 0.06 0.42 0.46 0.60 0.36 0.34 0.35 0.47 0.59 0.83 0.88 1.33 1.64 1.27 1.16 0.93 1.08 2.16 1.84 2.30 3.08 3.35 2.28 1.97 1.22 1.21 0.83 0.50 0.42 0.23 0.24 0.49 0.33 0.12 0.14 0.11 0.10 0.12 0.06
0.00 0.00 0.00 0.00 0.00 0.00 0.00 0.07 0.15 0.09 0.10 0.21 0.45 0.47 0.33 0.41 0.53 0.49 0.64 0.48 0.50 0.70 0.89 0.91 0.51 0.66 0.99 0.96 1.13 1.41 1.43 3.07 2.83 2.18 1.63 1.32 0.84 0.36 0.27 0.16 0.13 0.20 0.37 0.17 0.08 0.07 0.11 0.10 0.06
0.00 0.00 0.00 0.00 0.01 0.00 0.01 0.09 0.11 0.01 0.05 0.22 0.39 0.26 0.25 0.29 0.59 1.26 0.48 0.53 0.77 0.73 0.82 0.81 0.67 0.64 0.58 0.38 0.48 1.15 0.95 1.73 2.79 2.25 1.78 1.29 0.76 0.33 0.16 0.10 0.12 0.13 0.22 0.29 0.22 0.10 0.12 0.09 0.06
0.00 0.00 0.00 0.00 0.00 0.00 0.00 0.18 0.02 0.11 0.13 0.30 0.94 0.29 0.16 0.19 0.16 0.42 0.54 0.43 0.73 0.72 0.90 0.66 0.63 0.65 0.53 0.38 0.37 0.83 0.86 0.98 2.09 1.72 1.21 1.32 0.63 0.26 0.21 0.19 0.11 0.15 0.15 0.18 0.31 0.21 0.07 0.06 0.01
0.00 0.00 0.00 0.04 0.02 0.00 0.02 0.06 0.02 0.16 0.27 0.40 0.34 0.16 0.04 0.04 0.11 0.15 0.28 0.19 0.27 0.53 0.60 0.47 0.69 0.73 0.69 0.48 0.54 0.73 0.83 0.85 1.33 1.12 1.12 1.34 0.68 0.41 0.29 0.22 0.19 0.10 0.12 0.14 0.16 0.22 0.20 0.11 0.03
0.00 0.00 0.00 0.05 0.01 0.00 0.01 0.13 0.25 0.31 0.13 0.33 0.47 0.10 0.03 0.00 0.02 0.03 0.04 0.05 0.16 0.20 0.44 0.64 0.86 1.18 1.11 0.46 0.58 0.67 0.72 0.79 1.03 0.88 1.00 1.40 0.73 0.44 0.27 0.19 0.18 0.15 0.09 0.07 0.05 0.05 0.09 0.09 0.03
0.00 0.00 0.00 0.00 0.00 0.00 0.00 0.00 0.03 0.15 0.27 0.39 0.29 0.04 0.00 0.00 0.01 0.02 0.02 0.02 0.08 0.18 0.30 0.59 0.92 1.09 1.33 1.20 1.45 1.21 0.85 0.75 0.82 0.68 0.83 1.47 0.95 0.66 0.27 0.16 0.15 0.13 0.11 0.05 0.01 0.03 0.03 0.02 0.01
0.00 0.00 0.00 0.00 0.00 0.00 0.00 0.00 0.00 0.02 0.06 0.06 0.05 0.02 0.01 0.00 0.00 0.00 0.01 0.03 0.04 0.07 0.29 0.67 1.07 1.58 2.74 1.92 1.10 0.62 0.60 0.64 0.69 0.76 0.73 1.32 0.86 0.76 0.77 0.37 0.23 0.17 0.11 0.05 0.02 0.04 0.05 0.01 0.00
0.00 0.00 0.00 0.00 0.00 0.00 0.00 0.00 0.00 0.00 0.01 0.03 0.04 0.03 0.01 0.00 0.00 0.01 0.01 0.04 0.03 0.16 0.49 0.75 0.83 0.94 0.82 0.38 0.34 0.35 0.47 0.66 0.75 0.87 0.63 1.18 0.97 0.62 0.87 0.96 0.40 0.28 0.13 0.05 0.03 0.06 0.05 0.05 0.01
0.00 0.00 0.00 0.00 0.00 0.00 0.00 0.00 0.00 0.00 0.00 0.00 0.01 0.01 0.00 0.00 0.00 0.01 0.05 0.11 0.18 0.33 0.37 0.23 0.09 0.06 0.10 0.11 0.15 0.16 0.20 0.42 0.49 1.08 0.77 0.81 0.88 0.34 0.41 0.67 0.59 0.39 0.16 0.10 0.05 0.07 0.05 0.05 0.03
0.00 0.00 0.00 0.00 0.00 0.00 0.00 0.00 0.00 0.00 0.01 0.01 0.01 0.00 0.00 0.00 0.00 0.04 0.06 0.07 0.06 0.04 0.10 0.05 0.04 0.03 0.03 0.06 0.09 0.17 0.11 0.19 0.35 1.04 1.12 0.76 0.72 0.46 0.25 0.35 0.44 0.46 0.31 0.18 0.05 0.03 0.05 0.04 0.04
0.01 0.00 0.00 0.00 0.00 0.02 0.00 0.00 0.01 0.00 0.00 0.00 0.01 0.01 0.01 0.00 0.01 0.01 0.00 0.01 0.01 0.06 0.03 0.06 0.10 0.05 0.05 0.03 0.04 0.06 0.09 0.11 0.19 0.43 0.68 0.77 0.59 0.53 0.33 0.30 0.38 0.51 0.36 0.23 0.11 0.06 0.07 0.07 0.03
0.01 0.00 0.00 0.00 0.00 0.01 0.02 0.00 0.02 0.00 0.00 0.00 0.00 0.00 0.00 0.00 0.00 0.00 0.00 0.01 0.03 0.04 0.06 0.10 0.09 0.11 0.12 0.07 0.08 0.09 0.10 0.18 0.20 0.31 0.62 0.70 0.73 0.66 0.61 0.53 0.55 0.47 0.60 0.36 0.21 0.14 0.13 0.12 0.10
0.00 0.00 0.00 0.00 0.00 0.00 0.01 0.02 0.01 0.01 0.01 0.03 0.02 0.00 0.00 0.00 0.01 0.00 0.01 0.00 0.01 0.03 0.03 0.08 0.12 0.16 0.19 0.18 0.14 0.18 0.23 0.17 0.15 0.24 0.65 0.76 0.76 0.77 0.68 0.67 0.75 0.64 0.52 0.67 0.40 0.34 0.22 0.12 0.12
0.00 0.00 0.01 0.11 0.05 0.02 0.05 0.05 0.03 0.00 0.00 0.01 0.01 0.00 0.00 0.01 0.01 0.00 0.00 0.01 0.03 0.04 0.07 0.16 0.17 0.20 0.21 0.19 0.28 0.21 0.18 0.14 0.09 0.10 0.18 0.56 0.90 0.83 0.80 0.66 0.74 0.72 0.55 0.62 0.61 0.47 0.36 0.32 0.45
0.01 0.00 0.04 0.09 0.06 0.06 0.06 0.02 0.01 0.01 0.00 0.00 0.00 0.00 0.00 0.00 0.00 0.00 0.01 0.03 0.06 0.05 0.12 0.28 0.31 0.25 0.24 0.24 0.27 0.26 0.14 0.10 0.15 0.07 0.13 0.17 0.48 0.63 1.00 0.89 0.80 0.91 0.73 0.82 1.06 1.10 1.03 0.98 1.11
0.01 0.02 0.00 0.00 0.02 0.04 0.01 0.00 0.00 0.00 0.00 0.00 0.00 0.00 0.00 0.00 0.00 0.00 0.01 0.04 0.05 0.06 0.10 0.21 0.21 0.12 0.16 0.18 0.17 0.18 0.18 0.12 0.16 0.15 0.12 0.28 0.41 0.74 0.88 1.15 1.06 1.02 1.18 1.21 1.41 1.54 1.56 1.36 1.11
0.00 0.00 0.00 0.00 0.00 0.02 0.00 0.01 0.02 0.02 0.01 0.01 0.00 0.00 0.00 0.00 0.00 0.00 0.00 0.02 0.04 0.06 0.12 0.18 0.11 0.08 0.03 0.04 0.08 0.13 0.17 0.21 0.21 0.30 0.42 0.57 0.51 0.71 0.85 1.20 1.63 1.56 1.50 1.43 1.43 1.50 1.45 1.34 1.06
0.00 0.00 0.00 0.00 0.00 0.04 0.08 0.02 0.00 0.01 0.01 0.02 0.01 0.00 0.01 0.02 0.02 0.01 0.00 0.01 0.04 0.08 0.13 0.19 0.21 0.19 0.19 0.18 0.18 0.13 0.12 0.25 0.46 0.53 0.86 0.72 0.72 1.08 1.61 1.69 1.76 1.77 1.56 1.56 1.54 1.47 1.43 1.26 1.01
0.01 0.00 0.01 0.02 0.02 0.01 0.03 0.01 0.00 0.00 0.00 0.02 0.04 0.01 0.00 0.00 0.01 0.01 0.02 0.05 0.10 0.13 0.14 0.11 0.31 0.53 0.38 0.31 0.32 0.29 0.42 0.68 0.99 0.97 1.12 1.37 1.67 1.63 1.81 1.84 1.60 1.54 1.38 1.31 1.29 1.14 0.95 0.81 0.64

GFSSGP_prec_precacc_120.txt.gz
Total_Precipitation_Accumulation
0.00 0.00 0.00 0.00 0.00 0.00 0.00 0.00 0.00 0.05 0.11 0.16 0.13 0.21 0.19 0.22 0.84 1.30 1.00 1.68 1.99 1.19 1.00 0.80 0.68 0.22 0.14 0.32 0.11 0.04 0.04 0.04 0.02 0.02 0.03 0.15 0.17 0.14 0.15 0.25 0.21 0.31 0.26 0.09 0.08 0.21 0.38 0.36 0.30
0.00 0.00 0.00 0.00 0.00 0.00 0.00 0.00 0.02 0.10 0.36 0.55 0.37 0.34 0.25 0.35 0.64 0.97 0.96 1.28 1.51 0.95 1.22 0.91 1.05 1.11 0.52 0.42 0.21 0.14 0.07 0.02 0.01 0.11 0.13 0.29 0.18 0.30 0.78 0.89 0.63 0.45 0.23 0.08 0.11 0.22 1.01 0.76 0.64
0.00 0.00 0.00 0.00 0.00 0.00 0.00 0.01 0.02 0.05 0.21 0.23 0.24 0.27 0.36 0.47 0.46 0.61 0.72 0.64 0.97 0.93 0.58 0.94 1.10 0.97 0.77 0.45 0.26 0.40 0.46 0.32 0.07 0.07 0.27 0.38 0.62 1.35 2.25 2.37 1.23 1.33 0.79 0.30 0.27 0.23 0.72 1.06 0.79
0.00 0.00 0.00 0.00 0.00 0.00 0.00 0.00 0.02 0.08 0.14 0.18 0.20 0.67 0.40 0.49 0.59 0.72 0.74 0.90 1.58 1.21 1.41 2.04 1.78 1.51 0.84 0.62 0.82 1.07 1.06 0.81 0.55 0.48 0.68 0.96 1.44 2.35 2.36 1.52 1.24 1.55 1.91 0.85 0.54 0.19 0.19 0.27 0.53
0.00 0.00 0.00 0.00 0.00 0.01 0.01 0.05 0.18 0.22 0.21 0.51 0.22 0.70 0.86 0.43 0.35 0.62 1.26 2.27 3.38 2.60 2.46 3.18 4.31 3.80 2.88 1.90 1.41 1.43 1.64 1.34 1.36 1.76 1.81 1.84 1.80 2.47 1.39 0.66 1.01 2.33 1.95 0.58 0.53 0.18 0.11 0.37 0.17
0.00 0.00 0.00 0.00 0.00 0.01 0.04 0.16 0.24 0.32 0.21 0.26 0.33 0.61 0.69 0.32 0.40 0.80 1.81 3.39 6.23 6.22 5.28 5.61 6.69 5.82 4.58 3.52 2.31 2.32 2.14 1.88 1.91 1.66 2.13 2.45 1.33 1.09 0.74 0.38 0.38 0.53 0.42 0.38 0.29 0.08 0.05 0.21 0.13
0.00 0.00 0.00 0.00 0.00 0.00 0.04 0.30 0.47 0.35 0.16 0.20 0.22 0.29 0.93 0.71 0.64 1.36 1.46 2.44 2.54 4.44 5.85 6.89 7.53 8.33 7.50 4.24 3.28 3.30 3.37 2.92 2.39 2.16 1.95 2.16 1.61 1.24 0.94 0.40 0.27 0.21 0.14 0.19 0.24 0.15 0.11 0.08 0.07
0.00 0.00 0.00 0.00 0.00 0.03 0.10 0.11 0.15 0.08 0.10 0.21 0.16 0.80 1.24 1.02 0.64 0.85 1.08 1.79 2.04 2.47 3.24 3.59 3.72 7.19 11.78 7.98 5.02 4.13 3.79 3.59 2.59 2.39 1.75 1.31 1.54 1.53 1.36 0.54 0.25 0.20 0.15 0.13 0.27 0.38 0.37 0.13 0.07
0.00 0.00 0.00 0.01 0.02 0.18 0.25 0.17 0.26 0.11 0.01 0.04 0.21 1.07 0.42 0.22 0.31 0.49 0.93 1.88 2.77 2.72 2.37 1.88 2.59 3.36 5.96 9.66 6.51 5.17 4.19 2.77 2.60 2.23 1.68 1.18 0.95 0.88 0.82 0.47 0.29 0.24 0.23 0.23 0.37 0.34 0.39 0.27 0.13
0.00 0.00 0.00 0.03 0.08 0.25 0.33 0.04 0.18 0.07 0.03 0.19 0.63 1.02 0.34 0.21 0.24 0.38 0.89 1.51 1.86 1.93 2.26 1.84 1.27 1.32 1.96 4.35 4.17 4.51 4.56 2.70 2.16 1.78 1.29 1.12 0.94 0.55 0.40 0.28 0.24 0.39 0.30 0.25 0.24 0.28 0.34 0.39 0.18
0.00 0.00 0.00 0.00 0.06 0.10 0.29 0.01 0.05 0.03 0.06 0.42 0.46 0.60 0.36 0.34 0.35 0.47 0.59 0.83 0.88 1.33 1.64 1.27 1.16 0.93 1.08 2.16 1.84 2.30 3.08 3.35 2.28 1.97 1.23 1.22 0.84 0.52 0.49 0.29 0.29 0.60 0.39 0.14 0.14 0.12 0.16 0.23 0.20
0.00 0.00 0.00 0.00 0.00 0.00 0.00 0.07 0.15 0.09 0.10 0.21 0.45 0.47 0.33 0.41 0.53 0.49 0.64 0.48 0.50 0.70 0.89 0.91 0.51 0.66 0.99 0.96 1.13 1.41 1.43 3.07 2.83 2.18 1.63 1.33 0.85 0.37 0.31 0.22 0.16 0.20 0.38 0.18 0.08 0.11 0.16 0.20 0.16
0.00 0.00 0.00 0.00 0.01 0.00 0.01 0.09 0.11 0.01 0.05 0.22 0.39 0.26 0.25 0.29 0.59 1.26 0.48 0.53 0.77 0.73 0.82 0.81 0.67 0.64 0.58 0.38 0.48 1.15 0.95 1.73 2.79 2.25 1.78 1.30 0.78 0.34 0.19 0.13 0.16 0.15 0.23 0.31 0.26 0.17 0.19 0.20 0.16
0.00 0.00 0.00 0.00 0.00 0.00 0.00 0.18 0.02 0.11 0.13 0.30 0.94 0.29 0.16 0.19 0.16 0.42 0.54 0.43 0.73 0.72 0.90 0.66 0.63 0.65 0.53 0.38 0.37 0.83 0.86 0.98 2.09 1.72 1.22 1.32 0.64 0.29 0.24 0.24 0.15 0.21 0.20 0.22 0.39 0.35 0.19 0.14 0.05
0.00 0.00 0.00 0.04 0.02 0.00 0.02 0.06 0.02 0.16 0.27 0.40 0.34 0.16 0.04 0.04 0.11 0.15 0.28 0.19 0.27 0.53 0.60 0.47 0.69 0.73 0.69 0.48 0.55 0.73 0.83 0.85 1.33 1.12 1.12 1.34 0.70 0.46 0.36 0.30 0.25 0.16 0.18 0.15 0.17 0.29 0.46 0.35 0.11
0.00 0.00 0.00 0.05 0.01 0.00 0.01 0.13 0.25 0.31 0.13 0.33 0.47 0.10 0.03 0.00 0.02 0.03 0.04 0.05 0.16 0.20 0.44 0.64 0.86 1.18 1.11 0.46 0.58 0.67 0.72 0.79 1.03 0.88 1.00 1.40 0.74 0.47 0.34 0.28 0.27 0.21 0.13 0.08 0.05 0.07 0.24 0.32 0.17
0.00 0.00 0.00 0.00 0.00 0.00 0.00 0.00 0.03 0.15 0.27 0.39 0.29 0.04 0.00 0.00 0.01 0.02 0.02 0.02 0.08 0.18 0.30 0.59 0.92 1.09 1.33 1.20 1.45 1.21 0.85 0.75 0.82 0.68 0.83 1.47 0.95 0.67 0.31 0.23 0.24 0.21 0.15 0.06 0.02 0.07 0.06 0.12 0.10
0.00 0.00 0.00 0.00 0.00 0.00 0.00 0.00 0.00 0.02 0.06 0.06 0.05 0.02 0.01 0.00 0.00 0.00 0.01 0.03 0.04 0.07 0.29 0.67 1.07 1.58 2.74 1.92 1.10 0.62 0.61 0.64 0.69 0.76 0.74 1.32 0.86 0.76 0.79 0.43 0.31 0.26 0.16 0.08 0.02 0.05 0.06 0.02 0.02
0.00 0.00 0.00 0.00 0.00 0.00 0.00 0.00 0.00 0.00 0.01 0.03 0.04 0.03 0.01 0.00 0.00 0.01 0.01 0.04 0.03 0.16 0.49 0.75 0.83 0.94 0.82 0.38 0.34 0.35 0.47 0.66 0.75 0.87 0.63 1.18 0.98 0.62 0.88 0.98 0.46 0.38 0.18 0.06 0.03 0.06 0.07 0.06 0.02
0.00 0.00 0.00 0.00 0.00 0.00 0.00 0.00 0.00 0.00 0.00 0.00 0.01 0.01 0.00 0.00 0.00 0.01 0.05 0.11 0.18 0.33 0.37 0.23 0.09 0.06 0.10 0.11 0.15 0.17 0.20 0.42 0.49 1.08 0.77 0.81 0.88 0.34 0.41 0.67 0.61 0.43 0.20 0.12 0.08 0.10 0.08 0.07 0.04
0.00 0.00 0.00 0.00 0.00 0.00 0.00 0.00 0.00 0.00 0.01 0.01 0.01 0.00 0.00 0.00 0.00 0.04 0.06 0.07 0.06 0.04 0.10 0.05 0.04 0.03 0.03 0.06 0.09 0.17 0.12 0.20 0.35 1.04 1.12 0.76 0.73 0.46 0.25 0.35 0.45 0.47 0.32 0.22 0.08 0.09 0.10 0.06 0.06
0.01 0.00 0.00 0.00 0.00 0.02 0.00 0.00 0.01 0.00 0.00 0.00 0.01 0.01 0.01 0.00 0.01 0.01 0.00 0.01 0.01 0.06 0.03 0.06 0.10 0.05 0.05 0.03 0.04 0.06 0.09 0.11 0.19 0.43 0.68 0.77 0.59 0.53 0.33 0.31 0.39 0.51 0.37 0.28 0.15 0.15 0.15 0.10 0.06
0.01 0.00 0.00 0.00 0.00 0.01 0.02 0.00 0.02 0.00 0.00 0.00 0.00 0.00 0.00 0.00 0.00 0.00 0.00 0.01 0.03 0.04 0.06 0.10 0.09 0.11 0.12 0.07 0.08 0.09 0.10 0.18 0.20 0.31 0.62 0.70 0.74 0.66 0.62 0.53 0.55 0.47 0.60 0.38 0.28 0.27 0.29 0.19 0.12
0.00 0.00 0.00 0.00 0.00 0.00 0.01 0.02 0.01 0.01 0.01 0.03 0.02 0.00 0.00 0.00 0.01 0.00 0.01 0.00 0.01 0.03 0.03 0.08 0.12 0.16 0.19 0.18 0.14 0.18 0.24 0.17 0.15 0.24 0.65 0.76 0.77 0.78 0.69 0.67 0.76 0.64 0.53 0.70 0.46 0.44 0.40 0.27 0.17
0.00 0.00 0.01 0.11 0.05 0.02 0.05 0.05 0.03 0.00 0.00 0.01 0.01 0.00 0.00 0.01 0.01 0.00 0.00 0.01 0.03 0.04 0.07 0.16 0.17 0.20 0.21 0.19 0.28 0.21 0.19 0.15 0.09 0.10 0.18 0.56 0.91 0.84 0.81 0.67 0.74 0.72 0.56 0.64 0.65 0.53 0.51 0.49 0.54
0.01 0.01 0.04 0.09 0.06 0.06 0.06 0.02 0.01 0.01 0.00 0.00 0.00 0.00 0.00 0.00 0.00 0.00 0.01 0.03 0.06 0.05 0.12 0.28 0.31 0.25 0.24 0.24 0.27 0.27 0.14 0.11 0.15 0.07 0.13 0.17 0.48 0.64 1.01 0.90 0.80 0.91 0.74 0.84 1.12 1.20 1.16 1.14 1.23
0.02 0.02 0.00 0.00 0.02 0.04 0.01 0.00 0.00 0.00 0.00 0.00 0.00 0.00 0.00 0.00 0.00 0.00 0.01 0.04 0.05 0.06 0.10 0.21 0.22 0.12 0.16 0.18 0.17 0.19 0.19 0.12 0.16 0.15 0.12 0.28 0.42 0.75 0.89 1.15 1.06 1.02 1.19 1.24 1.48 1.68 1.72 1.58 1.35
0.01 0.00 0.01 0.00 0.00 0.03 0.00 0.01 0.02 0.02 0.01 0.01 0.00 0.00 0.00 0.00 0.00 0.00 0.00 0.02 0.04 0.06 0.13 0.18 0.11 0.08 0.04 0.04 0.09 0.13 0.18 0.21 0.21 0.30 0.42 0.57 0.51 0.71 0.85 1.20 1.63 1.57 1.50 1.46 1.54 1.69 1.67 1.59 1.28
0.11 0.05 0.01 0.00 0.00 0.04 0.08 0.02 0.00 0.01 0.01 0.02 0.01 0.00 0.01 0.02 0.02 0.01 0.00 0.01 0.04 0.08 0.13 0.19 0.22 0.19 0.20 0.19 0.18 0.13 0.12 0.26 0.46 0.53 0.87 0.72 0.73 1.08 1.61 1.69 1.77 1.77 1.56 1.58 1.63 1.66 1.67 1.54 1.28
0.04 0.07 0.02 0.02 0.02 0.01 0.03 0.01 0.00 0.00 0.00 0.02 0.04 0.01 0.00 0.00 0.01 0.01 0.02 0.05 0.10 0.13 0.14 0.11 0.31 0.54 0.39 0.32 0.34 0.30 0.43 0.68 0.99 0.97 1.13 1.38 1.68 1.63 1.81 1.84 1.60 1.54 1.39 1.36 1.39 1.33 1.17 1.09 0.94

GFSSGP_prec_precacc_123.txt.gz
Total_Precipitation_Accumulation
0.00 0.00 0.00 0.00 0.00 0.00 0.00 0.00 0.00 0.05 0.11 0.16 0.13 0.21 0.19 0.22 0.84 1.30 1.00 1.68 1.99 1.19 1.00 0.80 0.68 0.22 0.14 0.32 0.11 0.04 0.04 0.04 0.02 0.02 0.03 0.15 0.19 0.19 0.26 0.41 0.37 0.44 0.40 0.17 0.11 0.24 0.42 0.38 0.31
0.00 0.00 0.00 0.00 0.00 0.00 0.00 0.00 0.02 0.10 0.36 0.55 0.37 0.34 0.25 0.35 0.64 0.97 0.96 1.28 1.51 0.95 1.22 0.91 1.05 1.11 0.52 0.42 0.21 0.14 0.07 0.02 0.01 0.11 0.13 0.31 0.23 0.35 0.85 1.10 1.01 0.82 0.69 0.34 0.18 0.25 1.02 0.77 0.65
0.00 0.00 0.00 0.00 0.00 0.00 0.00 0.01 0.02 0.05 0.21 0.23 0.24 0.27 0.36 0.47 0.46 0.61 0.72 0.64 0.97 0.93 0.58 0.94 1.10 0.97 0.77 0.45 0.26 0.40 0.46 0.32 0.07 0.08 0.27 0.43 0.63 1.35 2.27 2.56 1.55 1.63 1.43 0.88 0.52 0.27 0.73 1.07 0.79
0.00 0.00 0.00 0.00 0.00 0.00 0.00 0.00 0.02 0.08 0.14 0.18 0.20 0.67 0.40 0.49 0.59 0.72 0.74 0.90 1.58 1.21 1.41 2.04 1.78 1.51 0.84 0.62 0.82 1.07 1.06 0.81 0.56 0.48 0.69 0.96 1.44 2.35 2.37 1.55 1.31 1.69 2.88 1.40 0.92 0.39 0.23 0.27 0.53
0.00 0.00 0.00 0.00 0.00 0.01 0.01 0.05 0.18 0.22 0.21 0.51 0.22 0.70 0.86 0.43 0.35 0.62 1.26 2.27 3.38 2.60 2.46 3.18 4.31 3.80 2.88 1.90 1.41 1.43 1.64 1.34 1.36 1.76 1.81 1.84 1.80 2.47 1.39 0.66 1.01 2.34 2.16 0.77 0.66 0.35 0.12 0.37 0.17
0.00 0.00 0.00 0.00 0.00 0.01 0.04 0.16 0.24 0.32 0.21 0.26 0.33 0.61 0.69 0.32 0.40 0.80 1.81 3.39 6.23 6.22 5.28 5.61 6.69 5.82 4.58 3.52 2.31 2.32 2.14 1.88 1.91 1.66 2.13 2.45 1.33 1.09 0.74 0.38 0.38 0.53 0.44 0.42 0.32 0.17 0.10 0.22 0.14
0.00 0.00 0.00 0.00 0.00 0.00 0.04 0.30 0.47 0.35 0.16 0.20 0.22 0.29 0.93 0.71 0.64 1.36 1.46 2.44 2.54 4.44 5.85 6.89 7.53 8.33 7.50 4.24 3.28 3.30 3.37 2.92 2.39 2.16 1.95 2.16 1.61 1.24 0.94 0.40 0.27 0.21 0.14 0.21 0.28 0.24 0.25 0.16 0.13
0.00 0.00 0.00 0.00 0.00 0.03 0.10 0.11 0.15 0.08 0.10 0.21 0.16 0.80 1.24 1.02 0.64 0.85 1.08 1.79 2.04 2.47 3.24 3.59 3.72 7.19 11.78 7.98 5.02 4.13 3.79 3.59 2.59 2.39 1.75 1.31 1.54 1.53 1.36 0.54 0.25 0.20 0.16 0.22 0.36 0.50 0.59 0.33 0.26
0.00 0.00 0.00 0.01 0.02 0.18 0.25 0.17 0.26 0.11 0.01 0.04 0.21 1.07 0.42 0.22 0.31 0.49 0.93 1.88 2.77 2.72 2.37 1.88 2.59 3.36 5.96 9.66 6.51 5.17 4.19 2.77 2.60 2.23 1.68 1.18 0.95 0.88 0.82 0.47 0.29 0.24 0.26 0.35 0.42 0.37 0.50 0.55 0.30
0.00 0.00 0.00 0.03 0.08 0.25 0.33 0.04 0.18 0.07 0.03 0.19 0.63 1.02 0.34 0.21 0.24 0.38 0.89 1.51 1.86 1.93 2.26 1.84 1.27 1.32 1.96 4.35 4.17 4.51 4.56 2.70 2.16 1.78 1.29 1.12 0.94 0.55 0.40 0.28 0.24 0.40 0.34 0.32 0.25 0.28 0.36 0.47 0.31
0.00 0.00 0.00 0.00 0.06 0.10 0.29 0.01 0.05 0.03 0.06 0.42 0.46 0.60 0.36 0.34 0.35 0.47 0.59 0.83 0.88 1.33 1.64 1.27 1.16 0.93 1.08 2.16 1.84 2.30 3.08 3.35 2.28 1.97 1.23 1.22 0.84 0.52 0.49 0.29 0.31 0.62 0.40 0.14 0.14 0.12 0.16 0.24 0.28
0.00 0.00 0.00 0.00 0.00 0.00 0.00 0.07 0.15 0.09 0.10 0.21 0.45 0.47 0.33 0.41 0.53 0.49 0.64 0.48 0.50 0.70 0.89 0.91 0.51 0.66 0.99 0.96 1.13 1.41 1.43 3.07 2.83 2.18 1.63 1.33 0.85 0.37 0.32 0.23 0.23 0.21 0.38 0.18 0.08 0.11 0.16 0.20 0.21
0.00 0.00 0.00 0.00 0.01 0.00 0.01 0.09 0.11 0.01 0.05 0.22 0.39 0.26 0.25 0.29 0.59 1.26 0.48 0.53 0.77 0.73 0.82 0.81 0.67 0.64 0.58 0.38 0.48 1.15 0.95 1.73 2.79 2.25 1.78 1.30 0.78 0.34 0.19 0.17 0.21 0.15 0.23 0.31 0.26 0.17 0.19 0.20 0.19
0.00 0.00 0.00 0.00 0.00 0.00 0.00 0.18 0.02 0.11 0.13 0.30 0.94 0.29 0.16 0.19 0.16 0.42 0.54 0.43 0.73 0.72 0.90 0.66 0.63 0.65 0.53 0.38 0.37 0.83 0.86 0.98 2.09 1.72 1.22 1.32 0.64 0.29 0.24 0.25 0.16 0.21 0.21 0.23 0.40 0.35 0.20 0.16 0.07
0.00 0.00 0.00 0.04 0.02 0.00 0.02 0.06 0.02 0.16 0.27 0.40 0.34 0.16 0.04 0.04 0.11 0.15 0.28 0.19 0.27 0.53 0.60 0.47 0.69 0.73 0.69 0.48 0.55 0.73 0.83 0.85 1.33 1.12 1.12 1.34 0.70 0.46 0.36 0.30 0.25 0.16 0.18 0.16 0.18 0.30 0.48 0.47 0.31
0.00 0.00 0.00 0.05 0.01 0.00 0.01 0.13 0.25 0.31 0.13 0.33 0.47 0.10 0.03 0.00 0.02 0.03 0.04 0.05 0.16 0.20 0.44 0.64 0.86 1.18 1.11 0.46 0.58 0.67 0.72 0.79 1.03 0.88 1.00 1.40 0.74 0.47 0.34 0.29 0.28 0.24 0.16 0.11 0.07 0.07 0.24 0.35 0.28
0.00 0.00 0.00 0.00 0.00 0.00 0.00 0.00 0.03 0.15 0.27 0.39 0.29 0.04 0.00 0.00 0.01 0.02 0.02 0.02 0.08 0.18 0.30 0.59 0.92 1.09 1.33 1.20 1.45 1.21 0.85 0.75 0.82 0.68 0.83 1.47 0.95 0.67 0.31 0.23 0.24 0.21 0.16 0.07 0.02 0.07 0.06 0.14 0.16
0.00 0.00 0.00 0.00 0.00 0.00 0.00 0.00 0.00 0.02 0.06 0.06 0.05 0.02 0.01 0.00 0.00 0.00 0.01 0.03 0.04 0.07 0.29 0.67 1.07 1.58 2.74 1.92 1.10 0.62 0.61 0.64 0.69 0.76 0.74 1.32 0.86 0.76 0.79 0.43 0.31 0.26 0.16 0.08 0.02 0.05 0.06 0.03 0.06
0.00 0.00 0.00 0.00 0.00 0.00 0.00 0.00 0.00 0.00 0.01 0.03 0.04 0.03 0.01 0.00 0.00 0.01 0.01 0.04 0.03 0.16 0.49 0.75 0.83 0.94 0.82 0.38 0.34 0.35 0.47 0.66 0.75 0.87 0.63 1.18 0.98 0.62 0.88 0.98 0.46 0.39 0.18 0.06 0.03 0.06 0.07 0.06 0.04
0.00 0.00 0.00 0.00 0.00 0.00 0.00 0.00 0.00 0.00 0.00 0.00 0.01 0.01 0.00 0.00 0.00 0.01 0.05 0.11 0.18 0.33 0.37 0.23 0.09 0.06 0.10 0.11 0.15 0.17 0.20 0.42 0.49 1.08 0.77 0.81 0.89 0.34 0.41 0.67 0.61 0.43 0.21 0.12 0.08 0.10 0.08 0.07 0.04
0.00 0.00 0.00 0.00 0.00 0.00 0.00 0.00 0.00 0.00 0.01 0.01 0.01 0.00 0.00 0.00 0.00 0.04 0.06 0.07 0.06 0.04 0.10 0.05 0.04 0.03 0.03 0.06 0.09 0.17 0.12 0.20 0.35 1.04 1.12 0.76 0.73 0.47 0.25 0.36 0.45 0.47 0.33 0.22 0.08 0.09 0.10 0.06 0.06
0.01 0.00 0.00 0.00 0.00 0.02 0.00 0.00 0.01 0.00 0.00 0.00 0.01 0.01 0.01 0.00 0.01 0.01 0.00 0.01 0.01 0.06 0.03 0.06 0.10 0.05 0.05 0.03 0.04 0.06 0.09 0.11 0.19 0.43 0.68 0.77 0.59 0.54 0.34 0.31 0.39 0.52 0.37 0.28 0.15 0.15 0.16 0.16 0.12
0.01 0.00 0.00 0.00 0.00 0.01 0.02 0.00 0.02 0.00 0.00 0.00 0.00 0.00 0.00 0.00 0.00 0.00 0.00 0.01 0.03 0.04 0.06 0.10 0.09 0.11 0.12 0.07 0.08 0.09 0.10 0.18 0.20 0.31 0.62 0.71 0.74 0.66 0.62 0.54 0.56 0.48 0.61 0.38 0.28 0.27 0.29 0.21 0.14
0.00 0.00 0.00 0.00 0.00 0.00 0.01 0.02 0.01 0.01 0.01 0.03 0.02 0.00 0.00 0.00 0.01 0.00 0.01 0.00 0.01 0.03 0.03 0.08 0.12 0.16 0.19 0.18 0.14 0.18 0.24 0.17 0.15 0.24 0.65 0.77 0.77 0.78 0.69 0.68 0.76 0.65 0.54 0.71 0.46 0.44 0.41 0.30 0.22
0.00 0.02 0.03 0.12 0.05 0.02 0.05 0.05 0.03 0.00 0.00 0.01 0.01 0.00 0.00 0.01 0.01 0.00 0.00 0.01 0.03 0.04 0.07 0.16 0.17 0.20 0.21 0.19 0.28 0.21 0.19 0.15 0.10 0.10 0.18 0.56 0.91 0.84 0.82 0.67 0.75 0.73 0.57 0.64 0.65 0.54 0.52 0.50 0.60
0.01 0.02 0.11 0.13 0.06 0.06 0.06 0.02 0.01 0.01 0.00 0.00 0.00 0.00 0.00 0.00 0.00 0.00 0.01 0.03 0.06 0.05 0.12 0.28 0.31 0.25 0.25 0.24 0.27 0.27 0.14 0.11 0.15 0.07 0.13 0.17 0.48 0.64 1.01 0.90 0.80 0.92 0.75 0.85 1.12 1.21 1.18 1.17 1.27
0.09 0.05 0.03 0.05 0.03 0.04 0.01 0.00 0.00 0.00 0.00 0.00 0.00 0.00 0.00 0.00 0.00 0.00 0.01 0.04 0.05 0.06 0.10 0.21 0.22 0.12 0.16 0.18 0.17 0.19 0.19 0.13 0.17 0.16 0.12 0.28 0.42 0.75 0.89 1.16 1.07 1.02 1.19 1.24 1.48 1.70 1.76 1.63 1.45
0.09 0.07 0.08 0.03 0.01 0.03 0.00 0.01 0.02 0.02 0.01 0.01 0.00 0.00 0.00 0.00 0.06 0.05 0.03 0.03 0.04 0.06 0.13 0.18 0.11 0.08 0.04 0.04 0.09 0.13 0.18 0.22 0.21 0.30 0.43 0.57 0.51 0.71 0.85 1.20 1.63 1.58 1.52 1.47 1.55 1.70 1.72 1.72 1.47
0.15 0.26 0.14 0.09 0.01 0.04 0.08 0.02 0.00 0.01 0.01 0.02 0.01 0.01 0.03 0.14 0.13 0.08 0.02 0.01 0.04 0.08 0.13 0.19 0.22 0.19 0.20 0.19 0.18 0.14 0.13 0.26 0.47 0.53 0.87 0.72 0.73 1.08 1.61 1.69 1.77 1.77 1.57 1.59 1.64 1.67 1.70 1.64 1.51
0.05 0.15 0.12 0.16 0.07 0.01 0.03 0.01 0.00 0.00 0.00 0.02 0.05 0.03 0.08 0.21 0.12 0.02 0.02 0.05 0.10 0.13 0.14 0.11 0.31 0.54 0.40 0.33 0.34 0.31 0.45 0.69 1.00 0.98 1.13 1.38 1.68 1.63 1.81 1.84 1.60 1.54 1.39 1.36 1.40 1.36 1.24 1.22 1.15

GFSSGP_prec_precacc_126.txt.gz
Total_Precipitation_Accumulation
0.00 0.00 0.00 0.00 0.00 0.00 0.00 0.00 0.00 0.05 0.11 0.16 0.13 0.21 0.19 0.22 0.84 1.30 1.00 1.68 1.99 1.19 1.00 0.80 0.68 0.22 0.14 0.32 0.11 0.04 0.04 0.04 0.02 0.02 0.03 0.16 0.20 0.20 0.27 0.45 0.43 0.56 0.54 0.34 0.22 0.32 0.52 0.47 0.39
0.00 0.00 0.00 0.00 0.00 0.00 0.00 0.00 0.02 0.10 0.36 0.55 0.37 0.34 0.25 0.35 0.64 0.97 0.96 1.28 1.51 0.95 1.22 0.91 1.05 1.11 0.52 0.42 0.21 0.14 0.07 0.02 0.01 0.11 0.13 0.31 0.23 0.35 0.85 1.10 1.01 0.82 0.72 0.47 0.36 0.37 1.13 0.87 0.71
0.00 0.00 0.00 0.00 0.00 0.00 0.00 0.01 0.02 0.05 0.21 0.23 0.24 0.27 0.36 0.47 0.46 0.61 0.72 0.64 0.97 0.93 0.58 0.94 1.10 0.97 0.77 0.45 0.26 0.40 0.46 0.32 0.07 0.08 0.27 0.43 0.63 1.35 2.27 2.56 1.55 1.63 1.46 0.94 0.64 0.41 0.81 1.12 0.80
0.00 0.00 0.00 0.00 0.00 0.00 0.00 0.00 0.02 0.08 0.14 0.18 0.20 0.67 0.40 0.49 0.59 0.72 0.74 0.90 1.58 1.21 1.41 2.04 1.78 1.51 0.84 0.62 0.82 1.07 1.06 0.81 0.56 0.48 0.69 0.96 1.44 2.35 2.37 1.55 1.31 1.69 2.89 1.43 0.95 0.49 0.27 0.29 0.55
0.00 0.00 0.00 0.00 0.00 0.01 0.01 0.05 0.18 0.22 0.21 0.51 0.22 0.70 0.86 0.43 0.35 0.62 1.26 2.27 3.38 2.60 2.46 3.18 4.31 3.80 2.88 1.90 1.41 1.43 1.64 1.34 1.36 1.76 1.81 1.84 1.80 2.47 1.39 0.66 1.01 2.34 2.17 0.79 0.66 0.45 0.26 0.43 0.19
0.00 0.00 0.00 0.00 0.00 0.01 0.04 0.16 0.24 0.32 0.21 0.26 0.33 0.61 0.69 0.32 0.40 0.80 1.81 3.39 6.23 6.22 5.28 5.61 6.69 5.82 4.58 3.52 2.31 2.32 2.14 1.88 1.91 1.66 2.13 2.45 1.33 1.09 0.74 0.38 0.38 0.53 0.44 0.42 0.33 0.21 0.25 0.31 0.18
0.00 0.00 0.00 0.00 0.00 0.00 0.04 0.30 0.47 0.35 0.16 0.20 0.22 0.29 0.93 0.71 0.64 1.36 1.46 2.44 2.54 4.44 5.85 6.89 7.53 8.33 7.50 4.24 3.28 3.30 3.37 2.92 2.39 2.16 1.95 2.16 1.61 1.24 0.94 0.40 0.27 0.21 0.14 0.21 0.29 0.27 0.32 0.26 0.25
0.00 0.00 0.00 0.00 0.00 0.03 0.10 0.11 0.15 0.08 0.10 0.21 0.16 0.80 1.24 1.02 0.64 0.85 1.08 1.79 2.04 2.47 3.24 3.59 3.72 7.19 11.78 7.98 5.02 4.13 3.79 3.59 2.59 2.39 1.75 1.31 1.54 1.53 1.36 0.54 0.25 0.20 0.16 0.22 0.36 0.53 0.62 0.41 0.33
0.00 0.00 0.00 0.01 0.02 0.18 0.25 0.17 0.26 0.11 0.01 0.04 0.21 1.07 0.42 0.22 0.31 0.49 0.93 1.88 2.77 2.72 2.37 1.88 2.59 3.36 5.96 9.66 6.51 5.17 4.19 2.77 2.60 2.23 1.68 1.18 0.95 0.88 0.82 0.47 0.29 0.24 0.26 0.35 0.44 0.39 0.51 0.59 0.37
0.00 0.00 0.00 0.03 0.08 0.25 0.33 0.04 0.18 0.07 0.03 0.19 0.63 1.02 0.34 0.21 0.24 0.38 0.89 1.51 1.86 1.93 2.26 1.84 1.27 1.32 1.96 4.35 4.17 4.51 4.56 2.70 2.16 1.78 1.29 1.12 0.94 0.55 0.40 0.28 0.24 0.40 0.34 0.33 0.26 0.28 0.36 0.47 0.32
0.00 0.00 0.00 0.00 0.06 0.10 0.29 0.01 0.05 0.03 0.06 0.42 0.46 0.60 0.36 0.34 0.35 0.47 0.59 0.83 0.88 1.33 1.64 1.27 1.16 0.93 1.08 2.16 1.84 2.30 3.08 3.35 2.28 1.97 1.23 1.22 0.84 0.52 0.49 0.29 0.31 0.62 0.40 0.14 0.14 0.12 0.16 0.24 0.28
0.00 0.00 0.00 0.00 0.00 0.00 0.00 0.07 0.15 0.09 0.10 0.21 0.45 0.47 0.33 0.41 0.53 0.49 0.64 0.48 0.50 0.70 0.89 0.91 0.51 0.66 0.99 0.96 1.13 1.41 1.43 3.07 2.83 2.18 1.63 1.33 0.85 0.37 0.32 0.23 0.23 0.21 0.38 0.18 0.08 0.11 0.16 0.20 0.22
0.00 0.00 0.00 0.00 0.01 0.00 0.01 0.09 0.11 0.01 0.05 0.22 0.39 0.26 0.25 0.29 0.59 1.26 0.48 0.53 0.77 0.73 0.82 0.81 0.67 0.64 0.58 0.38 0.48 1.15 0.95 1.73 2.79 2.25 1.78 1.30 0.78 0.34 0.19 0.17 0.21 0.15 0.23 0.31 0.26 0.17 0.19 0.20 0.23
0.00 0.00 0.00 0.00 0.00 0.00 0.00 0.18 0.02 0.11 0.13 0.30 0.94 0.29 0.16 0.19 0.16 0.42 0.54 0.43 0.73 0.72 0.90 0.66 0.63 0.65 0.53 0.38 0.37 0.83 0.86 0.98 2.09 1.72 1.22 1.32 0.64 0.29 0.24 0.25 0.16 0.21 0.21 0.23 0.40 0.35 0.20 0.16 0.08
0.00 0.00 0.00 0.04 0.02 0.00 0.02 0.06 0.02 0.16 0.27 0.40 0.34 0.16 0.04 0.04 0.11 0.15 0.28 0.19 0.27 0.53 0.60 0.47 0.69 0.73 0.69 0.48 0.55 0.73 0.83 0.85 1.33 1.12 1.12 1.34 0.70 0.46 0.36 0.30 0.25 0.16 0.18 0.16 0.18 0.30 0.48 0.47 0.33
0.00 0.00 0.00 0.05 0.01 0.00 0.01 0.13 0.25 0.31 0.13 0.33 0.47 0.10 0.03 0.00 0.02 0.03 0.04 0.05 0.16 0.20 0.44 0.64 0.86 1.18 1.11 0.46 0.58 0.67 0.72 0.79 1.03 0.88 1.00 1.40 0.74 0.47 0.34 0.29 0.28 0.24 0.16 0.12 0.07 0.07 0.24 0.35 0.31
0.00 0.00 0.00 0.00 0.00 0.00 0.00 0.00 0.03 0.15 0.27 0.39 0.29 0.04 0.00 0.00 0.01 0.02 0.02 0.02 0.08 0.18 0.30 0.59 0.92 1.09 1.33 1.20 1.45 1.21 0.85 0.75 0.82 0.68 0.83 1.47 0.95 0.67 0.31 0.23 0.24 0.21 0.16 0.07 0.02 0.07 0.06 0.14 0.19
0.00 0.00 0.00 0.00 0.00 0.00 0.00 0.00 0.00 0.02 0.06 0.06 0.05 0.02 0.01 0.00 0.00 0.00 0.01 0.03 0.04 0.07 0.29 0.67 1.07 1.58 2.74 1.92 1.10 0.62 0.61 0.64 0.69 0.76 0.74 1.32 0.86 0.76 0.79 0.43 0.31 0.26 0.16 0.08 0.02 0.05 0.06 0.03 0.07
0.00 0.00 0.00 0.00 0.00 0.00 0.00 0.00 0.00 0.00 0.01 0.03 0.04 0.03 0.01 0.00 0.00 0.01 0.01 0.04 0.03 0.16 0.49 0.75 0.83 0.94 0.82 0.38 0.34 0.35 0.47 0.66 0.75 0.87 0.63 1.18 0.98 0.62 0.88 0.98 0.46 0.39 0.18 0.06 0.03 0.06 0.07 0.06 0.04
0.00 0.00 0.00 0.00 0.00 0.00 0.00 0.00 0.00 0.00 0.00 0.00 0.01 0.01 0.00 0.00 0.00 0.01 0.05 0.11 0.18 0.33 0.37 0.23 0.09 0.06 0.10 0.11 0.15 0.17 0.20 0.42 0.49 1.08 0.77 0.81 0.89 0.35 0.41 0.67 0.61 0.44 0.21 0.12 0.08 0.10 0.08 0.07 0.04
0.00 0.00 0.00 0.00 0.00 0.00 0.00 0.00 0.00 0.00 0.01 0.01 0.01 0.00 0.00 0.00 0.00 0.04 0.06 0.07 0.06 0.04 0.10 0.05 0.04 0.03 0.03 0.06 0.09 0.17 0.12 0.20 0.35 1.04 1.12 0.76 0.73 0.47 0.26 0.36 0.45 0.47 0.33 0.23 0.08 0.09 0.10 0.06 0.06
0.01 0.00 0.00 0.00 0.00 0.02 0.00 0.00 0.01 0.00 0.00 0.00 0.01 0.01 0.01 0.00 0.01 0.01 0.00 0.01 0.01 0.06 0.03 0.06 0.10 0.05 0.05 0.03 0.04 0.06 0.09 0.11 0.19 0.43 0.68 0.78 0.60 0.55 0.35 0.33 0.40 0.52 0.37 0.28 0.16 0.16 0.17 0.16 0.12
0.01 0.00 0.00 0.00 0.00 0.01 0.02 0.00 0.02 0.00 0.00 0.00 0.00 0.00 0.00 0.00 0.00 0.00 0.00 0.01 0.03 0.04 0.06 0.10 0.09 0.11 0.12 0.07 0.08 0.09 0.10 0.18 0.20 0.31 0.62 0.71 0.74 0.67 0.63 0.55 0.57 0.49 0.61 0.38 0.28 0.28 0.30 0.21 0.15
0.00 0.00 0.00 0.00 0.00 0.00 0.01 0.02 0.01 0.01 0.01 0.03 0.02 0.00 0.00 0.00 0.01 0.00 0.01 0.00 0.01 0.03 0.03 0.08 0.12 0.16 0.19 0.18 0.14 0.18 0.24 0.17 0.15 0.24 0.65 0.77 0.77 0.78 0.70 0.69 0.77 0.66 0.55 0.71 0.47 0.45 0.41 0.31 0.23
0.00 0.02 0.05 0.13 0.05 0.02 0.05 0.05 0.03 0.00 0.00 0.01 0.01 0.00 0.00 0.01 0.01 0.00 0.00 0.01 0.03 0.04 0.07 0.16 0.17 0.20 0.21 0.19 0.28 0.21 0.19 0.15 0.10 0.10 0.18 0.56 0.91 0.85 0.82 0.67 0.75 0.74 0.58 0.65 0.66 0.55 0.52 0.51 0.62
0.02 0.02 0.16 0.25 0.09 0.07 0.06 0.02 0.01 0.01 0.00 0.00 0.00 0.00 0.00 0.00 0.00 0.00 0.01 0.03 0.06 0.05 0.12 0.28 0.31 0.25 0.25 0.24 0.27 0.28 0.17 0.12 0.15 0.07 0.13 0.17 0.48 0.64 1.01 0.90 0.81 0.92 0.76 0.86 1.14 1.22 1.19 1.18 1.28
0.12 0.08 0.08 0.22 0.07 0.06 0.01 0.00 0.00 0.00 0.00 0.00 0.00 0.03 0.10 0.03 0.02 0.01 0.02 0.05 0.06 0.06 0.10 0.21 0.22 0.12 0.17 0.19 0.18 0.24 0.25 0.16 0.18 0.16 0.13 0.29 0.42 0.75 0.89 1.16 1.07 1.03 1.19 1.25 1.49 1.71 1.77 1.65 1.47
0.11 0.10 0.15 0.14 0.12 0.08 0.00 0.01 0.02 0.02 0.01 0.01 0.00 0.03 0.26 0.19 0.13 0.11 0.10 0.08 0.09 0.08 0.14 0.19 0.12 0.09 0.04 0.04 0.09 0.15 0.23 0.25 0.23 0.31 0.43 0.58 0.51 0.71 0.85 1.21 1.64 1.58 1.52 1.47 1.55 1.71 1.74 1.76 1.52
0.15 0.26 0.19 0.21 0.10 0.14 0.09 0.02 0.02 0.03 0.02 0.02 0.01 0.02 0.10 0.28 0.27 0.19 0.11 0.05 0.06 0.11 0.14 0.19 0.22 0.19 0.20 0.19 0.19 0.15 0.14 0.29 0.47 0.53 0.88 0.73 0.73 1.08 1.61 1.69 1.77 1.77 1.57 1.60 1.66 1.69 1.72 1.65 1.55
0.05 0.15 0.15 0.32 0.19 0.04 0.04 0.02 0.01 0.01 0.02 0.05 0.21 0.13 0.17 0.34 0.22 0.11 0.06 0.06 0.10 0.13 0.14 0.11 0.31 0.54 0.40 0.33 0.34 0.32 0.46 0.70 1.05 1.01 1.14 1.38 1.68 1.64 1.82 1.85 1.60 1.54 1.39 1.37 1.41 1.38 1.27 1.24 1.16

GFSSGP_prec_precacc_129.txt.gz
Total_Precipitation_Accumulation
0.00 0.00 0.00 0.00 0.00 0.00 0.00 0.00 0.00 0.05 0.11 0.16 0.13 0.21 0.19 0.22 0.84 1.30 1.00 1.68 1.99 1.19 1.00 0.80 0.68 0.22 0.14 0.32 0.11 0.04 0.04 0.04 0.02 0.02 0.03 0.16 0.20 0.20 0.27 0.45 0.43 0.56 0.54 0.35 0.25 0.37 0.60 0.55 0.45
0.00 0.00 0.00 0.00 0.00 0.00 0.00 0.00 0.02 0.10 0.36 0.55 0.37 0.34 0.25 0.35 0.64 0.97 0.96 1.28 1.51 0.95 1.22 0.91 1.05 1.11 0.52 0.42 0.21 0.14 0.07 0.02 0.01 0.11 0.13 0.31 0.23 0.35 0.85 1.10 1.01 0.82 0.72 0.47 0.36 0.38 1.15 0.89 0.75
0.00 0.00 0.00 0.00 0.00 0.00 0.00 0.01 0.02 0.05 0.21 0.23 0.24 0.27 0.36 0.47 0.46 0.61 0.72 0.64 0.97 0.93 0.58 0.94 1.10 0.97 0.77 0.45 0.26 0.40 0.46 0.32 0.07 0.08 0.27 0.43 0.63 1.35 2.27 2.56 1.55 1.63 1.46 0.94 0.64 0.42 0.83 1.12 0.80
0.00 0.00 0.00 0.00 0.00 0.00 0.00 0.00 0.02 0.08 0.14 0.18 0.20 0.67 0.40 0.49 0.59 0.72 0.74 0.90 1.58 1.21 1.41 2.04 1.78 1.51 0.84 0.62 0.82 1.07 1.06 0.81 0.56 0.48 0.69 0.96 1.44 2.35 2.37 1.55 1.31 1.69 2.89 1.44 0.95 0.51 0.27 0.29 0.57
0.00 0.00 0.00 0.00 0.00 0.01 0.01 0.05 0.18 0.22 0.21 0.51 0.22 0.70 0.86 0.43 0.35 0.62 1.26 2.27 3.38 2.60 2.46 3.18 4.31 3.80 2.88 1.90 1.41 1.43 1.64 1.34 1.36 1.76 1.81 1.84 1.80 2.47 1.39 0.66 1.01 2.34 2.17 0.79 0.66 0.45 0.30 0.44 0.19
0.00 0.00 0.00 0.00 0.00 0.01 0.04 0.16 0.24 0.32 0.21 0.26 0.33 0.61 0.69 0.32 0.40 0.80 1.81 3.39 6.23 6.22 5.28 5.61 6.69 5.82 4.58 3.52 2.31 2.32 2.14 1.88 1.91 1.66 2.13 2.45 1.33 1.09 0.74 0.38 0.38 0.53 0.44 0.42 0.34 0.21 0.27 0.33 0.19
0.00 0.00 0.00 0.00 0.00 0.00 0.04 0.30 0.47 0.35 0.16 0.20 0.22 0.29 0.93 0.71 0.64 1.36 1.46 2.44 2.54 4.44 5.85 6.89 7.53 8.33 7.50 4.24 3.28 3.30 3.37 2.92 2.39 2.16 1.95 2.16 1.61 1.24 0.94 0.40 0.27 0.21 0.14 0.21 0.29 0.27 0.33 0.29 0.26
0.00 0.00 0.00 0.00 0.00 0.03 0.10 0.11 0.15 0.08 0.10 0.21 0.16 0.80 1.24 1.02 0.64 0.85 1.08 1.79 2.04 2.47 3.24 3.59 3.72 7.19 11.78 7.98 5.02 4.13 3.79 3.59 2.59 2.39 1.75 1.31 1.54 1.53 1.36 0.54 0.25 0.20 0.16 0.22 0.36 0.53 0.62 0.41 0.34
0.00 0.00 0.00 0.01 0.02 0.18 0.25 0.17 0.26 0.11 0.01 0.04 0.21 1.07 0.42 0.22 0.31 0.49 0.93 1.88 2.77 2.72 2.37 1.88 2.59 3.36 5.96 9.66 6.51 5.17 4.19 2.77 2.60 2.23 1.68 1.18 0.95 0.88 0.82 0.47 0.29 0.24 0.26 0.35 0.44 0.39 0.52 0.60 0.42
0.00 0.00 0.00 0.03 0.08 0.25 0.33 0.04 0.18 0.07 0.03 0.19 0.63 1.02 0.34 0.21 0.24 0.38 0.89 1.51 1.86 1.93 2.26 1.84 1.27 1.32 1.96 4.35 4.17 4.51 4.56 2.70 2.16 1.78 1.29 1.12 0.94 0.55 0.40 0.28 0.24 0.40 0.34 0.33 0.27 0.30 0.36 0.47 0.35
0.00 0.00 0.00 0.00 0.06 0.10 0.29 0.01 0.05 0.03 0.06 0.42 0.46 0.60 0.36 0.34 0.35 0.47 0.59 0.83 0.88 1.33 1.64 1.27 1.16 0.93 1.08 2.16 1.84 2.30 3.08 3.35 2.28 1.97 1.23 1.22 0.84 0.52 0.49 0.29 0.31 0.62 0.40 0.14 0.14 0.13 0.16 0.24 0.29
0.00 0.00 0.00 0.00 0.00 0.00 0.00 0.07 0.15 0.09 0.10 0.21 0.45 0.47 0.33 0.41 0.53 0.49 0.64 0.48 0.50 0.70 0.89 0.91 0.51 0.66 0.99 0.96 1.13 1.41 1.43 3.07 2.83 2.18 1.63 1.33 0.85 0.37 0.32 0.23 0.23 0.21 0.38 0.18 0.08 0.11 0.16 0.20 0.23
0.00 0.00 0.00 0.00 0.01 0.00 0.01 0.09 0.11 0.01 0.05 0.22 0.39 0.26 0.25 0.29 0.59 1.26 0.48 0.53 0.77 0.73 0.82 0.81 0.67 0.64 0.58 0.38 0.48 1.15 0.96 1.74 2.79 2.25 1.78 1.30 0.78 0.34 0.19 0.17 0.21 0.15 0.23 0.31 0.26 0.17 0.19 0.20 0.27
0.00 0.00 0.00 0.00 0.00 0.00 0.00 0.18 0.02 0.11 0.13 0.30 0.94 0.29 0.16 0.19 0.16 0.42 0.54 0.43 0.73 0.72 0.90 0.66 0.63 0.65 0.53 0.38 0.37 0.83 0.86 0.98 2.10 1.72 1.22 1.32 0.64 0.29 0.24 0.25 0.16 0.21 0.21 0.23 0.40 0.35 0.20 0.16 0.13
0.00 0.00 0.00 0.04 0.02 0.00 0.02 0.06 0.02 0.16 0.27 0.40 0.34 0.16 0.04 0.04 0.11 0.15 0.28 0.19 0.27 0.53 0.60 0.47 0.69 0.73 0.69 0.48 0.55 0.73 0.83 0.85 1.33 1.12 1.12 1.34 0.70 0.46 0.36 0.30 0.25 0.16 0.18 0.16 0.18 0.30 0.48 0.47 0.34
0.00 0.00 0.00 0.05 0.01 0.00 0.01 0.13 0.25 0.31 0.13 0.33 0.47 0.10 0.03 0.00 0.02 0.03 0.04 0.05 0.16 0.20 0.44 0.64 0.86 1.18 1.11 0.46 0.58 0.67 0.72 0.79 1.03 0.88 1.00 1.40 0.74 0.47 0.34 0.29 0.28 0.24 0.16 0.12 0.07 0.07 0.24 0.35 0.31
0.00 0.00 0.00 0.00 0.00 0.00 0.00 0.00 0.03 0.15 0.27 0.39 0.29 0.04 0.00 0.00 0.01 0.02 0.02 0.02 0.08 0.18 0.30 0.59 0.92 1.09 1.33 1.20 1.45 1.21 0.85 0.75 0.82 0.68 0.83 1.47 0.95 0.67 0.31 0.23 0.24 0.21 0.16 0.07 0.02 0.07 0.06 0.14 0.20
0.00 0.00 0.00 0.00 0.00 0.00 0.00 0.00 0.00 0.02 0.06 0.06 0.05 0.02 0.01 0.00 0.00 0.00 0.01 0.03 0.04 0.07 0.29 0.67 1.07 1.58 2.74 1.92 1.10 0.62 0.61 0.64 0.69 0.76 0.74 1.32 0.86 0.76 0.79 0.43 0.31 0.26 0.16 0.08 0.02 0.05 0.06 0.03 0.07
0.00 0.00 0.00 0.00 0.00 0.00 0.00 0.00 0.00 0.00 0.01 0.03 0.04 0.03 0.01 0.00 0.00 0.01 0.01 0.04 0.03 0.16 0.49 0.75 0.83 0.94 0.82 0.38 0.34 0.35 0.47 0.66 0.75 0.87 0.63 1.18 0.98 0.62 0.88 0.98 0.46 0.39 0.18 0.06 0.03 0.06 0.07 0.06 0.04
0.00 0.00 0.00 0.00 0.00 0.00 0.00 0.00 0.00 0.00 0.00 0.00 0.01 0.01 0.00 0.00 0.00 0.01 0.05 0.11 0.18 0.33 0.37 0.23 0.09 0.06 0.10 0.11 0.15 0.17 0.20 0.42 0.49 1.08 0.77 0.81 0.89 0.35 0.41 0.67 0.61 0.44 0.21 0.12 0.09 0.10 0.09 0.07 0.04
0.00 0.00 0.00 0.00 0.00 0.00 0.00 0.00 0.00 0.00 0.01 0.01 0.01 0.00 0.00 0.00 0.00 0.04 0.06 0.07 0.06 0.04 0.10 0.05 0.04 0.03 0.03 0.06 0.09 0.17 0.17 0.25 0.37 1.04 1.12 0.76 0.74 0.48 0.27 0.36 0.45 0.47 0.33 0.23 0.09 0.09 0.10 0.07 0.06
0.01 0.00 0.00 0.00 0.00 0.02 0.00 0.00 0.01 0.00 0.00 0.00 0.01 0.01 0.01 0.00 0.01 0.01 0.00 0.01 0.01 0.06 0.03 0.06 0.10 0.05 0.05 0.03 0.04 0.06 0.09 0.11 0.19 0.43 0.68 0.78 0.60 0.55 0.36 0.34 0.41 0.52 0.38 0.28 0.16 0.16 0.18 0.16 0.12
0.01 0.00 0.00 0.00 0.00 0.01 0.02 0.00 0.02 0.00 0.00 0.00 0.00 0.00 0.00 0.00 0.00 0.00 0.00 0.01 0.03 0.04 0.06 0.10 0.09 0.11 0.12 0.07 0.08 0.09 0.10 0.18 0.20 0.31 0.62 0.71 0.74 0.67 0.63 0.56 0.58 0.50 0.62 0.39 0.29 0.29 0.32 0.23 0.15
0.00 0.00 0.00 0.00 0.00 0.00 0.01 0.02 0.01 0.01 0.01 0.03 0.02 0.00 0.00 0.00 0.01 0.00 0.01 0.00 0.01 0.03 0.03 0.08 0.12 0.16 0.19 0.18 0.14 0.18 0.24 0.17 0.15 0.24 0.66 0.78 0.77 0.78 0.70 0.70 0.78 0.67 0.56 0.72 0.47 0.45 0.43 0.32 0.25
0.00 0.02 0.06 0.13 0.05 0.02 0.05 0.05 0.03 0.00 0.00 0.01 0.01 0.00 0.00 0.01 0.01 0.00 0.00 0.01 0.03 0.04 0.07 0.16 0.17 0.20 0.21 0.19 0.28 0.21 0.19 0.16 0.10 0.10 0.19 0.56 0.91 0.85 0.83 0.68 0.76 0.75 0.59 0.66 0.67 0.56 0.53 0.53 0.63
0.02 0.03 0.23 0.35 0.09 0.07 0.06 0.02 0.01 0.01 0.01 0.02 0.01 0.01 0.00 0.00 0.00 0.00 0.01 0.03 0.06 0.05 0.12 0.28 0.31 0.25 0.26 0.26 0.32 0.32 0.21 0.19 0.18 0.08 0.13 0.17 0.48 0.64 1.01 0.91 0.81 0.93 0.77 0.87 1.15 1.23 1.20 1.20 1.30
0.12 0.08 0.08 0.30 0.08 0.08 0.01 0.00 0.00 0.01 0.03 0.06 0.05 0.04 0.10 0.07 0.07 0.05 0.04 0.06 0.06 0.06 0.10 0.21 0.22 0.13 0.23 0.30 0.28 0.31 0.31 0.19 0.19 0.17 0.14 0.29 0.42 0.75 0.89 1.16 1.07 1.03 1.20 1.25 1.50 1.72 1.79 1.67 1.49
0.11 0.10 0.16 0.17 0.16 0.11 0.00 0.01 0.02 0.02 0.03 0.02 0.01 0.04 0.31 0.33 0.32 0.28 0.21 0.15 0.12 0.10 0.16 0.21 0.16 0.13 0.10 0.13 0.18 0.23 0.27 0.31 0.27 0.33 0.43 0.58 0.51 0.71 0.86 1.21 1.64 1.58 1.52 1.47 1.56 1.72 1.75 1.77 1.54
0.15 0.26 0.20 0.24 0.11 0.20 0.13 0.02 0.02 0.05 0.07 0.03 0.08 0.13 0.17 0.64 0.65 0.43 0.24 0.15 0.15 0.17 0.19 0.25 0.28 0.24 0.25 0.25 0.24 0.18 0.18 0.37 0.53 0.57 0.90 0.73 0.74 1.09 1.62 1.70 1.77 1.77 1.57 1.61 1.67 1.70 1.73 1.66 1.56
0.05 0.15 0.15 0.44 0.25 0.08 0.10 0.03 0.01 0.06 0.08 0.07 0.28 0.39 0.32 0.57 0.80 0.41 0.12 0.10 0.13 0.16 0.16 0.13 0.32 0.56 0.42 0.35 0.37 0.32 0.47 0.73 1.09 1.07 1.19 1.39 1.69 1.65 1.82 1.85 1.61 1.54 1.39 1.37 1.41 1.39 1.28 1.25 1.18

GFSSGP_prec_precacc_132.txt.gz
Total_Precipitation_Accumulation
0.00 0.00 0.00 0.00 0.00 0.00 0.00 0.00 0.00 0.05 0.11 0.16 0.13 0.21 0.19 0.22 0.84 1.30 1.00 1.68 1.99 1.19 1.00 0.80 0.68 0.22 0.14 0.32 0.11 0.04 0.04 0.04 0.02 0.02 0.03 0.16 0.20 0.20 0.27 0.45 0.43 0.56 0.54 0.36 0.25 0.37 0.61 0.58 0.47
0.00 0.00 0.00 0.00 0.00 0.00 0.00 0.00 0.02 0.10 0.36 0.55 0.37 0.34 0.25 0.35 0.64 0.97 0.96 1.28 1.51 0.95 1.22 0.91 1.05 1.11 0.52 0.42 0.21 0.14 0.07 0.02 0.01 0.11 0.13 0.31 0.23 0.35 0.85 1.10 1.01 0.82 0.72 0.47 0.36 0.38 1.16 0.89 0.76
0.00 0.00 0.00 0.00 0.00 0.00 0.00 0.01 0.02 0.05 0.21 0.23 0.24 0.27 0.36 0.47 0.46 0.61 0.72 0.64 0.97 0.93 0.58 0.94 1.10 0.97 0.77 0.45 0.26 0.40 0.46 0.32 0.07 0.08 0.27 0.43 0.63 1.35 2.27 2.56 1.55 1.63 1.49 0.97 0.64 0.42 0.83 1.12 0.80
0.00 0.00 0.00 0.00 0.00 0.00 0.00 0.00 0.02 0.08 0.14 0.18 0.20 0.67 0.40 0.49 0.59 0.72 0.74 0.90 1.58 1.21 1.41 2.04 1.78 1.51 0.84 0.62 0.82 1.07 1.06 0.81 0.56 0.48 0.69 0.96 1.44 2.35 2.37 1.55 1.31 1.69 2.90 1.46 0.98 0.52 0.28 0.29 0.57
0.00 0.00 0.00 0.00 0.00 0.01 0.01 0.05 0.18 0.22 0.21 0.51 0.22 0.70 0.86 0.43 0.35 0.62 1.26 2.27 3.38 2.60 2.46 3.18 4.31 3.80 2.88 1.90 1.41 1.43 1.64 1.34 1.36 1.76 1.81 1.84 1.80 2.47 1.39 0.66 1.01 2.34 2.20 0.88 0.71 0.47 0.30 0.44 0.19
0.00 0.00 0.00 0.00 0.00 0.01 0.04 0.16 0.24 0.32 0.21 0.26 0.33 0.61 0.69 0.32 0.40 0.80 1.81 3.39 6.23 6.22 5.28 5.61 6.69 5.82 4.58 3.52 2.31 2.32 2.14 1.88 1.91 1.66 2.13 2.45 1.33 1.09 0.74 0.38 0.38 0.53 0.49 0.51 0.39 0.21 0.27 0.33 0.19
0.00 0.00 0.00 0.00 0.00 0.00 0.04 0.30 0.47 0.35 0.16 0.20 0.22 0.29 0.93 0.71 0.64 1.36 1.46 2.44 2.54 4.44 5.85 6.89 7.53 8.33 7.50 4.24 3.28 3.30 3.37 2.92 2.39 2.16 1.95 2.16 1.61 1.24 0.94 0.40 0.27 0.21 0.16 0.28 0.35 0.27 0.33 0.29 0.26
0.00 0.00 0.00 0.00 0.00 0.03 0.10 0.11 0.15 0.08 0.10 0.21 0.16 0.80 1.24 1.02 0.64 0.85 1.08 1.79 2.04 2.47 3.24 3.59 3.72 7.19 11.78 7.98 5.02 4.13 3.79 3.59 2.59 2.39 1.75 1.31 1.54 1.53 1.36 0.54 0.25 0.20 0.16 0.29 0.41 0.56 0.62 0.42 0.34
0.00 0.00 0.00 0.01 0.02 0.18 0.25 0.17 0.26 0.11 0.01 0.04 0.21 1.07 0.42 0.22 0.31 0.49 0.93 1.88 2.77 2.72 2.37 1.88 2.59 3.36 5.96 9.66 6.51 5.17 4.19 2.77 2.60 2.23 1.68 1.18 0.95 0.88 0.82 0.47 0.29 0.24 0.26 0.39 0.53 0.49 0.52 0.65 0.42
0.00 0.00 0.00 0.03 0.08 0.25 0.33 0.04 0.18 0.07 0.03 0.19 0.63 1.02 0.34 0.21 0.24 0.38 0.89 1.51 1.86 1.93 2.26 1.84 1.27 1.32 1.96 4.35 4.17 4.51 4.56 2.70 2.16 1.78 1.29 1.12 0.94 0.55 0.40 0.28 0.24 0.40 0.34 0.36 0.33 0.37 0.39 0.48 0.35
0.00 0.00 0.00 0.00 0.06 0.10 0.29 0.01 0.05 0.03 0.06 0.42 0.46 0.60 0.36 0.34 0.35 0.47 0.59 0.83 0.88 1.33 1.64 1.27 1.16 0.93 1.08 2.16 1.84 2.30 3.08 3.35 2.28 1.97 1.23 1.22 0.84 0.52 0.49 0.29 0.31 0.62 0.40 0.14 0.16 0.14 0.16 0.24 0.29
0.00 0.00 0.00 0.00 0.00 0.00 0.00 0.07 0.15 0.09 0.10 0.21 0.45 0.47 0.33 0.41 0.53 0.49 0.64 0.48 0.50 0.70 0.89 0.91 0.51 0.66 0.99 0.96 1.13 1.41 1.43 3.07 2.83 2.18 1.63 1.33 0.85 0.37 0.32 0.23 0.23 0.21 0.38 0.18 0.09 0.11 0.16 0.20 0.23
0.00 0.00 0.00 0.00 0.01 0.00 0.01 0.09 0.11 0.01 0.05 0.22 0.39 0.26 0.25 0.29 0.59 1.26 0.48 0.53 0.77 0.73 0.82 0.81 0.67 0.64 0.58 0.38 0.48 1.15 0.96 1.74 2.79 2.25 1.78 1.30 0.78 0.34 0.19 0.17 0.21 0.15 0.23 0.31 0.26 0.17 0.19 0.20 0.27
0.00 0.00 0.00 0.00 0.00 0.00 0.00 0.18 0.02 0.11 0.13 0.30 0.94 0.29 0.16 0.19 0.16 0.42 0.54 0.43 0.73 0.72 0.90 0.66 0.63 0.65 0.53 0.38 0.37 0.83 0.86 0.99 2.10 1.72 1.22 1.32 0.64 0.29 0.24 0.25 0.16 0.21 0.21 0.23 0.40 0.35 0.20 0.16 0.20
0.00 0.00 0.00 0.04 0.02 0.00 0.02 0.06 0.02 0.16 0.27 0.40 0.34 0.16 0.04 0.04 0.11 0.15 0.28 0.19 0.27 0.53 0.60 0.47 0.69 0.73 0.69 0.48 0.55 0.73 0.83 0.86 1.33 1.12 1.12 1.34 0.70 0.46 0.36 0.30 0.25 0.16 0.18 0.16 0.18 0.30 0.48 0.47 0.37
0.00 0.00 0.00 0.05 0.01 0.00 0.01 0.13 0.25 0.31 0.13 0.33 0.47 0.10 0.03 0.00 0.02 0.03 0.04 0.05 0.16 0.20 0.44 0.64 0.86 1.18 1.11 0.46 0.58 0.67 0.72 0.79 1.03 0.88 1.00 1.40 0.74 0.47 0.34 0.29 0.28 0.24 0.16 0.12 0.07 0.07 0.24 0.35 0.31
0.00 0.00 0.00 0.00 0.00 0.00 0.00 0.00 0.03 0.15 0.27 0.39 0.29 0.04 0.00 0.00 0.01 0.02 0.02 0.02 0.08 0.18 0.30 0.59 0.92 1.09 1.33 1.20 1.45 1.21 0.85 0.75 0.82 0.68 0.83 1.47 0.95 0.67 0.31 0.23 0.24 0.21 0.16 0.07 0.02 0.07 0.06 0.14 0.20
0.00 0.00 0.00 0.00 0.00 0.00 0.00 0.00 0.00 0.02 0.06 0.06 0.05 0.02 0.01 0.00 0.00 0.00 0.01 0.03 0.04 0.07 0.29 0.67 1.07 1.58 2.74 1.92 1.10 0.62 0.61 0.64 0.69 0.76 0.74 1.32 0.86 0.76 0.79 0.43 0.31 0.26 0.16 0.08 0.02 0.05 0.06 0.03 0.07
0.00 0.00 0.00 0.00 0.00 0.00 0.00 0.00 0.00 0.00 0.01 0.03 0.04 0.03 0.01 0.00 0.00 0.01 0.01 0.04 0.03 0.16 0.49 0.75 0.83 0.94 0.82 0.38 0.34 0.35 0.47 0.66 0.75 0.87 0.63 1.18 0.98 0.62 0.88 0.98 0.46 0.39 0.18 0.06 0.03 0.06 0.07 0.06 0.04
0.00 0.00 0.00 0.00 0.00 0.00 0.00 0.00 0.00 0.00 0.00 0.00 0.01 0.01 0.00 0.00 0.00 0.01 0.05 0.11 0.18 0.33 0.37 0.23 0.09 0.06 0.10 0.11 0.15 0.17 0.20 0.42 0.49 1.08 0.77 0.81 0.89 0.35 0.41 0.67 0.61 0.44 0.21 0.12 0.09 0.10 0.09 0.07 0.04
0.00 0.00 0.00 0.00 0.00 0.00 0.00 0.00 0.00 0.00 0.01 0.01 0.01 0.00 0.00 0.00 0.00 0.04 0.06 0.07 0.06 0.04 0.10 0.05 0.04 0.03 0.03 0.06 0.09 0.17 0.17 0.26 0.37 1.04 1.12 0.76 0.74 0.48 0.27 0.36 0.45 0.47 0.33 0.23 0.09 0.09 0.10 0.07 0.06
0.01 0.00 0.00 0.00 0.00 0.02 0.00 0.00 0.01 0.00 0.00 0.00 0.01 0.01 0.01 0.00 0.01 0.01 0.00 0.01 0.01 0.06 0.03 0.06 0.10 0.05 0.05 0.03 0.04 0.06 0.09 0.11 0.19 0.43 0.68 0.78 0.60 0.55 0.36 0.34 0.41 0.53 0.38 0.28 0.16 0.16 0.18 0.17 0.13
0.01 0.00 0.00 0.00 0.00 0.01 0.02 0.00 0.02 0.00 0.00 0.00 0.00 0.01 0.00 0.00 0.00 0.00 0.00 0.01 0.03 0.04 0.06 0.10 0.09 0.11 0.12 0.07 0.08 0.09 0.10 0.18 0.20 0.31 0.62 0.71 0.74 0.67 0.64 0.57 0.59 0.51 0.62 0.39 0.29 0.29 0.33 0.23 0.16
0.00 0.00 0.00 0.00 0.00 0.00 0.01 0.02 0.01 0.01 0.01 0.04 0.08 0.04 0.01 0.00 0.01 0.00 0.01 0.00 0.01 0.03 0.03 0.08 0.12 0.16 0.19 0.18 0.14 0.18 0.24 0.17 0.15 0.24 0.66 0.78 0.79 0.79 0.71 0.71 0.79 0.69 0.57 0.73 0.49 0.46 0.43 0.33 0.26
0.00 0.02 0.06 0.13 0.05 0.02 0.05 0.05 0.03 0.00 0.01 0.09 0.11 0.02 0.02 0.05 0.04 0.01 0.01 0.01 0.03 0.04 0.07 0.16 0.17 0.20 0.21 0.19 0.28 0.21 0.19 0.16 0.10 0.10 0.19 0.57 0.91 0.85 0.83 0.69 0.77 0.76 0.61 0.68 0.69 0.57 0.54 0.53 0.64
0.02 0.03 0.24 0.36 0.09 0.07 0.06 0.02 0.01 0.01 0.04 0.08 0.11 0.08 0.11 0.15 0.10 0.03 0.01 0.03 0.06 0.05 0.12 0.28 0.31 0.25 0.26 0.27 0.32 0.32 0.21 0.19 0.19 0.09 0.13 0.17 0.48 0.64 1.01 0.91 0.82 0.94 0.78 0.89 1.16 1.25 1.21 1.20 1.31
0.12 0.08 0.08 0.31 0.08 0.09 0.01 0.00 0.00 0.01 0.03 0.06 0.09 0.11 0.22 0.20 0.17 0.10 0.07 0.08 0.07 0.07 0.10 0.21 0.22 0.16 0.25 0.32 0.32 0.35 0.37 0.31 0.25 0.21 0.19 0.31 0.42 0.75 0.90 1.17 1.08 1.05 1.22 1.27 1.52 1.75 1.80 1.68 1.49
0.11 0.10 0.17 0.19 0.17 0.12 0.00 0.01 0.02 0.03 0.03 0.02 0.02 0.10 0.45 0.38 0.37 0.37 0.31 0.22 0.15 0.11 0.17 0.22 0.20 0.20 0.22 0.32 0.35 0.36 0.39 0.47 0.39 0.44 0.51 0.61 0.52 0.71 0.87 1.23 1.66 1.60 1.54 1.49 1.58 1.73 1.76 1.78 1.55
0.15 0.26 0.20 0.25 0.12 0.25 0.16 0.02 0.03 0.07 0.08 0.04 0.10 0.27 0.33 0.69 0.66 0.61 0.47 0.34 0.24 0.21 0.24 0.29 0.34 0.35 0.41 0.43 0.40 0.32 0.33 0.54 0.71 0.72 1.02 0.83 0.80 1.11 1.66 1.73 1.79 1.78 1.59 1.62 1.69 1.71 1.74 1.67 1.57
0.05 0.15 0.15 0.52 0.30 0.12 0.17 0.05 0.01 0.07 0.09 0.09 0.35 0.55 0.52 0.65 0.87 0.98 0.63 0.30 0.23 0.22 0.19 0.17 0.38 0.63 0.51 0.49 0.53 0.46 0.58 0.85 1.25 1.25 1.36 1.54 1.82 1.77 1.95 1.92 1.61 1.55 1.40 1.38 1.42 1.40 1.28 1.25 1.18

GFSSGP_prec_precacc_135.txt.gz
Total_Precipitation_Accumulation
0.00 0.00 0.00 0.00 0.00 0.00 0.00 0.00 0.00 0.05 0.11 0.16 0.13 0.21 0.19 0.22 0.84 1.30 1.00 1.68 1.99 1.19 1.00 0.80 0.68 0.22 0.14 0.32 0.11 0.04 0.04 0.04 0.02 0.02 0.03 0.16 0.20 0.20 0.27 0.45 0.43 0.56 0.54 0.36 0.25 0.40 0.64 0.60 0.48
0.00 0.00 0.00 0.00 0.00 0.00 0.00 0.00 0.02 0.10 0.36 0.55 0.37 0.34 0.25 0.35 0.64 0.97 0.96 1.28 1.51 0.95 1.22 0.91 1.05 1.11 0.52 0.42 0.21 0.14 0.07 0.02 0.01 0.11 0.13 0.31 0.23 0.35 0.85 1.10 1.01 0.82 0.72 0.47 0.36 0.42 1.22 0.92 0.76
0.00 0.00 0.00 0.00 0.00 0.00 0.00 0.01 0.02 0.05 0.21 0.23 0.24 0.27 0.36 0.47 0.46 0.61 0.72 0.64 0.97 0.93 0.58 0.94 1.10 0.97 0.77 0.45 0.26 0.40 0.46 0.32 0.07 0.08 0.27 0.43 0.63 1.36 2.28 2.56 1.55 1.63 1.49 0.98 0.68 0.46 0.86 1.13 0.80
0.00 0.00 0.00 0.00 0.00 0.00 0.00 0.00 0.02 0.08 0.14 0.18 0.20 0.67 0.40 0.49 0.59 0.72 0.74 0.90 1.58 1.21 1.41 2.04 1.78 1.51 0.84 0.62 0.82 1.07 1.06 0.81 0.56 0.48 0.69 0.96 1.44 2.36 2.37 1.55 1.31 1.69 2.91 1.49 1.03 0.53 0.28 0.29 0.57
0.00 0.00 0.00 0.00 0.00 0.01 0.01 0.05 0.18 0.22 0.21 0.51 0.22 0.70 0.86 0.43 0.35 0.62 1.26 2.27 3.38 2.60 2.46 3.18 4.31 3.80 2.88 1.90 1.41 1.43 1.64 1.34 1.36 1.76 1.81 1.84 1.80 2.47 1.39 0.66 1.01 2.35 2.26 0.96 0.79 0.49 0.30 0.44 0.20
0.00 0.00 0.00 0.00 0.00 0.01 0.04 0.16 0.24 0.32 0.21 0.26 0.33 0.61 0.69 0.32 0.40 0.80 1.81 3.39 6.23 6.22 5.28 5.61 6.69 5.82 4.58 3.52 2.31 2.32 2.14 1.88 1.91 1.66 2.13 2.45 1.33 1.09 0.74 0.38 0.38 0.57 0.51 0.54 0.42 0.21 0.27 0.33 0.19
0.00 0.00 0.00 0.00 0.00 0.00 0.04 0.30 0.47 0.35 0.16 0.20 0.22 0.29 0.93 0.71 0.64 1.36 1.46 2.44 2.54 4.44 5.85 6.89 7.53 8.33 7.50 4.24 3.28 3.30 3.37 2.92 2.39 2.16 1.95 2.16 1.61 1.24 0.94 0.40 0.27 0.22 0.16 0.29 0.35 0.27 0.33 0.29 0.26
0.00 0.00 0.00 0.00 0.00 0.03 0.10 0.11 0.15 0.08 0.10 0.21 0.16 0.80 1.24 1.02 0.64 0.85 1.08 1.79 2.04 2.47 3.24 3.59 3.72 7.19 11.78 7.98 5.02 4.13 3.79 3.59 2.59 2.39 1.75 1.31 1.54 1.53 1.36 0.54 0.25 0.20 0.16 0.30 0.51 0.61 0.62 0.42 0.34
0.00 0.00 0.00 0.01 0.02 0.18 0.25 0.17 0.26 0.11 0.01 0.04 0.21 1.07 0.42 0.22 0.31 0.49 0.93 1.88 2.77 2.72 2.37 1.88 2.59 3.36 5.96 9.66 6.51 5.17 4.19 2.77 2.60 2.23 1.68 1.18 0.95 0.88 0.82 0.47 0.29 0.24 0.26 0.43 0.69 0.57 0.58 0.74 0.42
0.00 0.00 0.00 0.03 0.08 0.25 0.33 0.04 0.18 0.07 0.03 0.19 0.63 1.02 0.34 0.21 0.24 0.38 0.89 1.51 1.86 1.93 2.26 1.84 1.27 1.32 1.96 4.35 4.17 4.51 4.56 2.70 2.16 1.78 1.29 1.12 0.94 0.55 0.40 0.28 0.24 0.40 0.34 0.39 0.41 0.57 0.65 0.62 0.35
0.00 0.00 0.00 0.00 0.06 0.10 0.29 0.01 0.05 0.03 0.06 0.42 0.46 0.60 0.36 0.34 0.35 0.47 0.59 0.83 0.88 1.33 1.64 1.27 1.16 0.93 1.08 2.16 1.84 2.30 3.08 3.35 2.28 1.97 1.23 1.22 0.84 0.52 0.49 0.29 0.31 0.62 0.40 0.15 0.19 0.22 0.25 0.34 0.32
0.00 0.00 0.00 0.00 0.00 0.00 0.00 0.07 0.15 0.09 0.10 0.21 0.45 0.47 0.33 0.41 0.53 0.49 0.64 0.48 0.50 0.70 0.89 0.91 0.51 0.66 1.00 0.96 1.13 1.41 1.43 3.07 2.83 2.18 1.63 1.33 0.85 0.37 0.32 0.23 0.23 0.21 0.38 0.18 0.10 0.13 0.19 0.26 0.24
0.00 0.00 0.00 0.00 0.01 0.00 0.01 0.09 0.11 0.01 0.05 0.22 0.39 0.26 0.25 0.29 0.59 1.26 0.48 0.53 0.77 0.73 0.82 0.81 0.67 0.64 0.58 0.38 0.48 1.15 0.96 1.74 2.79 2.25 1.78 1.30 0.78 0.34 0.19 0.17 0.21 0.15 0.23 0.31 0.27 0.20 0.20 0.21 0.27
0.00 0.00 0.00 0.00 0.00 0.00 0.00 0.18 0.02 0.11 0.13 0.30 0.94 0.29 0.16 0.19 0.16 0.42 0.54 0.43 0.73 0.72 0.90 0.66 0.63 0.65 0.53 0.38 0.37 0.83 0.86 0.99 2.10 1.72 1.22 1.32 0.64 0.29 0.24 0.25 0.16 0.21 0.21 0.23 0.40 0.36 0.25 0.19 0.22
0.00 0.00 0.00 0.04 0.02 0.00 0.02 0.06 0.02 0.16 0.27 0.40 0.34 0.16 0.04 0.04 0.11 0.15 0.28 0.19 0.27 0.53 0.60 0.47 0.69 0.73 0.69 0.48 0.55 0.73 0.83 0.86 1.33 1.12 1.12 1.34 0.70 0.46 0.36 0.30 0.25 0.16 0.18 0.16 0.18 0.30 0.49 0.49 0.40
0.00 0.00 0.00 0.05 0.01 0.00 0.01 0.13 0.25 0.31 0.13 0.33 0.47 0.10 0.03 0.00 0.02 0.03 0.04 0.05 0.16 0.20 0.44 0.64 0.86 1.18 1.11 0.46 0.58 0.67 0.72 0.79 1.03 0.88 1.00 1.40 0.74 0.47 0.34 0.29 0.28 0.24 0.16 0.12 0.07 0.07 0.24 0.35 0.31
0.00 0.00 0.00 0.00 0.00 0.00 0.00 0.00 0.03 0.15 0.27 0.39 0.29 0.04 0.00 0.00 0.01 0.02 0.02 0.02 0.08 0.18 0.30 0.59 0.92 1.09 1.33 1.20 1.45 1.21 0.85 0.75 0.82 0.68 0.83 1.47 0.95 0.67 0.31 0.23 0.24 0.21 0.16 0.07 0.02 0.07 0.06 0.14 0.20
0.00 0.00 0.00 0.00 0.00 0.00 0.00 0.00 0.00 0.02 0.06 0.06 0.05 0.02 0.01 0.00 0.00 0.00 0.01 0.03 0.04 0.07 0.29 0.67 1.07 1.58 2.74 1.92 1.10 0.62 0.61 0.64 0.69 0.76 0.74 1.32 0.86 0.76 0.79 0.43 0.31 0.26 0.16 0.08 0.02 0.05 0.06 0.03 0.07
0.00 0.00 0.00 0.00 0.00 0.00 0.00 0.00 0.00 0.00 0.01 0.03 0.04 0.03 0.01 0.00 0.00 0.01 0.01 0.04 0.03 0.16 0.49 0.75 0.83 0.94 0.82 0.38 0.34 0.35 0.47 0.66 0.75 0.87 0.63 1.18 0.98 0.62 0.88 0.98 0.46 0.39 0.18 0.06 0.03 0.06 0.07 0.06 0.04
0.00 0.00 0.00 0.00 0.00 0.00 0.00 0.00 0.00 0.00 0.00 0.00 0.01 0.01 0.00 0.00 0.00 0.01 0.05 0.11 0.18 0.33 0.37 0.23 0.09 0.06 0.10 0.11 0.15 0.17 0.20 0.42 0.49 1.08 0.77 0.81 0.89 0.35 0.41 0.67 0.61 0.44 0.21 0.12 0.09 0.10 0.09 0.07 0.04
0.00 0.00 0.00 0.00 0.00 0.00 0.00 0.00 0.00 0.00 0.01 0.01 0.01 0.00 0.00 0.00 0.00 0.04 0.06 0.07 0.06 0.04 0.10 0.05 0.04 0.03 0.03 0.06 0.09 0.17 0.17 0.26 0.37 1.04 1.12 0.76 0.74 0.48 0.27 0.36 0.45 0.47 0.33 0.23 0.09 0.09 0.10 0.07 0.06
0.01 0.00 0.00 0.00 0.00 0.02 0.00 0.00 0.01 0.00 0.00 0.00 0.01 0.01 0.01 0.00 0.01 0.01 0.00 0.01 0.01 0.06 0.03 0.06 0.10 0.05 0.05 0.03 0.04 0.06 0.09 0.11 0.19 0.43 0.68 0.78 0.60 0.56 0.36 0.34 0.41 0.53 0.38 0.28 0.16 0.16 0.18 0.17 0.13
0.01 0.00 0.00 0.00 0.00 0.01 0.02 0.00 0.02 0.00 0.00 0.00 0.00 0.01 0.01 0.00 0.01 0.01 0.01 0.01 0.03 0.04 0.06 0.10 0.09 0.11 0.12 0.07 0.08 0.09 0.10 0.18 0.20 0.31 0.62 0.71 0.74 0.68 0.64 0.57 0.59 0.51 0.63 0.39 0.29 0.29 0.33 0.23 0.16
0.00 0.00 0.00 0.00 0.00 0.00 0.01 0.02 0.01 0.01 0.01 0.04 0.08 0.05 0.02 0.04 0.17 0.25 0.06 0.02 0.01 0.03 0.03 0.08 0.12 0.16 0.19 0.18 0.14 0.18 0.24 0.17 0.15 0.24 0.66 0.78 0.79 0.80 0.71 0.71 0.79 0.69 0.57 0.74 0.49 0.46 0.43 0.33 0.26
0.00 0.02 0.06 0.13 0.05 0.02 0.05 0.05 0.03 0.00 0.01 0.09 0.12 0.03 0.05 0.18 0.48 0.13 0.07 0.06 0.05 0.04 0.07 0.16 0.17 0.20 0.21 0.19 0.28 0.21 0.19 0.16 0.10 0.10 0.19 0.57 0.92 0.86 0.83 0.69 0.77 0.77 0.62 0.68 0.70 0.58 0.54 0.53 0.65
0.02 0.03 0.24 0.36 0.09 0.07 0.06 0.02 0.01 0.01 0.04 0.09 0.13 0.09 0.16 0.29 0.31 0.17 0.08 0.10 0.10 0.05 0.12 0.28 0.31 0.25 0.26 0.27 0.32 0.32 0.21 0.19 0.19 0.09 0.13 0.17 0.48 0.64 1.02 0.92 0.82 0.94 0.79 0.90 1.18 1.26 1.22 1.21 1.31
0.12 0.08 0.08 0.31 0.08 0.09 0.01 0.00 0.00 0.01 0.03 0.06 0.09 0.12 0.27 0.29 0.28 0.33 0.20 0.15 0.12 0.09 0.11 0.21 0.22 0.16 0.25 0.32 0.32 0.36 0.38 0.32 0.26 0.21 0.20 0.31 0.42 0.76 0.90 1.18 1.10 1.06 1.23 1.28 1.54 1.77 1.83 1.69 1.50
0.11 0.10 0.17 0.19 0.17 0.12 0.00 0.01 0.02 0.03 0.03 0.02 0.07 0.19 0.55 0.46 0.39 0.55 0.48 0.32 0.21 0.14 0.19 0.23 0.20 0.22 0.25 0.38 0.42 0.43 0.42 0.49 0.40 0.48 0.55 0.66 0.59 0.74 0.92 1.28 1.67 1.61 1.55 1.51 1.60 1.76 1.79 1.80 1.57
0.15 0.26 0.20 0.25 0.12 0.26 0.17 0.02 0.03 0.07 0.08 0.07 0.24 0.41 0.49 0.79 0.68 0.73 0.67 0.46 0.36 0.27 0.29 0.30 0.35 0.38 0.47 0.51 0.53 0.52 0.56 0.77 0.80 0.84 1.14 0.98 0.99 1.31 1.80 1.84 1.85 1.83 1.63 1.64 1.72 1.74 1.77 1.70 1.59
0.05 0.15 0.15 0.52 0.31 0.13 0.19 0.06 0.01 0.07 0.09 0.13 0.45 0.67 0.68 0.80 0.97 1.04 0.91 0.45 0.41 0.42 0.29 0.19 0.39 0.68 0.57 0.57 0.64 0.57 0.75 1.06 1.39 1.34 1.47 1.68 1.98 1.96 2.24 2.14 1.72 1.59 1.42 1.39 1.44 1.42 1.30 1.28 1.20

GFSSGP_prec_precacc_138.txt.gz
Total_Precipitation_Accumulation
0.00 0.00 0.00 0.00 0.00 0.00 0.00 0.00 0.00 0.05 0.11 0.16 0.13 0.21 0.19 0.22 0.84 1.30 1.00 1.68 1.99 1.19 1.00 0.80 0.68 0.22 0.14 0.32 0.11 0.04 0.04 0.04 0.02 0.02 0.03 0.16 0.20 0.20 0.27 0.45 0.43 0.56 0.54 0.36 0.25 0.41 0.66 0.68 0.51
0.00 0.00 0.00 0.00 0.00 0.00 0.00 0.00 0.02 0.10 0.36 0.55 0.37 0.34 0.25 0.35 0.64 0.97 0.96 1.28 1.51 0.95 1.22 0.91 1.05 1.11 0.52 0.42 0.21 0.14 0.07 0.02 0.01 0.11 0.13 0.31 0.23 0.35 0.85 1.10 1.01 0.82 0.72 0.47 0.37 0.42 1.25 0.97 0.80
0.00 0.00 0.00 0.00 0.00 0.00 0.00 0.01 0.02 0.05 0.21 0.23 0.24 0.27 0.36 0.47 0.46 0.61 0.72 0.64 0.97 0.93 0.58 0.94 1.10 0.97 0.77 0.45 0.26 0.40 0.46 0.32 0.07 0.08 0.27 0.43 0.63 1.36 2.30 2.57 1.55 1.63 1.49 1.00 0.72 0.49 0.89 1.14 0.80
0.00 0.00 0.00 0.00 0.00 0.00 0.00 0.00 0.02 0.08 0.14 0.18 0.20 0.67 0.40 0.49 0.59 0.72 0.74 0.90 1.58 1.21 1.41 2.04 1.78 1.51 0.84 0.62 0.82 1.07 1.06 0.81 0.56 0.48 0.69 0.96 1.44 2.37 2.38 1.55 1.32 1.69 2.92 1.52 1.06 0.57 0.28 0.29 0.57
0.00 0.00 0.00 0.00 0.00 0.01 0.01 0.05 0.18 0.22 0.21 0.51 0.22 0.70 0.86 0.43 0.35 0.62 1.26 2.27 3.38 2.60 2.46 3.18 4.31 3.80 2.88 1.90 1.41 1.43 1.64 1.34 1.36 1.76 1.81 1.84 1.80 2.47 1.39 0.66 1.01 2.37 2.28 1.01 0.86 0.52 0.30 0.45 0.21
0.00 0.00 0.00 0.00 0.00 0.01 0.04 0.16 0.24 0.32 0.21 0.26 0.33 0.61 0.69 0.32 0.40 0.80 1.81 3.39 6.23 6.22 5.28 5.61 6.69 5.82 4.58 3.52 2.31 2.32 2.14 1.88 1.91 1.66 2.13 2.45 1.33 1.09 0.74 0.38 0.38 0.58 0.52 0.55 0.43 0.21 0.27 0.40 0.20
0.00 0.00 0.00 0.00 0.00 0.00 0.04 0.30 0.47 0.35 0.16 0.20 0.22 0.29 0.93 0.71 0.64 1.36 1.46 2.44 2.54 4.44 5.85 6.89 7.53 8.33 7.50 4.24 3.28 3.30 3.37 2.92 2.39 2.16 1.95 2.16 1.61 1.24 0.94 0.40 0.27 0.22 0.16 0.29 0.35 0.27 0.33 0.34 0.28
0.00 0.00 0.00 0.00 0.00 0.03 0.10 0.11 0.15 0.08 0.10 0.21 0.16 0.80 1.24 1.02 0.64 0.85 1.08 1.79 2.04 2.47 3.24 3.59 3.72 7.19 11.78 7.99 5.02 4.13 3.79 3.59 2.59 2.39 1.75 1.31 1.54 1.53 1.36 0.54 0.25 0.20 0.16 0.31 0.56 0.64 0.63 0.43 0.37
0.00 0.00 0.00 0.01 0.02 0.18 0.25 0.17 0.26 0.11 0.01 0.04 0.21 1.07 0.42 0.22 0.31 0.49 0.93 1.88 2.77 2.72 2.37 1.88 2.59 3.36 5.96 9.67 6.51 5.17 4.19 2.77 2.60 2.23 1.68 1.18 0.95 0.88 0.82 0.47 0.29 0.24 0.26 0.45 0.75 0.72 0.71 0.86 0.54
0.00 0.00 0.00 0.03 0.08 0.25 0.33 0.04 0.18 0.07 0.03 0.19 0.63 1.02 0.34 0.21 0.24 0.38 0.89 1.51 1.86 1.93 2.26 1.84 1.27 1.32 1.96 4.35 4.17 4.52 4.56 2.70 2.16 1.78 1.29 1.12 0.94 0.55 0.40 0.28 0.24 0.40 0.34 0.39 0.48 0.68 0.79 0.74 0.36
0.00 0.00 0.00 0.00 0.06 0.10 0.29 0.01 0.05 0.03 0.06 0.42 0.46 0.60 0.36 0.34 0.35 0.47 0.59 0.83 0.88 1.33 1.64 1.27 1.16 0.93 1.08 2.16 1.84 2.30 3.08 3.35 2.29 1.97 1.23 1.22 0.84 0.52 0.49 0.29 0.31 0.62 0.40 0.16 0.20 0.34 0.39 0.36 0.33
0.00 0.00 0.00 0.00 0.00 0.00 0.00 0.07 0.15 0.09 0.10 0.21 0.45 0.47 0.33 0.41 0.53 0.49 0.64 0.48 0.50 0.70 0.89 0.91 0.51 0.66 1.00 0.96 1.13 1.41 1.44 3.08 2.83 2.18 1.64 1.33 0.85 0.37 0.32 0.23 0.23 0.21 0.38 0.18 0.11 0.16 0.22 0.29 0.26
0.00 0.00 0.00 0.00 0.01 0.00 0.01 0.09 0.11 0.01 0.05 0.22 0.39 0.26 0.25 0.29 0.59 1.26 0.48 0.53 0.77 0.73 0.82 0.81 0.67 0.64 0.58 0.38 0.48 1.15 0.96 1.74 2.79 2.25 1.78 1.30 0.78 0.34 0.19 0.17 0.21 0.15 0.23 0.31 0.27 0.20 0.22 0.25 0.34
0.00 0.00 0.00 0.00 0.00 0.00 0.00 0.18 0.02 0.11 0.13 0.30 0.94 0.29 0.16 0.19 0.16 0.42 0.54 0.43 0.73 0.72 0.90 0.66 0.63 0.65 0.53 0.38 0.37 0.83 0.86 0.99 2.10 1.72 1.22 1.32 0.64 0.29 0.24 0.25 0.16 0.21 0.21 0.23 0.40 0.36 0.26 0.21 0.25
0.00 0.00 0.00 0.04 0.02 0.00 0.02 0.06 0.02 0.16 0.27 0.40 0.34 0.16 0.04 0.04 0.11 0.15 0.28 0.19 0.27 0.53 0.60 0.47 0.69 0.73 0.69 0.48 0.55 0.73 0.83 0.86 1.33 1.12 1.12 1.35 0.70 0.46 0.36 0.30 0.25 0.16 0.18 0.16 0.18 0.30 0.49 0.49 0.41
0.00 0.00 0.00 0.05 0.01 0.00 0.01 0.13 0.25 0.31 0.13 0.33 0.47 0.10 0.03 0.00 0.02 0.03 0.04 0.05 0.16 0.20 0.44 0.64 0.86 1.18 1.11 0.46 0.58 0.67 0.72 0.79 1.03 0.88 1.00 1.40 0.74 0.47 0.34 0.29 0.28 0.24 0.16 0.12 0.08 0.08 0.24 0.35 0.31
0.00 0.00 0.00 0.00 0.00 0.00 0.00 0.00 0.03 0.15 0.27 0.39 0.29 0.04 0.00 0.00 0.01 0.02 0.02 0.02 0.08 0.18 0.30 0.59 0.92 1.09 1.33 1.20 1.45 1.21 0.85 0.75 0.82 0.68 0.83 1.47 0.95 0.67 0.31 0.23 0.24 0.21 0.16 0.08 0.03 0.07 0.06 0.14 0.20
0.00 0.00 0.00 0.00 0.00 0.00 0.00 0.00 0.00 0.02 0.06 0.06 0.05 0.02 0.01 0.00 0.00 0.00 0.01 0.03 0.04 0.07 0.29 0.67 1.07 1.58 2.74 1.92 1.10 0.62 0.61 0.64 0.69 0.76 0.74 1.32 0.86 0.76 0.79 0.43 0.31 0.26 0.16 0.08 0.02 0.05 0.06 0.03 0.07
0.00 0.00 0.00 0.00 0.00 0.00 0.00 0.00 0.00 0.00 0.01 0.03 0.04 0.03 0.01 0.00 0.00 0.01 0.01 0.04 0.03 0.16 0.49 0.75 0.83 0.94 0.82 0.38 0.34 0.35 0.47 0.66 0.75 0.87 0.63 1.18 0.98 0.62 0.88 0.98 0.46 0.39 0.18 0.06 0.03 0.06 0.07 0.07 0.04
0.00 0.00 0.00 0.00 0.00 0.00 0.00 0.00 0.00 0.00 0.00 0.00 0.01 0.01 0.00 0.00 0.00 0.01 0.05 0.11 0.18 0.33 0.37 0.23 0.09 0.06 0.10 0.11 0.15 0.17 0.20 0.42 0.49 1.08 0.77 0.81 0.89 0.35 0.41 0.67 0.61 0.44 0.21 0.12 0.09 0.10 0.09 0.08 0.05
0.00 0.00 0.00 0.00 0.00 0.00 0.00 0.00 0.00 0.00 0.01 0.01 0.01 0.00 0.00 0.00 0.00 0.04 0.06 0.07 0.06 0.04 0.10 0.05 0.04 0.03 0.03 0.06 0.09 0.17 0.18 0.26 0.37 1.04 1.12 0.76 0.74 0.48 0.27 0.36 0.45 0.47 0.33 0.23 0.09 0.09 0.10 0.07 0.06
0.01 0.00 0.00 0.00 0.00 0.02 0.00 0.00 0.01 0.00 0.00 0.00 0.01 0.01 0.01 0.00 0.01 0.01 0.01 0.01 0.01 0.07 0.03 0.06 0.10 0.05 0.05 0.03 0.04 0.07 0.09 0.11 0.19 0.43 0.68 0.78 0.60 0.56 0.36 0.34 0.41 0.53 0.38 0.28 0.16 0.16 0.18 0.17 0.13
0.01 0.00 0.00 0.00 0.00 0.01 0.02 0.00 0.02 0.00 0.00 0.00 0.00 0.01 0.01 0.01 0.01 0.05 0.10 0.04 0.03 0.04 0.06 0.10 0.09 0.11 0.12 0.07 0.08 0.09 0.10 0.18 0.20 0.31 0.62 0.71 0.75 0.68 0.64 0.57 0.59 0.51 0.63 0.39 0.29 0.29 0.33 0.23 0.16
0.00 0.00 0.00 0.00 0.00 0.00 0.01 0.02 0.01 0.01 0.01 0.04 0.08 0.05 0.02 0.04 0.21 0.35 0.18 0.04 0.02 0.06 0.04 0.08 0.12 0.16 0.19 0.18 0.14 0.18 0.24 0.17 0.15 0.24 0.66 0.78 0.80 0.80 0.71 0.71 0.80 0.69 0.57 0.74 0.49 0.46 0.43 0.33 0.26
0.00 0.02 0.06 0.13 0.05 0.02 0.05 0.05 0.03 0.00 0.01 0.09 0.12 0.03 0.05 0.19 0.50 0.19 0.16 0.09 0.09 0.11 0.11 0.16 0.17 0.20 0.21 0.19 0.28 0.21 0.19 0.16 0.10 0.10 0.19 0.57 0.92 0.86 0.83 0.69 0.77 0.77 0.62 0.69 0.70 0.58 0.54 0.53 0.65
0.02 0.03 0.24 0.36 0.09 0.07 0.06 0.02 0.01 0.01 0.04 0.09 0.13 0.09 0.16 0.30 0.32 0.22 0.19 0.13 0.15 0.11 0.16 0.28 0.31 0.25 0.26 0.27 0.32 0.32 0.21 0.19 0.19 0.09 0.13 0.17 0.48 0.64 1.02 0.92 0.82 0.94 0.79 0.90 1.18 1.27 1.22 1.21 1.32
0.12 0.08 0.08 0.31 0.08 0.09 0.01 0.00 0.00 0.01 0.03 0.06 0.09 0.13 0.28 0.31 0.31 0.40 0.36 0.18 0.15 0.14 0.16 0.24 0.23 0.16 0.25 0.32 0.32 0.36 0.38 0.32 0.26 0.21 0.20 0.31 0.42 0.76 0.91 1.19 1.10 1.06 1.23 1.28 1.56 1.77 1.83 1.69 1.51
0.11 0.10 0.17 0.19 0.17 0.12 0.00 0.01 0.02 0.03 0.03 0.02 0.08 0.21 0.56 0.46 0.40 0.63 0.68 0.41 0.23 0.18 0.25 0.28 0.22 0.22 0.25 0.38 0.43 0.44 0.42 0.49 0.41 0.49 0.56 0.66 0.59 0.74 0.92 1.30 1.69 1.65 1.57 1.55 1.64 1.77 1.79 1.81 1.57
0.15 0.26 0.20 0.25 0.12 0.26 0.17 0.02 0.03 0.07 0.08 0.08 0.26 0.43 0.52 0.81 0.71 0.81 0.91 0.70 0.42 0.30 0.33 0.35 0.40 0.40 0.48 0.53 0.56 0.60 0.63 0.83 0.84 0.86 1.16 1.01 1.01 1.32 1.81 1.89 1.94 1.96 1.82 1.82 1.82 1.79 1.79 1.71 1.60
0.05 0.15 0.15 0.52 0.31 0.13 0.19 0.07 0.01 0.07 0.09 0.14 0.46 0.68 0.70 0.83 1.02 1.14 1.04 0.75 0.55 0.49 0.35 0.25 0.42 0.71 0.60 0.60 0.69 0.64 0.80 1.10 1.46 1.42 1.56 1.77 2.05 2.01 2.26 2.24 1.86 1.77 1.63 1.63 1.63 1.54 1.38 1.29 1.21

GFSSGP_prec_precacc_141.txt.gz
Total_Precipitation_Accumulation
0.00 0.00 0.00 0.00 0.00 0.00 0.00 0.00 0.00 0.05 0.11 0.16 0.13 0.21 0.19 0.22 0.84 1.30 1.00 1.68 1.99 1.19 1.00 0.80 0.68 0.22 0.14 0.32 0.11 0.04 0.04 0.04 0.02 0.02 0.03 0.16 0.20 0.20 0.27 0.45 0.43 0.56 0.55 0.36 0.26 0.42 0.71 0.76 0.58
0.00 0.00 0.00 0.00 0.00 0.00 0.00 0.00 0.02 0.10 0.36 0.55 0.37 0.34 0.25 0.35 0.64 0.97 0.96 1.28 1.51 0.95 1.22 0.91 1.05 1.11 0.52 0.42 0.21 0.14 0.07 0.02 0.01 0.11 0.13 0.31 0.23 0.35 0.87 1.12 1.03 0.83 0.74 0.48 0.38 0.44 1.30 1.01 0.82
0.00 0.00 0.00 0.00 0.00 0.00 0.00 0.01 0.02 0.05 0.21 0.23 0.24 0.27 0.36 0.47 0.46 0.61 0.72 0.64 0.97 0.93 0.58 0.94 1.10 0.97 0.77 0.45 0.26 0.40 0.46 0.32 0.07 0.08 0.27 0.43 0.64 1.38 2.33 2.59 1.57 1.64 1.51 1.02 0.77 0.55 0.94 1.16 0.81
0.00 0.00 0.00 0.00 0.00 0.00 0.00 0.00 0.02 0.08 0.14 0.18 0.20 0.67 0.40 0.49 0.59 0.72 0.74 0.90 1.58 1.21 1.41 2.04 1.78 1.51 0.84 0.62 0.82 1.07 1.06 0.81 0.56 0.48 0.70 0.98 1.47 2.40 2.39 1.56 1.33 1.70 2.93 1.54 1.09 0.60 0.31 0.29 0.57
0.00 0.00 0.00 0.00 0.00 0.01 0.01 0.05 0.18 0.22 0.21 0.51 0.22 0.70 0.86 0.43 0.35 0.62 1.26 2.27 3.38 2.60 2.46 3.18 4.31 3.80 2.88 1.90 1.41 1.43 1.64 1.34 1.36 1.76 1.81 1.84 1.81 2.48 1.40 0.68 1.03 2.37 2.28 1.02 0.89 0.52 0.30 0.45 0.21
0.00 0.00 0.00 0.00 0.00 0.01 0.04 0.16 0.24 0.32 0.21 0.26 0.33 0.61 0.69 0.32 0.40 0.80 1.81 3.39 6.23 6.22 5.28 5.61 6.69 5.82 4.58 3.52 2.31 2.32 2.14 1.88 1.91 1.66 2.13 2.45 1.33 1.10 0.74 0.39 0.40 0.58 0.52 0.55 0.43 0.21 0.27 0.43 0.22
0.00 0.00 0.00 0.00 0.00 0.00 0.04 0.30 0.47 0.35 0.16 0.20 0.22 0.29 0.93 0.71 0.64 1.36 1.46 2.44 2.54 4.44 5.85 6.89 7.53 8.33 7.50 4.24 3.28 3.30 3.37 2.92 2.39 2.16 1.95 2.16 1.61 1.24 0.94 0.41 0.29 0.22 0.16 0.29 0.35 0.27 0.36 0.39 0.35
0.00 0.00 0.00 0.00 0.00 0.03 0.10 0.11 0.15 0.08 0.10 0.21 0.16 0.80 1.24 1.02 0.64 0.85 1.08 1.79 2.04 2.47 3.24 3.59 3.72 7.19 11.78 7.99 5.02 4.13 3.79 3.59 2.59 2.39 1.75 1.31 1.54 1.53 1.36 0.54 0.25 0.20 0.16 0.31 0.56 0.65 0.69 0.49 0.46
0.00 0.00 0.00 0.01 0.02 0.18 0.25 0.17 0.26 0.11 0.01 0.04 0.21 1.07 0.42 0.22 0.31 0.49 0.93 1.88 2.77 2.72 2.37 1.88 2.59 3.36 5.96 9.67 6.51 5.17 4.19 2.77 2.60 2.23 1.68 1.18 0.95 0.88 0.82 0.47 0.29 0.24 0.26 0.45 0.75 0.73 0.80 0.97 0.65
0.00 0.00 0.00 0.03 0.08 0.25 0.33 0.04 0.18 0.07 0.03 0.19 0.63 1.02 0.34 0.21 0.24 0.38 0.89 1.51 1.86 1.93 2.26 1.84 1.27 1.32 1.96 4.35 4.17 4.52 4.56 2.70 2.16 1.79 1.29 1.13 0.94 0.55 0.40 0.28 0.24 0.40 0.34 0.39 0.48 0.68 0.83 0.78 0.38
0.00 0.00 0.00 0.00 0.06 0.10 0.29 0.01 0.05 0.03 0.06 0.42 0.46 0.60 0.36 0.34 0.35 0.47 0.59 0.83 0.88 1.33 1.64 1.27 1.16 0.93 1.08 2.16 1.84 2.30 3.08 3.35 2.29 1.98 1.23 1.22 0.85 0.53 0.49 0.29 0.31 0.62 0.40 0.16 0.20 0.35 0.45 0.43 0.39
0.00 0.00 0.00 0.00 0.00 0.00 0.00 0.07 0.15 0.09 0.10 0.21 0.45 0.47 0.33 0.41 0.53 0.49 0.64 0.48 0.50 0.70 0.89 0.91 0.51 0.66 1.00 0.96 1.13 1.41 1.44 3.08 2.83 2.19 1.64 1.34 0.86 0.38 0.32 0.23 0.23 0.21 0.38 0.18 0.11 0.16 0.23 0.36 0.37
0.00 0.00 0.00 0.00 0.01 0.00 0.01 0.09 0.11 0.01 0.05 0.22 0.39 0.26 0.25 0.29 0.59 1.26 0.48 0.53 0.77 0.73 0.82 0.81 0.67 0.64 0.58 0.38 0.48 1.15 0.96 1.74 2.79 2.25 1.79 1.30 0.78 0.34 0.19 0.17 0.21 0.15 0.23 0.31 0.27 0.20 0.25 0.31 0.42
0.00 0.00 0.00 0.00 0.00 0.00 0.00 0.18 0.02 0.11 0.13 0.30 0.94 0.29 0.16 0.19 0.16 0.42 0.54 0.43 0.73 0.72 0.90 0.66 0.63 0.65 0.53 0.38 0.37 0.83 0.86 0.99 2.10 1.72 1.22 1.33 0.64 0.29 0.24 0.25 0.16 0.21 0.21 0.23 0.41 0.38 0.32 0.28 0.29
0.00 0.00 0.00 0.04 0.02 0.00 0.02 0.06 0.02 0.16 0.27 0.40 0.34 0.16 0.04 0.04 0.11 0.15 0.28 0.19 0.27 0.53 0.60 0.47 0.69 0.73 0.69 0.48 0.55 0.73 0.83 0.86 1.33 1.12 1.12 1.35 0.70 0.46 0.36 0.30 0.25 0.16 0.18 0.16 0.18 0.31 0.55 0.57 0.43
0.00 0.00 0.00 0.05 0.01 0.00 0.01 0.13 0.25 0.31 0.13 0.33 0.47 0.10 0.03 0.00 0.02 0.03 0.04 0.05 0.16 0.20 0.44 0.64 0.86 1.18 1.11 0.46 0.58 0.67 0.72 0.79 1.03 0.88 1.00 1.40 0.74 0.47 0.34 0.29 0.28 0.24 0.16 0.12 0.08 0.08 0.27 0.41 0.31
0.00 0.00 0.00 0.00 0.00 0.00 0.00 0.00 0.03 0.15 0.27 0.39 0.29 0.04 0.00 0.00 0.01 0.02 0.02 0.02 0.08 0.18 0.30 0.59 0.92 1.09 1.33 1.20 1.45 1.22 0.85 0.75 0.82 0.68 0.83 1.47 0.95 0.67 0.31 0.23 0.24 0.21 0.16 0.08 0.03 0.07 0.06 0.15 0.20
0.00 0.00 0.00 0.00 0.00 0.00 0.00 0.00 0.00 0.02 0.06 0.06 0.05 0.02 0.01 0.00 0.00 0.00 0.01 0.03 0.04 0.07 0.29 0.67 1.07 1.58 2.74 1.92 1.10 0.63 0.62 0.65 0.69 0.76 0.74 1.32 0.86 0.76 0.79 0.43 0.31 0.26 0.16 0.08 0.02 0.05 0.06 0.03 0.07
0.00 0.00 0.00 0.00 0.00 0.00 0.00 0.00 0.00 0.00 0.01 0.03 0.04 0.03 0.01 0.00 0.00 0.01 0.01 0.04 0.03 0.16 0.49 0.75 0.83 0.94 0.82 0.38 0.34 0.35 0.49 0.70 0.76 0.87 0.63 1.18 0.98 0.62 0.88 0.98 0.46 0.39 0.18 0.06 0.03 0.06 0.07 0.07 0.04
0.00 0.00 0.00 0.00 0.00 0.00 0.00 0.00 0.00 0.00 0.00 0.00 0.01 0.01 0.00 0.00 0.00 0.01 0.05 0.11 0.18 0.33 0.37 0.23 0.09 0.06 0.10 0.11 0.15 0.17 0.21 0.45 0.53 1.08 0.77 0.81 0.89 0.35 0.41 0.67 0.61 0.44 0.21 0.12 0.09 0.10 0.09 0.08 0.05
0.00 0.00 0.00 0.00 0.00 0.00 0.00 0.00 0.00 0.00 0.01 0.01 0.01 0.00 0.00 0.00 0.00 0.04 0.06 0.07 0.06 0.04 0.10 0.05 0.04 0.03 0.03 0.06 0.09 0.17 0.18 0.31 0.52 1.14 1.15 0.76 0.74 0.48 0.27 0.36 0.45 0.47 0.33 0.23 0.09 0.09 0.10 0.07 0.07
0.01 0.00 0.00 0.00 0.00 0.02 0.00 0.00 0.01 0.00 0.00 0.00 0.01 0.01 0.01 0.00 0.01 0.01 0.01 0.02 0.01 0.07 0.03 0.06 0.10 0.05 0.05 0.03 0.04 0.07 0.10 0.15 0.27 0.56 0.77 0.78 0.60 0.56 0.36 0.34 0.41 0.53 0.38 0.28 0.16 0.16 0.18 0.17 0.13
0.01 0.00 0.00 0.00 0.00 0.01 0.02 0.00 0.02 0.00 0.00 0.00 0.00 0.01 0.01 0.01 0.01 0.05 0.10 0.04 0.03 0.04 0.06 0.10 0.09 0.11 0.12 0.07 0.08 0.09 0.10 0.18 0.21 0.39 0.81 0.78 0.75 0.68 0.64 0.57 0.59 0.51 0.63 0.39 0.29 0.29 0.33 0.23 0.16
0.00 0.00 0.00 0.00 0.00 0.00 0.01 0.02 0.01 0.01 0.01 0.04 0.08 0.05 0.02 0.04 0.21 0.35 0.18 0.04 0.02 0.06 0.04 0.08 0.12 0.16 0.19 0.18 0.14 0.18 0.24 0.18 0.18 0.31 0.84 0.98 0.86 0.81 0.72 0.71 0.80 0.69 0.57 0.74 0.49 0.46 0.43 0.33 0.26
0.00 0.02 0.06 0.13 0.05 0.02 0.05 0.05 0.03 0.00 0.01 0.09 0.12 0.03 0.05 0.19 0.50 0.19 0.17 0.10 0.09 0.12 0.12 0.17 0.17 0.20 0.21 0.19 0.28 0.21 0.19 0.17 0.15 0.18 0.27 0.74 1.08 0.89 0.83 0.69 0.77 0.77 0.62 0.69 0.70 0.58 0.54 0.53 0.65
0.02 0.03 0.24 0.36 0.09 0.07 0.06 0.02 0.01 0.01 0.04 0.09 0.13 0.09 0.16 0.30 0.32 0.22 0.20 0.15 0.16 0.15 0.19 0.33 0.34 0.27 0.27 0.27 0.32 0.32 0.21 0.20 0.24 0.18 0.20 0.21 0.55 0.69 1.02 0.92 0.83 0.94 0.79 0.90 1.18 1.27 1.22 1.21 1.32
0.12 0.08 0.08 0.31 0.08 0.09 0.01 0.00 0.00 0.01 0.03 0.06 0.09 0.13 0.28 0.31 0.31 0.40 0.37 0.22 0.17 0.17 0.24 0.33 0.28 0.19 0.27 0.33 0.32 0.36 0.38 0.32 0.29 0.28 0.30 0.38 0.48 0.81 0.91 1.20 1.11 1.06 1.23 1.28 1.56 1.78 1.83 1.70 1.53
0.11 0.10 0.17 0.19 0.17 0.12 0.00 0.01 0.02 0.03 0.03 0.02 0.08 0.21 0.56 0.46 0.40 0.63 0.68 0.44 0.25 0.19 0.32 0.40 0.29 0.26 0.28 0.42 0.43 0.44 0.43 0.49 0.41 0.50 0.78 0.89 0.72 0.85 0.97 1.31 1.69 1.66 1.58 1.55 1.64 1.77 1.80 1.81 1.58
0.15 0.26 0.20 0.25 0.12 0.26 0.17 0.02 0.03 0.07 0.08 0.08 0.26 0.43 0.52 0.81 0.71 0.81 0.92 0.74 0.45 0.31 0.37 0.43 0.46 0.45 0.52 0.63 0.65 0.68 0.80 1.08 1.01 0.97 1.27 1.45 1.20 1.44 1.85 1.91 1.95 1.98 1.84 1.87 1.88 1.82 1.80 1.71 1.61
0.05 0.15 0.15 0.52 0.31 0.13 0.19 0.07 0.01 0.07 0.09 0.14 0.46 0.68 0.70 0.83 1.02 1.14 1.05 0.78 0.62 0.51 0.38 0.28 0.46 0.76 0.66 0.71 0.85 0.76 0.92 1.37 1.67 1.73 1.84 2.04 2.28 2.13 2.30 2.25 1.86 1.78 1.66 1.69 1.69 1.65 1.49 1.40 1.25

GFSSGP_prec_precacc_144.txt.gz
Total_Precipitation_Accumulation
0.00 0.00 0.00 0.00 0.00 0.00 0.00 0.00 0.00 0.05 0.11 0.16 0.13 0.21 0.19 0.22 0.84 1.30 1.00 1.68 1.99 1.19 1.00 0.80 0.68 0.22 0.14 0.32 0.11 0.04 0.04 0.04 0.02 0.02 0.03 0.16 0.20 0.20 0.27 0.45 0.43 0.56 0.55 0.36 0.29 0.46 0.74 0.78 0.59
0.00 0.00 0.00 0.00 0.00 0.00 0.00 0.00 0.02 0.10 0.36 0.55 0.37 0.34 0.25 0.35 0.64 0.97 0.96 1.28 1.51 0.95 1.22 0.91 1.05 1.11 0.52 0.42 0.21 0.14 0.07 0.02 0.01 0.11 0.13 0.31 0.23 0.35 0.88 1.14 1.05 0.83 0.74 0.48 0.40 0.47 1.32 1.02 0.82
0.00 0.00 0.00 0.00 0.00 0.00 0.00 0.01 0.02 0.05 0.21 0.23 0.24 0.27 0.36 0.47 0.46 0.61 0.72 0.64 0.97 0.93 0.58 0.94 1.10 0.97 0.77 0.45 0.26 0.40 0.46 0.32 0.07 0.08 0.27 0.43 0.64 1.39 2.36 2.61 1.58 1.66 1.52 1.04 0.80 0.58 0.96 1.17 0.81
0.00 0.00 0.00 0.00 0.00 0.00 0.00 0.00 0.02 0.08 0.14 0.18 0.20 0.67 0.40 0.49 0.59 0.72 0.74 0.90 1.58 1.21 1.41 2.04 1.78 1.51 0.84 0.62 0.82 1.07 1.06 0.81 0.56 0.48 0.70 0.98 1.48 2.41 2.40 1.57 1.36 1.72 2.94 1.56 1.10 0.61 0.31 0.29 0.57
0.00 0.00 0.00 0.00 0.00 0.01 0.01 0.05 0.18 0.22 0.21 0.51 0.22 0.70 0.86 0.43 0.35 0.62 1.26 2.27 3.38 2.60 2.46 3.18 4.31 3.80 2.88 1.90 1.41 1.43 1.64 1.34 1.36 1.76 1.81 1.85 1.81 2.48 1.40 0.69 1.06 2.42 2.30 1.04 0.90 0.53 0.30 0.45 0.21
0.00 0.00 0.00 0.00 0.00 0.01 0.04 0.16 0.24 0.32 0.21 0.26 0.33 0.61 0.69 0.32 0.40 0.80 1.81 3.39 6.23 6.22 5.28 5.61 6.69 5.82 4.58 3.52 2.31 2.32 2.14 1.88 1.91 1.66 2.13 2.45 1.34 1.10 0.75 0.40 0.42 0.61 0.54 0.56 0.45 0.22 0.27 0.43 0.22
0.00 0.00 0.00 0.00 0.00 0.00 0.04 0.30 0.47 0.35 0.16 0.20 0.22 0.29 0.93 0.71 0.64 1.36 1.46 2.44 2.54 4.44 5.85 6.89 7.53 8.33 7.50 4.24 3.28 3.30 3.37 2.92 2.39 2.16 1.95 2.16 1.61 1.24 0.94 0.41 0.30 0.23 0.16 0.29 0.36 0.27 0.36 0.39 0.38
0.00 0.00 0.00 0.00 0.00 0.03 0.10 0.11 0.15 0.08 0.10 0.21 0.16 0.80 1.24 1.02 0.64 0.85 1.08 1.79 2.04 2.47 3.24 3.59 3.72 7.19 11.78 7.99 5.02 4.13 3.79 3.59 2.59 2.39 1.75 1.31 1.54 1.53 1.36 0.54 0.25 0.20 0.16 0.31 0.56 0.65 0.69 0.49 0.49
0.00 0.00 0.00 0.01 0.02 0.18 0.25 0.17 0.26 0.11 0.01 0.04 0.21 1.07 0.42 0.22 0.31 0.49 0.93 1.88 2.77 2.72 2.37 1.88 2.59 3.36 5.96 9.67 6.51 5.17 4.19 2.77 2.60 2.23 1.68 1.18 0.95 0.88 0.82 0.47 0.29 0.24 0.26 0.45 0.76 0.73 0.80 0.97 0.66
0.00 0.00 0.00 0.03 0.08 0.25 0.33 0.04 0.18 0.07 0.03 0.19 0.63 1.02 0.34 0.21 0.24 0.38 0.89 1.51 1.86 1.93 2.26 1.84 1.27 1.32 1.96 4.35 4.17 4.52 4.56 2.70 2.16 1.79 1.29 1.13 0.94 0.55 0.40 0.28 0.24 0.40 0.34 0.39 0.48 0.69 0.86 0.78 0.38
0.00 0.00 0.00 0.00 0.06 0.10 0.29 0.01 0.05 0.03 0.06 0.42 0.46 0.60 0.36 0.34 0.35 0.47 0.59 0.83 0.88 1.33 1.64 1.27 1.16 0.93 1.08 2.16 1.84 2.30 3.08 3.35 2.29 1.98 1.23 1.22 0.85 0.53 0.49 0.29 0.31 0.62 0.40 0.16 0.20 0.35 0.46 0.43 0.39
0.00 0.00 0.00 0.00 0.00 0.00 0.00 0.07 0.15 0.09 0.10 0.21 0.45 0.47 0.33 0.41 0.53 0.49 0.64 0.48 0.50 0.70 0.89 0.91 0.51 0.66 1.00 0.96 1.13 1.41 1.44 3.08 2.83 2.19 1.64 1.34 0.86 0.38 0.32 0.23 0.23 0.21 0.38 0.18 0.11 0.16 0.23 0.37 0.46
0.00 0.00 0.00 0.00 0.01 0.00 0.01 0.09 0.11 0.01 0.05 0.22 0.39 0.26 0.25 0.29 0.59 1.26 0.48 0.53 0.77 0.73 0.82 0.81 0.67 0.64 0.58 0.39 0.49 1.15 0.96 1.74 2.79 2.25 1.79 1.30 0.78 0.34 0.19 0.17 0.21 0.15 0.23 0.31 0.27 0.20 0.27 0.37 0.50
0.00 0.00 0.00 0.00 0.00 0.00 0.00 0.18 0.02 0.11 0.13 0.30 0.94 0.29 0.16 0.19 0.16 0.42 0.54 0.43 0.73 0.72 0.90 0.66 0.63 0.65 0.53 0.38 0.38 0.84 0.86 0.99 2.10 1.72 1.22 1.33 0.64 0.29 0.24 0.25 0.16 0.21 0.21 0.23 0.41 0.38 0.34 0.35 0.33
0.00 0.00 0.00 0.04 0.02 0.00 0.02 0.06 0.02 0.16 0.27 0.40 0.34 0.16 0.04 0.04 0.11 0.15 0.28 0.19 0.27 0.53 0.60 0.47 0.69 0.73 0.69 0.48 0.55 0.73 0.83 0.86 1.33 1.12 1.12 1.35 0.70 0.46 0.36 0.30 0.25 0.16 0.18 0.16 0.18 0.32 0.60 0.67 0.50
0.00 0.00 0.00 0.05 0.01 0.00 0.01 0.13 0.25 0.31 0.13 0.33 0.47 0.10 0.03 0.00 0.02 0.03 0.04 0.05 0.16 0.20 0.44 0.64 0.86 1.18 1.11 0.46 0.58 0.67 0.72 0.79 1.03 0.88 1.00 1.40 0.74 0.47 0.34 0.29 0.28 0.24 0.16 0.12 0.08 0.08 0.29 0.47 0.41
0.00 0.00 0.00 0.00 0.00 0.00 0.00 0.00 0.03 0.15 0.27 0.39 0.29 0.04 0.00 0.00 0.01 0.02 0.02 0.02 0.08 0.18 0.30 0.59 0.92 1.09 1.33 1.20 1.45 1.22 0.87 0.75 0.82 0.68 0.83 1.47 0.95 0.67 0.31 0.23 0.24 0.21 0.16 0.08 0.03 0.07 0.06 0.18 0.24
0.00 0.00 0.00 0.00 0.00 0.00 0.00 0.00 0.00 0.02 0.06 0.06 0.05 0.02 0.01 0.00 0.00 0.00 0.01 0.03 0.04 0.07 0.29 0.67 1.07 1.58 2.74 1.92 1.10 0.63 0.64 0.69 0.72 0.77 0.74 1.32 0.86 0.76 0.79 0.43 0.31 0.26 0.16 0.08 0.02 0.05 0.06 0.03 0.07
0.00 0.00 0.00 0.00 0.00 0.00 0.00 0.00 0.00 0.00 0.01 0.03 0.04 0.03 0.01 0.00 0.00 0.01 0.01 0.04 0.03 0.16 0.49 0.75 0.83 0.94 0.82 0.38 0.34 0.35 0.49 0.73 0.84 0.90 0.68 1.18 0.98 0.62 0.88 0.98 0.46 0.39 0.18 0.06 0.03 0.06 0.07 0.07 0.05
0.00 0.00 0.00 0.00 0.00 0.00 0.00 0.00 0.00 0.00 0.00 0.00 0.01 0.01 0.00 0.00 0.00 0.01 0.05 0.11 0.18 0.33 0.37 0.23 0.09 0.06 0.10 0.11 0.15 0.17 0.21 0.45 0.55 1.15 0.83 0.94 0.93 0.35 0.41 0.67 0.61 0.44 0.21 0.12 0.09 0.10 0.09 0.08 0.05
0.00 0.00 0.00 0.00 0.00 0.00 0.00 0.00 0.00 0.00 0.01 0.01 0.01 0.00 0.00 0.00 0.00 0.04 0.06 0.07 0.06 0.04 0.10 0.05 0.04 0.03 0.03 0.06 0.09 0.17 0.18 0.31 0.55 1.21 1.27 0.87 0.99 0.50 0.27 0.36 0.45 0.47 0.33 0.23 0.09 0.09 0.10 0.07 0.07
0.01 0.00 0.00 0.00 0.00 0.02 0.00 0.00 0.01 0.00 0.00 0.00 0.01 0.01 0.01 0.00 0.01 0.01 0.01 0.02 0.01 0.07 0.03 0.06 0.10 0.05 0.05 0.03 0.04 0.07 0.10 0.15 0.28 0.62 0.88 0.95 0.94 0.70 0.36 0.34 0.41 0.53 0.38 0.28 0.16 0.16 0.18 0.17 0.13
0.01 0.00 0.00 0.00 0.00 0.01 0.02 0.00 0.02 0.00 0.00 0.00 0.00 0.01 0.01 0.01 0.01 0.05 0.10 0.04 0.03 0.04 0.06 0.10 0.09 0.11 0.12 0.07 0.08 0.09 0.10 0.18 0.21 0.39 0.89 1.02 1.09 1.21 0.70 0.57 0.59 0.51 0.63 0.39 0.29 0.29 0.33 0.23 0.16
0.00 0.00 0.00 0.00 0.00 0.00 0.01 0.02 0.01 0.01 0.01 0.04 0.08 0.05 0.02 0.04 0.21 0.35 0.18 0.04 0.02 0.06 0.04 0.08 0.12 0.16 0.19 0.18 0.14 0.18 0.24 0.18 0.18 0.31 0.85 1.11 1.17 1.14 0.96 0.78 0.81 0.69 0.57 0.74 0.49 0.46 0.43 0.33 0.26
0.00 0.02 0.06 0.13 0.05 0.02 0.05 0.05 0.03 0.00 0.01 0.09 0.12 0.03 0.05 0.19 0.50 0.19 0.17 0.10 0.09 0.12 0.12 0.17 0.17 0.20 0.21 0.19 0.28 0.21 0.19 0.17 0.15 0.18 0.27 0.79 1.35 1.41 1.12 0.84 0.82 0.77 0.63 0.69 0.70 0.58 0.54 0.53 0.65
0.02 0.03 0.24 0.36 0.09 0.07 0.06 0.02 0.01 0.01 0.04 0.09 0.13 0.09 0.16 0.30 0.32 0.22 0.20 0.15 0.16 0.15 0.19 0.34 0.34 0.27 0.27 0.27 0.32 0.32 0.21 0.21 0.24 0.21 0.23 0.24 0.66 1.28 1.90 1.45 0.98 0.99 0.82 0.91 1.18 1.27 1.22 1.21 1.32
0.12 0.08 0.08 0.31 0.08 0.09 0.01 0.00 0.00 0.01 0.03 0.06 0.09 0.13 0.28 0.31 0.31 0.40 0.37 0.22 0.17 0.17 0.25 0.38 0.34 0.21 0.27 0.33 0.32 0.36 0.38 0.33 0.29 0.31 0.42 0.44 0.64 1.02 1.92 2.59 1.75 1.20 1.34 1.32 1.56 1.78 1.83 1.70 1.53
0.11 0.10 0.17 0.19 0.17 0.12 0.00 0.01 0.02 0.03 0.03 0.02 0.08 0.21 0.56 0.46 0.40 0.63 0.68 0.44 0.25 0.19 0.33 0.46 0.37 0.28 0.31 0.43 0.45 0.46 0.43 0.49 0.41 0.52 0.97 1.30 0.94 0.96 1.26 2.04 2.39 1.98 1.68 1.64 1.66 1.78 1.80 1.81 1.58
0.15 0.26 0.20 0.25 0.12 0.26 0.17 0.02 0.03 0.07 0.08 0.08 0.26 0.43 0.52 0.81 0.71 0.81 0.92 0.74 0.45 0.31 0.37 0.47 0.52 0.48 0.55 0.66 0.68 0.71 0.83 1.10 1.09 1.10 1.52 1.89 1.57 1.63 1.92 2.03 2.09 2.14 1.89 1.92 1.95 1.84 1.81 1.72 1.61
0.05 0.15 0.15 0.52 0.31 0.13 0.19 0.07 0.01 0.07 0.09 0.14 0.46 0.68 0.70 0.83 1.02 1.14 1.05 0.78 0.62 0.51 0.38 0.29 0.48 0.78 0.68 0.76 0.98 0.89 1.01 1.46 1.89 2.01 2.21 2.91 3.26 2.60 2.60 2.38 1.91 1.83 1.71 1.75 1.80 1.69 1.50 1.40 1.25

GFSSGP_prec_precacc_147.txt.gz
Total_Precipitation_Accumulation
0.00 0.00 0.00 0.00 0.00 0.00 0.00 0.00 0.00 0.05 0.11 0.16 0.13 0.21 0.19 0.22 0.84 1.30 1.00 1.68 1.99 1.19 1.00 0.80 0.68 0.22 0.14 0.32 0.11 0.04 0.04 0.04 0.02 0.02 0.03 0.16 0.20 0.20 0.27 0.45 0.44 0.57 0.56 0.39 0.31 0.46 0.74 0.79 0.60
0.00 0.00 0.00 0.00 0.00 0.00 0.00 0.00 0.02 0.10 0.36 0.55 0.37 0.34 0.25 0.35 0.64 0.97 0.96 1.28 1.51 0.95 1.22 0.91 1.05 1.11 0.52 0.42 0.21 0.14 0.07 0.02 0.01 0.11 0.13 0.31 0.23 0.35 0.88 1.14 1.05 0.84 0.75 0.49 0.40 0.47 1.33 1.03 0.83
0.00 0.00 0.00 0.00 0.00 0.00 0.00 0.01 0.02 0.05 0.21 0.23 0.24 0.27 0.36 0.47 0.46 0.61 0.72 0.64 0.97 0.93 0.58 0.94 1.10 0.97 0.77 0.45 0.26 0.40 0.46 0.32 0.07 0.08 0.27 0.43 0.64 1.40 2.36 2.61 1.59 1.66 1.53 1.05 0.80 0.58 0.97 1.18 0.82
0.00 0.00 0.00 0.00 0.00 0.00 0.00 0.00 0.02 0.08 0.14 0.18 0.20 0.67 0.40 0.49 0.59 0.72 0.74 0.90 1.58 1.21 1.41 2.04 1.78 1.51 0.84 0.62 0.82 1.07 1.06 0.81 0.56 0.48 0.70 0.98 1.49 2.43 2.40 1.57 1.36 1.74 2.95 1.56 1.10 0.62 0.33 0.29 0.57
0.00 0.00 0.00 0.00 0.00 0.01 0.01 0.05 0.18 0.22 0.21 0.51 0.22 0.70 0.86 0.43 0.35 0.62 1.26 2.27 3.38 2.60 2.46 3.18 4.31 3.80 2.88 1.90 1.41 1.43 1.64 1.34 1.36 1.76 1.81 1.85 1.82 2.49 1.41 0.69 1.06 2.43 2.31 1.05 0.91 0.54 0.30 0.45 0.21
0.00 0.00 0.00 0.00 0.00 0.01 0.04 0.16 0.24 0.32 0.21 0.26 0.33 0.61 0.69 0.32 0.40 0.80 1.81 3.39 6.23 6.22 5.28 5.61 6.69 5.82 4.58 3.52 2.31 2.32 2.14 1.88 1.91 1.66 2.13 2.45 1.34 1.10 0.75 0.40 0.42 0.61 0.54 0.56 0.46 0.22 0.27 0.43 0.25
0.00 0.00 0.00 0.00 0.00 0.00 0.04 0.30 0.47 0.35 0.16 0.20 0.22 0.29 0.93 0.71 0.64 1.36 1.46 2.44 2.54 4.44 5.85 6.89 7.53 8.33 7.50 4.24 3.28 3.30 3.37 2.92 2.39 2.16 1.95 2.16 1.61 1.24 0.94 0.41 0.30 0.23 0.16 0.29 0.36 0.28 0.36 0.41 0.41
0.00 0.00 0.00 0.00 0.00 0.03 0.10 0.11 0.15 0.08 0.10 0.21 0.16 0.80 1.24 1.02 0.64 0.85 1.08 1.79 2.04 2.47 3.24 3.59 3.72 7.19 11.78 7.99 5.02 4.13 3.79 3.59 2.59 2.39 1.75 1.31 1.54 1.53 1.37 0.55 0.26 0.21 0.16 0.31 0.56 0.65 0.70 0.49 0.52
0.00 0.00 0.00 0.01 0.02 0.18 0.25 0.17 0.26 0.11 0.01 0.04 0.21 1.07 0.42 0.22 0.31 0.49 0.93 1.88 2.77 2.72 2.37 1.88 2.59 3.37 5.96 9.67 6.51 5.17 4.19 2.77 2.60 2.23 1.68 1.18 0.95 0.88 0.82 0.47 0.29 0.25 0.26 0.45 0.76 0.73 0.80 0.97 0.66
0.00 0.00 0.00 0.03 0.08 0.25 0.33 0.04 0.18 0.07 0.03 0.19 0.63 1.02 0.34 0.21 0.24 0.38 0.89 1.51 1.86 1.93 2.26 1.84 1.28 1.35 2.00 4.38 4.17 4.52 4.56 2.70 2.16 1.79 1.29 1.13 0.94 0.55 0.40 0.28 0.24 0.40 0.34 0.39 0.48 0.69 0.86 0.78 0.38
0.00 0.00 0.00 0.00 0.06 0.10 0.29 0.01 0.05 0.03 0.06 0.42 0.46 0.60 0.36 0.34 0.35 0.47 0.59 0.83 0.88 1.33 1.64 1.27 1.16 0.94 1.13 2.22 1.87 2.30 3.08 3.35 2.29 1.98 1.23 1.22 0.85 0.53 0.49 0.29 0.31 0.62 0.40 0.16 0.20 0.35 0.46 0.43 0.39
0.00 0.00 0.00 0.00 0.00 0.00 0.00 0.07 0.15 0.09 0.10 0.21 0.45 0.47 0.33 0.41 0.53 0.49 0.64 0.48 0.50 0.70 0.89 0.91 0.51 0.66 1.01 1.01 1.24 1.47 1.44 3.08 2.83 2.19 1.64 1.34 0.86 0.38 0.32 0.23 0.23 0.21 0.38 0.18 0.11 0.16 0.23 0.37 0.47
0.00 0.00 0.00 0.00 0.01 0.00 0.01 0.09 0.11 0.01 0.05 0.22 0.39 0.26 0.25 0.29 0.59 1.26 0.48 0.53 0.77 0.73 0.82 0.81 0.67 0.64 0.58 0.40 0.53 1.23 0.99 1.74 2.79 2.25 1.79 1.30 0.78 0.34 0.19 0.17 0.21 0.15 0.23 0.31 0.27 0.20 0.27 0.37 0.51
0.00 0.00 0.00 0.00 0.00 0.00 0.00 0.18 0.02 0.11 0.13 0.30 0.94 0.29 0.16 0.19 0.16 0.42 0.54 0.43 0.73 0.72 0.90 0.66 0.63 0.65 0.53 0.38 0.39 0.87 0.88 1.00 2.11 1.72 1.22 1.33 0.64 0.29 0.24 0.25 0.16 0.21 0.21 0.23 0.41 0.38 0.34 0.35 0.35
0.00 0.00 0.00 0.04 0.02 0.00 0.02 0.06 0.02 0.16 0.27 0.40 0.34 0.16 0.04 0.04 0.11 0.15 0.28 0.19 0.27 0.53 0.60 0.47 0.69 0.73 0.69 0.48 0.55 0.74 0.84 0.89 1.38 1.13 1.12 1.35 0.70 0.46 0.36 0.30 0.25 0.16 0.18 0.16 0.18 0.32 0.60 0.67 0.52
0.00 0.00 0.00 0.05 0.01 0.00 0.01 0.13 0.25 0.31 0.13 0.33 0.47 0.10 0.03 0.00 0.02 0.03 0.04 0.05 0.16 0.20 0.44 0.64 0.86 1.18 1.11 0.46 0.58 0.67 0.72 0.80 1.10 0.91 1.01 1.40 0.74 0.47 0.34 0.29 0.28 0.24 0.16 0.12 0.08 0.09 0.29 0.48 0.42
0.00 0.00 0.00 0.00 0.00 0.00 0.00 0.00 0.03 0.15 0.27 0.39 0.29 0.04 0.00 0.00 0.01 0.02 0.02 0.02 0.08 0.18 0.30 0.59 0.92 1.09 1.33 1.20 1.45 1.22 0.87 0.75 0.84 0.76 0.87 1.49 0.96 0.67 0.31 0.23 0.24 0.21 0.16 0.08 0.03 0.07 0.06 0.18 0.24
0.00 0.00 0.00 0.00 0.00 0.00 0.00 0.00 0.00 0.02 0.06 0.06 0.05 0.02 0.01 0.00 0.00 0.00 0.01 0.03 0.04 0.07 0.29 0.67 1.07 1.58 2.74 1.92 1.10 0.63 0.64 0.69 0.72 0.82 0.84 1.41 0.91 0.79 0.79 0.43 0.31 0.26 0.16 0.08 0.02 0.05 0.06 0.03 0.07
0.00 0.00 0.00 0.00 0.00 0.00 0.00 0.00 0.00 0.00 0.01 0.03 0.04 0.03 0.01 0.00 0.00 0.01 0.01 0.04 0.03 0.16 0.49 0.75 0.83 0.94 0.82 0.38 0.34 0.35 0.49 0.73 0.84 0.90 0.74 1.37 1.14 0.72 0.90 0.98 0.46 0.39 0.18 0.06 0.03 0.06 0.07 0.07 0.05
0.00 0.00 0.00 0.00 0.00 0.00 0.00 0.00 0.00 0.00 0.00 0.00 0.01 0.01 0.00 0.00 0.00 0.01 0.05 0.11 0.18 0.33 0.37 0.23 0.09 0.06 0.10 0.11 0.15 0.17 0.21 0.45 0.55 1.15 0.83 1.00 1.15 0.50 0.47 0.68 0.61 0.44 0.21 0.12 0.09 0.10 0.09 0.08 0.05
0.00 0.00 0.00 0.00 0.00 0.00 0.00 0.00 0.00 0.00 0.01 0.01 0.01 0.00 0.00 0.00 0.00 0.04 0.06 0.07 0.06 0.04 0.10 0.05 0.04 0.03 0.03 0.06 0.09 0.17 0.18 0.31 0.55 1.21 1.27 0.87 1.13 0.68 0.38 0.52 0.54 0.48 0.33 0.23 0.09 0.09 0.10 0.07 0.07
0.01 0.00 0.00 0.00 0.00 0.02 0.00 0.00 0.01 0.00 0.00 0.00 0.01 0.01 0.01 0.00 0.01 0.01 0.01 0.02 0.01 0.07 0.03 0.06 0.10 0.05 0.05 0.03 0.04 0.07 0.10 0.15 0.28 0.62 0.88 0.95 0.95 0.83 0.58 0.61 0.62 0.59 0.38 0.28 0.16 0.16 0.18 0.17 0.13
0.01 0.00 0.00 0.00 0.00 0.01 0.02 0.00 0.02 0.00 0.00 0.00 0.00 0.01 0.01 0.01 0.01 0.05 0.10 0.04 0.03 0.04 0.06 0.10 0.09 0.11 0.12 0.07 0.08 0.09 0.10 0.18 0.21 0.39 0.89 1.02 1.09 1.27 1.05 0.94 1.03 0.80 0.67 0.40 0.29 0.29 0.33 0.23 0.16
0.00 0.00 0.00 0.00 0.00 0.00 0.01 0.02 0.01 0.01 0.01 0.04 0.08 0.05 0.02 0.04 0.21 0.35 0.18 0.04 0.02 0.06 0.04 0.08 0.12 0.16 0.19 0.18 0.14 0.18 0.24 0.18 0.18 0.31 0.85 1.11 1.17 1.14 1.23 1.68 1.72 1.48 0.99 0.78 0.49 0.46 0.43 0.33 0.26
0.00 0.02 0.06 0.13 0.05 0.02 0.05 0.05 0.03 0.00 0.01 0.09 0.12 0.03 0.05 0.19 0.50 0.19 0.17 0.10 0.09 0.12 0.12 0.17 0.17 0.20 0.21 0.19 0.28 0.22 0.19 0.17 0.15 0.18 0.27 0.79 1.36 1.42 1.15 1.26 1.77 1.82 1.57 0.94 0.73 0.58 0.54 0.53 0.65
0.02 0.03 0.24 0.36 0.09 0.07 0.06 0.02 0.01 0.01 0.04 0.09 0.13 0.09 0.16 0.30 0.32 0.22 0.20 0.15 0.16 0.15 0.19 0.34 0.34 0.27 0.27 0.27 0.32 0.32 0.21 0.21 0.24 0.21 0.23 0.24 0.68 1.31 1.95 1.57 1.40 1.60 1.41 1.46 1.29 1.30 1.23 1.21 1.32
0.12 0.08 0.08 0.31 0.08 0.09 0.01 0.00 0.00 0.01 0.03 0.06 0.09 0.13 0.28 0.31 0.31 0.40 0.37 0.22 0.17 0.17 0.25 0.38 0.35 0.23 0.29 0.35 0.33 0.36 0.38 0.34 0.32 0.34 0.45 0.45 0.65 1.07 1.97 2.68 2.42 2.24 2.44 2.05 1.93 1.88 1.85 1.70 1.53
0.11 0.10 0.17 0.19 0.17 0.12 0.00 0.01 0.02 0.03 0.03 0.02 0.08 0.21 0.56 0.46 0.40 0.63 0.68 0.44 0.25 0.19 0.33 0.46 0.39 0.34 0.35 0.47 0.49 0.48 0.44 0.50 0.42 0.54 1.00 1.34 0.97 1.27 1.43 2.12 3.02 3.22 3.08 3.13 2.56 2.06 1.89 1.85 1.59
0.15 0.26 0.20 0.25 0.12 0.26 0.17 0.02 0.03 0.07 0.08 0.08 0.26 0.43 0.52 0.81 0.71 0.81 0.92 0.74 0.45 0.31 0.37 0.47 0.54 0.52 0.58 0.69 0.74 0.73 0.85 1.12 1.10 1.11 1.52 1.90 1.60 1.74 2.44 2.33 2.29 2.67 2.66 3.22 3.18 2.33 2.01 1.78 1.61
0.05 0.15 0.15 0.52 0.31 0.13 0.19 0.07 0.01 0.07 0.09 0.14 0.46 0.68 0.70 0.83 1.02 1.14 1.05 0.78 0.62 0.51 0.38 0.29 0.49 0.79 0.70 0.79 1.01 0.95 1.08 1.50 1.92 2.03 2.22 2.94 3.33 2.70 2.76 2.62 2.03 1.90 1.92 2.16 2.89 2.61 1.91 1.49 1.26

GFSSGP_prec_precacc_150.txt.gz
Total_Precipitation_Accumulation
0.00 0.00 0.00 0.00 0.00 0.00 0.00 0.00 0.00 0.05 0.11 0.16 0.13 0.21 0.19 0.22 0.84 1.30 1.00 1.68 1.99 1.19 1.00 0.80 0.68 0.22 0.14 0.32 0.11 0.04 0.04 0.04 0.02 0.02 0.03 0.16 0.20 0.20 0.27 0.45 0.44 0.58 0.56 0.39 0.31 0.47 0.77 0.80 0.61
0.00 0.00 0.00 0.00 0.00 0.00 0.00 0.00 0.02 0.10 0.36 0.55 0.37 0.34 0.25 0.35 0.64 0.97 0.96 1.28 1.51 0.95 1.22 0.91 1.05 1.11 0.52 0.42 0.21 0.14 0.07 0.02 0.01 0.11 0.13 0.31 0.23 0.35 0.88 1.14 1.05 0.85 0.76 0.49 0.42 0.49 1.35 1.05 0.85
0.00 0.00 0.00 0.00 0.00 0.00 0.00 0.01 0.02 0.05 0.21 0.23 0.24 0.27 0.36 0.47 0.46 0.61 0.72 0.64 0.97 0.93 0.58 0.94 1.10 0.97 0.77 0.45 0.26 0.40 0.46 0.32 0.07 0.08 0.27 0.43 0.64 1.40 2.37 2.61 1.59 1.67 1.55 1.05 0.80 0.60 0.98 1.18 0.84
0.00 0.00 0.00 0.00 0.00 0.00 0.00 0.00 0.02 0.08 0.14 0.18 0.20 0.67 0.40 0.49 0.59 0.72 0.74 0.90 1.58 1.21 1.41 2.05 1.79 1.51 0.84 0.62 0.82 1.07 1.06 0.81 0.56 0.48 0.70 0.98 1.49 2.43 2.40 1.57 1.36 1.74 2.96 1.56 1.10 0.62 0.34 0.29 0.58
0.00 0.00 0.00 0.00 0.00 0.01 0.01 0.05 0.18 0.22 0.21 0.51 0.22 0.70 0.86 0.43 0.35 0.62 1.26 2.27 3.38 2.60 2.46 3.18 4.32 3.80 2.88 1.90 1.41 1.43 1.64 1.34 1.36 1.76 1.81 1.85 1.82 2.49 1.41 0.69 1.06 2.43 2.32 1.05 0.91 0.54 0.30 0.45 0.21
0.00 0.00 0.00 0.00 0.00 0.01 0.04 0.16 0.24 0.32 0.21 0.26 0.33 0.61 0.69 0.32 0.40 0.80 1.81 3.39 6.23 6.22 5.28 5.61 6.69 5.82 4.58 3.52 2.31 2.32 2.14 1.88 1.91 1.66 2.13 2.45 1.34 1.10 0.75 0.40 0.42 0.62 0.54 0.56 0.47 0.22 0.27 0.43 0.27
0.00 0.00 0.00 0.00 0.00 0.00 0.04 0.30 0.47 0.35 0.16 0.20 0.22 0.29 0.93 0.71 0.64 1.36 1.46 2.44 2.54 4.44 5.85 6.89 7.53 8.33 7.50 4.24 3.28 3.30 3.37 2.92 2.39 2.16 1.95 2.16 1.61 1.24 0.94 0.41 0.30 0.23 0.17 0.30 0.37 0.28 0.36 0.41 0.42
0.00 0.00 0.00 0.00 0.00 0.03 0.10 0.11 0.15 0.08 0.10 0.21 0.16 0.80 1.24 1.02 0.64 0.85 1.08 1.79 2.04 2.47 3.24 3.59 3.73 7.19 11.78 7.99 5.02 4.13 3.79 3.59 2.59 2.39 1.75 1.31 1.54 1.53 1.37 0.55 0.26 0.21 0.16 0.31 0.56 0.65 0.70 0.50 0.52
0.00 0.00 0.00 0.01 0.02 0.18 0.25 0.17 0.26 0.11 0.01 0.04 0.21 1.07 0.42 0.22 0.31 0.49 0.93 1.88 2.77 2.72 2.37 1.88 2.60 3.39 5.97 9.68 6.52 5.17 4.19 2.77 2.60 2.23 1.68 1.18 0.95 0.88 0.82 0.47 0.29 0.25 0.26 0.45 0.76 0.73 0.80 0.98 0.68
0.00 0.00 0.00 0.03 0.08 0.25 0.33 0.04 0.18 0.07 0.03 0.19 0.63 1.02 0.34 0.21 0.24 0.38 0.89 1.51 1.86 1.93 2.26 1.84 1.28 1.36 2.04 4.47 4.27 4.56 4.57 2.70 2.16 1.79 1.29 1.13 0.94 0.55 0.40 0.28 0.24 0.40 0.34 0.39 0.48 0.69 0.86 0.78 0.38
0.00 0.00 0.00 0.00 0.06 0.10 0.29 0.01 0.05 0.03 0.06 0.42 0.46 0.60 0.36 0.34 0.35 0.47 0.59 0.83 0.88 1.33 1.64 1.27 1.16 0.94 1.13 2.23 1.95 2.41 3.12 3.35 2.29 1.98 1.23 1.22 0.85 0.53 0.49 0.29 0.31 0.62 0.40 0.16 0.20 0.35 0.46 0.43 0.39
0.00 0.00 0.00 0.00 0.00 0.00 0.00 0.07 0.15 0.09 0.10 0.21 0.45 0.47 0.33 0.41 0.53 0.49 0.64 0.48 0.50 0.70 0.89 0.91 0.51 0.66 1.01 1.01 1.24 1.52 1.51 3.12 2.86 2.19 1.65 1.34 0.86 0.38 0.32 0.23 0.23 0.21 0.38 0.18 0.11 0.16 0.23 0.37 0.47
0.00 0.00 0.00 0.00 0.01 0.00 0.01 0.09 0.11 0.01 0.05 0.22 0.39 0.26 0.25 0.29 0.59 1.26 0.48 0.53 0.77 0.73 0.82 0.81 0.67 0.64 0.58 0.40 0.53 1.23 1.01 1.78 2.84 2.27 1.79 1.31 0.78 0.34 0.19 0.17 0.21 0.15 0.23 0.31 0.27 0.20 0.27 0.37 0.51
0.00 0.00 0.00 0.00 0.00 0.00 0.00 0.18 0.02 0.11 0.13 0.30 0.94 0.29 0.16 0.19 0.16 0.42 0.54 0.43 0.73 0.72 0.90 0.66 0.63 0.65 0.53 0.38 0.39 0.87 0.88 1.01 2.12 1.75 1.24 1.34 0.65 0.29 0.24 0.25 0.16 0.21 0.21 0.23 0.41 0.38 0.34 0.35 0.35
0.00 0.00 0.00 0.04 0.02 0.00 0.02 0.06 0.02 0.16 0.27 0.40 0.34 0.16 0.04 0.04 0.11 0.15 0.28 0.19 0.27 0.53 0.60 0.47 0.69 0.73 0.69 0.48 0.55 0.74 0.84 0.89 1.38 1.14 1.14 1.37 0.72 0.47 0.37 0.30 0.25 0.16 0.18 0.16 0.18 0.32 0.60 0.67 0.52
0.00 0.00 0.00 0.05 0.01 0.00 0.01 0.13 0.25 0.31 0.13 0.33 0.47 0.10 0.03 0.00 0.02 0.03 0.04 0.05 0.16 0.20 0.44 0.64 0.86 1.18 1.11 0.46 0.58 0.67 0.72 0.80 1.10 0.91 1.01 1.41 0.78 0.50 0.36 0.29 0.28 0.24 0.16 0.12 0.08 0.09 0.29 0.48 0.42
0.00 0.00 0.00 0.00 0.00 0.00 0.00 0.00 0.03 0.15 0.27 0.39 0.29 0.04 0.00 0.00 0.01 0.02 0.02 0.02 0.08 0.18 0.30 0.59 0.92 1.09 1.33 1.20 1.45 1.22 0.87 0.75 0.84 0.76 0.87 1.49 0.99 0.73 0.38 0.25 0.25 0.21 0.16 0.08 0.03 0.07 0.07 0.18 0.25
0.00 0.00 0.00 0.00 0.00 0.00 0.00 0.00 0.00 0.02 0.06 0.06 0.05 0.02 0.01 0.00 0.00 0.00 0.01 0.03 0.04 0.07 0.29 0.67 1.07 1.58 2.74 1.92 1.10 0.63 0.64 0.69 0.72 0.82 0.84 1.41 0.92 0.86 0.88 0.48 0.35 0.28 0.16 0.08 0.02 0.05 0.06 0.03 0.08
0.00 0.00 0.00 0.00 0.00 0.00 0.00 0.00 0.00 0.00 0.01 0.03 0.04 0.03 0.01 0.00 0.00 0.01 0.01 0.04 0.03 0.16 0.49 0.75 0.83 0.94 0.82 0.38 0.34 0.35 0.49 0.73 0.84 0.90 0.74 1.37 1.14 0.73 0.97 1.06 0.55 0.47 0.20 0.07 0.03 0.06 0.07 0.07 0.05
0.00 0.00 0.00 0.00 0.00 0.00 0.00 0.00 0.00 0.00 0.00 0.00 0.01 0.01 0.00 0.00 0.00 0.01 0.05 0.11 0.18 0.33 0.37 0.23 0.09 0.06 0.10 0.11 0.15 0.17 0.21 0.45 0.55 1.15 0.83 1.00 1.15 0.50 0.49 0.79 0.74 0.59 0.33 0.18 0.09 0.10 0.09 0.08 0.05
0.00 0.00 0.00 0.00 0.00 0.00 0.00 0.00 0.00 0.00 0.01 0.01 0.01 0.00 0.00 0.00 0.00 0.04 0.06 0.07 0.06 0.04 0.10 0.05 0.04 0.03 0.03 0.06 0.09 0.17 0.18 0.31 0.55 1.21 1.27 0.87 1.13 0.68 0.38 0.56 0.70 0.69 0.54 0.34 0.10 0.10 0.10 0.07 0.07
0.01 0.00 0.00 0.00 0.00 0.02 0.00 0.00 0.01 0.00 0.00 0.00 0.01 0.01 0.01 0.00 0.01 0.01 0.01 0.02 0.01 0.07 0.03 0.06 0.10 0.05 0.05 0.03 0.04 0.07 0.10 0.15 0.28 0.62 0.88 0.95 0.95 0.83 0.58 0.61 0.67 0.76 0.55 0.41 0.20 0.17 0.18 0.18 0.14
0.01 0.00 0.00 0.00 0.00 0.01 0.02 0.00 0.02 0.00 0.00 0.00 0.00 0.01 0.01 0.01 0.01 0.05 0.10 0.04 0.03 0.04 0.06 0.10 0.09 0.11 0.12 0.07 0.08 0.09 0.10 0.18 0.21 0.39 0.89 1.02 1.09 1.27 1.05 0.94 1.03 0.86 0.85 0.57 0.43 0.34 0.35 0.24 0.17
0.00 0.00 0.00 0.00 0.00 0.00 0.01 0.02 0.01 0.01 0.01 0.04 0.08 0.05 0.02 0.04 0.21 0.35 0.18 0.04 0.02 0.06 0.04 0.08 0.12 0.16 0.19 0.18 0.14 0.18 0.24 0.18 0.18 0.31 0.85 1.11 1.17 1.14 1.23 1.68 1.72 1.50 1.30 1.29 0.95 0.68 0.47 0.35 0.27
0.00 0.02 0.06 0.13 0.05 0.02 0.05 0.05 0.03 0.00 0.01 0.09 0.12 0.03 0.05 0.19 0.50 0.19 0.17 0.10 0.09 0.12 0.12 0.17 0.17 0.20 0.21 0.19 0.28 0.22 0.19 0.17 0.15 0.19 0.28 0.80 1.36 1.42 1.15 1.26 1.78 1.82 1.66 1.56 1.45 1.44 0.96 0.64 0.70
0.02 0.03 0.24 0.36 0.09 0.07 0.06 0.02 0.01 0.01 0.04 0.09 0.13 0.09 0.16 0.30 0.32 0.22 0.20 0.15 0.16 0.15 0.19 0.34 0.34 0.27 0.27 0.27 0.32 0.32 0.21 0.22 0.25 0.21 0.24 0.25 0.69 1.31 1.95 1.58 1.41 1.61 1.41 1.74 1.98 1.96 2.01 1.52 1.41
0.12 0.08 0.08 0.31 0.08 0.09 0.01 0.00 0.00 0.01 0.03 0.06 0.09 0.13 0.28 0.31 0.31 0.40 0.37 0.22 0.17 0.17 0.25 0.38 0.35 0.23 0.29 0.35 0.34 0.37 0.39 0.34 0.33 0.35 0.47 0.48 0.67 1.08 1.97 2.68 2.44 2.27 2.45 2.07 2.31 2.46 2.28 2.17 1.72
0.11 0.10 0.17 0.19 0.17 0.12 0.00 0.01 0.02 0.03 0.03 0.02 0.08 0.21 0.56 0.46 0.40 0.63 0.68 0.44 0.25 0.19 0.33 0.46 0.39 0.34 0.35 0.48 0.50 0.53 0.47 0.53 0.47 0.59 1.04 1.38 1.04 1.32 1.45 2.13 3.03 3.25 3.12 3.16 2.86 2.76 2.40 2.28 1.89
0.15 0.26 0.20 0.25 0.12 0.26 0.17 0.02 0.03 0.07 0.08 0.08 0.26 0.43 0.52 0.81 0.71 0.81 0.92 0.74 0.45 0.31 0.37 0.47 0.54 0.52 0.58 0.69 0.75 0.76 0.87 1.17 1.21 1.20 1.71 1.97 1.62 1.76 2.47 2.34 2.30 2.69 2.74 3.28 3.31 2.85 2.58 2.34 2.04
0.05 0.15 0.15 0.52 0.31 0.13 0.19 0.07 0.01 0.07 0.09 0.14 0.46 0.68 0.70 0.83 1.02 1.14 1.05 0.78 0.62 0.51 0.38 0.29 0.49 0.79 0.70 0.79 1.01 0.96 1.10 1.56 2.03 2.20 2.35 3.05 3.37 2.72 2.77 2.62 2.03 1.91 1.93 2.19 3.02 2.89 2.36 2.14 1.83